<?xml version="1.0" encoding="UTF-8" standalone="no" ?>
<gpx xmlns="http://www.topografix.com/GPX/1/1" xmlns:xsi="http://www.w3.org/2001/XMLSchema-instance" xsi:schemaLocation="http://www.topografix.com/GPX/1/1 http://www.topografix.com/GPX/1/1/gpx.xsd" version="1.1" creator="VisuGPX - https://www.visugpx.com">
  <metadata>
    <name>Moselle - Jour 6: Trier - Bernkastel</name>
  </metadata>
  <trk>
    <name><![CDATA[Moselle - Jour 6: Trier - Bernkastel]]></name>
    <extensions>
      <line xmlns="http://www.topografix.com/GPX/gpx_style/0/2">
        <color>0000FF</color>
        <width>4</width>
      </line>
    </extensions>
    <trkseg>
      <trkpt lat="49.77287" lon="6.66441">
        <ele>132.62916</ele>
        <time>2022-08-24T06:53:23.000Z</time>
      </trkpt>
      <trkpt lat="49.77288" lon="6.66441">
        <ele>132.62916</ele>
        <time>2022-08-24T06:53:24.000Z</time>
      </trkpt>
      <trkpt lat="49.77289" lon="6.66442">
        <ele>132.62916</ele>
        <time>2022-08-24T06:53:28.000Z</time>
      </trkpt>
      <trkpt lat="49.77289" lon="6.66447">
        <ele>132.62916</ele>
        <time>2022-08-24T06:53:42.000Z</time>
      </trkpt>
      <trkpt lat="49.77289" lon="6.66452">
        <ele>132.62916</ele>
        <time>2022-08-24T06:53:44.000Z</time>
      </trkpt>
      <trkpt lat="49.77292" lon="6.6646">
        <ele>132.62916</ele>
        <time>2022-08-24T06:53:49.000Z</time>
      </trkpt>
      <trkpt lat="49.77294" lon="6.66461">
        <ele>132.62916</ele>
        <time>2022-08-24T06:53:51.000Z</time>
      </trkpt>
      <trkpt lat="49.77295" lon="6.66462">
        <ele>132.62916</ele>
        <time>2022-08-24T06:53:57.000Z</time>
      </trkpt>
      <trkpt lat="49.77297" lon="6.66464">
        <ele>132.62916</ele>
        <time>2022-08-24T06:54:03.000Z</time>
      </trkpt>
      <trkpt lat="49.77298" lon="6.66464">
        <ele>132.62916</ele>
        <time>2022-08-24T06:54:05.000Z</time>
      </trkpt>
      <trkpt lat="49.77299" lon="6.66464">
        <ele>132.62916</ele>
        <time>2022-08-24T06:54:22.000Z</time>
      </trkpt>
      <trkpt lat="49.77304" lon="6.66472">
        <ele>132.62916</ele>
        <time>2022-08-24T06:54:51.000Z</time>
      </trkpt>
      <trkpt lat="49.77304" lon="6.66484">
        <ele>132.62916</ele>
        <time>2022-08-24T06:54:55.000Z</time>
      </trkpt>
      <trkpt lat="49.77305" lon="6.66493">
        <ele>132.62916</ele>
        <time>2022-08-24T06:54:57.000Z</time>
      </trkpt>
      <trkpt lat="49.77309" lon="6.66534">
        <ele>132.62916</ele>
        <time>2022-08-24T06:55:04.000Z</time>
      </trkpt>
      <trkpt lat="49.77316" lon="6.66573">
        <ele>132.648639</ele>
        <time>2022-08-24T06:55:11.000Z</time>
      </trkpt>
      <trkpt lat="49.77322" lon="6.6658">
        <ele>132.681116</ele>
        <time>2022-08-24T06:55:14.000Z</time>
      </trkpt>
      <trkpt lat="49.77324" lon="6.66583">
        <ele>132.692803</ele>
        <time>2022-08-24T06:55:15.000Z</time>
      </trkpt>
      <trkpt lat="49.77332" lon="6.66602">
        <ele>132.750972</ele>
        <time>2022-08-24T06:55:20.000Z</time>
      </trkpt>
      <trkpt lat="49.77337" lon="6.66599">
        <ele>132.773845</ele>
        <time>2022-08-24T06:55:23.000Z</time>
      </trkpt>
      <trkpt lat="49.77338" lon="6.66597">
        <ele>132.779792</ele>
        <time>2022-08-24T06:55:25.000Z</time>
      </trkpt>
      <trkpt lat="49.77339" lon="6.66596">
        <ele>132.783095</ele>
        <time>2022-08-24T06:55:27.000Z</time>
      </trkpt>
      <trkpt lat="49.7734" lon="6.66596">
        <ele>132.789132</ele>
        <time>2022-08-24T06:55:31.000Z</time>
      </trkpt>
      <trkpt lat="49.77342" lon="6.66598">
        <ele>132.799452</ele>
        <time>2022-08-24T06:55:34.000Z</time>
      </trkpt>
      <trkpt lat="49.77344" lon="6.66615">
        <ele>132.844194</ele>
        <time>2022-08-24T06:55:38.000Z</time>
      </trkpt>
      <trkpt lat="49.77337" lon="6.66635">
        <ele>132.904205</ele>
        <time>2022-08-24T06:55:43.000Z</time>
      </trkpt>
      <trkpt lat="49.77331" lon="6.66638">
        <ele>132.927391</ele>
        <time>2022-08-24T06:55:45.000Z</time>
      </trkpt>
      <trkpt lat="49.77325" lon="6.66636">
        <ele>132.95122</ele>
        <time>2022-08-24T06:55:47.000Z</time>
      </trkpt>
      <trkpt lat="49.77318" lon="6.66635">
        <ele>132.982032</ele>
        <time>2022-08-24T06:55:50.000Z</time>
      </trkpt>
      <trkpt lat="49.77315" lon="6.66639">
        <ele>132.994421</ele>
        <time>2022-08-24T06:55:52.000Z</time>
      </trkpt>
      <trkpt lat="49.77316" lon="6.66658">
        <ele>133.045361</ele>
        <time>2022-08-24T06:55:57.000Z</time>
      </trkpt>
      <trkpt lat="49.77316" lon="6.66696">
        <ele>133.145461</ele>
        <time>2022-08-24T06:56:04.000Z</time>
      </trkpt>
      <trkpt lat="49.77317" lon="6.66719">
        <ele>133.204665</ele>
        <time>2022-08-24T06:56:08.000Z</time>
      </trkpt>
      <trkpt lat="49.7732" lon="6.66751">
        <ele>133.289206</ele>
        <time>2022-08-24T06:56:13.000Z</time>
      </trkpt>
      <trkpt lat="49.77323" lon="6.66807">
        <ele>133.395294</ele>
        <time>2022-08-24T06:56:21.000Z</time>
      </trkpt>
      <trkpt lat="49.77328" lon="6.66855">
        <ele>133.456589</ele>
        <time>2022-08-24T06:56:29.000Z</time>
      </trkpt>
      <trkpt lat="49.77325" lon="6.66864">
        <ele>133.469042</ele>
        <time>2022-08-24T06:56:31.000Z</time>
      </trkpt>
      <trkpt lat="49.77322" lon="6.66866">
        <ele>133.474503</ele>
        <time>2022-08-24T06:56:32.000Z</time>
      </trkpt>
      <trkpt lat="49.77321" lon="6.66867">
        <ele>133.477238</ele>
        <time>2022-08-24T06:56:33.000Z</time>
      </trkpt>
      <trkpt lat="49.77319" lon="6.6687">
        <ele>133.483831</ele>
        <time>2022-08-24T06:56:35.000Z</time>
      </trkpt>
      <trkpt lat="49.77318" lon="6.66872">
        <ele>133.486003</ele>
        <time>2022-08-24T06:56:36.000Z</time>
      </trkpt>
      <trkpt lat="49.77318" lon="6.6688">
        <ele>133.496269</ele>
        <time>2022-08-24T06:56:38.000Z</time>
      </trkpt>
      <trkpt lat="49.7729" lon="6.66889">
        <ele>133.553788</ele>
        <time>2022-08-24T06:56:42.000Z</time>
      </trkpt>
      <trkpt lat="49.77285" lon="6.66889">
        <ele>133.563828</ele>
        <time>2022-08-24T06:56:43.000Z</time>
      </trkpt>
      <trkpt lat="49.77276" lon="6.66895">
        <ele>133.581254</ele>
        <time>2022-08-24T06:56:44.000Z</time>
      </trkpt>
      <trkpt lat="49.77267" lon="6.66888">
        <ele>133.60152</ele>
        <time>2022-08-24T06:56:48.000Z</time>
      </trkpt>
      <trkpt lat="49.77268" lon="6.66897">
        <ele>133.612925</ele>
        <time>2022-08-24T06:56:50.000Z</time>
      </trkpt>
      <trkpt lat="49.7727" lon="6.66902">
        <ele>133.620037</ele>
        <time>2022-08-24T06:56:51.000Z</time>
      </trkpt>
      <trkpt lat="49.77284" lon="6.66952">
        <ele>133.689568</ele>
        <time>2022-08-24T06:57:00.000Z</time>
      </trkpt>
      <trkpt lat="49.77299" lon="6.66991">
        <ele>133.720176</ele>
        <time>2022-08-24T06:57:06.000Z</time>
      </trkpt>
      <trkpt lat="49.77313" lon="6.67029">
        <ele>133.736171</ele>
        <time>2022-08-24T06:57:12.000Z</time>
      </trkpt>
      <trkpt lat="49.77316" lon="6.67037">
        <ele>133.739448</ele>
        <time>2022-08-24T06:57:13.000Z</time>
      </trkpt>
      <trkpt lat="49.77318" lon="6.67043">
        <ele>133.742228</ele>
        <time>2022-08-24T06:57:14.000Z</time>
      </trkpt>
      <trkpt lat="49.77325" lon="6.67063">
        <ele>133.750624</ele>
        <time>2022-08-24T06:57:17.000Z</time>
      </trkpt>
      <trkpt lat="49.77332" lon="6.67083">
        <ele>133.758974</ele>
        <time>2022-08-24T06:57:20.000Z</time>
      </trkpt>
      <trkpt lat="49.77337" lon="6.67095">
        <ele>133.764257</ele>
        <time>2022-08-24T06:57:22.000Z</time>
      </trkpt>
      <trkpt lat="49.7735" lon="6.67132">
        <ele>133.779725</ele>
        <time>2022-08-24T06:57:27.000Z</time>
      </trkpt>
      <trkpt lat="49.77355" lon="6.67146">
        <ele>133.785703</ele>
        <time>2022-08-24T06:57:29.000Z</time>
      </trkpt>
      <trkpt lat="49.7736" lon="6.67161">
        <ele>133.791778</ele>
        <time>2022-08-24T06:57:31.000Z</time>
      </trkpt>
      <trkpt lat="49.77382" lon="6.67222">
        <ele>133.815313</ele>
        <time>2022-08-24T06:57:40.000Z</time>
      </trkpt>
      <trkpt lat="49.77396" lon="6.67264">
        <ele>133.826441</ele>
        <time>2022-08-24T06:57:46.000Z</time>
      </trkpt>
      <trkpt lat="49.77398" lon="6.67271">
        <ele>133.828327</ele>
        <time>2022-08-24T06:57:47.000Z</time>
      </trkpt>
      <trkpt lat="49.77403" lon="6.67285">
        <ele>133.832036</ele>
        <time>2022-08-24T06:57:49.000Z</time>
      </trkpt>
      <trkpt lat="49.77408" lon="6.67299">
        <ele>133.835737</ele>
        <time>2022-08-24T06:57:51.000Z</time>
      </trkpt>
      <trkpt lat="49.7741" lon="6.67306">
        <ele>133.837619</ele>
        <time>2022-08-24T06:57:52.000Z</time>
      </trkpt>
      <trkpt lat="49.77417" lon="6.67329">
        <ele>133.84361</ele>
        <time>2022-08-24T06:57:55.000Z</time>
      </trkpt>
      <trkpt lat="49.77421" lon="6.67343">
        <ele>133.847083</ele>
        <time>2022-08-24T06:57:57.000Z</time>
      </trkpt>
      <trkpt lat="49.77423" lon="6.6735">
        <ele>133.848945</ele>
        <time>2022-08-24T06:57:58.000Z</time>
      </trkpt>
      <trkpt lat="49.7743" lon="6.67372">
        <ele>133.85461</ele>
        <time>2022-08-24T06:58:01.000Z</time>
      </trkpt>
      <trkpt lat="49.77434" lon="6.67387">
        <ele>133.858435</ele>
        <time>2022-08-24T06:58:03.000Z</time>
      </trkpt>
      <trkpt lat="49.77438" lon="6.67402">
        <ele>133.862432</ele>
        <time>2022-08-24T06:58:05.000Z</time>
      </trkpt>
      <trkpt lat="49.77441" lon="6.67411">
        <ele>133.864742</ele>
        <time>2022-08-24T06:58:06.000Z</time>
      </trkpt>
      <trkpt lat="49.77447" lon="6.67425">
        <ele>133.868571</ele>
        <time>2022-08-24T06:58:08.000Z</time>
      </trkpt>
      <trkpt lat="49.77463" lon="6.6748">
        <ele>133.860759</ele>
        <time>2022-08-24T06:58:16.000Z</time>
      </trkpt>
      <trkpt lat="49.7748" lon="6.67537">
        <ele>133.817623</ele>
        <time>2022-08-24T06:58:25.000Z</time>
      </trkpt>
      <trkpt lat="49.77499" lon="6.67597">
        <ele>133.770733</ele>
        <time>2022-08-24T06:58:34.000Z</time>
      </trkpt>
      <trkpt lat="49.77505" lon="6.67623">
        <ele>133.751598</ele>
        <time>2022-08-24T06:58:38.000Z</time>
      </trkpt>
      <trkpt lat="49.77504" lon="6.67629">
        <ele>133.747329</ele>
        <time>2022-08-24T06:58:39.000Z</time>
      </trkpt>
      <trkpt lat="49.77502" lon="6.67634">
        <ele>133.743187</ele>
        <time>2022-08-24T06:58:40.000Z</time>
      </trkpt>
      <trkpt lat="49.775" lon="6.67647">
        <ele>133.734307</ele>
        <time>2022-08-24T06:58:42.000Z</time>
      </trkpt>
      <trkpt lat="49.77503" lon="6.67668">
        <ele>133.719195</ele>
        <time>2022-08-24T06:58:45.000Z</time>
      </trkpt>
      <trkpt lat="49.77505" lon="6.67684">
        <ele>133.707871</ele>
        <time>2022-08-24T06:58:47.000Z</time>
      </trkpt>
      <trkpt lat="49.77507" lon="6.67698">
        <ele>133.697751</ele>
        <time>2022-08-24T06:58:49.000Z</time>
      </trkpt>
      <trkpt lat="49.77515" lon="6.67748">
        <ele>133.662223</ele>
        <time>2022-08-24T06:58:56.000Z</time>
      </trkpt>
      <trkpt lat="49.77522" lon="6.67793">
        <ele>133.63039</ele>
        <time>2022-08-24T06:59:02.000Z</time>
      </trkpt>
      <trkpt lat="49.77523" lon="6.67799">
        <ele>133.625389</ele>
        <time>2022-08-24T06:59:03.000Z</time>
      </trkpt>
      <trkpt lat="49.77526" lon="6.67815">
        <ele>133.614018</ele>
        <time>2022-08-24T06:59:05.000Z</time>
      </trkpt>
      <trkpt lat="49.77531" lon="6.67844">
        <ele>133.593309</ele>
        <time>2022-08-24T06:59:09.000Z</time>
      </trkpt>
      <trkpt lat="49.77538" lon="6.6788">
        <ele>133.566826</ele>
        <time>2022-08-24T06:59:14.000Z</time>
      </trkpt>
      <trkpt lat="49.77543" lon="6.67893">
        <ele>133.556625</ele>
        <time>2022-08-24T06:59:16.000Z</time>
      </trkpt>
      <trkpt lat="49.77544" lon="6.67898">
        <ele>133.552875</ele>
        <time>2022-08-24T06:59:17.000Z</time>
      </trkpt>
      <trkpt lat="49.77545" lon="6.67905">
        <ele>133.54793</ele>
        <time>2022-08-24T06:59:18.000Z</time>
      </trkpt>
      <trkpt lat="49.77546" lon="6.67921">
        <ele>133.536888</ele>
        <time>2022-08-24T06:59:20.000Z</time>
      </trkpt>
      <trkpt lat="49.77549" lon="6.67933">
        <ele>133.527917</ele>
        <time>2022-08-24T06:59:22.000Z</time>
      </trkpt>
      <trkpt lat="49.77559" lon="6.67995">
        <ele>133.486942</ele>
        <time>2022-08-24T06:59:30.000Z</time>
      </trkpt>
      <trkpt lat="49.77566" lon="6.68021">
        <ele>133.477159</ele>
        <time>2022-08-24T06:59:34.000Z</time>
      </trkpt>
      <trkpt lat="49.77568" lon="6.68028">
        <ele>133.474644</ele>
        <time>2022-08-24T06:59:35.000Z</time>
      </trkpt>
      <trkpt lat="49.77568" lon="6.68037">
        <ele>133.471568</ele>
        <time>2022-08-24T06:59:36.000Z</time>
      </trkpt>
      <trkpt lat="49.77569" lon="6.6805">
        <ele>133.467057</ele>
        <time>2022-08-24T06:59:38.000Z</time>
      </trkpt>
      <trkpt lat="49.77571" lon="6.68065">
        <ele>133.461845</ele>
        <time>2022-08-24T06:59:40.000Z</time>
      </trkpt>
      <trkpt lat="49.77575" lon="6.68089">
        <ele>133.453196</ele>
        <time>2022-08-24T06:59:43.000Z</time>
      </trkpt>
      <trkpt lat="49.77587" lon="6.68153">
        <ele>133.430039</ele>
        <time>2022-08-24T06:59:52.000Z</time>
      </trkpt>
      <trkpt lat="49.77596" lon="6.68185">
        <ele>133.418035</ele>
        <time>2022-08-24T06:59:57.000Z</time>
      </trkpt>
      <trkpt lat="49.77598" lon="6.68199">
        <ele>133.413012</ele>
        <time>2022-08-24T06:59:59.000Z</time>
      </trkpt>
      <trkpt lat="49.77599" lon="6.68206">
        <ele>133.410562</ele>
        <time>2022-08-24T07:00:00.000Z</time>
      </trkpt>
      <trkpt lat="49.77604" lon="6.68244">
        <ele>133.397119</ele>
        <time>2022-08-24T07:00:05.000Z</time>
      </trkpt>
      <trkpt lat="49.77604" lon="6.68307">
        <ele>133.379048</ele>
        <time>2022-08-24T07:00:13.000Z</time>
      </trkpt>
      <trkpt lat="49.77605" lon="6.68352">
        <ele>133.366459</ele>
        <time>2022-08-24T07:00:20.000Z</time>
      </trkpt>
      <trkpt lat="49.77605" lon="6.68356">
        <ele>133.365363</ele>
        <time>2022-08-24T07:00:21.000Z</time>
      </trkpt>
      <trkpt lat="49.77604" lon="6.68359">
        <ele>133.36432</ele>
        <time>2022-08-24T07:00:22.000Z</time>
      </trkpt>
      <trkpt lat="49.776" lon="6.68362">
        <ele>133.362322</ele>
        <time>2022-08-24T07:00:24.000Z</time>
      </trkpt>
      <trkpt lat="49.77594" lon="6.68367">
        <ele>133.359501</ele>
        <time>2022-08-24T07:00:28.000Z</time>
      </trkpt>
      <trkpt lat="49.77593" lon="6.68371">
        <ele>133.358443</ele>
        <time>2022-08-24T07:00:29.000Z</time>
      </trkpt>
      <trkpt lat="49.77586" lon="6.68387">
        <ele>133.353017</ele>
        <time>2022-08-24T07:00:35.000Z</time>
      </trkpt>
      <trkpt lat="49.77581" lon="6.68389">
        <ele>133.35049</ele>
        <time>2022-08-24T07:00:40.000Z</time>
      </trkpt>
      <trkpt lat="49.77579" lon="6.6839">
        <ele>133.349707</ele>
        <time>2022-08-24T07:00:42.000Z</time>
      </trkpt>
      <trkpt lat="49.77578" lon="6.68389">
        <ele>133.349167</ele>
        <time>2022-08-24T07:00:44.000Z</time>
      </trkpt>
      <trkpt lat="49.77577" lon="6.68389">
        <ele>133.348862</ele>
        <time>2022-08-24T07:00:46.000Z</time>
      </trkpt>
      <trkpt lat="49.7757" lon="6.68389">
        <ele>133.345818</ele>
        <time>2022-08-24T07:00:52.000Z</time>
      </trkpt>
      <trkpt lat="49.77559" lon="6.68392">
        <ele>133.34109</ele>
        <time>2022-08-24T07:00:58.000Z</time>
      </trkpt>
      <trkpt lat="49.77546" lon="6.68393">
        <ele>133.335258</ele>
        <time>2022-08-24T07:01:01.000Z</time>
      </trkpt>
      <trkpt lat="49.77542" lon="6.68393">
        <ele>133.333605</ele>
        <time>2022-08-24T07:01:02.000Z</time>
      </trkpt>
      <trkpt lat="49.77514" lon="6.68391">
        <ele>133.32151</ele>
        <time>2022-08-24T07:01:08.000Z</time>
      </trkpt>
      <trkpt lat="49.77484" lon="6.68383">
        <ele>133.320391</ele>
        <time>2022-08-24T07:01:14.000Z</time>
      </trkpt>
      <trkpt lat="49.77449" lon="6.68374">
        <ele>133.329191</ele>
        <time>2022-08-24T07:01:21.000Z</time>
      </trkpt>
      <trkpt lat="49.77414" lon="6.68361">
        <ele>133.337928</ele>
        <time>2022-08-24T07:01:28.000Z</time>
      </trkpt>
      <trkpt lat="49.77378" lon="6.68343">
        <ele>133.347128</ele>
        <time>2022-08-24T07:01:36.000Z</time>
      </trkpt>
      <trkpt lat="49.77358" lon="6.68333">
        <ele>133.352162</ele>
        <time>2022-08-24T07:01:40.000Z</time>
      </trkpt>
      <trkpt lat="49.77345" lon="6.68326">
        <ele>133.355504</ele>
        <time>2022-08-24T07:01:43.000Z</time>
      </trkpt>
      <trkpt lat="49.77341" lon="6.68323">
        <ele>133.356676</ele>
        <time>2022-08-24T07:01:44.000Z</time>
      </trkpt>
      <trkpt lat="49.77332" lon="6.6832">
        <ele>133.35884</ele>
        <time>2022-08-24T07:01:46.000Z</time>
      </trkpt>
      <trkpt lat="49.77328" lon="6.68321">
        <ele>133.359865</ele>
        <time>2022-08-24T07:01:47.000Z</time>
      </trkpt>
      <trkpt lat="49.77325" lon="6.68325">
        <ele>133.363323</ele>
        <time>2022-08-24T07:01:48.000Z</time>
      </trkpt>
      <trkpt lat="49.77321" lon="6.68326">
        <ele>133.36694</ele>
        <time>2022-08-24T07:01:49.000Z</time>
      </trkpt>
      <trkpt lat="49.77314" lon="6.68358">
        <ele>133.387701</ele>
        <time>2022-08-24T07:01:56.000Z</time>
      </trkpt>
      <trkpt lat="49.77305" lon="6.68359">
        <ele>133.395418</ele>
        <time>2022-08-24T07:01:58.000Z</time>
      </trkpt>
      <trkpt lat="49.77291" lon="6.68343">
        <ele>133.412054</ele>
        <time>2022-08-24T07:02:02.000Z</time>
      </trkpt>
      <trkpt lat="49.77288" lon="6.68339">
        <ele>133.415147</ele>
        <time>2022-08-24T07:02:03.000Z</time>
      </trkpt>
      <trkpt lat="49.77284" lon="6.68334">
        <ele>133.420442</ele>
        <time>2022-08-24T07:02:05.000Z</time>
      </trkpt>
      <trkpt lat="49.77277" lon="6.68338">
        <ele>133.426577</ele>
        <time>2022-08-24T07:02:07.000Z</time>
      </trkpt>
      <trkpt lat="49.77265" lon="6.68353">
        <ele>133.441316</ele>
        <time>2022-08-24T07:02:11.000Z</time>
      </trkpt>
      <trkpt lat="49.77261" lon="6.68358">
        <ele>133.445675</ele>
        <time>2022-08-24T07:02:12.000Z</time>
      </trkpt>
      <trkpt lat="49.77259" lon="6.68364">
        <ele>133.450067</ele>
        <time>2022-08-24T07:02:13.000Z</time>
      </trkpt>
      <trkpt lat="49.77258" lon="6.68378">
        <ele>133.458415</ele>
        <time>2022-08-24T07:02:15.000Z</time>
      </trkpt>
      <trkpt lat="49.77261" lon="6.68444">
        <ele>133.498001</ele>
        <time>2022-08-24T07:02:24.000Z</time>
      </trkpt>
      <trkpt lat="49.77266" lon="6.68507">
        <ele>133.521235</ele>
        <time>2022-08-24T07:02:32.000Z</time>
      </trkpt>
      <trkpt lat="49.77275" lon="6.68551">
        <ele>133.504051</ele>
        <time>2022-08-24T07:02:38.000Z</time>
      </trkpt>
      <trkpt lat="49.77277" lon="6.68559">
        <ele>133.50098</ele>
        <time>2022-08-24T07:02:39.000Z</time>
      </trkpt>
      <trkpt lat="49.77284" lon="6.6859">
        <ele>133.48861</ele>
        <time>2022-08-24T07:02:43.000Z</time>
      </trkpt>
      <trkpt lat="49.77294" lon="6.68627">
        <ele>133.473373</ele>
        <time>2022-08-24T07:02:48.000Z</time>
      </trkpt>
      <trkpt lat="49.77304" lon="6.68656">
        <ele>133.461026</ele>
        <time>2022-08-24T07:02:52.000Z</time>
      </trkpt>
      <trkpt lat="49.77315" lon="6.68693">
        <ele>133.445794</ele>
        <time>2022-08-24T07:02:57.000Z</time>
      </trkpt>
      <trkpt lat="49.77331" lon="6.68752">
        <ele>133.4206</ele>
        <time>2022-08-24T07:03:05.000Z</time>
      </trkpt>
      <trkpt lat="49.77343" lon="6.68794">
        <ele>133.375837</ele>
        <time>2022-08-24T07:03:11.000Z</time>
      </trkpt>
      <trkpt lat="49.77343" lon="6.68801">
        <ele>133.369028</ele>
        <time>2022-08-24T07:03:12.000Z</time>
      </trkpt>
      <trkpt lat="49.77342" lon="6.68807">
        <ele>133.362812</ele>
        <time>2022-08-24T07:03:13.000Z</time>
      </trkpt>
      <trkpt lat="49.77339" lon="6.68817">
        <ele>133.352062</ele>
        <time>2022-08-24T07:03:15.000Z</time>
      </trkpt>
      <trkpt lat="49.77338" lon="6.68822">
        <ele>133.346831</ele>
        <time>2022-08-24T07:03:16.000Z</time>
      </trkpt>
      <trkpt lat="49.77338" lon="6.68832">
        <ele>133.337086</ele>
        <time>2022-08-24T07:03:18.000Z</time>
      </trkpt>
      <trkpt lat="49.77343" lon="6.68854">
        <ele>133.314405</ele>
        <time>2022-08-24T07:03:22.000Z</time>
      </trkpt>
      <trkpt lat="49.77347" lon="6.68867">
        <ele>133.300462</ele>
        <time>2022-08-24T07:03:24.000Z</time>
      </trkpt>
      <trkpt lat="49.77359" lon="6.68904">
        <ele>133.260497</ele>
        <time>2022-08-24T07:03:29.000Z</time>
      </trkpt>
      <trkpt lat="49.77364" lon="6.6892">
        <ele>133.243071</ele>
        <time>2022-08-24T07:03:31.000Z</time>
      </trkpt>
      <trkpt lat="49.77385" lon="6.68993">
        <ele>133.165391</ele>
        <time>2022-08-24T07:03:39.000Z</time>
      </trkpt>
      <trkpt lat="49.77396" lon="6.69027">
        <ele>133.201655</ele>
        <time>2022-08-24T07:03:43.000Z</time>
      </trkpt>
      <trkpt lat="49.77399" lon="6.69035">
        <ele>133.222112</ele>
        <time>2022-08-24T07:03:44.000Z</time>
      </trkpt>
      <trkpt lat="49.77404" lon="6.69052">
        <ele>133.261602</ele>
        <time>2022-08-24T07:03:46.000Z</time>
      </trkpt>
      <trkpt lat="49.77417" lon="6.69092">
        <ele>133.354732</ele>
        <time>2022-08-24T07:03:51.000Z</time>
      </trkpt>
      <trkpt lat="49.77419" lon="6.69099">
        <ele>133.371817</ele>
        <time>2022-08-24T07:03:52.000Z</time>
      </trkpt>
      <trkpt lat="49.77424" lon="6.69114">
        <ele>133.40741</ele>
        <time>2022-08-24T07:03:54.000Z</time>
      </trkpt>
      <trkpt lat="49.77429" lon="6.69129">
        <ele>133.442967</ele>
        <time>2022-08-24T07:03:56.000Z</time>
      </trkpt>
      <trkpt lat="49.77439" lon="6.69159">
        <ele>133.51393</ele>
        <time>2022-08-24T07:04:00.000Z</time>
      </trkpt>
      <trkpt lat="49.7746" lon="6.69218">
        <ele>133.656136</ele>
        <time>2022-08-24T07:04:08.000Z</time>
      </trkpt>
      <trkpt lat="49.77475" lon="6.69253">
        <ele>133.777017</ele>
        <time>2022-08-24T07:04:13.000Z</time>
      </trkpt>
      <trkpt lat="49.77486" lon="6.69282">
        <ele>134.273723</ele>
        <time>2022-08-24T07:04:17.000Z</time>
      </trkpt>
      <trkpt lat="49.7751" lon="6.69336">
        <ele>135.269253</ele>
        <time>2022-08-24T07:04:25.000Z</time>
      </trkpt>
      <trkpt lat="49.77518" lon="6.69356">
        <ele>135.623353</ele>
        <time>2022-08-24T07:04:28.000Z</time>
      </trkpt>
      <trkpt lat="49.7753" lon="6.69383">
        <ele>136.11215</ele>
        <time>2022-08-24T07:04:33.000Z</time>
      </trkpt>
      <trkpt lat="49.77536" lon="6.69398">
        <ele>136.378089</ele>
        <time>2022-08-24T07:04:36.000Z</time>
      </trkpt>
      <trkpt lat="49.77538" lon="6.69403">
        <ele>136.466354</ele>
        <time>2022-08-24T07:04:37.000Z</time>
      </trkpt>
      <trkpt lat="49.77542" lon="6.69412">
        <ele>136.626342</ele>
        <time>2022-08-24T07:04:39.000Z</time>
      </trkpt>
      <trkpt lat="49.77552" lon="6.69435">
        <ele>137.033266</ele>
        <time>2022-08-24T07:04:44.000Z</time>
      </trkpt>
      <trkpt lat="49.7756" lon="6.69451">
        <ele>137.342875</ele>
        <time>2022-08-24T07:04:48.000Z</time>
      </trkpt>
      <trkpt lat="49.77565" lon="6.69463">
        <ele>137.562316</ele>
        <time>2022-08-24T07:04:51.000Z</time>
      </trkpt>
      <trkpt lat="49.77567" lon="6.69467">
        <ele>137.630589</ele>
        <time>2022-08-24T07:04:52.000Z</time>
      </trkpt>
      <trkpt lat="49.77573" lon="6.69481">
        <ele>137.891362</ele>
        <time>2022-08-24T07:04:56.000Z</time>
      </trkpt>
      <trkpt lat="49.77575" lon="6.69488">
        <ele>137.896655</ele>
        <time>2022-08-24T07:04:58.000Z</time>
      </trkpt>
      <trkpt lat="49.77583" lon="6.69507">
        <ele>137.826989</ele>
        <time>2022-08-24T07:05:04.000Z</time>
      </trkpt>
      <trkpt lat="49.77595" lon="6.69527">
        <ele>137.741925</ele>
        <time>2022-08-24T07:05:09.000Z</time>
      </trkpt>
      <trkpt lat="49.776" lon="6.6954">
        <ele>137.694344</ele>
        <time>2022-08-24T07:05:11.000Z</time>
      </trkpt>
      <trkpt lat="49.77604" lon="6.69556">
        <ele>137.64108</ele>
        <time>2022-08-24T07:05:13.000Z</time>
      </trkpt>
      <trkpt lat="49.77624" lon="6.69614">
        <ele>137.438399</ele>
        <time>2022-08-24T07:05:20.000Z</time>
      </trkpt>
      <trkpt lat="49.7765" lon="6.69658">
        <ele>137.25404</ele>
        <time>2022-08-24T07:05:26.000Z</time>
      </trkpt>
      <trkpt lat="49.77655" lon="6.69664">
        <ele>137.22404</ele>
        <time>2022-08-24T07:05:27.000Z</time>
      </trkpt>
      <trkpt lat="49.77687" lon="6.69695">
        <ele>137.037822</ele>
        <time>2022-08-24T07:05:33.000Z</time>
      </trkpt>
      <trkpt lat="49.77691" lon="6.69701">
        <ele>136.986418</ele>
        <time>2022-08-24T07:05:34.000Z</time>
      </trkpt>
      <trkpt lat="49.77696" lon="6.69708">
        <ele>136.935504</ele>
        <time>2022-08-24T07:05:35.000Z</time>
      </trkpt>
      <trkpt lat="49.77713" lon="6.69733">
        <ele>136.73185</ele>
        <time>2022-08-24T07:05:39.000Z</time>
      </trkpt>
      <trkpt lat="49.7773" lon="6.69762">
        <ele>136.520053</ele>
        <time>2022-08-24T07:05:43.000Z</time>
      </trkpt>
      <trkpt lat="49.77735" lon="6.69771">
        <ele>136.454467</ele>
        <time>2022-08-24T07:05:44.000Z</time>
      </trkpt>
      <trkpt lat="49.77745" lon="6.69793">
        <ele>136.304236</ele>
        <time>2022-08-24T07:05:47.000Z</time>
      </trkpt>
      <trkpt lat="49.77771" lon="6.69835">
        <ele>135.987507</ele>
        <time>2022-08-24T07:05:53.000Z</time>
      </trkpt>
      <trkpt lat="49.77788" lon="6.69862">
        <ele>135.783347</ele>
        <time>2022-08-24T07:05:57.000Z</time>
      </trkpt>
      <trkpt lat="49.77798" lon="6.69873">
        <ele>135.678172</ele>
        <time>2022-08-24T07:05:59.000Z</time>
      </trkpt>
      <trkpt lat="49.77821" lon="6.69903">
        <ele>135.435876</ele>
        <time>2022-08-24T07:06:04.000Z</time>
      </trkpt>
      <trkpt lat="49.77834" lon="6.69922">
        <ele>135.299653</ele>
        <time>2022-08-24T07:06:07.000Z</time>
      </trkpt>
      <trkpt lat="49.7785" lon="6.69945">
        <ele>135.138376</ele>
        <time>2022-08-24T07:06:11.000Z</time>
      </trkpt>
      <trkpt lat="49.77858" lon="6.69956">
        <ele>135.061745</ele>
        <time>2022-08-24T07:06:13.000Z</time>
      </trkpt>
      <trkpt lat="49.77864" lon="6.69966">
        <ele>134.995889</ele>
        <time>2022-08-24T07:06:15.000Z</time>
      </trkpt>
      <trkpt lat="49.77865" lon="6.6997">
        <ele>134.976935</ele>
        <time>2022-08-24T07:06:16.000Z</time>
      </trkpt>
      <trkpt lat="49.77867" lon="6.69973">
        <ele>134.957197</ele>
        <time>2022-08-24T07:06:17.000Z</time>
      </trkpt>
      <trkpt lat="49.77868" lon="6.69975">
        <ele>134.941668</ele>
        <time>2022-08-24T07:06:18.000Z</time>
      </trkpt>
      <trkpt lat="49.77873" lon="6.69975">
        <ele>134.903816</ele>
        <time>2022-08-24T07:06:20.000Z</time>
      </trkpt>
      <trkpt lat="49.77879" lon="6.69973">
        <ele>134.860526</ele>
        <time>2022-08-24T07:06:22.000Z</time>
      </trkpt>
      <trkpt lat="49.77885" lon="6.69977">
        <ele>134.814919</ele>
        <time>2022-08-24T07:06:24.000Z</time>
      </trkpt>
      <trkpt lat="49.77892" lon="6.69991">
        <ele>134.725906</ele>
        <time>2022-08-24T07:06:27.000Z</time>
      </trkpt>
      <trkpt lat="49.77898" lon="6.70001">
        <ele>134.660571</ele>
        <time>2022-08-24T07:06:29.000Z</time>
      </trkpt>
      <trkpt lat="49.77915" lon="6.70028">
        <ele>134.481231</ele>
        <time>2022-08-24T07:06:34.000Z</time>
      </trkpt>
      <trkpt lat="49.77922" lon="6.70038">
        <ele>134.408512</ele>
        <time>2022-08-24T07:06:36.000Z</time>
      </trkpt>
      <trkpt lat="49.7794" lon="6.70066">
        <ele>134.22264</ele>
        <time>2022-08-24T07:06:41.000Z</time>
      </trkpt>
      <trkpt lat="49.77954" lon="6.70088">
        <ele>134.214178</ele>
        <time>2022-08-24T07:06:45.000Z</time>
      </trkpt>
      <trkpt lat="49.77976" lon="6.70123">
        <ele>134.254731</ele>
        <time>2022-08-24T07:06:51.000Z</time>
      </trkpt>
      <trkpt lat="49.77983" lon="6.70134">
        <ele>134.26787</ele>
        <time>2022-08-24T07:06:53.000Z</time>
      </trkpt>
      <trkpt lat="49.78018" lon="6.70189">
        <ele>134.332979</ele>
        <time>2022-08-24T07:07:03.000Z</time>
      </trkpt>
      <trkpt lat="49.7806" lon="6.70249">
        <ele>134.407216</ele>
        <time>2022-08-24T07:07:14.000Z</time>
      </trkpt>
      <trkpt lat="49.78068" lon="6.7026">
        <ele>134.42085</ele>
        <time>2022-08-24T07:07:16.000Z</time>
      </trkpt>
      <trkpt lat="49.78105" lon="6.70308">
        <ele>134.504544</ele>
        <time>2022-08-24T07:07:25.000Z</time>
      </trkpt>
      <trkpt lat="49.7814" lon="6.7035">
        <ele>134.581361</ele>
        <time>2022-08-24T07:07:33.000Z</time>
      </trkpt>
      <trkpt lat="49.78149" lon="6.70356">
        <ele>134.600056</ele>
        <time>2022-08-24T07:07:35.000Z</time>
      </trkpt>
      <trkpt lat="49.78163" lon="6.7037">
        <ele>134.629609</ele>
        <time>2022-08-24T07:07:38.000Z</time>
      </trkpt>
      <trkpt lat="49.78171" lon="6.70382">
        <ele>134.648701</ele>
        <time>2022-08-24T07:07:40.000Z</time>
      </trkpt>
      <trkpt lat="49.78188" lon="6.70413">
        <ele>134.695305</ele>
        <time>2022-08-24T07:07:45.000Z</time>
      </trkpt>
      <trkpt lat="49.78206" lon="6.70446">
        <ele>134.744037</ele>
        <time>2022-08-24T07:07:50.000Z</time>
      </trkpt>
      <trkpt lat="49.7821" lon="6.70454">
        <ele>134.736649</ele>
        <time>2022-08-24T07:07:51.000Z</time>
      </trkpt>
      <trkpt lat="49.78235" lon="6.70511">
        <ele>134.679782</ele>
        <time>2022-08-24T07:07:59.000Z</time>
      </trkpt>
      <trkpt lat="49.7825" lon="6.70555">
        <ele>134.638184</ele>
        <time>2022-08-24T07:08:05.000Z</time>
      </trkpt>
      <trkpt lat="49.78252" lon="6.70562">
        <ele>134.631506</ele>
        <time>2022-08-24T07:08:06.000Z</time>
      </trkpt>
      <trkpt lat="49.78259" lon="6.70594">
        <ele>134.60322</ele>
        <time>2022-08-24T07:08:10.000Z</time>
      </trkpt>
      <trkpt lat="49.7827" lon="6.7067">
        <ele>134.539173</ele>
        <time>2022-08-24T07:08:19.000Z</time>
      </trkpt>
      <trkpt lat="49.78281" lon="6.70751">
        <ele>134.298856</ele>
        <time>2022-08-24T07:08:29.000Z</time>
      </trkpt>
      <trkpt lat="49.78284" lon="6.70777">
        <ele>134.190298</ele>
        <time>2022-08-24T07:08:33.000Z</time>
      </trkpt>
      <trkpt lat="49.78287" lon="6.70787">
        <ele>134.145268</ele>
        <time>2022-08-24T07:08:35.000Z</time>
      </trkpt>
      <trkpt lat="49.78296" lon="6.70798">
        <ele>134.069016</ele>
        <time>2022-08-24T07:08:40.000Z</time>
      </trkpt>
      <trkpt lat="49.78303" lon="6.70819">
        <ele>133.973578</ele>
        <time>2022-08-24T07:08:47.000Z</time>
      </trkpt>
      <trkpt lat="49.78306" lon="6.70824">
        <ele>133.945434</ele>
        <time>2022-08-24T07:08:50.000Z</time>
      </trkpt>
      <trkpt lat="49.78307" lon="6.70827">
        <ele>133.931458</ele>
        <time>2022-08-24T07:08:51.000Z</time>
      </trkpt>
      <trkpt lat="49.7831" lon="6.70827">
        <ele>133.916451</ele>
        <time>2022-08-24T07:08:52.000Z</time>
      </trkpt>
      <trkpt lat="49.78319" lon="6.7082">
        <ele>133.847356</ele>
        <time>2022-08-24T07:08:56.000Z</time>
      </trkpt>
      <trkpt lat="49.78321" lon="6.70819">
        <ele>133.833129</ele>
        <time>2022-08-24T07:08:57.000Z</time>
      </trkpt>
      <trkpt lat="49.78328" lon="6.70817">
        <ele>133.791556</ele>
        <time>2022-08-24T07:09:01.000Z</time>
      </trkpt>
      <trkpt lat="49.78329" lon="6.70816">
        <ele>133.780125</ele>
        <time>2022-08-24T07:09:02.000Z</time>
      </trkpt>
      <trkpt lat="49.7833" lon="6.70812">
        <ele>133.764186</ele>
        <time>2022-08-24T07:09:04.000Z</time>
      </trkpt>
      <trkpt lat="49.78329" lon="6.70811">
        <ele>133.756406</ele>
        <time>2022-08-24T07:09:05.000Z</time>
      </trkpt>
      <trkpt lat="49.78325" lon="6.70812">
        <ele>133.73362</ele>
        <time>2022-08-24T07:09:07.000Z</time>
      </trkpt>
      <trkpt lat="49.7832" lon="6.70814">
        <ele>133.697235</ele>
        <time>2022-08-24T07:09:10.000Z</time>
      </trkpt>
      <trkpt lat="49.78309" lon="6.70825">
        <ele>133.613258</ele>
        <time>2022-08-24T07:09:15.000Z</time>
      </trkpt>
      <trkpt lat="49.78309" lon="6.70833">
        <ele>133.581266</ele>
        <time>2022-08-24T07:09:17.000Z</time>
      </trkpt>
      <trkpt lat="49.78311" lon="6.70836">
        <ele>133.564536</ele>
        <time>2022-08-24T07:09:18.000Z</time>
      </trkpt>
      <trkpt lat="49.78326" lon="6.70863">
        <ele>133.417186</ele>
        <time>2022-08-24T07:09:25.000Z</time>
      </trkpt>
      <trkpt lat="49.78342" lon="6.70885">
        <ele>133.496011</ele>
        <time>2022-08-24T07:09:32.000Z</time>
      </trkpt>
      <trkpt lat="49.7836" lon="6.70903">
        <ele>133.718908</ele>
        <time>2022-08-24T07:09:38.000Z</time>
      </trkpt>
      <trkpt lat="49.78381" lon="6.70916">
        <ele>133.947673</ele>
        <time>2022-08-24T07:09:44.000Z</time>
      </trkpt>
      <trkpt lat="49.78383" lon="6.70919">
        <ele>133.980911</ele>
        <time>2022-08-24T07:09:45.000Z</time>
      </trkpt>
      <trkpt lat="49.78394" lon="6.70927">
        <ele>134.106115</ele>
        <time>2022-08-24T07:09:48.000Z</time>
      </trkpt>
      <trkpt lat="49.78422" lon="6.70937">
        <ele>134.405569</ele>
        <time>2022-08-24T07:09:55.000Z</time>
      </trkpt>
      <trkpt lat="49.78431" lon="6.70942">
        <ele>134.504845</ele>
        <time>2022-08-24T07:09:58.000Z</time>
      </trkpt>
      <trkpt lat="49.78436" lon="6.70941">
        <ele>134.552161</ele>
        <time>2022-08-24T07:09:59.000Z</time>
      </trkpt>
      <trkpt lat="49.78463" lon="6.70923">
        <ele>134.856933</ele>
        <time>2022-08-24T07:10:06.000Z</time>
      </trkpt>
      <trkpt lat="49.78479" lon="6.70915">
        <ele>135.036706</ele>
        <time>2022-08-24T07:10:10.000Z</time>
      </trkpt>
      <trkpt lat="49.78487" lon="6.70914">
        <ele>135.123285</ele>
        <time>2022-08-24T07:10:12.000Z</time>
      </trkpt>
      <trkpt lat="49.78497" lon="6.70914">
        <ele>135.225089</ele>
        <time>2022-08-24T07:10:14.000Z</time>
      </trkpt>
      <trkpt lat="49.78502" lon="6.70913">
        <ele>135.321844</ele>
        <time>2022-08-24T07:10:15.000Z</time>
      </trkpt>
      <trkpt lat="49.7851" lon="6.70912">
        <ele>135.504548</ele>
        <time>2022-08-24T07:10:17.000Z</time>
      </trkpt>
      <trkpt lat="49.78518" lon="6.7091">
        <ele>135.701688</ele>
        <time>2022-08-24T07:10:19.000Z</time>
      </trkpt>
      <trkpt lat="49.78523" lon="6.70908">
        <ele>135.816683</ele>
        <time>2022-08-24T07:10:20.000Z</time>
      </trkpt>
      <trkpt lat="49.78527" lon="6.70907">
        <ele>135.914497</ele>
        <time>2022-08-24T07:10:21.000Z</time>
      </trkpt>
      <trkpt lat="49.78553" lon="6.70905">
        <ele>136.491586</ele>
        <time>2022-08-24T07:10:27.000Z</time>
      </trkpt>
      <trkpt lat="49.78562" lon="6.70903">
        <ele>136.708782</ele>
        <time>2022-08-24T07:10:29.000Z</time>
      </trkpt>
      <trkpt lat="49.7857" lon="6.70899">
        <ele>136.887136</ele>
        <time>2022-08-24T07:10:31.000Z</time>
      </trkpt>
      <trkpt lat="49.78573" lon="6.70895">
        <ele>136.983595</ele>
        <time>2022-08-24T07:10:32.000Z</time>
      </trkpt>
      <trkpt lat="49.78577" lon="6.70891">
        <ele>137.080524</ele>
        <time>2022-08-24T07:10:33.000Z</time>
      </trkpt>
      <trkpt lat="49.78589" lon="6.70867">
        <ele>137.536324</ele>
        <time>2022-08-24T07:10:38.000Z</time>
      </trkpt>
      <trkpt lat="49.78601" lon="6.70848">
        <ele>137.924713</ele>
        <time>2022-08-24T07:10:42.000Z</time>
      </trkpt>
      <trkpt lat="49.78614" lon="6.70828">
        <ele>138.329991</ele>
        <time>2022-08-24T07:10:46.000Z</time>
      </trkpt>
      <trkpt lat="49.7862" lon="6.70818">
        <ele>138.527874</ele>
        <time>2022-08-24T07:10:48.000Z</time>
      </trkpt>
      <trkpt lat="49.78654" lon="6.70761">
        <ele>139.322648</ele>
        <time>2022-08-24T07:10:59.000Z</time>
      </trkpt>
      <trkpt lat="49.78674" lon="6.70741">
        <ele>139.339859</ele>
        <time>2022-08-24T07:11:04.000Z</time>
      </trkpt>
      <trkpt lat="49.78687" lon="6.70731">
        <ele>139.350103</ele>
        <time>2022-08-24T07:11:07.000Z</time>
      </trkpt>
      <trkpt lat="49.78723" lon="6.70716">
        <ele>139.377035</ele>
        <time>2022-08-24T07:11:15.000Z</time>
      </trkpt>
      <trkpt lat="49.78764" lon="6.70707">
        <ele>139.406259</ele>
        <time>2022-08-24T07:11:23.000Z</time>
      </trkpt>
      <trkpt lat="49.78797" lon="6.707">
        <ele>139.429862</ele>
        <time>2022-08-24T07:11:30.000Z</time>
      </trkpt>
      <trkpt lat="49.78815" lon="6.70695">
        <ele>139.331806</ele>
        <time>2022-08-24T07:11:34.000Z</time>
      </trkpt>
      <trkpt lat="49.78821" lon="6.70693">
        <ele>139.166429</ele>
        <time>2022-08-24T07:11:36.000Z</time>
      </trkpt>
      <trkpt lat="49.78837" lon="6.70682">
        <ele>138.735762</ele>
        <time>2022-08-24T07:11:41.000Z</time>
      </trkpt>
      <trkpt lat="49.78853" lon="6.70673">
        <ele>138.289287</ele>
        <time>2022-08-24T07:11:46.000Z</time>
      </trkpt>
      <trkpt lat="49.78877" lon="6.70661">
        <ele>137.659931</ele>
        <time>2022-08-24T07:11:51.000Z</time>
      </trkpt>
      <trkpt lat="49.78882" lon="6.70658">
        <ele>137.542541</ele>
        <time>2022-08-24T07:11:52.000Z</time>
      </trkpt>
      <trkpt lat="49.78895" lon="6.70651">
        <ele>137.181382</ele>
        <time>2022-08-24T07:11:54.000Z</time>
      </trkpt>
      <trkpt lat="49.78908" lon="6.70646">
        <ele>136.840248</ele>
        <time>2022-08-24T07:11:56.000Z</time>
      </trkpt>
      <trkpt lat="49.78915" lon="6.70643">
        <ele>136.676589</ele>
        <time>2022-08-24T07:11:57.000Z</time>
      </trkpt>
      <trkpt lat="49.7894" lon="6.70637">
        <ele>136.037223</ele>
        <time>2022-08-24T07:12:00.000Z</time>
      </trkpt>
      <trkpt lat="49.78948" lon="6.70635">
        <ele>135.828809</ele>
        <time>2022-08-24T07:12:01.000Z</time>
      </trkpt>
      <trkpt lat="49.78995" lon="6.70626">
        <ele>134.922942</ele>
        <time>2022-08-24T07:12:08.000Z</time>
      </trkpt>
      <trkpt lat="49.79044" lon="6.70617">
        <ele>134.96474</ele>
        <time>2022-08-24T07:12:16.000Z</time>
      </trkpt>
      <trkpt lat="49.79075" lon="6.70611">
        <ele>134.991692</ele>
        <time>2022-08-24T07:12:21.000Z</time>
      </trkpt>
      <trkpt lat="49.79092" lon="6.70607">
        <ele>135.006373</ele>
        <time>2022-08-24T07:12:24.000Z</time>
      </trkpt>
      <trkpt lat="49.79126" lon="6.70598">
        <ele>135.034919</ele>
        <time>2022-08-24T07:12:30.000Z</time>
      </trkpt>
      <trkpt lat="49.79182" lon="6.70586">
        <ele>135.125417</ele>
        <time>2022-08-24T07:12:40.000Z</time>
      </trkpt>
      <trkpt lat="49.79188" lon="6.70585">
        <ele>135.142556</ele>
        <time>2022-08-24T07:12:41.000Z</time>
      </trkpt>
      <trkpt lat="49.79222" lon="6.70575">
        <ele>135.243474</ele>
        <time>2022-08-24T07:12:47.000Z</time>
      </trkpt>
      <trkpt lat="49.79237" lon="6.70571">
        <ele>135.288922</ele>
        <time>2022-08-24T07:12:50.000Z</time>
      </trkpt>
      <trkpt lat="49.79287" lon="6.70561">
        <ele>135.436497</ele>
        <time>2022-08-24T07:12:59.000Z</time>
      </trkpt>
      <trkpt lat="49.79323" lon="6.70554">
        <ele>135.544241</ele>
        <time>2022-08-24T07:13:06.000Z</time>
      </trkpt>
      <trkpt lat="49.79376" lon="6.70546">
        <ele>135.615562</ele>
        <time>2022-08-24T07:13:16.000Z</time>
      </trkpt>
      <trkpt lat="49.79403" lon="6.70542">
        <ele>135.631465</ele>
        <time>2022-08-24T07:13:21.000Z</time>
      </trkpt>
      <trkpt lat="49.79413" lon="6.70541">
        <ele>135.637047</ele>
        <time>2022-08-24T07:13:23.000Z</time>
      </trkpt>
      <trkpt lat="49.79429" lon="6.70537">
        <ele>135.646296</ele>
        <time>2022-08-24T07:13:26.000Z</time>
      </trkpt>
      <trkpt lat="49.79444" lon="6.70534">
        <ele>135.655295</ele>
        <time>2022-08-24T07:13:29.000Z</time>
      </trkpt>
      <trkpt lat="49.79501" lon="6.70525">
        <ele>135.688711</ele>
        <time>2022-08-24T07:13:40.000Z</time>
      </trkpt>
      <trkpt lat="49.7951" lon="6.70523">
        <ele>135.694354</ele>
        <time>2022-08-24T07:13:42.000Z</time>
      </trkpt>
      <trkpt lat="49.79524" lon="6.70521">
        <ele>135.692885</ele>
        <time>2022-08-24T07:13:45.000Z</time>
      </trkpt>
      <trkpt lat="49.79533" lon="6.70521">
        <ele>135.68098</ele>
        <time>2022-08-24T07:13:47.000Z</time>
      </trkpt>
      <trkpt lat="49.79576" lon="6.70513">
        <ele>135.625977</ele>
        <time>2022-08-24T07:13:56.000Z</time>
      </trkpt>
      <trkpt lat="49.79632" lon="6.70503">
        <ele>135.55367</ele>
        <time>2022-08-24T07:14:06.000Z</time>
      </trkpt>
      <trkpt lat="49.79639" lon="6.70502">
        <ele>135.54516</ele>
        <time>2022-08-24T07:14:07.000Z</time>
      </trkpt>
      <trkpt lat="49.79678" lon="6.70497">
        <ele>135.495242</ele>
        <time>2022-08-24T07:14:14.000Z</time>
      </trkpt>
      <trkpt lat="49.79724" lon="6.70493">
        <ele>135.593405</ele>
        <time>2022-08-24T07:14:23.000Z</time>
      </trkpt>
      <trkpt lat="49.7976" lon="6.70487">
        <ele>135.761191</ele>
        <time>2022-08-24T07:14:30.000Z</time>
      </trkpt>
      <trkpt lat="49.79808" lon="6.70478">
        <ele>135.987697</ele>
        <time>2022-08-24T07:14:39.000Z</time>
      </trkpt>
      <trkpt lat="49.79848" lon="6.70476">
        <ele>136.176887</ele>
        <time>2022-08-24T07:14:47.000Z</time>
      </trkpt>
      <trkpt lat="49.79899" lon="6.70476">
        <ele>136.352208</ele>
        <time>2022-08-24T07:14:57.000Z</time>
      </trkpt>
      <trkpt lat="49.79944" lon="6.70487">
        <ele>136.43651</ele>
        <time>2022-08-24T07:15:05.000Z</time>
      </trkpt>
      <trkpt lat="49.79982" lon="6.7051">
        <ele>136.512186</ele>
        <time>2022-08-24T07:15:13.000Z</time>
      </trkpt>
      <trkpt lat="49.80008" lon="6.70532">
        <ele>136.567401</ele>
        <time>2022-08-24T07:15:19.000Z</time>
      </trkpt>
      <trkpt lat="49.80037" lon="6.70558">
        <ele>136.629468</ele>
        <time>2022-08-24T07:15:26.000Z</time>
      </trkpt>
      <trkpt lat="49.80059" lon="6.70576">
        <ele>136.783209</ele>
        <time>2022-08-24T07:15:32.000Z</time>
      </trkpt>
      <trkpt lat="49.80065" lon="6.70583">
        <ele>136.845645</ele>
        <time>2022-08-24T07:15:34.000Z</time>
      </trkpt>
      <trkpt lat="49.80076" lon="6.70592">
        <ele>136.94403</ele>
        <time>2022-08-24T07:15:37.000Z</time>
      </trkpt>
      <trkpt lat="49.80091" lon="6.70612">
        <ele>137.111563</ele>
        <time>2022-08-24T07:15:42.000Z</time>
      </trkpt>
      <trkpt lat="49.80116" lon="6.70642">
        <ele>137.374249</ele>
        <time>2022-08-24T07:15:50.000Z</time>
      </trkpt>
      <trkpt lat="49.80137" lon="6.7067">
        <ele>137.602352</ele>
        <time>2022-08-24T07:15:56.000Z</time>
      </trkpt>
      <trkpt lat="49.80144" lon="6.70681">
        <ele>137.686344</ele>
        <time>2022-08-24T07:15:58.000Z</time>
      </trkpt>
      <trkpt lat="49.80169" lon="6.7073">
        <ele>138.021177</ele>
        <time>2022-08-24T07:16:06.000Z</time>
      </trkpt>
      <trkpt lat="49.80172" lon="6.70736">
        <ele>138.062286</ele>
        <time>2022-08-24T07:16:07.000Z</time>
      </trkpt>
      <trkpt lat="49.80177" lon="6.7075">
        <ele>138.155283</ele>
        <time>2022-08-24T07:16:09.000Z</time>
      </trkpt>
      <trkpt lat="49.80178" lon="6.70764">
        <ele>138.327118</ele>
        <time>2022-08-24T07:16:11.000Z</time>
      </trkpt>
      <trkpt lat="49.80179" lon="6.70779">
        <ele>138.508787</ele>
        <time>2022-08-24T07:16:13.000Z</time>
      </trkpt>
      <trkpt lat="49.8018" lon="6.70784">
        <ele>138.573924</ele>
        <time>2022-08-24T07:16:14.000Z</time>
      </trkpt>
      <trkpt lat="49.80179" lon="6.7079">
        <ele>138.643521</ele>
        <time>2022-08-24T07:16:15.000Z</time>
      </trkpt>
      <trkpt lat="49.80178" lon="6.70794">
        <ele>138.699483</ele>
        <time>2022-08-24T07:16:16.000Z</time>
      </trkpt>
      <trkpt lat="49.80167" lon="6.70822">
        <ele>139.096133</ele>
        <time>2022-08-24T07:16:22.000Z</time>
      </trkpt>
      <trkpt lat="49.8016" lon="6.70836">
        <ele>139.307364</ele>
        <time>2022-08-24T07:16:25.000Z</time>
      </trkpt>
      <trkpt lat="49.80147" lon="6.70857">
        <ele>139.67159</ele>
        <time>2022-08-24T07:16:30.000Z</time>
      </trkpt>
      <trkpt lat="49.80144" lon="6.7086">
        <ele>139.728735</ele>
        <time>2022-08-24T07:16:31.000Z</time>
      </trkpt>
      <trkpt lat="49.80137" lon="6.70874">
        <ele>139.939193</ele>
        <time>2022-08-24T07:16:35.000Z</time>
      </trkpt>
      <trkpt lat="49.80135" lon="6.70881">
        <ele>140.035764</ele>
        <time>2022-08-24T07:16:37.000Z</time>
      </trkpt>
      <trkpt lat="49.80132" lon="6.70885">
        <ele>140.110657</ele>
        <time>2022-08-24T07:16:39.000Z</time>
      </trkpt>
      <trkpt lat="49.80131" lon="6.70888">
        <ele>140.149288</ele>
        <time>2022-08-24T07:16:40.000Z</time>
      </trkpt>
      <trkpt lat="49.80129" lon="6.70894">
        <ele>140.233148</ele>
        <time>2022-08-24T07:16:42.000Z</time>
      </trkpt>
      <trkpt lat="49.8013" lon="6.70913">
        <ele>140.46451</ele>
        <time>2022-08-24T07:16:47.000Z</time>
      </trkpt>
      <trkpt lat="49.80148" lon="6.70977">
        <ele>141.306461</ele>
        <time>2022-08-24T07:17:00.000Z</time>
      </trkpt>
      <trkpt lat="49.80149" lon="6.70991">
        <ele>141.477219</ele>
        <time>2022-08-24T07:17:01.000Z</time>
      </trkpt>
      <trkpt lat="49.80154" lon="6.70996">
        <ele>141.418656</ele>
        <time>2022-08-24T07:17:03.000Z</time>
      </trkpt>
      <trkpt lat="49.80166" lon="6.71021">
        <ele>140.99171</ele>
        <time>2022-08-24T07:17:07.000Z</time>
      </trkpt>
      <trkpt lat="49.80169" lon="6.71029">
        <ele>140.860427</ele>
        <time>2022-08-24T07:17:08.000Z</time>
      </trkpt>
      <trkpt lat="49.80177" lon="6.71053">
        <ele>140.480345</ele>
        <time>2022-08-24T07:17:11.000Z</time>
      </trkpt>
      <trkpt lat="49.80181" lon="6.7107">
        <ele>140.227906</ele>
        <time>2022-08-24T07:17:13.000Z</time>
      </trkpt>
      <trkpt lat="49.80183" lon="6.71086">
        <ele>139.99342</ele>
        <time>2022-08-24T07:17:15.000Z</time>
      </trkpt>
      <trkpt lat="49.80187" lon="6.711">
        <ele>139.777116</ele>
        <time>2022-08-24T07:17:17.000Z</time>
      </trkpt>
      <trkpt lat="49.8019" lon="6.71106">
        <ele>139.671721</ele>
        <time>2022-08-24T07:17:18.000Z</time>
      </trkpt>
      <trkpt lat="49.802" lon="6.7112">
        <ele>139.385007</ele>
        <time>2022-08-24T07:17:21.000Z</time>
      </trkpt>
      <trkpt lat="49.80201" lon="6.71124">
        <ele>139.32867</ele>
        <time>2022-08-24T07:17:22.000Z</time>
      </trkpt>
      <trkpt lat="49.80201" lon="6.71131">
        <ele>139.22662</ele>
        <time>2022-08-24T07:17:24.000Z</time>
      </trkpt>
      <trkpt lat="49.80201" lon="6.71134">
        <ele>139.190713</ele>
        <time>2022-08-24T07:17:25.000Z</time>
      </trkpt>
      <trkpt lat="49.802" lon="6.71135">
        <ele>139.174053</ele>
        <time>2022-08-24T07:17:29.000Z</time>
      </trkpt>
      <trkpt lat="49.80199" lon="6.71137">
        <ele>139.130355</ele>
        <time>2022-08-24T07:17:32.000Z</time>
      </trkpt>
      <trkpt lat="49.80195" lon="6.71142">
        <ele>139.021071</ele>
        <time>2022-08-24T07:17:35.000Z</time>
      </trkpt>
      <trkpt lat="49.80197" lon="6.7115">
        <ele>138.912194</ele>
        <time>2022-08-24T07:17:37.000Z</time>
      </trkpt>
      <trkpt lat="49.80201" lon="6.71158">
        <ele>138.763173</ele>
        <time>2022-08-24T07:17:39.000Z</time>
      </trkpt>
      <trkpt lat="49.80212" lon="6.71174">
        <ele>138.434824</ele>
        <time>2022-08-24T07:17:43.000Z</time>
      </trkpt>
      <trkpt lat="49.80218" lon="6.71183">
        <ele>138.263407</ele>
        <time>2022-08-24T07:17:45.000Z</time>
      </trkpt>
      <trkpt lat="49.80227" lon="6.71212">
        <ele>137.807725</ele>
        <time>2022-08-24T07:17:50.000Z</time>
      </trkpt>
      <trkpt lat="49.8023" lon="6.71233">
        <ele>137.644701</ele>
        <time>2022-08-24T07:17:53.000Z</time>
      </trkpt>
      <trkpt lat="49.80232" lon="6.71247">
        <ele>137.674248</ele>
        <time>2022-08-24T07:17:55.000Z</time>
      </trkpt>
      <trkpt lat="49.8024" lon="6.71303">
        <ele>137.793246</ele>
        <time>2022-08-24T07:18:03.000Z</time>
      </trkpt>
      <trkpt lat="49.80241" lon="6.7131">
        <ele>137.807614</ele>
        <time>2022-08-24T07:18:04.000Z</time>
      </trkpt>
      <trkpt lat="49.80248" lon="6.71371">
        <ele>137.935444</ele>
        <time>2022-08-24T07:18:13.000Z</time>
      </trkpt>
      <trkpt lat="49.8025" lon="6.71427">
        <ele>138.051962</ele>
        <time>2022-08-24T07:18:21.000Z</time>
      </trkpt>
      <trkpt lat="49.80251" lon="6.71489">
        <ele>138.179074</ele>
        <time>2022-08-24T07:18:30.000Z</time>
      </trkpt>
      <trkpt lat="49.80248" lon="6.71535">
        <ele>138.04377</ele>
        <time>2022-08-24T07:18:37.000Z</time>
      </trkpt>
      <trkpt lat="49.80246" lon="6.71575">
        <ele>137.863602</ele>
        <time>2022-08-24T07:18:43.000Z</time>
      </trkpt>
      <trkpt lat="49.80244" lon="6.716">
        <ele>137.749147</ele>
        <time>2022-08-24T07:18:47.000Z</time>
      </trkpt>
      <trkpt lat="49.80243" lon="6.71605">
        <ele>137.725723</ele>
        <time>2022-08-24T07:18:48.000Z</time>
      </trkpt>
      <trkpt lat="49.80243" lon="6.71613">
        <ele>137.69316</ele>
        <time>2022-08-24T07:18:50.000Z</time>
      </trkpt>
      <trkpt lat="49.80245" lon="6.71614">
        <ele>137.680263</ele>
        <time>2022-08-24T07:18:51.000Z</time>
      </trkpt>
      <trkpt lat="49.80247" lon="6.71605">
        <ele>137.640044</ele>
        <time>2022-08-24T07:18:54.000Z</time>
      </trkpt>
      <trkpt lat="49.80248" lon="6.71598">
        <ele>137.607208</ele>
        <time>2022-08-24T07:18:56.000Z</time>
      </trkpt>
      <trkpt lat="49.8025" lon="6.71594">
        <ele>137.582117</ele>
        <time>2022-08-24T07:18:58.000Z</time>
      </trkpt>
      <trkpt lat="49.80251" lon="6.71593">
        <ele>137.57314</ele>
        <time>2022-08-24T07:18:59.000Z</time>
      </trkpt>
      <trkpt lat="49.80268" lon="6.71594">
        <ele>137.454723</ele>
        <time>2022-08-24T07:19:07.000Z</time>
      </trkpt>
      <trkpt lat="49.80274" lon="6.71597">
        <ele>137.415937</ele>
        <time>2022-08-24T07:19:10.000Z</time>
      </trkpt>
      <trkpt lat="49.80278" lon="6.71601">
        <ele>137.376661</ele>
        <time>2022-08-24T07:19:14.000Z</time>
      </trkpt>
      <trkpt lat="49.80279" lon="6.71608">
        <ele>137.344985</ele>
        <time>2022-08-24T07:19:17.000Z</time>
      </trkpt>
      <trkpt lat="49.8028" lon="6.71614">
        <ele>137.316831</ele>
        <time>2022-08-24T07:19:19.000Z</time>
      </trkpt>
      <trkpt lat="49.80281" lon="6.71621">
        <ele>137.284825</ele>
        <time>2022-08-24T07:19:21.000Z</time>
      </trkpt>
      <trkpt lat="49.80282" lon="6.71632">
        <ele>137.233971</ele>
        <time>2022-08-24T07:19:24.000Z</time>
      </trkpt>
      <trkpt lat="49.8029" lon="6.71658">
        <ele>137.102708</ele>
        <time>2022-08-24T07:19:31.000Z</time>
      </trkpt>
      <trkpt lat="49.80292" lon="6.71668">
        <ele>137.05604</ele>
        <time>2022-08-24T07:19:33.000Z</time>
      </trkpt>
      <trkpt lat="49.80298" lon="6.71696">
        <ele>136.876441</ele>
        <time>2022-08-24T07:19:38.000Z</time>
      </trkpt>
      <trkpt lat="49.80304" lon="6.71741">
        <ele>136.174503</ele>
        <time>2022-08-24T07:19:45.000Z</time>
      </trkpt>
      <trkpt lat="49.80305" lon="6.71774">
        <ele>135.665189</ele>
        <time>2022-08-24T07:19:50.000Z</time>
      </trkpt>
      <trkpt lat="49.80305" lon="6.7178">
        <ele>135.572177</ele>
        <time>2022-08-24T07:19:51.000Z</time>
      </trkpt>
      <trkpt lat="49.80307" lon="6.71792">
        <ele>135.39063</ele>
        <time>2022-08-24T07:19:53.000Z</time>
      </trkpt>
      <trkpt lat="49.80315" lon="6.71804">
        <ele>135.120335</ele>
        <time>2022-08-24T07:19:56.000Z</time>
      </trkpt>
      <trkpt lat="49.80333" lon="6.71804">
        <ele>134.711573</ele>
        <time>2022-08-24T07:20:00.000Z</time>
      </trkpt>
      <trkpt lat="49.80337" lon="6.71804">
        <ele>134.604414</ele>
        <time>2022-08-24T07:20:01.000Z</time>
      </trkpt>
      <trkpt lat="49.80354" lon="6.718">
        <ele>134.195981</ele>
        <time>2022-08-24T07:20:05.000Z</time>
      </trkpt>
      <trkpt lat="49.80358" lon="6.71801">
        <ele>134.115564</ele>
        <time>2022-08-24T07:20:06.000Z</time>
      </trkpt>
      <trkpt lat="49.80361" lon="6.71804">
        <ele>134.023158</ele>
        <time>2022-08-24T07:20:07.000Z</time>
      </trkpt>
      <trkpt lat="49.80366" lon="6.71814">
        <ele>133.831267</ele>
        <time>2022-08-24T07:20:09.000Z</time>
      </trkpt>
      <trkpt lat="49.8037" lon="6.7185">
        <ele>133.264212</ele>
        <time>2022-08-24T07:20:14.000Z</time>
      </trkpt>
      <trkpt lat="49.80372" lon="6.71858">
        <ele>133.145206</ele>
        <time>2022-08-24T07:20:15.000Z</time>
      </trkpt>
      <trkpt lat="49.8038" lon="6.71906">
        <ele>132.546654</ele>
        <time>2022-08-24T07:20:21.000Z</time>
      </trkpt>
      <trkpt lat="49.80385" lon="6.71931">
        <ele>132.354483</ele>
        <time>2022-08-24T07:20:24.000Z</time>
      </trkpt>
      <trkpt lat="49.80392" lon="6.71962">
        <ele>132.109619</ele>
        <time>2022-08-24T07:20:28.000Z</time>
      </trkpt>
      <trkpt lat="49.80398" lon="6.71994">
        <ele>131.863824</ele>
        <time>2022-08-24T07:20:32.000Z</time>
      </trkpt>
      <trkpt lat="49.80401" lon="6.72013">
        <ele>131.72228</ele>
        <time>2022-08-24T07:20:35.000Z</time>
      </trkpt>
      <trkpt lat="49.80403" lon="6.72018">
        <ele>131.679477</ele>
        <time>2022-08-24T07:20:36.000Z</time>
      </trkpt>
      <trkpt lat="49.80409" lon="6.72024">
        <ele>131.589761</ele>
        <time>2022-08-24T07:20:38.000Z</time>
      </trkpt>
      <trkpt lat="49.80417" lon="6.72029">
        <ele>131.489172</ele>
        <time>2022-08-24T07:20:40.000Z</time>
      </trkpt>
      <trkpt lat="49.80424" lon="6.72038">
        <ele>131.38698</ele>
        <time>2022-08-24T07:20:42.000Z</time>
      </trkpt>
      <trkpt lat="49.80427" lon="6.72043">
        <ele>131.338596</ele>
        <time>2022-08-24T07:20:43.000Z</time>
      </trkpt>
      <trkpt lat="49.80428" lon="6.7205">
        <ele>131.285529</ele>
        <time>2022-08-24T07:20:44.000Z</time>
      </trkpt>
      <trkpt lat="49.80435" lon="6.72094">
        <ele>130.954103</ele>
        <time>2022-08-24T07:20:50.000Z</time>
      </trkpt>
      <trkpt lat="49.80445" lon="6.72152">
        <ele>130.615331</ele>
        <time>2022-08-24T07:20:58.000Z</time>
      </trkpt>
      <trkpt lat="49.80448" lon="6.72175">
        <ele>130.585231</ele>
        <time>2022-08-24T07:21:01.000Z</time>
      </trkpt>
      <trkpt lat="49.80455" lon="6.72203">
        <ele>130.546315</ele>
        <time>2022-08-24T07:21:05.000Z</time>
      </trkpt>
      <trkpt lat="49.80458" lon="6.72209">
        <ele>130.536487</ele>
        <time>2022-08-24T07:21:06.000Z</time>
      </trkpt>
      <trkpt lat="49.8046" lon="6.72216">
        <ele>130.526625</ele>
        <time>2022-08-24T07:21:07.000Z</time>
      </trkpt>
      <trkpt lat="49.80458" lon="6.7224">
        <ele>130.495612</ele>
        <time>2022-08-24T07:21:10.000Z</time>
      </trkpt>
      <trkpt lat="49.8045" lon="6.72297">
        <ele>130.419633</ele>
        <time>2022-08-24T07:21:17.000Z</time>
      </trkpt>
      <trkpt lat="49.80445" lon="6.72333">
        <ele>130.37146</ele>
        <time>2022-08-24T07:21:22.000Z</time>
      </trkpt>
      <trkpt lat="49.80445" lon="6.72343">
        <ele>130.357977</ele>
        <time>2022-08-24T07:21:24.000Z</time>
      </trkpt>
      <trkpt lat="49.80447" lon="6.7235">
        <ele>130.348621</ele>
        <time>2022-08-24T07:21:27.000Z</time>
      </trkpt>
      <trkpt lat="49.80448" lon="6.72352">
        <ele>130.345583</ele>
        <time>2022-08-24T07:21:28.000Z</time>
      </trkpt>
      <trkpt lat="49.80455" lon="6.7235">
        <ele>130.332151</ele>
        <time>2022-08-24T07:21:31.000Z</time>
      </trkpt>
      <trkpt lat="49.80472" lon="6.72337">
        <ele>130.293672</ele>
        <time>2022-08-24T07:21:37.000Z</time>
      </trkpt>
      <trkpt lat="49.80496" lon="6.72322">
        <ele>130.212387</ele>
        <time>2022-08-24T07:21:43.000Z</time>
      </trkpt>
      <trkpt lat="49.80528" lon="6.72304">
        <ele>130.088204</ele>
        <time>2022-08-24T07:21:50.000Z</time>
      </trkpt>
      <trkpt lat="49.80537" lon="6.72298">
        <ele>130.051791</ele>
        <time>2022-08-24T07:21:52.000Z</time>
      </trkpt>
      <trkpt lat="49.80546" lon="6.72298">
        <ele>130.020255</ele>
        <time>2022-08-24T07:21:54.000Z</time>
      </trkpt>
      <trkpt lat="49.80549" lon="6.72303">
        <ele>130.004139</ele>
        <time>2022-08-24T07:21:55.000Z</time>
      </trkpt>
      <trkpt lat="49.80552" lon="6.72309">
        <ele>129.986022</ele>
        <time>2022-08-24T07:21:56.000Z</time>
      </trkpt>
      <trkpt lat="49.80558" lon="6.72323">
        <ele>129.945865</ele>
        <time>2022-08-24T07:21:58.000Z</time>
      </trkpt>
      <trkpt lat="49.80563" lon="6.72338">
        <ele>129.906728</ele>
        <time>2022-08-24T07:22:00.000Z</time>
      </trkpt>
      <trkpt lat="49.80575" lon="6.72383">
        <ele>129.790815</ele>
        <time>2022-08-24T07:22:06.000Z</time>
      </trkpt>
      <trkpt lat="49.80578" lon="6.72389">
        <ele>129.772507</ele>
        <time>2022-08-24T07:22:07.000Z</time>
      </trkpt>
      <trkpt lat="49.80581" lon="6.72395">
        <ele>129.754142</ele>
        <time>2022-08-24T07:22:08.000Z</time>
      </trkpt>
      <trkpt lat="49.80589" lon="6.72404">
        <ele>129.718058</ele>
        <time>2022-08-24T07:22:10.000Z</time>
      </trkpt>
      <trkpt lat="49.80598" lon="6.72412">
        <ele>129.680338</ele>
        <time>2022-08-24T07:22:12.000Z</time>
      </trkpt>
      <trkpt lat="49.80626" lon="6.72448">
        <ele>129.627099</ele>
        <time>2022-08-24T07:22:19.000Z</time>
      </trkpt>
      <trkpt lat="49.80644" lon="6.72467">
        <ele>129.638492</ele>
        <time>2022-08-24T07:22:23.000Z</time>
      </trkpt>
      <trkpt lat="49.80648" lon="6.72471">
        <ele>129.641102</ele>
        <time>2022-08-24T07:22:24.000Z</time>
      </trkpt>
      <trkpt lat="49.80653" lon="6.72484">
        <ele>129.64617</ele>
        <time>2022-08-24T07:22:26.000Z</time>
      </trkpt>
      <trkpt lat="49.80655" lon="6.72492">
        <ele>129.648947</ele>
        <time>2022-08-24T07:22:27.000Z</time>
      </trkpt>
      <trkpt lat="49.80666" lon="6.72535">
        <ele>129.664956</ele>
        <time>2022-08-24T07:22:33.000Z</time>
      </trkpt>
      <trkpt lat="49.8067" lon="6.7255">
        <ele>129.670444</ele>
        <time>2022-08-24T07:22:35.000Z</time>
      </trkpt>
      <trkpt lat="49.80677" lon="6.72581">
        <ele>129.681735</ele>
        <time>2022-08-24T07:22:39.000Z</time>
      </trkpt>
      <trkpt lat="49.8069" lon="6.72635">
        <ele>129.701158</ele>
        <time>2022-08-24T07:22:46.000Z</time>
      </trkpt>
      <trkpt lat="49.80704" lon="6.72696">
        <ele>129.783379</ele>
        <time>2022-08-24T07:22:54.000Z</time>
      </trkpt>
      <trkpt lat="49.8072" lon="6.72767">
        <ele>129.94194</ele>
        <time>2022-08-24T07:23:03.000Z</time>
      </trkpt>
      <trkpt lat="49.80722" lon="6.72774">
        <ele>129.959372</ele>
        <time>2022-08-24T07:23:04.000Z</time>
      </trkpt>
      <trkpt lat="49.8073" lon="6.72813">
        <ele>130.045413</ele>
        <time>2022-08-24T07:23:09.000Z</time>
      </trkpt>
      <trkpt lat="49.80733" lon="6.72828">
        <ele>130.079367</ele>
        <time>2022-08-24T07:23:11.000Z</time>
      </trkpt>
      <trkpt lat="49.80737" lon="6.72843">
        <ele>130.114165</ele>
        <time>2022-08-24T07:23:13.000Z</time>
      </trkpt>
      <trkpt lat="49.80745" lon="6.72882">
        <ele>130.201524</ele>
        <time>2022-08-24T07:23:18.000Z</time>
      </trkpt>
      <trkpt lat="49.80754" lon="6.72922">
        <ele>130.290213</ele>
        <time>2022-08-24T07:23:23.000Z</time>
      </trkpt>
      <trkpt lat="49.80759" lon="6.72945">
        <ele>130.289314</ele>
        <time>2022-08-24T07:23:26.000Z</time>
      </trkpt>
      <trkpt lat="49.80763" lon="6.72962">
        <ele>130.273542</ele>
        <time>2022-08-24T07:23:28.000Z</time>
      </trkpt>
      <trkpt lat="49.80768" lon="6.72986">
        <ele>130.250036</ele>
        <time>2022-08-24T07:23:31.000Z</time>
      </trkpt>
      <trkpt lat="49.80772" lon="6.73001">
        <ele>130.234777</ele>
        <time>2022-08-24T07:23:34.000Z</time>
      </trkpt>
      <trkpt lat="49.80781" lon="6.73041">
        <ele>130.196418</ele>
        <time>2022-08-24T07:23:38.000Z</time>
      </trkpt>
      <trkpt lat="49.80797" lon="6.73109">
        <ele>130.129985</ele>
        <time>2022-08-24T07:23:47.000Z</time>
      </trkpt>
      <trkpt lat="49.80809" lon="6.7316">
        <ele>130.08001</ele>
        <time>2022-08-24T07:23:54.000Z</time>
      </trkpt>
      <trkpt lat="49.80815" lon="6.73191">
        <ele>130.050389</ele>
        <time>2022-08-24T07:23:58.000Z</time>
      </trkpt>
      <trkpt lat="49.80824" lon="6.73228">
        <ele>130.04282</ele>
        <time>2022-08-24T07:24:03.000Z</time>
      </trkpt>
      <trkpt lat="49.80829" lon="6.7325">
        <ele>130.038646</ele>
        <time>2022-08-24T07:24:06.000Z</time>
      </trkpt>
      <trkpt lat="49.80837" lon="6.73287">
        <ele>130.031684</ele>
        <time>2022-08-24T07:24:11.000Z</time>
      </trkpt>
      <trkpt lat="49.80852" lon="6.73353">
        <ele>130.019099</ele>
        <time>2022-08-24T07:24:20.000Z</time>
      </trkpt>
      <trkpt lat="49.80867" lon="6.73423">
        <ele>130.005901</ele>
        <time>2022-08-24T07:24:29.000Z</time>
      </trkpt>
      <trkpt lat="49.80881" lon="6.73486">
        <ele>129.963114</ele>
        <time>2022-08-24T07:24:37.000Z</time>
      </trkpt>
      <trkpt lat="49.80889" lon="6.73524">
        <ele>129.918125</ele>
        <time>2022-08-24T07:24:42.000Z</time>
      </trkpt>
      <trkpt lat="49.80902" lon="6.73601">
        <ele>129.827469</ele>
        <time>2022-08-24T07:24:52.000Z</time>
      </trkpt>
      <trkpt lat="49.80919" lon="6.73677">
        <ele>129.73727</ele>
        <time>2022-08-24T07:25:02.000Z</time>
      </trkpt>
      <trkpt lat="49.8094" lon="6.73758">
        <ele>129.486056</ele>
        <time>2022-08-24T07:25:13.000Z</time>
      </trkpt>
      <trkpt lat="49.80952" lon="6.73821">
        <ele>129.168481</ele>
        <time>2022-08-24T07:25:21.000Z</time>
      </trkpt>
      <trkpt lat="49.80954" lon="6.7383">
        <ele>129.126955</ele>
        <time>2022-08-24T07:25:22.000Z</time>
      </trkpt>
      <trkpt lat="49.80967" lon="6.73897">
        <ele>128.790924</ele>
        <time>2022-08-24T07:25:30.000Z</time>
      </trkpt>
      <trkpt lat="49.80983" lon="6.73974">
        <ele>128.402232</ele>
        <time>2022-08-24T07:25:39.000Z</time>
      </trkpt>
      <trkpt lat="49.80985" lon="6.73983">
        <ele>128.359115</ele>
        <time>2022-08-24T07:25:40.000Z</time>
      </trkpt>
      <trkpt lat="49.80994" lon="6.74026">
        <ele>128.199527</ele>
        <time>2022-08-24T07:25:45.000Z</time>
      </trkpt>
      <trkpt lat="49.81001" lon="6.74051">
        <ele>128.108525</ele>
        <time>2022-08-24T07:25:48.000Z</time>
      </trkpt>
      <trkpt lat="49.81014" lon="6.74117">
        <ele>127.872738</ele>
        <time>2022-08-24T07:25:56.000Z</time>
      </trkpt>
      <trkpt lat="49.81021" lon="6.74177">
        <ele>127.665558</ele>
        <time>2022-08-24T07:26:03.000Z</time>
      </trkpt>
      <trkpt lat="49.81027" lon="6.74221">
        <ele>127.511443</ele>
        <time>2022-08-24T07:26:08.000Z</time>
      </trkpt>
      <trkpt lat="49.81033" lon="6.74256">
        <ele>127.406141</ele>
        <time>2022-08-24T07:26:12.000Z</time>
      </trkpt>
      <trkpt lat="49.81037" lon="6.74279">
        <ele>127.462267</ele>
        <time>2022-08-24T07:26:15.000Z</time>
      </trkpt>
      <trkpt lat="49.81039" lon="6.74285">
        <ele>127.4788</ele>
        <time>2022-08-24T07:26:16.000Z</time>
      </trkpt>
      <trkpt lat="49.81043" lon="6.74304">
        <ele>127.525778</ele>
        <time>2022-08-24T07:26:19.000Z</time>
      </trkpt>
      <trkpt lat="49.81046" lon="6.74325">
        <ele>127.575919</ele>
        <time>2022-08-24T07:26:22.000Z</time>
      </trkpt>
      <trkpt lat="49.81054" lon="6.74387">
        <ele>127.725403</ele>
        <time>2022-08-24T07:26:30.000Z</time>
      </trkpt>
      <trkpt lat="49.81054" lon="6.74394">
        <ele>127.740163</ele>
        <time>2022-08-24T07:26:31.000Z</time>
      </trkpt>
      <trkpt lat="49.81052" lon="6.74402">
        <ele>127.761922</ele>
        <time>2022-08-24T07:26:32.000Z</time>
      </trkpt>
      <trkpt lat="49.81044" lon="6.74414">
        <ele>127.801469</ele>
        <time>2022-08-24T07:26:34.000Z</time>
      </trkpt>
      <trkpt lat="49.81036" lon="6.74423">
        <ele>127.836228</ele>
        <time>2022-08-24T07:26:36.000Z</time>
      </trkpt>
      <trkpt lat="49.81032" lon="6.74434">
        <ele>127.866603</ele>
        <time>2022-08-24T07:26:38.000Z</time>
      </trkpt>
      <trkpt lat="49.81033" lon="6.74446">
        <ele>127.892723</ele>
        <time>2022-08-24T07:26:40.000Z</time>
      </trkpt>
      <trkpt lat="49.81035" lon="6.7445">
        <ele>127.906319</ele>
        <time>2022-08-24T07:26:41.000Z</time>
      </trkpt>
      <trkpt lat="49.8104" lon="6.74458">
        <ele>127.933143</ele>
        <time>2022-08-24T07:26:43.000Z</time>
      </trkpt>
      <trkpt lat="49.81047" lon="6.74464">
        <ele>127.962739</ele>
        <time>2022-08-24T07:26:45.000Z</time>
      </trkpt>
      <trkpt lat="49.81066" lon="6.74481">
        <ele>128.041326</ele>
        <time>2022-08-24T07:26:51.000Z</time>
      </trkpt>
      <trkpt lat="49.81075" lon="6.74493">
        <ele>128.147783</ele>
        <time>2022-08-24T07:26:54.000Z</time>
      </trkpt>
      <trkpt lat="49.81093" lon="6.74517">
        <ele>128.400252</ele>
        <time>2022-08-24T07:27:00.000Z</time>
      </trkpt>
      <trkpt lat="49.81116" lon="6.74553">
        <ele>128.7579</ele>
        <time>2022-08-24T07:27:08.000Z</time>
      </trkpt>
      <trkpt lat="49.81118" lon="6.74558">
        <ele>128.801893</ele>
        <time>2022-08-24T07:27:09.000Z</time>
      </trkpt>
      <trkpt lat="49.81126" lon="6.74569">
        <ele>128.915982</ele>
        <time>2022-08-24T07:27:12.000Z</time>
      </trkpt>
      <trkpt lat="49.81131" lon="6.74578">
        <ele>129.00179</ele>
        <time>2022-08-24T07:27:14.000Z</time>
      </trkpt>
      <trkpt lat="49.81134" lon="6.74586">
        <ele>129.064982</ele>
        <time>2022-08-24T07:27:16.000Z</time>
      </trkpt>
      <trkpt lat="49.8114" lon="6.74612">
        <ele>129.259406</ele>
        <time>2022-08-24T07:27:21.000Z</time>
      </trkpt>
      <trkpt lat="49.81142" lon="6.74619">
        <ele>129.31059</ele>
        <time>2022-08-24T07:27:22.000Z</time>
      </trkpt>
      <trkpt lat="49.81147" lon="6.74632">
        <ele>129.417957</ele>
        <time>2022-08-24T07:27:24.000Z</time>
      </trkpt>
      <trkpt lat="49.8115" lon="6.74639">
        <ele>129.476361</ele>
        <time>2022-08-24T07:27:25.000Z</time>
      </trkpt>
      <trkpt lat="49.81157" lon="6.74651">
        <ele>129.585501</ele>
        <time>2022-08-24T07:27:28.000Z</time>
      </trkpt>
      <trkpt lat="49.81159" lon="6.74658">
        <ele>129.640789</ele>
        <time>2022-08-24T07:27:29.000Z</time>
      </trkpt>
      <trkpt lat="49.8117" lon="6.74704">
        <ele>129.984877</ele>
        <time>2022-08-24T07:27:36.000Z</time>
      </trkpt>
      <trkpt lat="49.81172" lon="6.7471">
        <ele>130.028355</ele>
        <time>2022-08-24T07:27:37.000Z</time>
      </trkpt>
      <trkpt lat="49.81176" lon="6.74737">
        <ele>130.165302</ele>
        <time>2022-08-24T07:27:41.000Z</time>
      </trkpt>
      <trkpt lat="49.8118" lon="6.74749">
        <ele>130.234381</ele>
        <time>2022-08-24T07:27:43.000Z</time>
      </trkpt>
      <trkpt lat="49.81183" lon="6.74755">
        <ele>130.272731</ele>
        <time>2022-08-24T07:27:44.000Z</time>
      </trkpt>
      <trkpt lat="49.81189" lon="6.74774">
        <ele>130.374984</ele>
        <time>2022-08-24T07:27:47.000Z</time>
      </trkpt>
      <trkpt lat="49.81191" lon="6.74786">
        <ele>130.436284</ele>
        <time>2022-08-24T07:27:49.000Z</time>
      </trkpt>
      <trkpt lat="49.81193" lon="6.74792">
        <ele>130.470959</ele>
        <time>2022-08-24T07:27:50.000Z</time>
      </trkpt>
      <trkpt lat="49.81195" lon="6.74798">
        <ele>130.505134</ele>
        <time>2022-08-24T07:27:51.000Z</time>
      </trkpt>
      <trkpt lat="49.812" lon="6.74809">
        <ele>130.574255</ele>
        <time>2022-08-24T07:27:53.000Z</time>
      </trkpt>
      <trkpt lat="49.81202" lon="6.74815">
        <ele>130.610502</ele>
        <time>2022-08-24T07:27:54.000Z</time>
      </trkpt>
      <trkpt lat="49.81208" lon="6.74826">
        <ele>130.681855</ele>
        <time>2022-08-24T07:27:56.000Z</time>
      </trkpt>
      <trkpt lat="49.81211" lon="6.74838">
        <ele>130.745296</ele>
        <time>2022-08-24T07:27:58.000Z</time>
      </trkpt>
      <trkpt lat="49.81214" lon="6.74844">
        <ele>130.780275</ele>
        <time>2022-08-24T07:27:59.000Z</time>
      </trkpt>
      <trkpt lat="49.81231" lon="6.74883">
        <ele>131.016693</ele>
        <time>2022-08-24T07:28:06.000Z</time>
      </trkpt>
      <trkpt lat="49.81234" lon="6.74894">
        <ele>131.078018</ele>
        <time>2022-08-24T07:28:08.000Z</time>
      </trkpt>
      <trkpt lat="49.81238" lon="6.74905">
        <ele>131.139272</ele>
        <time>2022-08-24T07:28:10.000Z</time>
      </trkpt>
      <trkpt lat="49.81243" lon="6.74915">
        <ele>131.201241</ele>
        <time>2022-08-24T07:28:12.000Z</time>
      </trkpt>
      <trkpt lat="49.81253" lon="6.74936">
        <ele>131.332597</ele>
        <time>2022-08-24T07:28:16.000Z</time>
      </trkpt>
      <trkpt lat="49.81258" lon="6.74946">
        <ele>131.398186</ele>
        <time>2022-08-24T07:28:18.000Z</time>
      </trkpt>
      <trkpt lat="49.81264" lon="6.74957">
        <ele>131.460756</ele>
        <time>2022-08-24T07:28:20.000Z</time>
      </trkpt>
      <trkpt lat="49.81272" lon="6.74981">
        <ele>131.567264</ele>
        <time>2022-08-24T07:28:24.000Z</time>
      </trkpt>
      <trkpt lat="49.81275" lon="6.74987">
        <ele>131.596343</ele>
        <time>2022-08-24T07:28:25.000Z</time>
      </trkpt>
      <trkpt lat="49.81279" lon="6.74999">
        <ele>131.650666</ele>
        <time>2022-08-24T07:28:27.000Z</time>
      </trkpt>
      <trkpt lat="49.81283" lon="6.7501">
        <ele>131.701382</ele>
        <time>2022-08-24T07:28:29.000Z</time>
      </trkpt>
      <trkpt lat="49.81287" lon="6.75027">
        <ele>131.774596</ele>
        <time>2022-08-24T07:28:32.000Z</time>
      </trkpt>
      <trkpt lat="49.81292" lon="6.75044">
        <ele>131.85256</ele>
        <time>2022-08-24T07:28:35.000Z</time>
      </trkpt>
      <trkpt lat="49.81299" lon="6.75061">
        <ele>131.932035</ele>
        <time>2022-08-24T07:28:38.000Z</time>
      </trkpt>
      <trkpt lat="49.81308" lon="6.75095">
        <ele>132.07945</ele>
        <time>2022-08-24T07:28:44.000Z</time>
      </trkpt>
      <trkpt lat="49.81312" lon="6.75129">
        <ele>132.21868</ele>
        <time>2022-08-24T07:28:50.000Z</time>
      </trkpt>
      <trkpt lat="49.81313" lon="6.75152">
        <ele>132.310918</ele>
        <time>2022-08-24T07:28:54.000Z</time>
      </trkpt>
      <trkpt lat="49.81315" lon="6.75162">
        <ele>132.353837</ele>
        <time>2022-08-24T07:28:56.000Z</time>
      </trkpt>
      <trkpt lat="49.81315" lon="6.75175">
        <ele>132.406156</ele>
        <time>2022-08-24T07:29:00.000Z</time>
      </trkpt>
      <trkpt lat="49.81314" lon="6.75175">
        <ele>132.407465</ele>
        <time>2022-08-24T07:29:05.000Z</time>
      </trkpt>
      <trkpt lat="49.81313" lon="6.75178">
        <ele>132.423001</ele>
        <time>2022-08-24T07:29:11.000Z</time>
      </trkpt>
      <trkpt lat="49.81313" lon="6.75178">
        <ele>132.423624</ele>
        <time>2022-08-24T07:29:30.000Z</time>
      </trkpt>
      <trkpt lat="49.81313" lon="6.75178">
        <ele>132.426091</ele>
        <time>2022-08-24T07:29:46.000Z</time>
      </trkpt>
      <trkpt lat="49.81313" lon="6.75179">
        <ele>132.429368</ele>
        <time>2022-08-24T07:29:52.000Z</time>
      </trkpt>
      <trkpt lat="49.81316" lon="6.75183">
        <ele>132.456301</ele>
        <time>2022-08-24T07:29:55.000Z</time>
      </trkpt>
      <trkpt lat="49.81318" lon="6.75186">
        <ele>132.470835</ele>
        <time>2022-08-24T07:29:56.000Z</time>
      </trkpt>
      <trkpt lat="49.81318" lon="6.75194">
        <ele>132.503508</ele>
        <time>2022-08-24T07:29:59.000Z</time>
      </trkpt>
      <trkpt lat="49.81318" lon="6.75196">
        <ele>132.510775</ele>
        <time>2022-08-24T07:30:00.000Z</time>
      </trkpt>
      <trkpt lat="49.81319" lon="6.75205">
        <ele>132.457512</ele>
        <time>2022-08-24T07:30:04.000Z</time>
      </trkpt>
      <trkpt lat="49.8132" lon="6.75213">
        <ele>132.343423</ele>
        <time>2022-08-24T07:30:06.000Z</time>
      </trkpt>
      <trkpt lat="49.81326" lon="6.75245">
        <ele>131.848011</ele>
        <time>2022-08-24T07:30:11.000Z</time>
      </trkpt>
      <trkpt lat="49.81328" lon="6.75254">
        <ele>131.698686</ele>
        <time>2022-08-24T07:30:12.000Z</time>
      </trkpt>
      <trkpt lat="49.8133" lon="6.75265">
        <ele>131.536716</ele>
        <time>2022-08-24T07:30:13.000Z</time>
      </trkpt>
      <trkpt lat="49.81333" lon="6.75284">
        <ele>131.242469</ele>
        <time>2022-08-24T07:30:15.000Z</time>
      </trkpt>
      <trkpt lat="49.81331" lon="6.7532">
        <ele>130.718408</ele>
        <time>2022-08-24T07:30:18.000Z</time>
      </trkpt>
      <trkpt lat="49.81333" lon="6.75353">
        <ele>130.226973</ele>
        <time>2022-08-24T07:30:21.000Z</time>
      </trkpt>
      <trkpt lat="49.81335" lon="6.75374">
        <ele>129.904916</ele>
        <time>2022-08-24T07:30:23.000Z</time>
      </trkpt>
      <trkpt lat="49.81342" lon="6.75415">
        <ele>129.276037</ele>
        <time>2022-08-24T07:30:27.000Z</time>
      </trkpt>
      <trkpt lat="49.81343" lon="6.75427">
        <ele>129.107294</ele>
        <time>2022-08-24T07:30:28.000Z</time>
      </trkpt>
      <trkpt lat="49.81345" lon="6.75481">
        <ele>128.403035</ele>
        <time>2022-08-24T07:30:33.000Z</time>
      </trkpt>
      <trkpt lat="49.81347" lon="6.75542">
        <ele>128.387765</ele>
        <time>2022-08-24T07:30:39.000Z</time>
      </trkpt>
      <trkpt lat="49.8135" lon="6.75598">
        <ele>128.373902</ele>
        <time>2022-08-24T07:30:45.000Z</time>
      </trkpt>
      <trkpt lat="49.81352" lon="6.75633">
        <ele>128.365061</ele>
        <time>2022-08-24T07:30:49.000Z</time>
      </trkpt>
      <trkpt lat="49.81353" lon="6.75658">
        <ele>128.358681</ele>
        <time>2022-08-24T07:30:52.000Z</time>
      </trkpt>
      <trkpt lat="49.81355" lon="6.75707">
        <ele>128.34648</ele>
        <time>2022-08-24T07:30:58.000Z</time>
      </trkpt>
      <trkpt lat="49.81355" lon="6.75723">
        <ele>128.342405</ele>
        <time>2022-08-24T07:31:00.000Z</time>
      </trkpt>
      <trkpt lat="49.81353" lon="6.75737">
        <ele>128.338763</ele>
        <time>2022-08-24T07:31:02.000Z</time>
      </trkpt>
      <trkpt lat="49.8135" lon="6.75752">
        <ele>128.34128</ele>
        <time>2022-08-24T07:31:04.000Z</time>
      </trkpt>
      <trkpt lat="49.81349" lon="6.7576">
        <ele>128.370663</ele>
        <time>2022-08-24T07:31:05.000Z</time>
      </trkpt>
      <trkpt lat="49.81348" lon="6.75775">
        <ele>128.430454</ele>
        <time>2022-08-24T07:31:07.000Z</time>
      </trkpt>
      <trkpt lat="49.81345" lon="6.75806">
        <ele>128.551177</ele>
        <time>2022-08-24T07:31:10.000Z</time>
      </trkpt>
      <trkpt lat="49.81342" lon="6.75815">
        <ele>128.589063</ele>
        <time>2022-08-24T07:31:11.000Z</time>
      </trkpt>
      <trkpt lat="49.81337" lon="6.75824">
        <ele>128.63797</ele>
        <time>2022-08-24T07:31:12.000Z</time>
      </trkpt>
      <trkpt lat="49.8133" lon="6.75836">
        <ele>128.700753</ele>
        <time>2022-08-24T07:31:15.000Z</time>
      </trkpt>
      <trkpt lat="49.81328" lon="6.7584">
        <ele>128.721364</ele>
        <time>2022-08-24T07:31:16.000Z</time>
      </trkpt>
      <trkpt lat="49.81326" lon="6.75855">
        <ele>128.778891</ele>
        <time>2022-08-24T07:31:19.000Z</time>
      </trkpt>
      <trkpt lat="49.81328" lon="6.75865">
        <ele>128.821083</ele>
        <time>2022-08-24T07:31:21.000Z</time>
      </trkpt>
      <trkpt lat="49.81329" lon="6.75889">
        <ele>128.913125</ele>
        <time>2022-08-24T07:31:25.000Z</time>
      </trkpt>
      <trkpt lat="49.81329" lon="6.7593">
        <ele>129.070979</ele>
        <time>2022-08-24T07:31:31.000Z</time>
      </trkpt>
      <trkpt lat="49.81329" lon="6.75957">
        <ele>129.177527</ele>
        <time>2022-08-24T07:31:35.000Z</time>
      </trkpt>
      <trkpt lat="49.81328" lon="6.75972">
        <ele>129.238379</ele>
        <time>2022-08-24T07:31:37.000Z</time>
      </trkpt>
      <trkpt lat="49.81327" lon="6.7603">
        <ele>129.34002</ele>
        <time>2022-08-24T07:31:46.000Z</time>
      </trkpt>
      <trkpt lat="49.81328" lon="6.76036">
        <ele>129.301462</ele>
        <time>2022-08-24T07:31:47.000Z</time>
      </trkpt>
      <trkpt lat="49.81332" lon="6.76048">
        <ele>129.207755</ele>
        <time>2022-08-24T07:31:50.000Z</time>
      </trkpt>
      <trkpt lat="49.8134" lon="6.76068">
        <ele>129.047292</ele>
        <time>2022-08-24T07:31:54.000Z</time>
      </trkpt>
      <trkpt lat="49.81342" lon="6.76075">
        <ele>128.997562</ele>
        <time>2022-08-24T07:31:55.000Z</time>
      </trkpt>
      <trkpt lat="49.81344" lon="6.7609">
        <ele>128.888482</ele>
        <time>2022-08-24T07:31:57.000Z</time>
      </trkpt>
      <trkpt lat="49.81344" lon="6.76107">
        <ele>128.777266</ele>
        <time>2022-08-24T07:31:59.000Z</time>
      </trkpt>
      <trkpt lat="49.81344" lon="6.76162">
        <ele>128.398045</ele>
        <time>2022-08-24T07:32:06.000Z</time>
      </trkpt>
      <trkpt lat="49.81342" lon="6.76221">
        <ele>127.997242</ele>
        <time>2022-08-24T07:32:14.000Z</time>
      </trkpt>
      <trkpt lat="49.81339" lon="6.76293">
        <ele>127.515869</ele>
        <time>2022-08-24T07:32:24.000Z</time>
      </trkpt>
      <trkpt lat="49.81339" lon="6.76299">
        <ele>127.5105</ele>
        <time>2022-08-24T07:32:25.000Z</time>
      </trkpt>
      <trkpt lat="49.81335" lon="6.76338">
        <ele>127.474712</ele>
        <time>2022-08-24T07:32:30.000Z</time>
      </trkpt>
      <trkpt lat="49.81336" lon="6.76367">
        <ele>127.448904</ele>
        <time>2022-08-24T07:32:34.000Z</time>
      </trkpt>
      <trkpt lat="49.81335" lon="6.76381">
        <ele>127.43572</ele>
        <time>2022-08-24T07:32:36.000Z</time>
      </trkpt>
      <trkpt lat="49.81334" lon="6.76389">
        <ele>127.429089</ele>
        <time>2022-08-24T07:32:37.000Z</time>
      </trkpt>
      <trkpt lat="49.81328" lon="6.76436">
        <ele>127.385583</ele>
        <time>2022-08-24T07:32:44.000Z</time>
      </trkpt>
      <trkpt lat="49.8132" lon="6.76485">
        <ele>127.339135</ele>
        <time>2022-08-24T07:32:52.000Z</time>
      </trkpt>
      <trkpt lat="49.81319" lon="6.765">
        <ele>127.326177</ele>
        <time>2022-08-24T07:32:54.000Z</time>
      </trkpt>
      <trkpt lat="49.81312" lon="6.76532">
        <ele>127.29529</ele>
        <time>2022-08-24T07:32:59.000Z</time>
      </trkpt>
      <trkpt lat="49.81309" lon="6.76554">
        <ele>127.27535</ele>
        <time>2022-08-24T07:33:02.000Z</time>
      </trkpt>
      <trkpt lat="49.81302" lon="6.76576">
        <ele>127.273418</ele>
        <time>2022-08-24T07:33:05.000Z</time>
      </trkpt>
      <trkpt lat="49.81301" lon="6.76583">
        <ele>127.278085</ele>
        <time>2022-08-24T07:33:06.000Z</time>
      </trkpt>
      <trkpt lat="49.81287" lon="6.76641">
        <ele>127.312964</ele>
        <time>2022-08-24T07:33:14.000Z</time>
      </trkpt>
      <trkpt lat="49.81281" lon="6.7666">
        <ele>127.325061</ele>
        <time>2022-08-24T07:33:17.000Z</time>
      </trkpt>
      <trkpt lat="49.81267" lon="6.76714">
        <ele>127.35895</ele>
        <time>2022-08-24T07:33:25.000Z</time>
      </trkpt>
      <trkpt lat="49.81265" lon="6.76721">
        <ele>127.363232</ele>
        <time>2022-08-24T07:33:26.000Z</time>
      </trkpt>
      <trkpt lat="49.81248" lon="6.76776">
        <ele>127.397455</ele>
        <time>2022-08-24T07:33:34.000Z</time>
      </trkpt>
      <trkpt lat="49.81222" lon="6.76851">
        <ele>127.388011</ele>
        <time>2022-08-24T07:33:45.000Z</time>
      </trkpt>
      <trkpt lat="49.81193" lon="6.76916">
        <ele>127.310827</ele>
        <time>2022-08-24T07:33:55.000Z</time>
      </trkpt>
      <trkpt lat="49.81168" lon="6.76965">
        <ele>127.249226</ele>
        <time>2022-08-24T07:34:03.000Z</time>
      </trkpt>
      <trkpt lat="49.81165" lon="6.76971">
        <ele>127.241731</ele>
        <time>2022-08-24T07:34:04.000Z</time>
      </trkpt>
      <trkpt lat="49.81146" lon="6.77007">
        <ele>127.196085</ele>
        <time>2022-08-24T07:34:10.000Z</time>
      </trkpt>
      <trkpt lat="49.81138" lon="6.7702">
        <ele>127.178936</ele>
        <time>2022-08-24T07:34:12.000Z</time>
      </trkpt>
      <trkpt lat="49.81101" lon="6.77081">
        <ele>127.15813</ele>
        <time>2022-08-24T07:34:23.000Z</time>
      </trkpt>
      <trkpt lat="49.81099" lon="6.77085">
        <ele>127.158899</ele>
        <time>2022-08-24T07:34:24.000Z</time>
      </trkpt>
      <trkpt lat="49.81065" lon="6.77134">
        <ele>127.167505</ele>
        <time>2022-08-24T07:34:33.000Z</time>
      </trkpt>
      <trkpt lat="49.81037" lon="6.77173">
        <ele>127.174605</ele>
        <time>2022-08-24T07:34:41.000Z</time>
      </trkpt>
      <trkpt lat="49.81008" lon="6.77215">
        <ele>127.182126</ele>
        <time>2022-08-24T07:34:49.000Z</time>
      </trkpt>
      <trkpt lat="49.80999" lon="6.77229">
        <ele>127.184551</ele>
        <time>2022-08-24T07:34:52.000Z</time>
      </trkpt>
      <trkpt lat="49.80969" lon="6.77272">
        <ele>127.146285</ele>
        <time>2022-08-24T07:35:00.000Z</time>
      </trkpt>
      <trkpt lat="49.8094" lon="6.77312">
        <ele>127.105144</ele>
        <time>2022-08-24T07:35:08.000Z</time>
      </trkpt>
      <trkpt lat="49.80931" lon="6.77323">
        <ele>127.093136</ele>
        <time>2022-08-24T07:35:10.000Z</time>
      </trkpt>
      <trkpt lat="49.80912" lon="6.77348">
        <ele>127.066497</ele>
        <time>2022-08-24T07:35:16.000Z</time>
      </trkpt>
      <trkpt lat="49.80893" lon="6.77372">
        <ele>127.040815</ele>
        <time>2022-08-24T07:35:22.000Z</time>
      </trkpt>
      <trkpt lat="49.80881" lon="6.77386">
        <ele>127.025199</ele>
        <time>2022-08-24T07:35:25.000Z</time>
      </trkpt>
      <trkpt lat="49.80861" lon="6.77411">
        <ele>126.998149</ele>
        <time>2022-08-24T07:35:31.000Z</time>
      </trkpt>
      <trkpt lat="49.80834" lon="6.77445">
        <ele>127.002595</ele>
        <time>2022-08-24T07:35:39.000Z</time>
      </trkpt>
      <trkpt lat="49.80823" lon="6.77459">
        <ele>127.005655</ele>
        <time>2022-08-24T07:35:42.000Z</time>
      </trkpt>
      <trkpt lat="49.80802" lon="6.77486">
        <ele>127.011714</ele>
        <time>2022-08-24T07:35:48.000Z</time>
      </trkpt>
      <trkpt lat="49.80772" lon="6.77525">
        <ele>127.020386</ele>
        <time>2022-08-24T07:35:57.000Z</time>
      </trkpt>
      <trkpt lat="49.80747" lon="6.77562">
        <ele>127.028193</ele>
        <time>2022-08-24T07:36:05.000Z</time>
      </trkpt>
      <trkpt lat="49.80716" lon="6.77605">
        <ele>127.048179</ele>
        <time>2022-08-24T07:36:14.000Z</time>
      </trkpt>
      <trkpt lat="49.80702" lon="6.77625">
        <ele>127.07664</ele>
        <time>2022-08-24T07:36:19.000Z</time>
      </trkpt>
      <trkpt lat="49.80695" lon="6.77628">
        <ele>127.086592</ele>
        <time>2022-08-24T07:36:21.000Z</time>
      </trkpt>
      <trkpt lat="49.80683" lon="6.77634">
        <ele>127.104278</ele>
        <time>2022-08-24T07:36:25.000Z</time>
      </trkpt>
      <trkpt lat="49.80676" lon="6.77659">
        <ele>127.129674</ele>
        <time>2022-08-24T07:36:31.000Z</time>
      </trkpt>
      <trkpt lat="49.80658" lon="6.77682">
        <ele>127.162762</ele>
        <time>2022-08-24T07:36:37.000Z</time>
      </trkpt>
      <trkpt lat="49.80632" lon="6.77714">
        <ele>127.211525</ele>
        <time>2022-08-24T07:36:45.000Z</time>
      </trkpt>
      <trkpt lat="49.80591" lon="6.77762">
        <ele>127.285612</ele>
        <time>2022-08-24T07:36:56.000Z</time>
      </trkpt>
      <trkpt lat="49.8056" lon="6.77797">
        <ele>127.273562</ele>
        <time>2022-08-24T07:37:03.000Z</time>
      </trkpt>
      <trkpt lat="49.80531" lon="6.77836">
        <ele>127.246763</ele>
        <time>2022-08-24T07:37:10.000Z</time>
      </trkpt>
      <trkpt lat="49.80519" lon="6.77851">
        <ele>127.236212</ele>
        <time>2022-08-24T07:37:13.000Z</time>
      </trkpt>
      <trkpt lat="49.80485" lon="6.779">
        <ele>127.204001</ele>
        <time>2022-08-24T07:37:22.000Z</time>
      </trkpt>
      <trkpt lat="49.8045" lon="6.77957">
        <ele>127.168647</ele>
        <time>2022-08-24T07:37:31.000Z</time>
      </trkpt>
      <trkpt lat="49.8042" lon="6.78005">
        <ele>127.141878</ele>
        <time>2022-08-24T07:37:38.000Z</time>
      </trkpt>
      <trkpt lat="49.80416" lon="6.78012">
        <ele>127.138056</ele>
        <time>2022-08-24T07:37:39.000Z</time>
      </trkpt>
      <trkpt lat="49.80377" lon="6.78079">
        <ele>127.102069</ele>
        <time>2022-08-24T07:37:49.000Z</time>
      </trkpt>
      <trkpt lat="49.80374" lon="6.78086">
        <ele>127.098685</ele>
        <time>2022-08-24T07:37:50.000Z</time>
      </trkpt>
      <trkpt lat="49.80367" lon="6.781">
        <ele>127.091655</ele>
        <time>2022-08-24T07:37:52.000Z</time>
      </trkpt>
      <trkpt lat="49.80352" lon="6.78123">
        <ele>127.078341</ele>
        <time>2022-08-24T07:37:56.000Z</time>
      </trkpt>
      <trkpt lat="49.80332" lon="6.78158">
        <ele>127.059512</ele>
        <time>2022-08-24T07:38:03.000Z</time>
      </trkpt>
      <trkpt lat="49.80316" lon="6.78186">
        <ele>127.06642</ele>
        <time>2022-08-24T07:38:08.000Z</time>
      </trkpt>
      <trkpt lat="49.8031" lon="6.78198">
        <ele>127.069789</ele>
        <time>2022-08-24T07:38:10.000Z</time>
      </trkpt>
      <trkpt lat="49.80306" lon="6.78203">
        <ele>127.071483</ele>
        <time>2022-08-24T07:38:11.000Z</time>
      </trkpt>
      <trkpt lat="49.80284" lon="6.78244">
        <ele>127.08325</ele>
        <time>2022-08-24T07:38:18.000Z</time>
      </trkpt>
      <trkpt lat="49.80279" lon="6.78254">
        <ele>127.086156</ele>
        <time>2022-08-24T07:38:20.000Z</time>
      </trkpt>
      <trkpt lat="49.80267" lon="6.78266">
        <ele>127.091018</ele>
        <time>2022-08-24T07:38:24.000Z</time>
      </trkpt>
      <trkpt lat="49.80252" lon="6.78284">
        <ele>127.097559</ele>
        <time>2022-08-24T07:38:29.000Z</time>
      </trkpt>
      <trkpt lat="49.80243" lon="6.78304">
        <ele>127.102984</ele>
        <time>2022-08-24T07:38:33.000Z</time>
      </trkpt>
      <trkpt lat="49.80237" lon="6.78321">
        <ele>127.107406</ele>
        <time>2022-08-24T07:38:36.000Z</time>
      </trkpt>
      <trkpt lat="49.80235" lon="6.78328">
        <ele>127.108884</ele>
        <time>2022-08-24T07:38:37.000Z</time>
      </trkpt>
      <trkpt lat="49.8023" lon="6.78347">
        <ele>127.11354</ele>
        <time>2022-08-24T07:38:40.000Z</time>
      </trkpt>
      <trkpt lat="49.80224" lon="6.7836">
        <ele>127.116946</ele>
        <time>2022-08-24T07:38:42.000Z</time>
      </trkpt>
      <trkpt lat="49.8021" lon="6.78388">
        <ele>127.106572</ele>
        <time>2022-08-24T07:38:47.000Z</time>
      </trkpt>
      <trkpt lat="49.80206" lon="6.78391">
        <ele>127.102109</ele>
        <time>2022-08-24T07:38:48.000Z</time>
      </trkpt>
      <trkpt lat="49.80192" lon="6.78402">
        <ele>127.085098</ele>
        <time>2022-08-24T07:38:52.000Z</time>
      </trkpt>
      <trkpt lat="49.8019" lon="6.78419">
        <ele>127.072418</ele>
        <time>2022-08-24T07:38:55.000Z</time>
      </trkpt>
      <trkpt lat="49.80181" lon="6.78442">
        <ele>127.053969</ele>
        <time>2022-08-24T07:38:59.000Z</time>
      </trkpt>
      <trkpt lat="49.80171" lon="6.78466">
        <ele>127.033586</ele>
        <time>2022-08-24T07:39:03.000Z</time>
      </trkpt>
      <trkpt lat="49.80168" lon="6.78472">
        <ele>127.028473</ele>
        <time>2022-08-24T07:39:04.000Z</time>
      </trkpt>
      <trkpt lat="49.8014" lon="6.78536">
        <ele>126.973559</ele>
        <time>2022-08-24T07:39:14.000Z</time>
      </trkpt>
      <trkpt lat="49.80114" lon="6.78596">
        <ele>126.925961</ele>
        <time>2022-08-24T07:39:23.000Z</time>
      </trkpt>
      <trkpt lat="49.80095" lon="6.78641">
        <ele>126.991229</ele>
        <time>2022-08-24T07:39:30.000Z</time>
      </trkpt>
      <trkpt lat="49.80073" lon="6.78692">
        <ele>127.065531</ele>
        <time>2022-08-24T07:39:38.000Z</time>
      </trkpt>
      <trkpt lat="49.80055" lon="6.78737">
        <ele>127.130294</ele>
        <time>2022-08-24T07:39:45.000Z</time>
      </trkpt>
      <trkpt lat="49.80036" lon="6.78783">
        <ele>127.197415</ele>
        <time>2022-08-24T07:39:53.000Z</time>
      </trkpt>
      <trkpt lat="49.80009" lon="6.78848">
        <ele>127.219065</ele>
        <time>2022-08-24T07:40:04.000Z</time>
      </trkpt>
      <trkpt lat="49.7999" lon="6.78905">
        <ele>127.09138</ele>
        <time>2022-08-24T07:40:12.000Z</time>
      </trkpt>
      <trkpt lat="49.79968" lon="6.78962">
        <ele>126.961751</ele>
        <time>2022-08-24T07:40:20.000Z</time>
      </trkpt>
      <trkpt lat="49.79952" lon="6.79002">
        <ele>126.869263</ele>
        <time>2022-08-24T07:40:26.000Z</time>
      </trkpt>
      <trkpt lat="49.79949" lon="6.79009">
        <ele>126.853546</ele>
        <time>2022-08-24T07:40:27.000Z</time>
      </trkpt>
      <trkpt lat="49.79944" lon="6.79021">
        <ele>126.822925</ele>
        <time>2022-08-24T07:40:29.000Z</time>
      </trkpt>
      <trkpt lat="49.79935" lon="6.79047">
        <ele>126.766214</ele>
        <time>2022-08-24T07:40:33.000Z</time>
      </trkpt>
      <trkpt lat="49.79913" lon="6.79104">
        <ele>126.701609</ele>
        <time>2022-08-24T07:40:42.000Z</time>
      </trkpt>
      <trkpt lat="49.79901" lon="6.79135">
        <ele>126.689172</ele>
        <time>2022-08-24T07:40:47.000Z</time>
      </trkpt>
      <trkpt lat="49.79898" lon="6.79142">
        <ele>126.686711</ele>
        <time>2022-08-24T07:40:48.000Z</time>
      </trkpt>
      <trkpt lat="49.79876" lon="6.792">
        <ele>126.66407</ele>
        <time>2022-08-24T07:40:57.000Z</time>
      </trkpt>
      <trkpt lat="49.79874" lon="6.79207">
        <ele>126.66148</ele>
        <time>2022-08-24T07:40:58.000Z</time>
      </trkpt>
      <trkpt lat="49.7986" lon="6.79254">
        <ele>126.643965</ele>
        <time>2022-08-24T07:41:05.000Z</time>
      </trkpt>
      <trkpt lat="49.79852" lon="6.79289">
        <ele>126.631392</ele>
        <time>2022-08-24T07:41:10.000Z</time>
      </trkpt>
      <trkpt lat="49.79849" lon="6.79303">
        <ele>126.626525</ele>
        <time>2022-08-24T07:41:12.000Z</time>
      </trkpt>
      <trkpt lat="49.79843" lon="6.7933">
        <ele>126.631407</ele>
        <time>2022-08-24T07:41:16.000Z</time>
      </trkpt>
      <trkpt lat="49.79838" lon="6.79343">
        <ele>126.641686</ele>
        <time>2022-08-24T07:41:18.000Z</time>
      </trkpt>
      <trkpt lat="49.79835" lon="6.79348">
        <ele>126.647159</ele>
        <time>2022-08-24T07:41:19.000Z</time>
      </trkpt>
      <trkpt lat="49.79832" lon="6.79353">
        <ele>126.651612</ele>
        <time>2022-08-24T07:41:20.000Z</time>
      </trkpt>
      <trkpt lat="49.79823" lon="6.7937">
        <ele>126.667207</ele>
        <time>2022-08-24T07:41:24.000Z</time>
      </trkpt>
      <trkpt lat="49.79808" lon="6.79396">
        <ele>126.692921</ele>
        <time>2022-08-24T07:41:30.000Z</time>
      </trkpt>
      <trkpt lat="49.79796" lon="6.79408">
        <ele>126.708396</ele>
        <time>2022-08-24T07:41:35.000Z</time>
      </trkpt>
      <trkpt lat="49.79789" lon="6.79414">
        <ele>126.717278</ele>
        <time>2022-08-24T07:41:36.000Z</time>
      </trkpt>
      <trkpt lat="49.79784" lon="6.79424">
        <ele>126.726662</ele>
        <time>2022-08-24T07:41:38.000Z</time>
      </trkpt>
      <trkpt lat="49.7977" lon="6.79461">
        <ele>126.757397</ele>
        <time>2022-08-24T07:41:45.000Z</time>
      </trkpt>
      <trkpt lat="49.79756" lon="6.79504">
        <ele>126.792138</ele>
        <time>2022-08-24T07:41:52.000Z</time>
      </trkpt>
      <trkpt lat="49.79752" lon="6.79516">
        <ele>126.801963</ele>
        <time>2022-08-24T07:41:54.000Z</time>
      </trkpt>
      <trkpt lat="49.79743" lon="6.79549">
        <ele>126.823389</ele>
        <time>2022-08-24T07:41:59.000Z</time>
      </trkpt>
      <trkpt lat="49.79727" lon="6.79597">
        <ele>126.832437</ele>
        <time>2022-08-24T07:42:06.000Z</time>
      </trkpt>
      <trkpt lat="49.7971" lon="6.79652">
        <ele>126.842925</ele>
        <time>2022-08-24T07:42:14.000Z</time>
      </trkpt>
      <trkpt lat="49.79706" lon="6.79665">
        <ele>126.845457</ele>
        <time>2022-08-24T07:42:16.000Z</time>
      </trkpt>
      <trkpt lat="49.79692" lon="6.79713">
        <ele>126.854468</ele>
        <time>2022-08-24T07:42:23.000Z</time>
      </trkpt>
      <trkpt lat="49.79686" lon="6.79734">
        <ele>126.858397</ele>
        <time>2022-08-24T07:42:26.000Z</time>
      </trkpt>
      <trkpt lat="49.79681" lon="6.79755">
        <ele>126.86226</ele>
        <time>2022-08-24T07:42:29.000Z</time>
      </trkpt>
      <trkpt lat="49.79665" lon="6.7981">
        <ele>126.855826</ele>
        <time>2022-08-24T07:42:37.000Z</time>
      </trkpt>
      <trkpt lat="49.79663" lon="6.79817">
        <ele>126.849629</ele>
        <time>2022-08-24T07:42:39.000Z</time>
      </trkpt>
      <trkpt lat="49.79664" lon="6.79821">
        <ele>126.846629</ele>
        <time>2022-08-24T07:42:41.000Z</time>
      </trkpt>
      <trkpt lat="49.79665" lon="6.7982">
        <ele>126.845181</ele>
        <time>2022-08-24T07:42:42.000Z</time>
      </trkpt>
      <trkpt lat="49.79668" lon="6.79809">
        <ele>126.835778</ele>
        <time>2022-08-24T07:42:47.000Z</time>
      </trkpt>
      <trkpt lat="49.79668" lon="6.79798">
        <ele>126.82623</ele>
        <time>2022-08-24T07:42:52.000Z</time>
      </trkpt>
      <trkpt lat="49.79668" lon="6.79797">
        <ele>126.825492</ele>
        <time>2022-08-24T07:42:53.000Z</time>
      </trkpt>
      <trkpt lat="49.79668" lon="6.79797">
        <ele>126.825492</ele>
        <time>2022-08-24T07:42:59.000Z</time>
      </trkpt>
      <trkpt lat="49.79668" lon="6.79797">
        <ele>126.825287</ele>
        <time>2022-08-24T07:43:45.000Z</time>
      </trkpt>
      <trkpt lat="49.79668" lon="6.79798">
        <ele>126.824322</ele>
        <time>2022-08-24T07:43:49.000Z</time>
      </trkpt>
      <trkpt lat="49.79667" lon="6.79801">
        <ele>126.822268</ele>
        <time>2022-08-24T07:43:50.000Z</time>
      </trkpt>
      <trkpt lat="49.79663" lon="6.79815">
        <ele>126.809101</ele>
        <time>2022-08-24T07:43:54.000Z</time>
      </trkpt>
      <trkpt lat="49.79655" lon="6.79845">
        <ele>126.782999</ele>
        <time>2022-08-24T07:44:00.000Z</time>
      </trkpt>
      <trkpt lat="49.79644" lon="6.79878">
        <ele>126.753126</ele>
        <time>2022-08-24T07:44:06.000Z</time>
      </trkpt>
      <trkpt lat="49.79637" lon="6.799">
        <ele>126.732702</ele>
        <time>2022-08-24T07:44:10.000Z</time>
      </trkpt>
      <trkpt lat="49.79635" lon="6.79906">
        <ele>126.727429</ele>
        <time>2022-08-24T07:44:12.000Z</time>
      </trkpt>
      <trkpt lat="49.79625" lon="6.79954">
        <ele>126.686518</ele>
        <time>2022-08-24T07:44:18.000Z</time>
      </trkpt>
      <trkpt lat="49.79623" lon="6.79962">
        <ele>126.680461</ele>
        <time>2022-08-24T07:44:19.000Z</time>
      </trkpt>
      <trkpt lat="49.79622" lon="6.79969">
        <ele>126.674731</ele>
        <time>2022-08-24T07:44:20.000Z</time>
      </trkpt>
      <trkpt lat="49.79614" lon="6.79996">
        <ele>126.650526</ele>
        <time>2022-08-24T07:44:24.000Z</time>
      </trkpt>
      <trkpt lat="49.79598" lon="6.80052">
        <ele>126.645239</ele>
        <time>2022-08-24T07:44:32.000Z</time>
      </trkpt>
      <trkpt lat="49.79593" lon="6.80073">
        <ele>126.645555</ele>
        <time>2022-08-24T07:44:35.000Z</time>
      </trkpt>
      <trkpt lat="49.79581" lon="6.80108">
        <ele>126.646107</ele>
        <time>2022-08-24T07:44:40.000Z</time>
      </trkpt>
      <trkpt lat="49.79574" lon="6.80129">
        <ele>126.646438</ele>
        <time>2022-08-24T07:44:43.000Z</time>
      </trkpt>
      <trkpt lat="49.79568" lon="6.80143">
        <ele>126.646661</ele>
        <time>2022-08-24T07:44:45.000Z</time>
      </trkpt>
      <trkpt lat="49.79562" lon="6.80157">
        <ele>126.646902</ele>
        <time>2022-08-24T07:44:47.000Z</time>
      </trkpt>
      <trkpt lat="49.79557" lon="6.80172">
        <ele>126.647133</ele>
        <time>2022-08-24T07:44:49.000Z</time>
      </trkpt>
      <trkpt lat="49.79552" lon="6.80195">
        <ele>126.64747</ele>
        <time>2022-08-24T07:44:52.000Z</time>
      </trkpt>
      <trkpt lat="49.79543" lon="6.80223">
        <ele>126.647899</ele>
        <time>2022-08-24T07:44:56.000Z</time>
      </trkpt>
      <trkpt lat="49.79534" lon="6.80253">
        <ele>126.648354</ele>
        <time>2022-08-24T07:45:00.000Z</time>
      </trkpt>
      <trkpt lat="49.79518" lon="6.8031">
        <ele>126.59626</ele>
        <time>2022-08-24T07:45:07.000Z</time>
      </trkpt>
      <trkpt lat="49.79506" lon="6.80353">
        <ele>126.556808</ele>
        <time>2022-08-24T07:45:12.000Z</time>
      </trkpt>
      <trkpt lat="49.79497" lon="6.80386">
        <ele>126.526933</ele>
        <time>2022-08-24T07:45:16.000Z</time>
      </trkpt>
      <trkpt lat="49.79495" lon="6.80394">
        <ele>126.51972</ele>
        <time>2022-08-24T07:45:17.000Z</time>
      </trkpt>
      <trkpt lat="49.79481" lon="6.80432">
        <ele>126.482619</ele>
        <time>2022-08-24T07:45:22.000Z</time>
      </trkpt>
      <trkpt lat="49.79462" lon="6.80497">
        <ele>126.422789</ele>
        <time>2022-08-24T07:45:30.000Z</time>
      </trkpt>
      <trkpt lat="49.79447" lon="6.80545">
        <ele>126.654651</ele>
        <time>2022-08-24T07:45:36.000Z</time>
      </trkpt>
      <trkpt lat="49.79445" lon="6.80553">
        <ele>126.703907</ele>
        <time>2022-08-24T07:45:37.000Z</time>
      </trkpt>
      <trkpt lat="49.79432" lon="6.8059">
        <ele>126.938607</ele>
        <time>2022-08-24T07:45:42.000Z</time>
      </trkpt>
      <trkpt lat="49.79416" lon="6.80639">
        <ele>127.253343</ele>
        <time>2022-08-24T07:45:50.000Z</time>
      </trkpt>
      <trkpt lat="49.794" lon="6.8068">
        <ele>127.519268</ele>
        <time>2022-08-24T07:45:57.000Z</time>
      </trkpt>
      <trkpt lat="49.79392" lon="6.80679">
        <ele>127.592594</ele>
        <time>2022-08-24T07:46:00.000Z</time>
      </trkpt>
      <trkpt lat="49.79384" lon="6.80674">
        <ele>127.668185</ele>
        <time>2022-08-24T07:46:03.000Z</time>
      </trkpt>
      <trkpt lat="49.7938" lon="6.80673">
        <ele>127.706007</ele>
        <time>2022-08-24T07:46:05.000Z</time>
      </trkpt>
      <trkpt lat="49.79378" lon="6.80671">
        <ele>127.725129</ele>
        <time>2022-08-24T07:46:06.000Z</time>
      </trkpt>
      <trkpt lat="49.79376" lon="6.80669">
        <ele>127.746607</ele>
        <time>2022-08-24T07:46:07.000Z</time>
      </trkpt>
      <trkpt lat="49.7936" lon="6.80661">
        <ele>127.893584</ele>
        <time>2022-08-24T07:46:14.000Z</time>
      </trkpt>
      <trkpt lat="49.79358" lon="6.80654">
        <ele>127.93565</ele>
        <time>2022-08-24T07:46:16.000Z</time>
      </trkpt>
      <trkpt lat="49.79358" lon="6.80651">
        <ele>127.957305</ele>
        <time>2022-08-24T07:46:17.000Z</time>
      </trkpt>
      <trkpt lat="49.79358" lon="6.80633">
        <ele>127.98354</ele>
        <time>2022-08-24T07:46:22.000Z</time>
      </trkpt>
      <trkpt lat="49.79361" lon="6.80609">
        <ele>127.987734</ele>
        <time>2022-08-24T07:46:28.000Z</time>
      </trkpt>
      <trkpt lat="49.79363" lon="6.80606">
        <ele>127.988549</ele>
        <time>2022-08-24T07:46:29.000Z</time>
      </trkpt>
      <trkpt lat="49.7938" lon="6.80586">
        <ele>127.994392</ele>
        <time>2022-08-24T07:46:35.000Z</time>
      </trkpt>
      <trkpt lat="49.79388" lon="6.80557">
        <ele>127.999856</ele>
        <time>2022-08-24T07:46:40.000Z</time>
      </trkpt>
      <trkpt lat="49.79395" lon="6.80525">
        <ele>128.005763</ele>
        <time>2022-08-24T07:46:46.000Z</time>
      </trkpt>
      <trkpt lat="49.79401" lon="6.80506">
        <ele>128.009534</ele>
        <time>2022-08-24T07:46:50.000Z</time>
      </trkpt>
      <trkpt lat="49.79406" lon="6.80495">
        <ele>128.011906</ele>
        <time>2022-08-24T07:46:53.000Z</time>
      </trkpt>
      <trkpt lat="49.79408" lon="6.80488">
        <ele>128.013237</ele>
        <time>2022-08-24T07:46:55.000Z</time>
      </trkpt>
      <trkpt lat="49.79406" lon="6.80482">
        <ele>128.01437</ele>
        <time>2022-08-24T07:46:57.000Z</time>
      </trkpt>
      <trkpt lat="49.79401" lon="6.80488">
        <ele>128.016025</ele>
        <time>2022-08-24T07:47:00.000Z</time>
      </trkpt>
      <trkpt lat="49.79396" lon="6.80515">
        <ele>128.021022</ele>
        <time>2022-08-24T07:47:06.000Z</time>
      </trkpt>
      <trkpt lat="49.79389" lon="6.80544">
        <ele>128.026452</ele>
        <time>2022-08-24T07:47:12.000Z</time>
      </trkpt>
      <trkpt lat="49.79383" lon="6.8057">
        <ele>128.016617</ele>
        <time>2022-08-24T07:47:17.000Z</time>
      </trkpt>
      <trkpt lat="49.7938" lon="6.80576">
        <ele>128.003255</ele>
        <time>2022-08-24T07:47:19.000Z</time>
      </trkpt>
      <trkpt lat="49.79376" lon="6.8059">
        <ele>127.975665</ele>
        <time>2022-08-24T07:47:23.000Z</time>
      </trkpt>
      <trkpt lat="49.79374" lon="6.80592">
        <ele>127.969279</ele>
        <time>2022-08-24T07:47:24.000Z</time>
      </trkpt>
      <trkpt lat="49.7936" lon="6.80605">
        <ele>127.923813</ele>
        <time>2022-08-24T07:47:31.000Z</time>
      </trkpt>
      <trkpt lat="49.79356" lon="6.80626">
        <ele>127.885135</ele>
        <time>2022-08-24T07:47:37.000Z</time>
      </trkpt>
      <trkpt lat="49.79357" lon="6.80651">
        <ele>127.838697</ele>
        <time>2022-08-24T07:47:44.000Z</time>
      </trkpt>
      <trkpt lat="49.79357" lon="6.8066">
        <ele>127.822897</ele>
        <time>2022-08-24T07:47:46.000Z</time>
      </trkpt>
      <trkpt lat="49.7936" lon="6.80662">
        <ele>127.814762</ele>
        <time>2022-08-24T07:47:47.000Z</time>
      </trkpt>
      <trkpt lat="49.7937" lon="6.80665">
        <ele>127.784482</ele>
        <time>2022-08-24T07:47:51.000Z</time>
      </trkpt>
      <trkpt lat="49.79376" lon="6.80667">
        <ele>127.769721</ele>
        <time>2022-08-24T07:47:53.000Z</time>
      </trkpt>
      <trkpt lat="49.79396" lon="6.80677">
        <ele>127.708512</ele>
        <time>2022-08-24T07:47:59.000Z</time>
      </trkpt>
      <trkpt lat="49.794" lon="6.80682">
        <ele>127.695649</ele>
        <time>2022-08-24T07:48:01.000Z</time>
      </trkpt>
      <trkpt lat="49.794" lon="6.80689">
        <ele>127.68139</ele>
        <time>2022-08-24T07:48:03.000Z</time>
      </trkpt>
      <trkpt lat="49.79394" lon="6.80706">
        <ele>127.647663</ele>
        <time>2022-08-24T07:48:07.000Z</time>
      </trkpt>
      <trkpt lat="49.79392" lon="6.80713">
        <ele>127.632497</ele>
        <time>2022-08-24T07:48:09.000Z</time>
      </trkpt>
      <trkpt lat="49.7938" lon="6.80748">
        <ele>127.560619</ele>
        <time>2022-08-24T07:48:16.000Z</time>
      </trkpt>
      <trkpt lat="49.79368" lon="6.80782">
        <ele>127.557525</ele>
        <time>2022-08-24T07:48:22.000Z</time>
      </trkpt>
      <trkpt lat="49.79356" lon="6.80819">
        <ele>127.649988</ele>
        <time>2022-08-24T07:48:28.000Z</time>
      </trkpt>
      <trkpt lat="49.79352" lon="6.8083">
        <ele>127.677143</ele>
        <time>2022-08-24T07:48:30.000Z</time>
      </trkpt>
      <trkpt lat="49.79336" lon="6.80883">
        <ele>127.806659</ele>
        <time>2022-08-24T07:48:38.000Z</time>
      </trkpt>
      <trkpt lat="49.7932" lon="6.80936">
        <ele>127.936668</ele>
        <time>2022-08-24T07:48:46.000Z</time>
      </trkpt>
      <trkpt lat="49.79304" lon="6.8099">
        <ele>128.067132</ele>
        <time>2022-08-24T07:48:54.000Z</time>
      </trkpt>
      <trkpt lat="49.79288" lon="6.81054">
        <ele>127.857664</ele>
        <time>2022-08-24T07:49:02.000Z</time>
      </trkpt>
      <trkpt lat="49.79274" lon="6.8112">
        <ele>127.342736</ele>
        <time>2022-08-24T07:49:10.000Z</time>
      </trkpt>
      <trkpt lat="49.79268" lon="6.81136">
        <ele>127.212007</ele>
        <time>2022-08-24T07:49:12.000Z</time>
      </trkpt>
      <trkpt lat="49.79261" lon="6.81165">
        <ele>126.986502</ele>
        <time>2022-08-24T07:49:16.000Z</time>
      </trkpt>
      <trkpt lat="49.79246" lon="6.81226">
        <ele>126.504965</ele>
        <time>2022-08-24T07:49:24.000Z</time>
      </trkpt>
      <trkpt lat="49.79243" lon="6.8124">
        <ele>126.398195</ele>
        <time>2022-08-24T07:49:26.000Z</time>
      </trkpt>
      <trkpt lat="49.79236" lon="6.8127">
        <ele>126.161195</ele>
        <time>2022-08-24T07:49:30.000Z</time>
      </trkpt>
      <trkpt lat="49.79228" lon="6.81309">
        <ele>126.105652</ele>
        <time>2022-08-24T07:49:35.000Z</time>
      </trkpt>
      <trkpt lat="49.79218" lon="6.81346">
        <ele>126.131281</ele>
        <time>2022-08-24T07:49:40.000Z</time>
      </trkpt>
      <trkpt lat="49.79212" lon="6.81352">
        <ele>126.138373</ele>
        <time>2022-08-24T07:49:42.000Z</time>
      </trkpt>
      <trkpt lat="49.79197" lon="6.81348">
        <ele>126.154087</ele>
        <time>2022-08-24T07:49:46.000Z</time>
      </trkpt>
      <trkpt lat="49.79193" lon="6.81351">
        <ele>126.157781</ele>
        <time>2022-08-24T07:49:47.000Z</time>
      </trkpt>
      <trkpt lat="49.79192" lon="6.81356">
        <ele>126.16162</ele>
        <time>2022-08-24T07:49:48.000Z</time>
      </trkpt>
      <trkpt lat="49.79191" lon="6.81362">
        <ele>126.165623</ele>
        <time>2022-08-24T07:49:49.000Z</time>
      </trkpt>
      <trkpt lat="49.79192" lon="6.81368">
        <ele>126.169392</ele>
        <time>2022-08-24T07:49:50.000Z</time>
      </trkpt>
      <trkpt lat="49.79199" lon="6.81376">
        <ele>126.178095</ele>
        <time>2022-08-24T07:49:52.000Z</time>
      </trkpt>
      <trkpt lat="49.79206" lon="6.81385">
        <ele>126.187036</ele>
        <time>2022-08-24T07:49:54.000Z</time>
      </trkpt>
      <trkpt lat="49.79207" lon="6.81391">
        <ele>126.190992</ele>
        <time>2022-08-24T07:49:55.000Z</time>
      </trkpt>
      <trkpt lat="49.79207" lon="6.81396">
        <ele>126.194825</ele>
        <time>2022-08-24T07:49:56.000Z</time>
      </trkpt>
      <trkpt lat="49.79204" lon="6.81409">
        <ele>126.203315</ele>
        <time>2022-08-24T07:49:58.000Z</time>
      </trkpt>
      <trkpt lat="49.79203" lon="6.81415">
        <ele>126.207699</ele>
        <time>2022-08-24T07:49:59.000Z</time>
      </trkpt>
      <trkpt lat="49.7919" lon="6.81467">
        <ele>126.243706</ele>
        <time>2022-08-24T07:50:07.000Z</time>
      </trkpt>
      <trkpt lat="49.79184" lon="6.81494">
        <ele>126.262522</ele>
        <time>2022-08-24T07:50:11.000Z</time>
      </trkpt>
      <trkpt lat="49.79175" lon="6.8153">
        <ele>126.27734</ele>
        <time>2022-08-24T07:50:16.000Z</time>
      </trkpt>
      <trkpt lat="49.79171" lon="6.81545">
        <ele>126.282853</ele>
        <time>2022-08-24T07:50:18.000Z</time>
      </trkpt>
      <trkpt lat="49.7916" lon="6.81595">
        <ele>126.301169</ele>
        <time>2022-08-24T07:50:25.000Z</time>
      </trkpt>
      <trkpt lat="49.79147" lon="6.81653">
        <ele>126.322299</ele>
        <time>2022-08-24T07:50:33.000Z</time>
      </trkpt>
      <trkpt lat="49.79143" lon="6.81667">
        <ele>126.32745</ele>
        <time>2022-08-24T07:50:35.000Z</time>
      </trkpt>
      <trkpt lat="49.7914" lon="6.81682">
        <ele>126.332781</ele>
        <time>2022-08-24T07:50:37.000Z</time>
      </trkpt>
      <trkpt lat="49.79135" lon="6.8171">
        <ele>126.34283</ele>
        <time>2022-08-24T07:50:41.000Z</time>
      </trkpt>
      <trkpt lat="49.79129" lon="6.81747">
        <ele>126.355822</ele>
        <time>2022-08-24T07:50:46.000Z</time>
      </trkpt>
      <trkpt lat="49.79126" lon="6.81761">
        <ele>126.360894</ele>
        <time>2022-08-24T07:50:48.000Z</time>
      </trkpt>
      <trkpt lat="49.79125" lon="6.81768">
        <ele>126.385368</ele>
        <time>2022-08-24T07:50:49.000Z</time>
      </trkpt>
      <trkpt lat="49.79119" lon="6.81799">
        <ele>126.546195</ele>
        <time>2022-08-24T07:50:54.000Z</time>
      </trkpt>
      <trkpt lat="49.79116" lon="6.81803">
        <ele>126.573743</ele>
        <time>2022-08-24T07:50:55.000Z</time>
      </trkpt>
      <trkpt lat="49.79106" lon="6.81809">
        <ele>126.654455</ele>
        <time>2022-08-24T07:50:57.000Z</time>
      </trkpt>
      <trkpt lat="49.79102" lon="6.81808">
        <ele>126.682941</ele>
        <time>2022-08-24T07:50:58.000Z</time>
      </trkpt>
      <trkpt lat="49.79093" lon="6.81805">
        <ele>126.75853</ele>
        <time>2022-08-24T07:51:01.000Z</time>
      </trkpt>
      <trkpt lat="49.79088" lon="6.81808">
        <ele>126.794084</ele>
        <time>2022-08-24T07:51:02.000Z</time>
      </trkpt>
      <trkpt lat="49.79086" lon="6.81817">
        <ele>126.840306</ele>
        <time>2022-08-24T07:51:04.000Z</time>
      </trkpt>
      <trkpt lat="49.79087" lon="6.81864">
        <ele>127.074925</ele>
        <time>2022-08-24T07:51:13.000Z</time>
      </trkpt>
      <trkpt lat="49.79088" lon="6.81875">
        <ele>127.129947</ele>
        <time>2022-08-24T07:51:15.000Z</time>
      </trkpt>
      <trkpt lat="49.79089" lon="6.81913">
        <ele>127.315179</ele>
        <time>2022-08-24T07:51:21.000Z</time>
      </trkpt>
      <trkpt lat="49.79093" lon="6.81932">
        <ele>127.415669</ele>
        <time>2022-08-24T07:51:24.000Z</time>
      </trkpt>
      <trkpt lat="49.79096" lon="6.81947">
        <ele>127.491501</ele>
        <time>2022-08-24T07:51:26.000Z</time>
      </trkpt>
      <trkpt lat="49.79108" lon="6.81997">
        <ele>127.739494</ele>
        <time>2022-08-24T07:51:32.000Z</time>
      </trkpt>
      <trkpt lat="49.79123" lon="6.82055">
        <ele>127.796967</ele>
        <time>2022-08-24T07:51:38.000Z</time>
      </trkpt>
      <trkpt lat="49.79133" lon="6.82085">
        <ele>127.829263</ele>
        <time>2022-08-24T07:51:42.000Z</time>
      </trkpt>
      <trkpt lat="49.79136" lon="6.82093">
        <ele>127.83705</ele>
        <time>2022-08-24T07:51:43.000Z</time>
      </trkpt>
      <trkpt lat="49.79137" lon="6.82101">
        <ele>127.844973</ele>
        <time>2022-08-24T07:51:44.000Z</time>
      </trkpt>
      <trkpt lat="49.79145" lon="6.82135">
        <ele>127.877767</ele>
        <time>2022-08-24T07:51:48.000Z</time>
      </trkpt>
      <trkpt lat="49.79158" lon="6.82191">
        <ele>127.932942</ele>
        <time>2022-08-24T07:51:55.000Z</time>
      </trkpt>
      <trkpt lat="49.79165" lon="6.82244">
        <ele>127.982943</ele>
        <time>2022-08-24T07:52:01.000Z</time>
      </trkpt>
      <trkpt lat="49.79167" lon="6.82252">
        <ele>127.990986</ele>
        <time>2022-08-24T07:52:02.000Z</time>
      </trkpt>
      <trkpt lat="49.79174" lon="6.82275">
        <ele>128.032484</ele>
        <time>2022-08-24T07:52:05.000Z</time>
      </trkpt>
      <trkpt lat="49.79176" lon="6.82284">
        <ele>128.047117</ele>
        <time>2022-08-24T07:52:06.000Z</time>
      </trkpt>
      <trkpt lat="49.79178" lon="6.82292">
        <ele>128.062477</ele>
        <time>2022-08-24T07:52:07.000Z</time>
      </trkpt>
      <trkpt lat="49.7919" lon="6.8233">
        <ele>128.135426</ele>
        <time>2022-08-24T07:52:12.000Z</time>
      </trkpt>
      <trkpt lat="49.79205" lon="6.82375">
        <ele>128.221765</ele>
        <time>2022-08-24T07:52:18.000Z</time>
      </trkpt>
      <trkpt lat="49.79209" lon="6.82389">
        <ele>128.249405</ele>
        <time>2022-08-24T07:52:20.000Z</time>
      </trkpt>
      <trkpt lat="49.79213" lon="6.82396">
        <ele>128.264816</ele>
        <time>2022-08-24T07:52:21.000Z</time>
      </trkpt>
      <trkpt lat="49.79224" lon="6.82426">
        <ele>128.323361</ele>
        <time>2022-08-24T07:52:25.000Z</time>
      </trkpt>
      <trkpt lat="49.79228" lon="6.82441">
        <ele>128.352046</ele>
        <time>2022-08-24T07:52:27.000Z</time>
      </trkpt>
      <trkpt lat="49.79233" lon="6.82455">
        <ele>128.379768</ele>
        <time>2022-08-24T07:52:29.000Z</time>
      </trkpt>
      <trkpt lat="49.79241" lon="6.82477">
        <ele>128.42261</ele>
        <time>2022-08-24T07:52:32.000Z</time>
      </trkpt>
      <trkpt lat="49.79247" lon="6.82499">
        <ele>128.465024</ele>
        <time>2022-08-24T07:52:35.000Z</time>
      </trkpt>
      <trkpt lat="49.79257" lon="6.82518">
        <ele>128.49482</ele>
        <time>2022-08-24T07:52:38.000Z</time>
      </trkpt>
      <trkpt lat="49.79278" lon="6.82566">
        <ele>128.561013</ele>
        <time>2022-08-24T07:52:45.000Z</time>
      </trkpt>
      <trkpt lat="49.79285" lon="6.82578">
        <ele>128.5794</ele>
        <time>2022-08-24T07:52:47.000Z</time>
      </trkpt>
      <trkpt lat="49.79298" lon="6.82603">
        <ele>128.616378</ele>
        <time>2022-08-24T07:52:51.000Z</time>
      </trkpt>
      <trkpt lat="49.79312" lon="6.82626">
        <ele>128.65336</ele>
        <time>2022-08-24T07:52:55.000Z</time>
      </trkpt>
      <trkpt lat="49.79317" lon="6.8264">
        <ele>128.671912</ele>
        <time>2022-08-24T07:52:57.000Z</time>
      </trkpt>
      <trkpt lat="49.79324" lon="6.8265">
        <ele>128.688715</ele>
        <time>2022-08-24T07:52:59.000Z</time>
      </trkpt>
      <trkpt lat="49.79331" lon="6.82662">
        <ele>128.707332</ele>
        <time>2022-08-24T07:53:01.000Z</time>
      </trkpt>
      <trkpt lat="49.79334" lon="6.82669">
        <ele>128.716321</ele>
        <time>2022-08-24T07:53:02.000Z</time>
      </trkpt>
      <trkpt lat="49.79339" lon="6.82673">
        <ele>128.726985</ele>
        <time>2022-08-24T07:53:03.000Z</time>
      </trkpt>
      <trkpt lat="49.79351" lon="6.82689">
        <ele>128.75536</ele>
        <time>2022-08-24T07:53:06.000Z</time>
      </trkpt>
      <trkpt lat="49.79374" lon="6.82722">
        <ele>128.803472</ele>
        <time>2022-08-24T07:53:12.000Z</time>
      </trkpt>
      <trkpt lat="49.79408" lon="6.82765">
        <ele>128.849562</ele>
        <time>2022-08-24T07:53:20.000Z</time>
      </trkpt>
      <trkpt lat="49.79431" lon="6.82796">
        <ele>128.881685</ele>
        <time>2022-08-24T07:53:26.000Z</time>
      </trkpt>
      <trkpt lat="49.79434" lon="6.82802">
        <ele>128.88724</ele>
        <time>2022-08-24T07:53:27.000Z</time>
      </trkpt>
      <trkpt lat="49.79439" lon="6.82807">
        <ele>128.893009</ele>
        <time>2022-08-24T07:53:28.000Z</time>
      </trkpt>
      <trkpt lat="49.79443" lon="6.82813">
        <ele>128.898851</ele>
        <time>2022-08-24T07:53:29.000Z</time>
      </trkpt>
      <trkpt lat="49.79457" lon="6.82828">
        <ele>128.917416</ele>
        <time>2022-08-24T07:53:32.000Z</time>
      </trkpt>
      <trkpt lat="49.79461" lon="6.82835">
        <ele>128.92366</ele>
        <time>2022-08-24T07:53:33.000Z</time>
      </trkpt>
      <trkpt lat="49.79474" lon="6.82856">
        <ele>128.94383</ele>
        <time>2022-08-24T07:53:37.000Z</time>
      </trkpt>
      <trkpt lat="49.7951" lon="6.82908">
        <ele>129.025724</ele>
        <time>2022-08-24T07:53:46.000Z</time>
      </trkpt>
      <trkpt lat="49.79531" lon="6.82952">
        <ele>129.160404</ele>
        <time>2022-08-24T07:53:53.000Z</time>
      </trkpt>
      <trkpt lat="49.79537" lon="6.82966">
        <ele>129.199959</ele>
        <time>2022-08-24T07:53:55.000Z</time>
      </trkpt>
      <trkpt lat="49.79547" lon="6.8299">
        <ele>129.269465</ele>
        <time>2022-08-24T07:53:59.000Z</time>
      </trkpt>
      <trkpt lat="49.79552" lon="6.83002">
        <ele>129.304329</ele>
        <time>2022-08-24T07:54:01.000Z</time>
      </trkpt>
      <trkpt lat="49.79556" lon="6.83008">
        <ele>129.323222</ele>
        <time>2022-08-24T07:54:02.000Z</time>
      </trkpt>
      <trkpt lat="49.79558" lon="6.83014">
        <ele>129.34004</ele>
        <time>2022-08-24T07:54:03.000Z</time>
      </trkpt>
      <trkpt lat="49.79562" lon="6.83027">
        <ele>129.375204</ele>
        <time>2022-08-24T07:54:05.000Z</time>
      </trkpt>
      <trkpt lat="49.79567" lon="6.8304">
        <ele>129.411135</ele>
        <time>2022-08-24T07:54:07.000Z</time>
      </trkpt>
      <trkpt lat="49.7959" lon="6.83089">
        <ele>129.558014</ele>
        <time>2022-08-24T07:54:15.000Z</time>
      </trkpt>
      <trkpt lat="49.79596" lon="6.83101">
        <ele>129.594941</ele>
        <time>2022-08-24T07:54:17.000Z</time>
      </trkpt>
      <trkpt lat="49.796" lon="6.83107">
        <ele>129.613226</ele>
        <time>2022-08-24T07:54:18.000Z</time>
      </trkpt>
      <trkpt lat="49.79603" lon="6.83115">
        <ele>129.637943</ele>
        <time>2022-08-24T07:54:19.000Z</time>
      </trkpt>
      <trkpt lat="49.7961" lon="6.83129">
        <ele>129.600787</ele>
        <time>2022-08-24T07:54:21.000Z</time>
      </trkpt>
      <trkpt lat="49.79617" lon="6.83144">
        <ele>129.503153</ele>
        <time>2022-08-24T07:54:23.000Z</time>
      </trkpt>
      <trkpt lat="49.79627" lon="6.83172">
        <ele>129.334718</ele>
        <time>2022-08-24T07:54:27.000Z</time>
      </trkpt>
      <trkpt lat="49.79635" lon="6.832">
        <ele>129.175912</ele>
        <time>2022-08-24T07:54:31.000Z</time>
      </trkpt>
      <trkpt lat="49.79641" lon="6.83222">
        <ele>129.049802</ele>
        <time>2022-08-24T07:54:34.000Z</time>
      </trkpt>
      <trkpt lat="49.79652" lon="6.83249">
        <ele>128.883063</ele>
        <time>2022-08-24T07:54:38.000Z</time>
      </trkpt>
      <trkpt lat="49.79654" lon="6.83256">
        <ele>128.843809</ele>
        <time>2022-08-24T07:54:39.000Z</time>
      </trkpt>
      <trkpt lat="49.79657" lon="6.83271">
        <ele>128.762887</ele>
        <time>2022-08-24T07:54:41.000Z</time>
      </trkpt>
      <trkpt lat="49.79662" lon="6.83292">
        <ele>128.643329</ele>
        <time>2022-08-24T07:54:44.000Z</time>
      </trkpt>
      <trkpt lat="49.79677" lon="6.83343">
        <ele>128.352919</ele>
        <time>2022-08-24T07:54:51.000Z</time>
      </trkpt>
      <trkpt lat="49.79694" lon="6.83402">
        <ele>128.12298</ele>
        <time>2022-08-24T07:54:59.000Z</time>
      </trkpt>
      <trkpt lat="49.79706" lon="6.83453">
        <ele>128.009718</ele>
        <time>2022-08-24T07:55:06.000Z</time>
      </trkpt>
      <trkpt lat="49.79719" lon="6.83533">
        <ele>127.834555</ele>
        <time>2022-08-24T07:55:17.000Z</time>
      </trkpt>
      <trkpt lat="49.79718" lon="6.83565">
        <ele>127.767482</ele>
        <time>2022-08-24T07:55:21.000Z</time>
      </trkpt>
      <trkpt lat="49.79716" lon="6.83581">
        <ele>127.733796</ele>
        <time>2022-08-24T07:55:23.000Z</time>
      </trkpt>
      <trkpt lat="49.7971" lon="6.83617">
        <ele>127.655855</ele>
        <time>2022-08-24T07:55:28.000Z</time>
      </trkpt>
      <trkpt lat="49.79697" lon="6.8365">
        <ele>127.581056</ele>
        <time>2022-08-24T07:55:33.000Z</time>
      </trkpt>
      <trkpt lat="49.79692" lon="6.83664">
        <ele>127.554962</ele>
        <time>2022-08-24T07:55:35.000Z</time>
      </trkpt>
      <trkpt lat="49.79671" lon="6.83704">
        <ele>127.465276</ele>
        <time>2022-08-24T07:55:42.000Z</time>
      </trkpt>
      <trkpt lat="49.79634" lon="6.83763">
        <ele>127.326212</ele>
        <time>2022-08-24T07:55:53.000Z</time>
      </trkpt>
      <trkpt lat="49.79592" lon="6.83815">
        <ele>127.183957</ele>
        <time>2022-08-24T07:56:04.000Z</time>
      </trkpt>
      <trkpt lat="49.79546" lon="6.83861">
        <ele>127.161417</ele>
        <time>2022-08-24T07:56:15.000Z</time>
      </trkpt>
      <trkpt lat="49.79542" lon="6.83865">
        <ele>127.165151</ele>
        <time>2022-08-24T07:56:16.000Z</time>
      </trkpt>
      <trkpt lat="49.79529" lon="6.83875">
        <ele>127.175564</ele>
        <time>2022-08-24T07:56:19.000Z</time>
      </trkpt>
      <trkpt lat="49.79502" lon="6.83893">
        <ele>127.196274</ele>
        <time>2022-08-24T07:56:25.000Z</time>
      </trkpt>
      <trkpt lat="49.79467" lon="6.8391">
        <ele>127.222537</ele>
        <time>2022-08-24T07:56:33.000Z</time>
      </trkpt>
      <trkpt lat="49.79438" lon="6.83923">
        <ele>127.244505</ele>
        <time>2022-08-24T07:56:40.000Z</time>
      </trkpt>
      <trkpt lat="49.79416" lon="6.83933">
        <ele>127.260797</ele>
        <time>2022-08-24T07:56:45.000Z</time>
      </trkpt>
      <trkpt lat="49.79375" lon="6.83951">
        <ele>127.126241</ele>
        <time>2022-08-24T07:56:54.000Z</time>
      </trkpt>
      <trkpt lat="49.79371" lon="6.83953">
        <ele>127.110702</ele>
        <time>2022-08-24T07:56:55.000Z</time>
      </trkpt>
      <trkpt lat="49.79349" lon="6.83958">
        <ele>127.031471</ele>
        <time>2022-08-24T07:57:01.000Z</time>
      </trkpt>
      <trkpt lat="49.79347" lon="6.83955">
        <ele>127.021775</ele>
        <time>2022-08-24T07:57:02.000Z</time>
      </trkpt>
      <trkpt lat="49.79346" lon="6.83951">
        <ele>127.011401</ele>
        <time>2022-08-24T07:57:03.000Z</time>
      </trkpt>
      <trkpt lat="49.79343" lon="6.83938">
        <ele>126.978</ele>
        <time>2022-08-24T07:57:06.000Z</time>
      </trkpt>
      <trkpt lat="49.79337" lon="6.83923">
        <ele>126.936891</ele>
        <time>2022-08-24T07:57:11.000Z</time>
      </trkpt>
      <trkpt lat="49.79335" lon="6.83923">
        <ele>126.928101</ele>
        <time>2022-08-24T07:57:12.000Z</time>
      </trkpt>
      <trkpt lat="49.7933" lon="6.83923">
        <ele>126.910162</ele>
        <time>2022-08-24T07:57:17.000Z</time>
      </trkpt>
      <trkpt lat="49.7933" lon="6.83923">
        <ele>126.910162</ele>
        <time>2022-08-24T07:57:21.000Z</time>
      </trkpt>
      <trkpt lat="49.7933" lon="6.83923">
        <ele>126.910162</ele>
        <time>2022-08-24T07:57:44.000Z</time>
      </trkpt>
      <trkpt lat="49.7933" lon="6.83923">
        <ele>126.910162</ele>
        <time>2022-08-24T07:57:51.000Z</time>
      </trkpt>
      <trkpt lat="49.7933" lon="6.83923">
        <ele>126.90969</ele>
        <time>2022-08-24T07:57:54.000Z</time>
      </trkpt>
      <trkpt lat="49.79333" lon="6.83925">
        <ele>126.899358</ele>
        <time>2022-08-24T07:57:56.000Z</time>
      </trkpt>
      <trkpt lat="49.79334" lon="6.83924">
        <ele>126.893203</ele>
        <time>2022-08-24T07:57:57.000Z</time>
      </trkpt>
      <trkpt lat="49.7934" lon="6.83924">
        <ele>126.873383</ele>
        <time>2022-08-24T07:58:00.000Z</time>
      </trkpt>
      <trkpt lat="49.79342" lon="6.8393">
        <ele>126.854514</ele>
        <time>2022-08-24T07:58:02.000Z</time>
      </trkpt>
      <trkpt lat="49.79346" lon="6.83958">
        <ele>126.787575</ele>
        <time>2022-08-24T07:58:08.000Z</time>
      </trkpt>
      <trkpt lat="49.79333" lon="6.83966">
        <ele>126.736451</ele>
        <time>2022-08-24T07:58:12.000Z</time>
      </trkpt>
      <trkpt lat="49.79311" lon="6.83975">
        <ele>126.654148</ele>
        <time>2022-08-24T07:58:17.000Z</time>
      </trkpt>
      <trkpt lat="49.79276" lon="6.83992">
        <ele>126.512423</ele>
        <time>2022-08-24T07:58:25.000Z</time>
      </trkpt>
      <trkpt lat="49.79245" lon="6.8401">
        <ele>126.38181</ele>
        <time>2022-08-24T07:58:32.000Z</time>
      </trkpt>
      <trkpt lat="49.79232" lon="6.84018">
        <ele>126.326849</ele>
        <time>2022-08-24T07:58:35.000Z</time>
      </trkpt>
      <trkpt lat="49.79223" lon="6.84023">
        <ele>126.288608</ele>
        <time>2022-08-24T07:58:37.000Z</time>
      </trkpt>
      <trkpt lat="49.79197" lon="6.84044">
        <ele>126.170874</ele>
        <time>2022-08-24T07:58:43.000Z</time>
      </trkpt>
      <trkpt lat="49.79167" lon="6.84065">
        <ele>126.041838</ele>
        <time>2022-08-24T07:58:50.000Z</time>
      </trkpt>
      <trkpt lat="49.79165" lon="6.84067">
        <ele>126.033142</ele>
        <time>2022-08-24T07:58:51.000Z</time>
      </trkpt>
      <trkpt lat="49.79162" lon="6.84069">
        <ele>126.020764</ele>
        <time>2022-08-24T07:58:53.000Z</time>
      </trkpt>
      <trkpt lat="49.7916" lon="6.8407">
        <ele>126.01069</ele>
        <time>2022-08-24T07:58:56.000Z</time>
      </trkpt>
      <trkpt lat="49.7916" lon="6.8407">
        <ele>126.009747</ele>
        <time>2022-08-24T07:59:10.000Z</time>
      </trkpt>
      <trkpt lat="49.7916" lon="6.8407">
        <ele>126.009747</ele>
        <time>2022-08-24T07:59:23.000Z</time>
      </trkpt>
      <trkpt lat="49.7916" lon="6.8407">
        <ele>126.007765</ele>
        <time>2022-08-24T07:59:57.000Z</time>
      </trkpt>
      <trkpt lat="49.7916" lon="6.8407">
        <ele>126.007765</ele>
        <time>2022-08-24T08:00:01.000Z</time>
      </trkpt>
      <trkpt lat="49.7916" lon="6.8407">
        <ele>126.006998</ele>
        <time>2022-08-24T08:00:05.000Z</time>
      </trkpt>
      <trkpt lat="49.7916" lon="6.8407">
        <ele>126.006742</ele>
        <time>2022-08-24T08:00:07.000Z</time>
      </trkpt>
      <trkpt lat="49.79158" lon="6.84072">
        <ele>125.999367</ele>
        <time>2022-08-24T08:00:21.000Z</time>
      </trkpt>
      <trkpt lat="49.79155" lon="6.84075">
        <ele>125.982793</ele>
        <time>2022-08-24T08:00:23.000Z</time>
      </trkpt>
      <trkpt lat="49.7914" lon="6.84087">
        <ele>125.916821</ele>
        <time>2022-08-24T08:00:29.000Z</time>
      </trkpt>
      <trkpt lat="49.79119" lon="6.84104">
        <ele>125.876822</ele>
        <time>2022-08-24T08:00:36.000Z</time>
      </trkpt>
      <trkpt lat="49.7909" lon="6.84132">
        <ele>125.844659</ele>
        <time>2022-08-24T08:00:45.000Z</time>
      </trkpt>
      <trkpt lat="49.79075" lon="6.84145">
        <ele>125.829026</ele>
        <time>2022-08-24T08:00:50.000Z</time>
      </trkpt>
      <trkpt lat="49.79067" lon="6.84153">
        <ele>125.819837</ele>
        <time>2022-08-24T08:00:53.000Z</time>
      </trkpt>
      <trkpt lat="49.79048" lon="6.84173">
        <ele>125.799021</ele>
        <time>2022-08-24T08:00:59.000Z</time>
      </trkpt>
      <trkpt lat="49.79032" lon="6.84192">
        <ele>125.779958</ele>
        <time>2022-08-24T08:01:04.000Z</time>
      </trkpt>
      <trkpt lat="49.79019" lon="6.84209">
        <ele>125.764195</ele>
        <time>2022-08-24T08:01:08.000Z</time>
      </trkpt>
      <trkpt lat="49.78998" lon="6.84234">
        <ele>125.739412</ele>
        <time>2022-08-24T08:01:14.000Z</time>
      </trkpt>
      <trkpt lat="49.7896" lon="6.84287">
        <ele>125.745587</ele>
        <time>2022-08-24T08:01:25.000Z</time>
      </trkpt>
      <trkpt lat="49.78934" lon="6.84329">
        <ele>125.765963</ele>
        <time>2022-08-24T08:01:33.000Z</time>
      </trkpt>
      <trkpt lat="49.78909" lon="6.84375">
        <ele>125.78658</ele>
        <time>2022-08-24T08:01:41.000Z</time>
      </trkpt>
      <trkpt lat="49.78888" lon="6.84415">
        <ele>125.804471</ele>
        <time>2022-08-24T08:01:48.000Z</time>
      </trkpt>
      <trkpt lat="49.78866" lon="6.84471">
        <ele>125.841527</ele>
        <time>2022-08-24T08:01:57.000Z</time>
      </trkpt>
      <trkpt lat="49.78852" lon="6.84517">
        <ele>125.917713</ele>
        <time>2022-08-24T08:02:04.000Z</time>
      </trkpt>
      <trkpt lat="49.7885" lon="6.84523">
        <ele>125.929111</ele>
        <time>2022-08-24T08:02:05.000Z</time>
      </trkpt>
      <trkpt lat="49.78839" lon="6.84574">
        <ele>126.008637</ele>
        <time>2022-08-24T08:02:12.000Z</time>
      </trkpt>
      <trkpt lat="49.78828" lon="6.84644">
        <ele>126.116123</ele>
        <time>2022-08-24T08:02:21.000Z</time>
      </trkpt>
      <trkpt lat="49.78825" lon="6.84667">
        <ele>126.150769</ele>
        <time>2022-08-24T08:02:24.000Z</time>
      </trkpt>
      <trkpt lat="49.78824" lon="6.84693">
        <ele>126.189898</ele>
        <time>2022-08-24T08:02:27.000Z</time>
      </trkpt>
      <trkpt lat="49.78821" lon="6.84753">
        <ele>126.284159</ele>
        <time>2022-08-24T08:02:35.000Z</time>
      </trkpt>
      <trkpt lat="49.78825" lon="6.84808">
        <ele>126.37402</ele>
        <time>2022-08-24T08:02:42.000Z</time>
      </trkpt>
      <trkpt lat="49.78826" lon="6.84816">
        <ele>126.386632</ele>
        <time>2022-08-24T08:02:43.000Z</time>
      </trkpt>
      <trkpt lat="49.78826" lon="6.84823">
        <ele>126.399469</ele>
        <time>2022-08-24T08:02:44.000Z</time>
      </trkpt>
      <trkpt lat="49.78827" lon="6.84831">
        <ele>126.411965</ele>
        <time>2022-08-24T08:02:45.000Z</time>
      </trkpt>
      <trkpt lat="49.7883" lon="6.84846">
        <ele>126.43813</ele>
        <time>2022-08-24T08:02:47.000Z</time>
      </trkpt>
      <trkpt lat="49.7884" lon="6.84883">
        <ele>126.503619</ele>
        <time>2022-08-24T08:02:52.000Z</time>
      </trkpt>
      <trkpt lat="49.78845" lon="6.84896">
        <ele>126.528164</ele>
        <time>2022-08-24T08:02:54.000Z</time>
      </trkpt>
      <trkpt lat="49.78849" lon="6.84912">
        <ele>126.556171</ele>
        <time>2022-08-24T08:02:56.000Z</time>
      </trkpt>
      <trkpt lat="49.78857" lon="6.84942">
        <ele>126.610172</ele>
        <time>2022-08-24T08:03:00.000Z</time>
      </trkpt>
      <trkpt lat="49.78871" lon="6.84974">
        <ele>126.672557</ele>
        <time>2022-08-24T08:03:05.000Z</time>
      </trkpt>
      <trkpt lat="49.78877" lon="6.84984">
        <ele>126.694779</ele>
        <time>2022-08-24T08:03:07.000Z</time>
      </trkpt>
      <trkpt lat="49.78879" lon="6.84989">
        <ele>126.705039</ele>
        <time>2022-08-24T08:03:08.000Z</time>
      </trkpt>
      <trkpt lat="49.78892" lon="6.8501">
        <ele>126.749772</ele>
        <time>2022-08-24T08:03:12.000Z</time>
      </trkpt>
      <trkpt lat="49.789" lon="6.85021">
        <ele>126.7771</ele>
        <time>2022-08-24T08:03:14.000Z</time>
      </trkpt>
      <trkpt lat="49.78925" lon="6.85053">
        <ele>126.855234</ele>
        <time>2022-08-24T08:03:20.000Z</time>
      </trkpt>
      <trkpt lat="49.78932" lon="6.85061">
        <ele>126.877736</ele>
        <time>2022-08-24T08:03:22.000Z</time>
      </trkpt>
      <trkpt lat="49.78944" lon="6.85079">
        <ele>126.919145</ele>
        <time>2022-08-24T08:03:25.000Z</time>
      </trkpt>
      <trkpt lat="49.78959" lon="6.85095">
        <ele>126.961725</ele>
        <time>2022-08-24T08:03:28.000Z</time>
      </trkpt>
      <trkpt lat="49.7898" lon="6.85119">
        <ele>127.026262</ele>
        <time>2022-08-24T08:03:33.000Z</time>
      </trkpt>
      <trkpt lat="49.78991" lon="6.85135">
        <ele>127.064206</ele>
        <time>2022-08-24T08:03:36.000Z</time>
      </trkpt>
      <trkpt lat="49.78995" lon="6.85139">
        <ele>127.075467</ele>
        <time>2022-08-24T08:03:37.000Z</time>
      </trkpt>
      <trkpt lat="49.79009" lon="6.85157">
        <ele>127.120745</ele>
        <time>2022-08-24T08:03:41.000Z</time>
      </trkpt>
      <trkpt lat="49.79013" lon="6.85163">
        <ele>127.134329</ele>
        <time>2022-08-24T08:03:42.000Z</time>
      </trkpt>
      <trkpt lat="49.79038" lon="6.8519">
        <ele>127.210838</ele>
        <time>2022-08-24T08:03:48.000Z</time>
      </trkpt>
      <trkpt lat="49.79066" lon="6.85218">
        <ele>127.296685</ele>
        <time>2022-08-24T08:03:55.000Z</time>
      </trkpt>
      <trkpt lat="49.79073" lon="6.85224">
        <ele>127.318075</ele>
        <time>2022-08-24T08:03:57.000Z</time>
      </trkpt>
      <trkpt lat="49.79084" lon="6.85233">
        <ele>127.350031</ele>
        <time>2022-08-24T08:04:00.000Z</time>
      </trkpt>
      <trkpt lat="49.79091" lon="6.8524">
        <ele>127.369939</ele>
        <time>2022-08-24T08:04:02.000Z</time>
      </trkpt>
      <trkpt lat="49.791" lon="6.85247">
        <ele>127.395916</ele>
        <time>2022-08-24T08:04:05.000Z</time>
      </trkpt>
      <trkpt lat="49.79105" lon="6.8525">
        <ele>127.408415</ele>
        <time>2022-08-24T08:04:06.000Z</time>
      </trkpt>
      <trkpt lat="49.79116" lon="6.85259">
        <ele>127.442493</ele>
        <time>2022-08-24T08:04:09.000Z</time>
      </trkpt>
      <trkpt lat="49.79125" lon="6.85264">
        <ele>127.465739</ele>
        <time>2022-08-24T08:04:11.000Z</time>
      </trkpt>
      <trkpt lat="49.79148" lon="6.85283">
        <ele>127.533285</ele>
        <time>2022-08-24T08:04:16.000Z</time>
      </trkpt>
      <trkpt lat="49.79153" lon="6.85286">
        <ele>127.546479</ele>
        <time>2022-08-24T08:04:17.000Z</time>
      </trkpt>
      <trkpt lat="49.79195" lon="6.85318">
        <ele>127.679695</ele>
        <time>2022-08-24T08:04:25.000Z</time>
      </trkpt>
      <trkpt lat="49.79212" lon="6.85331">
        <ele>127.74066</ele>
        <time>2022-08-24T08:04:29.000Z</time>
      </trkpt>
      <trkpt lat="49.79225" lon="6.8534">
        <ele>127.784925</ele>
        <time>2022-08-24T08:04:32.000Z</time>
      </trkpt>
      <trkpt lat="49.79238" lon="6.8535">
        <ele>127.829217</ele>
        <time>2022-08-24T08:04:35.000Z</time>
      </trkpt>
      <trkpt lat="49.79253" lon="6.85358">
        <ele>127.876611</ele>
        <time>2022-08-24T08:04:38.000Z</time>
      </trkpt>
      <trkpt lat="49.79259" lon="6.8536">
        <ele>127.897878</ele>
        <time>2022-08-24T08:04:40.000Z</time>
      </trkpt>
      <trkpt lat="49.7927" lon="6.85363">
        <ele>127.931474</ele>
        <time>2022-08-24T08:04:43.000Z</time>
      </trkpt>
      <trkpt lat="49.79296" lon="6.85363">
        <ele>128.01112</ele>
        <time>2022-08-24T08:04:49.000Z</time>
      </trkpt>
      <trkpt lat="49.79313" lon="6.85363">
        <ele>128.063184</ele>
        <time>2022-08-24T08:04:52.000Z</time>
      </trkpt>
      <trkpt lat="49.79329" lon="6.85366">
        <ele>128.114052</ele>
        <time>2022-08-24T08:04:55.000Z</time>
      </trkpt>
      <trkpt lat="49.7935" lon="6.85372">
        <ele>128.144364</ele>
        <time>2022-08-24T08:04:59.000Z</time>
      </trkpt>
      <trkpt lat="49.79365" lon="6.85376">
        <ele>128.131339</ele>
        <time>2022-08-24T08:05:02.000Z</time>
      </trkpt>
      <trkpt lat="49.79375" lon="6.8538">
        <ele>128.122791</ele>
        <time>2022-08-24T08:05:04.000Z</time>
      </trkpt>
      <trkpt lat="49.79398" lon="6.85392">
        <ele>128.101968</ele>
        <time>2022-08-24T08:05:09.000Z</time>
      </trkpt>
      <trkpt lat="49.79403" lon="6.85396">
        <ele>128.097044</ele>
        <time>2022-08-24T08:05:10.000Z</time>
      </trkpt>
      <trkpt lat="49.7943" lon="6.85419">
        <ele>128.07066</ele>
        <time>2022-08-24T08:05:16.000Z</time>
      </trkpt>
      <trkpt lat="49.79443" lon="6.8543">
        <ele>128.057136</ele>
        <time>2022-08-24T08:05:19.000Z</time>
      </trkpt>
      <trkpt lat="49.7949" lon="6.85465">
        <ele>128.012243</ele>
        <time>2022-08-24T08:05:29.000Z</time>
      </trkpt>
      <trkpt lat="49.79524" lon="6.85486">
        <ele>127.980602</ele>
        <time>2022-08-24T08:05:36.000Z</time>
      </trkpt>
      <trkpt lat="49.7955" lon="6.855">
        <ele>127.957018</ele>
        <time>2022-08-24T08:05:41.000Z</time>
      </trkpt>
      <trkpt lat="49.79593" lon="6.8552">
        <ele>127.917705</ele>
        <time>2022-08-24T08:05:50.000Z</time>
      </trkpt>
      <trkpt lat="49.7963" lon="6.85532">
        <ele>127.884772</ele>
        <time>2022-08-24T08:05:57.000Z</time>
      </trkpt>
      <trkpt lat="49.79645" lon="6.85537">
        <ele>127.871318</ele>
        <time>2022-08-24T08:06:00.000Z</time>
      </trkpt>
      <trkpt lat="49.797" lon="6.85555">
        <ele>127.881363</ele>
        <time>2022-08-24T08:06:11.000Z</time>
      </trkpt>
      <trkpt lat="49.79705" lon="6.85557">
        <ele>127.891634</ele>
        <time>2022-08-24T08:06:12.000Z</time>
      </trkpt>
      <trkpt lat="49.79763" lon="6.85571">
        <ele>128.008448</ele>
        <time>2022-08-24T08:06:23.000Z</time>
      </trkpt>
      <trkpt lat="49.79778" lon="6.85575">
        <ele>128.038686</ele>
        <time>2022-08-24T08:06:26.000Z</time>
      </trkpt>
      <trkpt lat="49.79811" lon="6.85579">
        <ele>128.106598</ele>
        <time>2022-08-24T08:06:33.000Z</time>
      </trkpt>
      <trkpt lat="49.79855" lon="6.85586">
        <ele>128.194364</ele>
        <time>2022-08-24T08:06:41.000Z</time>
      </trkpt>
      <trkpt lat="49.79866" lon="6.85586">
        <ele>128.192813</ele>
        <time>2022-08-24T08:06:43.000Z</time>
      </trkpt>
      <trkpt lat="49.79905" lon="6.85592">
        <ele>128.165496</ele>
        <time>2022-08-24T08:06:50.000Z</time>
      </trkpt>
      <trkpt lat="49.79957" lon="6.85594">
        <ele>128.128914</ele>
        <time>2022-08-24T08:06:59.000Z</time>
      </trkpt>
      <trkpt lat="49.79974" lon="6.85592">
        <ele>128.116849</ele>
        <time>2022-08-24T08:07:02.000Z</time>
      </trkpt>
      <trkpt lat="49.80001" lon="6.85589">
        <ele>128.097267</ele>
        <time>2022-08-24T08:07:07.000Z</time>
      </trkpt>
      <trkpt lat="49.80023" lon="6.85585">
        <ele>128.082103</ele>
        <time>2022-08-24T08:07:11.000Z</time>
      </trkpt>
      <trkpt lat="49.80055" lon="6.85578">
        <ele>128.123908</ele>
        <time>2022-08-24T08:07:17.000Z</time>
      </trkpt>
      <trkpt lat="49.80081" lon="6.85572">
        <ele>128.197687</ele>
        <time>2022-08-24T08:07:22.000Z</time>
      </trkpt>
      <trkpt lat="49.80122" lon="6.85557">
        <ele>128.315458</ele>
        <time>2022-08-24T08:07:30.000Z</time>
      </trkpt>
      <trkpt lat="49.80166" lon="6.85536">
        <ele>128.445465</ele>
        <time>2022-08-24T08:07:40.000Z</time>
      </trkpt>
      <trkpt lat="49.80182" lon="6.85526">
        <ele>128.494587</ele>
        <time>2022-08-24T08:07:45.000Z</time>
      </trkpt>
      <trkpt lat="49.80195" lon="6.85523">
        <ele>128.529892</ele>
        <time>2022-08-24T08:07:50.000Z</time>
      </trkpt>
      <trkpt lat="49.80197" lon="6.85521">
        <ele>128.537725</ele>
        <time>2022-08-24T08:07:52.000Z</time>
      </trkpt>
      <trkpt lat="49.80197" lon="6.85521">
        <ele>128.53885</ele>
        <time>2022-08-24T08:07:54.000Z</time>
      </trkpt>
      <trkpt lat="49.80197" lon="6.85521">
        <ele>128.53885</ele>
        <time>2022-08-24T08:07:59.000Z</time>
      </trkpt>
      <trkpt lat="49.80197" lon="6.85521">
        <ele>128.53885</ele>
        <time>2022-08-24T08:08:43.000Z</time>
      </trkpt>
      <trkpt lat="49.80197" lon="6.85521">
        <ele>128.53885</ele>
        <time>2022-08-24T08:08:54.000Z</time>
      </trkpt>
      <trkpt lat="49.80197" lon="6.85521">
        <ele>128.53885</ele>
        <time>2022-08-24T08:09:05.000Z</time>
      </trkpt>
      <trkpt lat="49.80197" lon="6.85521">
        <ele>128.53885</ele>
        <time>2022-08-24T08:09:17.000Z</time>
      </trkpt>
      <trkpt lat="49.80197" lon="6.85521">
        <ele>128.53885</ele>
        <time>2022-08-24T08:09:28.000Z</time>
      </trkpt>
      <trkpt lat="49.80197" lon="6.85521">
        <ele>128.53885</ele>
        <time>2022-08-24T08:09:33.000Z</time>
      </trkpt>
      <trkpt lat="49.80197" lon="6.85521">
        <ele>128.53885</ele>
        <time>2022-08-24T08:09:51.000Z</time>
      </trkpt>
      <trkpt lat="49.80197" lon="6.85521">
        <ele>128.539629</ele>
        <time>2022-08-24T08:10:06.000Z</time>
      </trkpt>
      <trkpt lat="49.802" lon="6.85526">
        <ele>128.552616</ele>
        <time>2022-08-24T08:10:09.000Z</time>
      </trkpt>
      <trkpt lat="49.80202" lon="6.85528">
        <ele>128.55745</ele>
        <time>2022-08-24T08:10:10.000Z</time>
      </trkpt>
      <trkpt lat="49.80218" lon="6.85527">
        <ele>128.765881</ele>
        <time>2022-08-24T08:10:16.000Z</time>
      </trkpt>
      <trkpt lat="49.80223" lon="6.85523">
        <ele>128.903297</ele>
        <time>2022-08-24T08:10:18.000Z</time>
      </trkpt>
      <trkpt lat="49.80229" lon="6.85517">
        <ele>129.063245</ele>
        <time>2022-08-24T08:10:21.000Z</time>
      </trkpt>
      <trkpt lat="49.80234" lon="6.85515">
        <ele>129.162563</ele>
        <time>2022-08-24T08:10:23.000Z</time>
      </trkpt>
      <trkpt lat="49.80248" lon="6.85504">
        <ele>129.51627</ele>
        <time>2022-08-24T08:10:29.000Z</time>
      </trkpt>
      <trkpt lat="49.80256" lon="6.85499">
        <ele>129.711347</ele>
        <time>2022-08-24T08:10:32.000Z</time>
      </trkpt>
      <trkpt lat="49.80258" lon="6.85497">
        <ele>129.766172</ele>
        <time>2022-08-24T08:10:33.000Z</time>
      </trkpt>
      <trkpt lat="49.80264" lon="6.85494">
        <ele>129.909446</ele>
        <time>2022-08-24T08:10:35.000Z</time>
      </trkpt>
      <trkpt lat="49.8027" lon="6.8549">
        <ele>130.033581</ele>
        <time>2022-08-24T08:10:37.000Z</time>
      </trkpt>
      <trkpt lat="49.80272" lon="6.85489">
        <ele>130.098241</ele>
        <time>2022-08-24T08:10:38.000Z</time>
      </trkpt>
      <trkpt lat="49.80298" lon="6.8547">
        <ele>130.73159</ele>
        <time>2022-08-24T08:10:48.000Z</time>
      </trkpt>
      <trkpt lat="49.80322" lon="6.85451">
        <ele>131.324315</ele>
        <time>2022-08-24T08:10:57.000Z</time>
      </trkpt>
      <trkpt lat="49.80334" lon="6.85441">
        <ele>131.618036</ele>
        <time>2022-08-24T08:11:01.000Z</time>
      </trkpt>
      <trkpt lat="49.80345" lon="6.85432">
        <ele>131.90847</ele>
        <time>2022-08-24T08:11:05.000Z</time>
      </trkpt>
      <trkpt lat="49.80363" lon="6.8542">
        <ele>132.338856</ele>
        <time>2022-08-24T08:11:11.000Z</time>
      </trkpt>
      <trkpt lat="49.80383" lon="6.85403">
        <ele>132.260455</ele>
        <time>2022-08-24T08:11:18.000Z</time>
      </trkpt>
      <trkpt lat="49.80394" lon="6.85394">
        <ele>131.968885</ele>
        <time>2022-08-24T08:11:21.000Z</time>
      </trkpt>
      <trkpt lat="49.80406" lon="6.85384">
        <ele>131.638156</ele>
        <time>2022-08-24T08:11:24.000Z</time>
      </trkpt>
      <trkpt lat="49.80421" lon="6.85373">
        <ele>131.248977</ele>
        <time>2022-08-24T08:11:27.000Z</time>
      </trkpt>
      <trkpt lat="49.80432" lon="6.85366">
        <ele>130.945307</ele>
        <time>2022-08-24T08:11:29.000Z</time>
      </trkpt>
      <trkpt lat="49.80439" lon="6.85362">
        <ele>130.784867</ele>
        <time>2022-08-24T08:11:30.000Z</time>
      </trkpt>
      <trkpt lat="49.8046" lon="6.85352">
        <ele>130.250699</ele>
        <time>2022-08-24T08:11:33.000Z</time>
      </trkpt>
      <trkpt lat="49.80474" lon="6.85344">
        <ele>129.884774</ele>
        <time>2022-08-24T08:11:35.000Z</time>
      </trkpt>
      <trkpt lat="49.80482" lon="6.85341">
        <ele>129.697665</ele>
        <time>2022-08-24T08:11:36.000Z</time>
      </trkpt>
      <trkpt lat="49.80505" lon="6.85331">
        <ele>129.121988</ele>
        <time>2022-08-24T08:11:39.000Z</time>
      </trkpt>
      <trkpt lat="49.80535" lon="6.85315">
        <ele>128.362959</ele>
        <time>2022-08-24T08:11:43.000Z</time>
      </trkpt>
      <trkpt lat="49.80557" lon="6.85303">
        <ele>128.037273</ele>
        <time>2022-08-24T08:11:46.000Z</time>
      </trkpt>
      <trkpt lat="49.80601" lon="6.85284">
        <ele>127.525213</ele>
        <time>2022-08-24T08:11:52.000Z</time>
      </trkpt>
      <trkpt lat="49.80607" lon="6.85281">
        <ele>127.447274</ele>
        <time>2022-08-24T08:11:53.000Z</time>
      </trkpt>
      <trkpt lat="49.80661" lon="6.85258">
        <ele>126.822369</ele>
        <time>2022-08-24T08:12:01.000Z</time>
      </trkpt>
      <trkpt lat="49.80704" lon="6.85238">
        <ele>126.317668</ele>
        <time>2022-08-24T08:12:08.000Z</time>
      </trkpt>
      <trkpt lat="49.80733" lon="6.85223">
        <ele>126.235555</ele>
        <time>2022-08-24T08:12:13.000Z</time>
      </trkpt>
      <trkpt lat="49.8075" lon="6.85215">
        <ele>126.243817</ele>
        <time>2022-08-24T08:12:16.000Z</time>
      </trkpt>
      <trkpt lat="49.80802" lon="6.85192">
        <ele>126.268481</ele>
        <time>2022-08-24T08:12:25.000Z</time>
      </trkpt>
      <trkpt lat="49.80819" lon="6.85185">
        <ele>126.27657</ele>
        <time>2022-08-24T08:12:28.000Z</time>
      </trkpt>
      <trkpt lat="49.80846" lon="6.85171">
        <ele>126.289661</ele>
        <time>2022-08-24T08:12:33.000Z</time>
      </trkpt>
      <trkpt lat="49.80885" lon="6.85153">
        <ele>126.31131</ele>
        <time>2022-08-24T08:12:40.000Z</time>
      </trkpt>
      <trkpt lat="49.80913" lon="6.8514">
        <ele>126.401111</ele>
        <time>2022-08-24T08:12:45.000Z</time>
      </trkpt>
      <trkpt lat="49.80952" lon="6.85124">
        <ele>126.525094</ele>
        <time>2022-08-24T08:12:52.000Z</time>
      </trkpt>
      <trkpt lat="49.80973" lon="6.85115">
        <ele>126.593571</ele>
        <time>2022-08-24T08:12:56.000Z</time>
      </trkpt>
      <trkpt lat="49.81004" lon="6.85099">
        <ele>126.694782</ele>
        <time>2022-08-24T08:13:02.000Z</time>
      </trkpt>
      <trkpt lat="49.81014" lon="6.85091">
        <ele>126.728469</ele>
        <time>2022-08-24T08:13:04.000Z</time>
      </trkpt>
      <trkpt lat="49.81028" lon="6.85078">
        <ele>126.778326</ele>
        <time>2022-08-24T08:13:07.000Z</time>
      </trkpt>
      <trkpt lat="49.81043" lon="6.8507">
        <ele>126.828275</ele>
        <time>2022-08-24T08:13:10.000Z</time>
      </trkpt>
      <trkpt lat="49.8109" lon="6.85047">
        <ele>126.900143</ele>
        <time>2022-08-24T08:13:19.000Z</time>
      </trkpt>
      <trkpt lat="49.81133" lon="6.8502">
        <ele>126.944439</ele>
        <time>2022-08-24T08:13:27.000Z</time>
      </trkpt>
      <trkpt lat="49.81188" lon="6.84992">
        <ele>126.999069</ele>
        <time>2022-08-24T08:13:37.000Z</time>
      </trkpt>
      <trkpt lat="49.81193" lon="6.8499">
        <ele>127.004473</ele>
        <time>2022-08-24T08:13:38.000Z</time>
      </trkpt>
      <trkpt lat="49.81246" lon="6.84963">
        <ele>127.066061</ele>
        <time>2022-08-24T08:13:48.000Z</time>
      </trkpt>
      <trkpt lat="49.813" lon="6.84928">
        <ele>127.14239</ele>
        <time>2022-08-24T08:13:58.000Z</time>
      </trkpt>
      <trkpt lat="49.81354" lon="6.84893">
        <ele>127.218718</ele>
        <time>2022-08-24T08:14:08.000Z</time>
      </trkpt>
      <trkpt lat="49.81389" lon="6.8487">
        <ele>127.267921</ele>
        <time>2022-08-24T08:14:15.000Z</time>
      </trkpt>
      <trkpt lat="49.81423" lon="6.84848">
        <ele>127.434294</ele>
        <time>2022-08-24T08:14:22.000Z</time>
      </trkpt>
      <trkpt lat="49.81432" lon="6.84843">
        <ele>127.482436</ele>
        <time>2022-08-24T08:14:24.000Z</time>
      </trkpt>
      <trkpt lat="49.8147" lon="6.84818">
        <ele>127.675795</ele>
        <time>2022-08-24T08:14:32.000Z</time>
      </trkpt>
      <trkpt lat="49.81475" lon="6.84815">
        <ele>127.700495</ele>
        <time>2022-08-24T08:14:33.000Z</time>
      </trkpt>
      <trkpt lat="49.81516" lon="6.84787">
        <ele>127.911671</ele>
        <time>2022-08-24T08:14:42.000Z</time>
      </trkpt>
      <trkpt lat="49.81534" lon="6.84774">
        <ele>128.005739</ele>
        <time>2022-08-24T08:14:46.000Z</time>
      </trkpt>
      <trkpt lat="49.81544" lon="6.84768">
        <ele>128.053359</ele>
        <time>2022-08-24T08:14:48.000Z</time>
      </trkpt>
      <trkpt lat="49.81548" lon="6.84765">
        <ele>128.076401</ele>
        <time>2022-08-24T08:14:49.000Z</time>
      </trkpt>
      <trkpt lat="49.81589" lon="6.8474">
        <ele>128.014308</ele>
        <time>2022-08-24T08:14:58.000Z</time>
      </trkpt>
      <trkpt lat="49.8162" lon="6.84718">
        <ele>127.91629</ele>
        <time>2022-08-24T08:15:06.000Z</time>
      </trkpt>
      <trkpt lat="49.81663" lon="6.84689">
        <ele>127.782874</ele>
        <time>2022-08-24T08:15:17.000Z</time>
      </trkpt>
      <trkpt lat="49.81691" lon="6.84669">
        <ele>127.693266</ele>
        <time>2022-08-24T08:15:25.000Z</time>
      </trkpt>
      <trkpt lat="49.81724" lon="6.84647">
        <ele>127.616059</ele>
        <time>2022-08-24T08:15:33.000Z</time>
      </trkpt>
      <trkpt lat="49.81777" lon="6.84617">
        <ele>127.836489</ele>
        <time>2022-08-24T08:15:44.000Z</time>
      </trkpt>
      <trkpt lat="49.81786" lon="6.84613">
        <ele>127.875093</ele>
        <time>2022-08-24T08:15:46.000Z</time>
      </trkpt>
      <trkpt lat="49.8181" lon="6.84602">
        <ele>127.973276</ele>
        <time>2022-08-24T08:15:51.000Z</time>
      </trkpt>
      <trkpt lat="49.81815" lon="6.846">
        <ele>127.992865</ele>
        <time>2022-08-24T08:15:52.000Z</time>
      </trkpt>
      <trkpt lat="49.81842" lon="6.8459">
        <ele>128.101561</ele>
        <time>2022-08-24T08:15:58.000Z</time>
      </trkpt>
      <trkpt lat="49.81846" lon="6.84589">
        <ele>128.118271</ele>
        <time>2022-08-24T08:15:59.000Z</time>
      </trkpt>
      <trkpt lat="49.81852" lon="6.84588">
        <ele>128.14076</ele>
        <time>2022-08-24T08:16:00.000Z</time>
      </trkpt>
      <trkpt lat="49.81865" lon="6.84583">
        <ele>128.194312</ele>
        <time>2022-08-24T08:16:04.000Z</time>
      </trkpt>
      <trkpt lat="49.81868" lon="6.84582">
        <ele>128.207287</ele>
        <time>2022-08-24T08:16:05.000Z</time>
      </trkpt>
      <trkpt lat="49.81874" lon="6.84578">
        <ele>128.233122</ele>
        <time>2022-08-24T08:16:07.000Z</time>
      </trkpt>
      <trkpt lat="49.81882" lon="6.84573">
        <ele>128.26741</ele>
        <time>2022-08-24T08:16:10.000Z</time>
      </trkpt>
      <trkpt lat="49.81888" lon="6.84568">
        <ele>128.291349</ele>
        <time>2022-08-24T08:16:12.000Z</time>
      </trkpt>
      <trkpt lat="49.81912" lon="6.84547">
        <ele>127.659958</ele>
        <time>2022-08-24T08:16:18.000Z</time>
      </trkpt>
      <trkpt lat="49.81917" lon="6.84543">
        <ele>127.497543</ele>
        <time>2022-08-24T08:16:19.000Z</time>
      </trkpt>
      <trkpt lat="49.81935" lon="6.84529">
        <ele>126.954501</ele>
        <time>2022-08-24T08:16:22.000Z</time>
      </trkpt>
      <trkpt lat="49.81948" lon="6.84518">
        <ele>126.535252</ele>
        <time>2022-08-24T08:16:24.000Z</time>
      </trkpt>
      <trkpt lat="49.81955" lon="6.84511">
        <ele>126.307373</ele>
        <time>2022-08-24T08:16:25.000Z</time>
      </trkpt>
      <trkpt lat="49.8197" lon="6.84499">
        <ele>125.83638</ele>
        <time>2022-08-24T08:16:27.000Z</time>
      </trkpt>
      <trkpt lat="49.81976" lon="6.84494">
        <ele>125.654245</ele>
        <time>2022-08-24T08:16:28.000Z</time>
      </trkpt>
      <trkpt lat="49.82006" lon="6.84472">
        <ele>124.738599</ele>
        <time>2022-08-24T08:16:32.000Z</time>
      </trkpt>
      <trkpt lat="49.8202" lon="6.84463">
        <ele>124.322134</ele>
        <time>2022-08-24T08:16:34.000Z</time>
      </trkpt>
      <trkpt lat="49.82064" lon="6.84434">
        <ele>123.381852</ele>
        <time>2022-08-24T08:16:41.000Z</time>
      </trkpt>
      <trkpt lat="49.82101" lon="6.84406">
        <ele>123.569437</ele>
        <time>2022-08-24T08:16:48.000Z</time>
      </trkpt>
      <trkpt lat="49.82133" lon="6.84386">
        <ele>123.721261</ele>
        <time>2022-08-24T08:16:55.000Z</time>
      </trkpt>
      <trkpt lat="49.82145" lon="6.8438">
        <ele>123.778508</ele>
        <time>2022-08-24T08:16:58.000Z</time>
      </trkpt>
      <trkpt lat="49.82152" lon="6.84379">
        <ele>123.812761</ele>
        <time>2022-08-24T08:17:00.000Z</time>
      </trkpt>
      <trkpt lat="49.82168" lon="6.84378">
        <ele>123.882109</ele>
        <time>2022-08-24T08:17:05.000Z</time>
      </trkpt>
      <trkpt lat="49.82183" lon="6.84368">
        <ele>123.955873</ele>
        <time>2022-08-24T08:17:12.000Z</time>
      </trkpt>
      <trkpt lat="49.82189" lon="6.84363">
        <ele>123.987056</ele>
        <time>2022-08-24T08:17:14.000Z</time>
      </trkpt>
      <trkpt lat="49.82204" lon="6.8435">
        <ele>124.065484</ele>
        <time>2022-08-24T08:17:19.000Z</time>
      </trkpt>
      <trkpt lat="49.82208" lon="6.84347">
        <ele>124.083419</ele>
        <time>2022-08-24T08:17:20.000Z</time>
      </trkpt>
      <trkpt lat="49.82232" lon="6.84326">
        <ele>124.181119</ele>
        <time>2022-08-24T08:17:27.000Z</time>
      </trkpt>
      <trkpt lat="49.82244" lon="6.84318">
        <ele>124.216057</ele>
        <time>2022-08-24T08:17:30.000Z</time>
      </trkpt>
      <trkpt lat="49.82258" lon="6.84305">
        <ele>124.261591</ele>
        <time>2022-08-24T08:17:34.000Z</time>
      </trkpt>
      <trkpt lat="49.82283" lon="6.84283">
        <ele>124.338355</ele>
        <time>2022-08-24T08:17:41.000Z</time>
      </trkpt>
      <trkpt lat="49.82301" lon="6.84269">
        <ele>124.395814</ele>
        <time>2022-08-24T08:17:46.000Z</time>
      </trkpt>
      <trkpt lat="49.8232" lon="6.84251">
        <ele>124.453933</ele>
        <time>2022-08-24T08:17:51.000Z</time>
      </trkpt>
      <trkpt lat="49.82358" lon="6.84216">
        <ele>124.5765</ele>
        <time>2022-08-24T08:18:01.000Z</time>
      </trkpt>
      <trkpt lat="49.82367" lon="6.84209">
        <ele>124.601964</ele>
        <time>2022-08-24T08:18:03.000Z</time>
      </trkpt>
      <trkpt lat="49.82374" lon="6.84202">
        <ele>124.625735</ele>
        <time>2022-08-24T08:18:05.000Z</time>
      </trkpt>
      <trkpt lat="49.82381" lon="6.84194">
        <ele>124.740392</ele>
        <time>2022-08-24T08:18:07.000Z</time>
      </trkpt>
      <trkpt lat="49.82397" lon="6.84181">
        <ele>124.987905</ele>
        <time>2022-08-24T08:18:11.000Z</time>
      </trkpt>
      <trkpt lat="49.82418" lon="6.84164">
        <ele>125.306548</ele>
        <time>2022-08-24T08:18:16.000Z</time>
      </trkpt>
      <trkpt lat="49.82431" lon="6.84156">
        <ele>125.506233</ele>
        <time>2022-08-24T08:18:19.000Z</time>
      </trkpt>
      <trkpt lat="49.82446" lon="6.84152">
        <ele>125.712848</ele>
        <time>2022-08-24T08:18:22.000Z</time>
      </trkpt>
      <trkpt lat="49.82456" lon="6.84149">
        <ele>125.857071</ele>
        <time>2022-08-24T08:18:24.000Z</time>
      </trkpt>
      <trkpt lat="49.82479" lon="6.84138">
        <ele>126.194859</ele>
        <time>2022-08-24T08:18:29.000Z</time>
      </trkpt>
      <trkpt lat="49.82491" lon="6.84131">
        <ele>126.363358</ele>
        <time>2022-08-24T08:18:32.000Z</time>
      </trkpt>
      <trkpt lat="49.82501" lon="6.84122">
        <ele>126.527954</ele>
        <time>2022-08-24T08:18:35.000Z</time>
      </trkpt>
      <trkpt lat="49.82504" lon="6.8412">
        <ele>126.576149</ele>
        <time>2022-08-24T08:18:36.000Z</time>
      </trkpt>
      <trkpt lat="49.82531" lon="6.84094">
        <ele>127.008205</ele>
        <time>2022-08-24T08:18:44.000Z</time>
      </trkpt>
      <trkpt lat="49.82549" lon="6.8408">
        <ele>127.103516</ele>
        <time>2022-08-24T08:18:48.000Z</time>
      </trkpt>
      <trkpt lat="49.82561" lon="6.8407">
        <ele>127.098004</ele>
        <time>2022-08-24T08:18:51.000Z</time>
      </trkpt>
      <trkpt lat="49.82574" lon="6.84058">
        <ele>127.091707</ele>
        <time>2022-08-24T08:18:54.000Z</time>
      </trkpt>
      <trkpt lat="49.82592" lon="6.84043">
        <ele>127.083534</ele>
        <time>2022-08-24T08:18:58.000Z</time>
      </trkpt>
      <trkpt lat="49.82605" lon="6.84033">
        <ele>127.077602</ele>
        <time>2022-08-24T08:19:01.000Z</time>
      </trkpt>
      <trkpt lat="49.82652" lon="6.83991">
        <ele>127.055625</ele>
        <time>2022-08-24T08:19:11.000Z</time>
      </trkpt>
      <trkpt lat="49.82699" lon="6.83949">
        <ele>126.991931</ele>
        <time>2022-08-24T08:19:21.000Z</time>
      </trkpt>
      <trkpt lat="49.8271" lon="6.83938">
        <ele>126.889299</ele>
        <time>2022-08-24T08:19:23.000Z</time>
      </trkpt>
      <trkpt lat="49.82721" lon="6.83928">
        <ele>126.787873</ele>
        <time>2022-08-24T08:19:25.000Z</time>
      </trkpt>
      <trkpt lat="49.82731" lon="6.83919">
        <ele>126.694827</ele>
        <time>2022-08-24T08:19:27.000Z</time>
      </trkpt>
      <trkpt lat="49.82762" lon="6.83889">
        <ele>126.408655</ele>
        <time>2022-08-24T08:19:32.000Z</time>
      </trkpt>
      <trkpt lat="49.82775" lon="6.83876">
        <ele>126.287255</ele>
        <time>2022-08-24T08:19:34.000Z</time>
      </trkpt>
      <trkpt lat="49.82808" lon="6.83845">
        <ele>125.979984</ele>
        <time>2022-08-24T08:19:39.000Z</time>
      </trkpt>
      <trkpt lat="49.82828" lon="6.83829">
        <ele>125.803286</ele>
        <time>2022-08-24T08:19:42.000Z</time>
      </trkpt>
      <trkpt lat="49.82865" lon="6.838">
        <ele>125.479486</ele>
        <time>2022-08-24T08:19:48.000Z</time>
      </trkpt>
      <trkpt lat="49.82883" lon="6.83785">
        <ele>125.329628</ele>
        <time>2022-08-24T08:19:51.000Z</time>
      </trkpt>
      <trkpt lat="49.82928" lon="6.83745">
        <ele>124.938963</ele>
        <time>2022-08-24T08:19:59.000Z</time>
      </trkpt>
      <trkpt lat="49.82981" lon="6.837">
        <ele>124.490573</ele>
        <time>2022-08-24T08:20:08.000Z</time>
      </trkpt>
      <trkpt lat="49.82993" lon="6.8369">
        <ele>124.388283</ele>
        <time>2022-08-24T08:20:10.000Z</time>
      </trkpt>
      <trkpt lat="49.83029" lon="6.83656">
        <ele>124.112168</ele>
        <time>2022-08-24T08:20:16.000Z</time>
      </trkpt>
      <trkpt lat="49.83053" lon="6.83637">
        <ele>123.947122</ele>
        <time>2022-08-24T08:20:20.000Z</time>
      </trkpt>
      <trkpt lat="49.83059" lon="6.83633">
        <ele>123.909053</ele>
        <time>2022-08-24T08:20:21.000Z</time>
      </trkpt>
      <trkpt lat="49.831" lon="6.83603">
        <ele>123.638111</ele>
        <time>2022-08-24T08:20:28.000Z</time>
      </trkpt>
      <trkpt lat="49.83117" lon="6.83591">
        <ele>123.524642</ele>
        <time>2022-08-24T08:20:31.000Z</time>
      </trkpt>
      <trkpt lat="49.83129" lon="6.83585">
        <ele>123.451085</ele>
        <time>2022-08-24T08:20:33.000Z</time>
      </trkpt>
      <trkpt lat="49.83135" lon="6.83584">
        <ele>123.414619</ele>
        <time>2022-08-24T08:20:34.000Z</time>
      </trkpt>
      <trkpt lat="49.83171" lon="6.83576">
        <ele>123.19606</ele>
        <time>2022-08-24T08:20:40.000Z</time>
      </trkpt>
      <trkpt lat="49.83207" lon="6.8357">
        <ele>123.312127</ele>
        <time>2022-08-24T08:20:46.000Z</time>
      </trkpt>
      <trkpt lat="49.83259" lon="6.8356">
        <ele>123.494062</ele>
        <time>2022-08-24T08:20:55.000Z</time>
      </trkpt>
      <trkpt lat="49.83315" lon="6.83569">
        <ele>123.693316</ele>
        <time>2022-08-24T08:21:05.000Z</time>
      </trkpt>
      <trkpt lat="49.8332" lon="6.8357">
        <ele>123.713125</ele>
        <time>2022-08-24T08:21:06.000Z</time>
      </trkpt>
      <trkpt lat="49.83365" lon="6.83586">
        <ele>123.893742</ele>
        <time>2022-08-24T08:21:14.000Z</time>
      </trkpt>
      <trkpt lat="49.83416" lon="6.83615">
        <ele>124.151782</ele>
        <time>2022-08-24T08:21:23.000Z</time>
      </trkpt>
      <trkpt lat="49.83433" lon="6.83632">
        <ele>124.247917</ele>
        <time>2022-08-24T08:21:27.000Z</time>
      </trkpt>
      <trkpt lat="49.83436" lon="6.83635">
        <ele>124.267202</ele>
        <time>2022-08-24T08:21:28.000Z</time>
      </trkpt>
      <trkpt lat="49.83451" lon="6.83651">
        <ele>124.351823</ele>
        <time>2022-08-24T08:21:33.000Z</time>
      </trkpt>
      <trkpt lat="49.83476" lon="6.83674">
        <ele>124.489878</ele>
        <time>2022-08-24T08:21:40.000Z</time>
      </trkpt>
      <trkpt lat="49.83481" lon="6.83685">
        <ele>124.530989</ele>
        <time>2022-08-24T08:21:42.000Z</time>
      </trkpt>
      <trkpt lat="49.83492" lon="6.83709">
        <ele>124.622766</ele>
        <time>2022-08-24T08:21:47.000Z</time>
      </trkpt>
      <trkpt lat="49.83494" lon="6.83725">
        <ele>124.673267</ele>
        <time>2022-08-24T08:21:50.000Z</time>
      </trkpt>
      <trkpt lat="49.83496" lon="6.83731">
        <ele>124.669578</ele>
        <time>2022-08-24T08:21:51.000Z</time>
      </trkpt>
      <trkpt lat="49.83506" lon="6.83756">
        <ele>124.587658</ele>
        <time>2022-08-24T08:21:56.000Z</time>
      </trkpt>
      <trkpt lat="49.83508" lon="6.83761">
        <ele>124.57081</ele>
        <time>2022-08-24T08:21:57.000Z</time>
      </trkpt>
      <trkpt lat="49.83518" lon="6.83782">
        <ele>124.501265</ele>
        <time>2022-08-24T08:22:01.000Z</time>
      </trkpt>
      <trkpt lat="49.8352" lon="6.83787">
        <ele>124.483256</ele>
        <time>2022-08-24T08:22:02.000Z</time>
      </trkpt>
      <trkpt lat="49.83523" lon="6.838">
        <ele>124.447138</ele>
        <time>2022-08-24T08:22:04.000Z</time>
      </trkpt>
      <trkpt lat="49.83523" lon="6.83811">
        <ele>124.416637</ele>
        <time>2022-08-24T08:22:06.000Z</time>
      </trkpt>
      <trkpt lat="49.83521" lon="6.83822">
        <ele>124.38349</ele>
        <time>2022-08-24T08:22:08.000Z</time>
      </trkpt>
      <trkpt lat="49.83511" lon="6.83835">
        <ele>124.327733</ele>
        <time>2022-08-24T08:22:11.000Z</time>
      </trkpt>
      <trkpt lat="49.83507" lon="6.8384">
        <ele>124.307928</ele>
        <time>2022-08-24T08:22:12.000Z</time>
      </trkpt>
      <trkpt lat="49.83493" lon="6.8386">
        <ele>124.226665</ele>
        <time>2022-08-24T08:22:16.000Z</time>
      </trkpt>
      <trkpt lat="49.83481" lon="6.8388">
        <ele>124.151976</ele>
        <time>2022-08-24T08:22:20.000Z</time>
      </trkpt>
      <trkpt lat="49.83477" lon="6.83886">
        <ele>124.129965</ele>
        <time>2022-08-24T08:22:21.000Z</time>
      </trkpt>
      <trkpt lat="49.83472" lon="6.83894">
        <ele>124.097759</ele>
        <time>2022-08-24T08:22:23.000Z</time>
      </trkpt>
      <trkpt lat="49.83465" lon="6.83902">
        <ele>124.062693</ele>
        <time>2022-08-24T08:22:25.000Z</time>
      </trkpt>
      <trkpt lat="49.83462" lon="6.83906">
        <ele>124.045714</ele>
        <time>2022-08-24T08:22:26.000Z</time>
      </trkpt>
      <trkpt lat="49.83453" lon="6.83916">
        <ele>123.997316</ele>
        <time>2022-08-24T08:22:29.000Z</time>
      </trkpt>
      <trkpt lat="49.8345" lon="6.8392">
        <ele>123.982556</ele>
        <time>2022-08-24T08:22:30.000Z</time>
      </trkpt>
      <trkpt lat="49.83435" lon="6.8394">
        <ele>123.945064</ele>
        <time>2022-08-24T08:22:35.000Z</time>
      </trkpt>
      <trkpt lat="49.8342" lon="6.83962">
        <ele>124.085955</ele>
        <time>2022-08-24T08:22:40.000Z</time>
      </trkpt>
      <trkpt lat="49.83418" lon="6.83966">
        <ele>124.105997</ele>
        <time>2022-08-24T08:22:42.000Z</time>
      </trkpt>
      <trkpt lat="49.83417" lon="6.83967">
        <ele>124.116183</ele>
        <time>2022-08-24T08:22:45.000Z</time>
      </trkpt>
      <trkpt lat="49.83417" lon="6.83967">
        <ele>124.116183</ele>
        <time>2022-08-24T08:22:48.000Z</time>
      </trkpt>
      <trkpt lat="49.83416" lon="6.83968">
        <ele>124.125983</ele>
        <time>2022-08-24T08:22:51.000Z</time>
      </trkpt>
      <trkpt lat="49.83416" lon="6.83969">
        <ele>124.128545</ele>
        <time>2022-08-24T08:22:55.000Z</time>
      </trkpt>
      <trkpt lat="49.83416" lon="6.83969">
        <ele>124.128545</ele>
        <time>2022-08-24T08:23:13.000Z</time>
      </trkpt>
      <trkpt lat="49.83415" lon="6.83969">
        <ele>124.131546</ele>
        <time>2022-08-24T08:23:36.000Z</time>
      </trkpt>
      <trkpt lat="49.83415" lon="6.83969">
        <ele>124.133017</ele>
        <time>2022-08-24T08:23:43.000Z</time>
      </trkpt>
      <trkpt lat="49.83415" lon="6.83965">
        <ele>124.148276</ele>
        <time>2022-08-24T08:23:47.000Z</time>
      </trkpt>
      <trkpt lat="49.83415" lon="6.83965">
        <ele>124.148276</ele>
        <time>2022-08-24T08:23:55.000Z</time>
      </trkpt>
      <trkpt lat="49.83415" lon="6.83964">
        <ele>124.155953</ele>
        <time>2022-08-24T08:23:59.000Z</time>
      </trkpt>
      <trkpt lat="49.83415" lon="6.83963">
        <ele>124.159437</ele>
        <time>2022-08-24T08:24:03.000Z</time>
      </trkpt>
      <trkpt lat="49.83415" lon="6.83963">
        <ele>124.160113</ele>
        <time>2022-08-24T08:24:14.000Z</time>
      </trkpt>
      <trkpt lat="49.83415" lon="6.83963">
        <ele>124.161855</ele>
        <time>2022-08-24T08:24:21.000Z</time>
      </trkpt>
      <trkpt lat="49.83415" lon="6.83963">
        <ele>124.16253</ele>
        <time>2022-08-24T08:24:38.000Z</time>
      </trkpt>
      <trkpt lat="49.83412" lon="6.83966">
        <ele>124.186637</ele>
        <time>2022-08-24T08:24:42.000Z</time>
      </trkpt>
      <trkpt lat="49.83412" lon="6.83966">
        <ele>124.187073</ele>
        <time>2022-08-24T08:24:52.000Z</time>
      </trkpt>
      <trkpt lat="49.83412" lon="6.83966">
        <ele>124.189635</ele>
        <time>2022-08-24T08:25:01.000Z</time>
      </trkpt>
      <trkpt lat="49.83412" lon="6.83967">
        <ele>124.196304</ele>
        <time>2022-08-24T08:25:20.000Z</time>
      </trkpt>
      <trkpt lat="49.83405" lon="6.8398">
        <ele>124.264924</ele>
        <time>2022-08-24T08:25:25.000Z</time>
      </trkpt>
      <trkpt lat="49.83398" lon="6.8401">
        <ele>124.40452</ele>
        <time>2022-08-24T08:25:30.000Z</time>
      </trkpt>
      <trkpt lat="49.83392" lon="6.84034">
        <ele>124.516723</ele>
        <time>2022-08-24T08:25:34.000Z</time>
      </trkpt>
      <trkpt lat="49.83387" lon="6.84051">
        <ele>124.599691</ele>
        <time>2022-08-24T08:25:37.000Z</time>
      </trkpt>
      <trkpt lat="49.83386" lon="6.84057">
        <ele>124.627568</ele>
        <time>2022-08-24T08:25:38.000Z</time>
      </trkpt>
      <trkpt lat="49.83372" lon="6.84105">
        <ele>124.855113</ele>
        <time>2022-08-24T08:25:47.000Z</time>
      </trkpt>
      <trkpt lat="49.83368" lon="6.84126">
        <ele>124.95171</ele>
        <time>2022-08-24T08:25:51.000Z</time>
      </trkpt>
      <trkpt lat="49.83367" lon="6.84131">
        <ele>124.975961</ele>
        <time>2022-08-24T08:25:52.000Z</time>
      </trkpt>
      <trkpt lat="49.83358" lon="6.84163">
        <ele>125.12468</ele>
        <time>2022-08-24T08:25:58.000Z</time>
      </trkpt>
      <trkpt lat="49.83357" lon="6.84168">
        <ele>125.136842</ele>
        <time>2022-08-24T08:25:59.000Z</time>
      </trkpt>
      <trkpt lat="49.83344" lon="6.84219">
        <ele>125.207815</ele>
        <time>2022-08-24T08:26:08.000Z</time>
      </trkpt>
      <trkpt lat="49.83333" lon="6.84253">
        <ele>125.257233</ele>
        <time>2022-08-24T08:26:13.000Z</time>
      </trkpt>
      <trkpt lat="49.83329" lon="6.84274">
        <ele>125.287337</ele>
        <time>2022-08-24T08:26:16.000Z</time>
      </trkpt>
      <trkpt lat="49.8333" lon="6.84287">
        <ele>125.303936</ele>
        <time>2022-08-24T08:26:18.000Z</time>
      </trkpt>
      <trkpt lat="49.83347" lon="6.84305">
        <ele>125.344791</ele>
        <time>2022-08-24T08:26:22.000Z</time>
      </trkpt>
      <trkpt lat="49.8336" lon="6.84319">
        <ele>125.378298</ele>
        <time>2022-08-24T08:26:25.000Z</time>
      </trkpt>
      <trkpt lat="49.83387" lon="6.84345">
        <ele>125.442374</ele>
        <time>2022-08-24T08:26:31.000Z</time>
      </trkpt>
      <trkpt lat="49.83395" lon="6.84353">
        <ele>125.461526</ele>
        <time>2022-08-24T08:26:33.000Z</time>
      </trkpt>
      <trkpt lat="49.83405" lon="6.84364">
        <ele>125.486965</ele>
        <time>2022-08-24T08:26:36.000Z</time>
      </trkpt>
      <trkpt lat="49.83409" lon="6.84371">
        <ele>125.49871</ele>
        <time>2022-08-24T08:26:38.000Z</time>
      </trkpt>
      <trkpt lat="49.83421" lon="6.84395">
        <ele>125.536548</ele>
        <time>2022-08-24T08:26:43.000Z</time>
      </trkpt>
      <trkpt lat="49.83439" lon="6.84434">
        <ele>125.596316</ele>
        <time>2022-08-24T08:26:49.000Z</time>
      </trkpt>
      <trkpt lat="49.83456" lon="6.84477">
        <ele>125.659585</ele>
        <time>2022-08-24T08:26:55.000Z</time>
      </trkpt>
      <trkpt lat="49.83478" lon="6.84536">
        <ele>125.744276</ele>
        <time>2022-08-24T08:27:03.000Z</time>
      </trkpt>
      <trkpt lat="49.8348" lon="6.84544">
        <ele>125.754851</ele>
        <time>2022-08-24T08:27:04.000Z</time>
      </trkpt>
      <trkpt lat="49.83494" lon="6.84602">
        <ele>125.831552</ele>
        <time>2022-08-24T08:27:11.000Z</time>
      </trkpt>
      <trkpt lat="49.83497" lon="6.84621">
        <ele>126.029451</ele>
        <time>2022-08-24T08:27:13.000Z</time>
      </trkpt>
      <trkpt lat="49.83506" lon="6.84662">
        <ele>126.777068</ele>
        <time>2022-08-24T08:27:19.000Z</time>
      </trkpt>
      <trkpt lat="49.83509" lon="6.84672">
        <ele>126.969908</ele>
        <time>2022-08-24T08:27:21.000Z</time>
      </trkpt>
      <trkpt lat="49.83511" lon="6.84684">
        <ele>127.189375</ele>
        <time>2022-08-24T08:27:24.000Z</time>
      </trkpt>
      <trkpt lat="49.83511" lon="6.84687">
        <ele>127.231997</ele>
        <time>2022-08-24T08:27:25.000Z</time>
      </trkpt>
      <trkpt lat="49.83518" lon="6.84717">
        <ele>127.788698</ele>
        <time>2022-08-24T08:27:33.000Z</time>
      </trkpt>
      <trkpt lat="49.83525" lon="6.84749">
        <ele>128.383765</ele>
        <time>2022-08-24T08:27:40.000Z</time>
      </trkpt>
      <trkpt lat="49.83526" lon="6.84754">
        <ele>128.468397</ele>
        <time>2022-08-24T08:27:41.000Z</time>
      </trkpt>
      <trkpt lat="49.83529" lon="6.84769">
        <ele>128.744865</ele>
        <time>2022-08-24T08:27:44.000Z</time>
      </trkpt>
      <trkpt lat="49.83534" lon="6.84789">
        <ele>129.116552</ele>
        <time>2022-08-24T08:27:48.000Z</time>
      </trkpt>
      <trkpt lat="49.83535" lon="6.84794">
        <ele>129.214483</ele>
        <time>2022-08-24T08:27:49.000Z</time>
      </trkpt>
      <trkpt lat="49.83546" lon="6.84847">
        <ele>130.169418</ele>
        <time>2022-08-24T08:27:58.000Z</time>
      </trkpt>
      <trkpt lat="49.83552" lon="6.84877">
        <ele>130.720288</ele>
        <time>2022-08-24T08:28:03.000Z</time>
      </trkpt>
      <trkpt lat="49.83558" lon="6.84904">
        <ele>131.032343</ele>
        <time>2022-08-24T08:28:08.000Z</time>
      </trkpt>
      <trkpt lat="49.83559" lon="6.8491">
        <ele>131.091346</ele>
        <time>2022-08-24T08:28:09.000Z</time>
      </trkpt>
      <trkpt lat="49.83566" lon="6.84943">
        <ele>131.474113</ele>
        <time>2022-08-24T08:28:16.000Z</time>
      </trkpt>
      <trkpt lat="49.83577" lon="6.84991">
        <ele>132.014466</ele>
        <time>2022-08-24T08:28:25.000Z</time>
      </trkpt>
      <trkpt lat="49.83579" lon="6.85001">
        <ele>132.126403</ele>
        <time>2022-08-24T08:28:27.000Z</time>
      </trkpt>
      <trkpt lat="49.8359" lon="6.8505">
        <ele>132.687458</ele>
        <time>2022-08-24T08:28:36.000Z</time>
      </trkpt>
      <trkpt lat="49.83593" lon="6.85067">
        <ele>132.876893</ele>
        <time>2022-08-24T08:28:39.000Z</time>
      </trkpt>
      <trkpt lat="49.83602" lon="6.85111">
        <ele>133.375083</ele>
        <time>2022-08-24T08:28:46.000Z</time>
      </trkpt>
      <trkpt lat="49.83609" lon="6.85142">
        <ele>133.726603</ele>
        <time>2022-08-24T08:28:51.000Z</time>
      </trkpt>
      <trkpt lat="49.83613" lon="6.85159">
        <ele>133.864637</ele>
        <time>2022-08-24T08:28:54.000Z</time>
      </trkpt>
      <trkpt lat="49.83617" lon="6.8518">
        <ele>134.028325</ele>
        <time>2022-08-24T08:28:57.000Z</time>
      </trkpt>
      <trkpt lat="49.8362" lon="6.85192">
        <ele>134.122986</ele>
        <time>2022-08-24T08:28:59.000Z</time>
      </trkpt>
      <trkpt lat="49.83621" lon="6.85199">
        <ele>134.185881</ele>
        <time>2022-08-24T08:29:00.000Z</time>
      </trkpt>
      <trkpt lat="49.83628" lon="6.85232">
        <ele>134.441672</ele>
        <time>2022-08-24T08:29:05.000Z</time>
      </trkpt>
      <trkpt lat="49.83638" lon="6.85277">
        <ele>134.804055</ele>
        <time>2022-08-24T08:29:13.000Z</time>
      </trkpt>
      <trkpt lat="49.83639" lon="6.85283">
        <ele>134.849953</ele>
        <time>2022-08-24T08:29:14.000Z</time>
      </trkpt>
      <trkpt lat="49.8365" lon="6.8533">
        <ele>135.232331</ele>
        <time>2022-08-24T08:29:23.000Z</time>
      </trkpt>
      <trkpt lat="49.83655" lon="6.85353">
        <ele>135.417272</ele>
        <time>2022-08-24T08:29:27.000Z</time>
      </trkpt>
      <trkpt lat="49.8366" lon="6.85375">
        <ele>135.594316</ele>
        <time>2022-08-24T08:29:31.000Z</time>
      </trkpt>
      <trkpt lat="49.83674" lon="6.85434">
        <ele>135.866552</ele>
        <time>2022-08-24T08:29:41.000Z</time>
      </trkpt>
      <trkpt lat="49.83687" lon="6.85489">
        <ele>135.934456</ele>
        <time>2022-08-24T08:29:50.000Z</time>
      </trkpt>
      <trkpt lat="49.83704" lon="6.85559">
        <ele>136.02187</ele>
        <time>2022-08-24T08:30:02.000Z</time>
      </trkpt>
      <trkpt lat="49.8371" lon="6.85589">
        <ele>136.058828</ele>
        <time>2022-08-24T08:30:07.000Z</time>
      </trkpt>
      <trkpt lat="49.83717" lon="6.85621">
        <ele>136.098382</ele>
        <time>2022-08-24T08:30:12.000Z</time>
      </trkpt>
      <trkpt lat="49.83733" lon="6.85683">
        <ele>136.260625</ele>
        <time>2022-08-24T08:30:21.000Z</time>
      </trkpt>
      <trkpt lat="49.83751" lon="6.85756">
        <ele>136.716242</ele>
        <time>2022-08-24T08:30:32.000Z</time>
      </trkpt>
      <trkpt lat="49.83768" lon="6.85811">
        <ele>137.06808</ele>
        <time>2022-08-24T08:30:40.000Z</time>
      </trkpt>
      <trkpt lat="49.83777" lon="6.85841">
        <ele>137.264621</ele>
        <time>2022-08-24T08:30:45.000Z</time>
      </trkpt>
      <trkpt lat="49.83785" lon="6.85871">
        <ele>137.454656</ele>
        <time>2022-08-24T08:30:50.000Z</time>
      </trkpt>
      <trkpt lat="49.83793" lon="6.85899">
        <ele>137.629716</ele>
        <time>2022-08-24T08:30:55.000Z</time>
      </trkpt>
      <trkpt lat="49.83795" lon="6.85904">
        <ele>137.665015</ele>
        <time>2022-08-24T08:30:56.000Z</time>
      </trkpt>
      <trkpt lat="49.83798" lon="6.85914">
        <ele>137.730657</ele>
        <time>2022-08-24T08:30:58.000Z</time>
      </trkpt>
      <trkpt lat="49.83804" lon="6.85943">
        <ele>138.000049</ele>
        <time>2022-08-24T08:31:04.000Z</time>
      </trkpt>
      <trkpt lat="49.83808" lon="6.85956">
        <ele>138.149126</ele>
        <time>2022-08-24T08:31:07.000Z</time>
      </trkpt>
      <trkpt lat="49.83811" lon="6.8597">
        <ele>138.302579</ele>
        <time>2022-08-24T08:31:10.000Z</time>
      </trkpt>
      <trkpt lat="49.83815" lon="6.85988">
        <ele>138.495041</ele>
        <time>2022-08-24T08:31:14.000Z</time>
      </trkpt>
      <trkpt lat="49.83819" lon="6.86004">
        <ele>138.670833</ele>
        <time>2022-08-24T08:31:18.000Z</time>
      </trkpt>
      <trkpt lat="49.8382" lon="6.86009">
        <ele>138.71804</ele>
        <time>2022-08-24T08:31:19.000Z</time>
      </trkpt>
      <trkpt lat="49.83824" lon="6.86027">
        <ele>138.918122</ele>
        <time>2022-08-24T08:31:23.000Z</time>
      </trkpt>
      <trkpt lat="49.83829" lon="6.86051">
        <ele>139.174078</ele>
        <time>2022-08-24T08:31:28.000Z</time>
      </trkpt>
      <trkpt lat="49.8383" lon="6.86056">
        <ele>139.226061</ele>
        <time>2022-08-24T08:31:29.000Z</time>
      </trkpt>
      <trkpt lat="49.83833" lon="6.8607">
        <ele>139.379514</ele>
        <time>2022-08-24T08:31:32.000Z</time>
      </trkpt>
      <trkpt lat="49.83841" lon="6.86104">
        <ele>139.742293</ele>
        <time>2022-08-24T08:31:39.000Z</time>
      </trkpt>
      <trkpt lat="49.8385" lon="6.86153">
        <ele>140.266266</ele>
        <time>2022-08-24T08:31:48.000Z</time>
      </trkpt>
      <trkpt lat="49.83859" lon="6.86211">
        <ele>140.161677</ele>
        <time>2022-08-24T08:31:57.000Z</time>
      </trkpt>
      <trkpt lat="49.8386" lon="6.86225">
        <ele>139.89879</ele>
        <time>2022-08-24T08:31:59.000Z</time>
      </trkpt>
      <trkpt lat="49.83864" lon="6.86279">
        <ele>138.889289</ele>
        <time>2022-08-24T08:32:06.000Z</time>
      </trkpt>
      <trkpt lat="49.83869" lon="6.8632">
        <ele>138.121976</ele>
        <time>2022-08-24T08:32:12.000Z</time>
      </trkpt>
      <trkpt lat="49.83871" lon="6.86323">
        <ele>138.018609</ele>
        <time>2022-08-24T08:32:13.000Z</time>
      </trkpt>
      <trkpt lat="49.8388" lon="6.86326">
        <ele>137.780915</ele>
        <time>2022-08-24T08:32:15.000Z</time>
      </trkpt>
      <trkpt lat="49.83889" lon="6.86326">
        <ele>137.51649</ele>
        <time>2022-08-24T08:32:17.000Z</time>
      </trkpt>
      <trkpt lat="49.839" lon="6.86325">
        <ele>137.202828</ele>
        <time>2022-08-24T08:32:19.000Z</time>
      </trkpt>
      <trkpt lat="49.83912" lon="6.86325">
        <ele>136.852078</ele>
        <time>2022-08-24T08:32:21.000Z</time>
      </trkpt>
      <trkpt lat="49.83933" lon="6.86325">
        <ele>136.254352</ele>
        <time>2022-08-24T08:32:24.000Z</time>
      </trkpt>
      <trkpt lat="49.83956" lon="6.86324">
        <ele>135.59055</ele>
        <time>2022-08-24T08:32:27.000Z</time>
      </trkpt>
      <trkpt lat="49.83964" lon="6.86324">
        <ele>135.303816</ele>
        <time>2022-08-24T08:32:28.000Z</time>
      </trkpt>
      <trkpt lat="49.83998" lon="6.86324">
        <ele>133.759777</ele>
        <time>2022-08-24T08:32:32.000Z</time>
      </trkpt>
      <trkpt lat="49.84017" lon="6.86324">
        <ele>132.952079</ele>
        <time>2022-08-24T08:32:34.000Z</time>
      </trkpt>
      <trkpt lat="49.84026" lon="6.86324">
        <ele>132.541537</ele>
        <time>2022-08-24T08:32:35.000Z</time>
      </trkpt>
      <trkpt lat="49.84044" lon="6.86324">
        <ele>131.729372</ele>
        <time>2022-08-24T08:32:37.000Z</time>
      </trkpt>
      <trkpt lat="49.8407" lon="6.86323">
        <ele>130.582498</ele>
        <time>2022-08-24T08:32:40.000Z</time>
      </trkpt>
      <trkpt lat="49.84085" lon="6.86323">
        <ele>129.917592</ele>
        <time>2022-08-24T08:32:42.000Z</time>
      </trkpt>
      <trkpt lat="49.84092" lon="6.86323">
        <ele>129.60517</ele>
        <time>2022-08-24T08:32:43.000Z</time>
      </trkpt>
      <trkpt lat="49.84106" lon="6.86323">
        <ele>128.962421</ele>
        <time>2022-08-24T08:32:45.000Z</time>
      </trkpt>
      <trkpt lat="49.84121" lon="6.86323">
        <ele>128.297514</ele>
        <time>2022-08-24T08:32:47.000Z</time>
      </trkpt>
      <trkpt lat="49.84159" lon="6.86324">
        <ele>127.048854</ele>
        <time>2022-08-24T08:32:52.000Z</time>
      </trkpt>
      <trkpt lat="49.84207" lon="6.86324">
        <ele>126.09058</ele>
        <time>2022-08-24T08:32:59.000Z</time>
      </trkpt>
      <trkpt lat="49.84212" lon="6.86324">
        <ele>126.002588</ele>
        <time>2022-08-24T08:33:00.000Z</time>
      </trkpt>
      <trkpt lat="49.84217" lon="6.86324">
        <ele>125.892786</ele>
        <time>2022-08-24T08:33:01.000Z</time>
      </trkpt>
      <trkpt lat="49.84223" lon="6.86324">
        <ele>125.782502</ele>
        <time>2022-08-24T08:33:03.000Z</time>
      </trkpt>
      <trkpt lat="49.84225" lon="6.86324">
        <ele>125.740263</ele>
        <time>2022-08-24T08:33:04.000Z</time>
      </trkpt>
      <trkpt lat="49.84228" lon="6.86329">
        <ele>125.655974</ele>
        <time>2022-08-24T08:33:06.000Z</time>
      </trkpt>
      <trkpt lat="49.84228" lon="6.86342">
        <ele>125.48335</ele>
        <time>2022-08-24T08:33:09.000Z</time>
      </trkpt>
      <trkpt lat="49.84227" lon="6.86353">
        <ele>125.33976</ele>
        <time>2022-08-24T08:33:11.000Z</time>
      </trkpt>
      <trkpt lat="49.84226" lon="6.86379">
        <ele>125.008016</ele>
        <time>2022-08-24T08:33:15.000Z</time>
      </trkpt>
      <trkpt lat="49.84225" lon="6.86398">
        <ele>124.77082</ele>
        <time>2022-08-24T08:33:18.000Z</time>
      </trkpt>
      <trkpt lat="49.84228" lon="6.86408">
        <ele>124.629612</ele>
        <time>2022-08-24T08:33:20.000Z</time>
      </trkpt>
      <trkpt lat="49.84231" lon="6.86412">
        <ele>124.552127</ele>
        <time>2022-08-24T08:33:21.000Z</time>
      </trkpt>
      <trkpt lat="49.8425" lon="6.86429">
        <ele>124.116746</ele>
        <time>2022-08-24T08:33:26.000Z</time>
      </trkpt>
      <trkpt lat="49.84253" lon="6.86435">
        <ele>124.014722</ele>
        <time>2022-08-24T08:33:27.000Z</time>
      </trkpt>
      <trkpt lat="49.84254" lon="6.86443">
        <ele>123.9075</ele>
        <time>2022-08-24T08:33:28.000Z</time>
      </trkpt>
      <trkpt lat="49.84255" lon="6.8646">
        <ele>123.824178</ele>
        <time>2022-08-24T08:33:30.000Z</time>
      </trkpt>
      <trkpt lat="49.84253" lon="6.8647">
        <ele>123.810622</ele>
        <time>2022-08-24T08:33:31.000Z</time>
      </trkpt>
      <trkpt lat="49.84249" lon="6.86521">
        <ele>123.744084</ele>
        <time>2022-08-24T08:33:37.000Z</time>
      </trkpt>
      <trkpt lat="49.84241" lon="6.86576">
        <ele>123.671171</ele>
        <time>2022-08-24T08:33:44.000Z</time>
      </trkpt>
      <trkpt lat="49.84233" lon="6.86621">
        <ele>123.609451</ele>
        <time>2022-08-24T08:33:50.000Z</time>
      </trkpt>
      <trkpt lat="49.8423" lon="6.86638">
        <ele>123.586403</ele>
        <time>2022-08-24T08:33:52.000Z</time>
      </trkpt>
      <trkpt lat="49.84211" lon="6.86707">
        <ele>123.489936</ele>
        <time>2022-08-24T08:34:01.000Z</time>
      </trkpt>
      <trkpt lat="49.84201" lon="6.86737">
        <ele>123.501121</ele>
        <time>2022-08-24T08:34:05.000Z</time>
      </trkpt>
      <trkpt lat="49.84192" lon="6.86769">
        <ele>123.537507</ele>
        <time>2022-08-24T08:34:09.000Z</time>
      </trkpt>
      <trkpt lat="49.84184" lon="6.8679">
        <ele>123.563545</ele>
        <time>2022-08-24T08:34:12.000Z</time>
      </trkpt>
      <trkpt lat="49.84175" lon="6.86819">
        <ele>123.597214</ele>
        <time>2022-08-24T08:34:16.000Z</time>
      </trkpt>
      <trkpt lat="49.84167" lon="6.86857">
        <ele>123.639541</ele>
        <time>2022-08-24T08:34:21.000Z</time>
      </trkpt>
      <trkpt lat="49.84162" lon="6.86883">
        <ele>123.668367</ele>
        <time>2022-08-24T08:34:24.000Z</time>
      </trkpt>
      <trkpt lat="49.84148" lon="6.86956">
        <ele>123.748413</ele>
        <time>2022-08-24T08:34:33.000Z</time>
      </trkpt>
      <trkpt lat="49.8413" lon="6.87036">
        <ele>123.536481</ele>
        <time>2022-08-24T08:34:43.000Z</time>
      </trkpt>
      <trkpt lat="49.84128" lon="6.87043">
        <ele>123.505802</ele>
        <time>2022-08-24T08:34:44.000Z</time>
      </trkpt>
      <trkpt lat="49.84125" lon="6.8705">
        <ele>123.476623</ele>
        <time>2022-08-24T08:34:45.000Z</time>
      </trkpt>
      <trkpt lat="49.84111" lon="6.87082">
        <ele>123.336733</ele>
        <time>2022-08-24T08:34:50.000Z</time>
      </trkpt>
      <trkpt lat="49.84096" lon="6.87107">
        <ele>123.20894</ele>
        <time>2022-08-24T08:34:54.000Z</time>
      </trkpt>
      <trkpt lat="49.8408" lon="6.8713">
        <ele>123.084484</ele>
        <time>2022-08-24T08:34:58.000Z</time>
      </trkpt>
      <trkpt lat="49.8406" lon="6.87159">
        <ele>122.929088</ele>
        <time>2022-08-24T08:35:03.000Z</time>
      </trkpt>
      <trkpt lat="49.84048" lon="6.87177">
        <ele>122.835596</ele>
        <time>2022-08-24T08:35:06.000Z</time>
      </trkpt>
      <trkpt lat="49.84045" lon="6.87182">
        <ele>122.809697</ele>
        <time>2022-08-24T08:35:07.000Z</time>
      </trkpt>
      <trkpt lat="49.84028" lon="6.87219">
        <ele>122.501539</ele>
        <time>2022-08-24T08:35:12.000Z</time>
      </trkpt>
      <trkpt lat="49.84026" lon="6.87226">
        <ele>122.43302</ele>
        <time>2022-08-24T08:35:13.000Z</time>
      </trkpt>
      <trkpt lat="49.84026" lon="6.87234">
        <ele>122.370583</ele>
        <time>2022-08-24T08:35:14.000Z</time>
      </trkpt>
      <trkpt lat="49.84031" lon="6.87246">
        <ele>122.243111</ele>
        <time>2022-08-24T08:35:16.000Z</time>
      </trkpt>
      <trkpt lat="49.84043" lon="6.87259">
        <ele>122.046556</ele>
        <time>2022-08-24T08:35:19.000Z</time>
      </trkpt>
      <trkpt lat="49.84051" lon="6.87268">
        <ele>121.914188</ele>
        <time>2022-08-24T08:35:21.000Z</time>
      </trkpt>
      <trkpt lat="49.84057" lon="6.87277">
        <ele>121.800097</ele>
        <time>2022-08-24T08:35:23.000Z</time>
      </trkpt>
      <trkpt lat="49.84062" lon="6.87291">
        <ele>121.660253</ele>
        <time>2022-08-24T08:35:26.000Z</time>
      </trkpt>
      <trkpt lat="49.84064" lon="6.87305">
        <ele>121.539631</ele>
        <time>2022-08-24T08:35:28.000Z</time>
      </trkpt>
      <trkpt lat="49.84064" lon="6.87311">
        <ele>121.483062</ele>
        <time>2022-08-24T08:35:29.000Z</time>
      </trkpt>
      <trkpt lat="49.84062" lon="6.87317">
        <ele>121.428409</ele>
        <time>2022-08-24T08:35:30.000Z</time>
      </trkpt>
      <trkpt lat="49.84053" lon="6.87331">
        <ele>121.253415</ele>
        <time>2022-08-24T08:35:33.000Z</time>
      </trkpt>
      <trkpt lat="49.84047" lon="6.8734">
        <ele>121.141488</ele>
        <time>2022-08-24T08:35:35.000Z</time>
      </trkpt>
      <trkpt lat="49.84038" lon="6.87352">
        <ele>120.985641</ele>
        <time>2022-08-24T08:35:38.000Z</time>
      </trkpt>
      <trkpt lat="49.84035" lon="6.87361">
        <ele>120.898638</ele>
        <time>2022-08-24T08:35:40.000Z</time>
      </trkpt>
      <trkpt lat="49.84034" lon="6.87368">
        <ele>120.834315</ele>
        <time>2022-08-24T08:35:43.000Z</time>
      </trkpt>
      <trkpt lat="49.84037" lon="6.87371">
        <ele>120.777893</ele>
        <time>2022-08-24T08:35:46.000Z</time>
      </trkpt>
      <trkpt lat="49.84039" lon="6.87374">
        <ele>120.746357</ele>
        <time>2022-08-24T08:35:47.000Z</time>
      </trkpt>
      <trkpt lat="49.84048" lon="6.87397">
        <ele>120.512603</ele>
        <time>2022-08-24T08:35:54.000Z</time>
      </trkpt>
      <trkpt lat="49.84057" lon="6.8741">
        <ele>120.351943</ele>
        <time>2022-08-24T08:36:00.000Z</time>
      </trkpt>
      <trkpt lat="49.84062" lon="6.87415">
        <ele>120.311671</ele>
        <time>2022-08-24T08:36:03.000Z</time>
      </trkpt>
      <trkpt lat="49.84073" lon="6.87426">
        <ele>120.258376</ele>
        <time>2022-08-24T08:36:08.000Z</time>
      </trkpt>
      <trkpt lat="49.84073" lon="6.87435">
        <ele>120.235452</ele>
        <time>2022-08-24T08:36:10.000Z</time>
      </trkpt>
      <trkpt lat="49.84071" lon="6.87439">
        <ele>120.221489</ele>
        <time>2022-08-24T08:36:11.000Z</time>
      </trkpt>
      <trkpt lat="49.84062" lon="6.87452">
        <ele>120.172882</ele>
        <time>2022-08-24T08:36:14.000Z</time>
      </trkpt>
      <trkpt lat="49.84054" lon="6.87462">
        <ele>120.131046</ele>
        <time>2022-08-24T08:36:16.000Z</time>
      </trkpt>
      <trkpt lat="49.84038" lon="6.87481">
        <ele>120.051541</ele>
        <time>2022-08-24T08:36:20.000Z</time>
      </trkpt>
      <trkpt lat="49.84031" lon="6.87489">
        <ele>120.016508</ele>
        <time>2022-08-24T08:36:22.000Z</time>
      </trkpt>
      <trkpt lat="49.84016" lon="6.87508">
        <ele>119.940567</ele>
        <time>2022-08-24T08:36:26.000Z</time>
      </trkpt>
      <trkpt lat="49.84002" lon="6.87523">
        <ele>119.873895</ele>
        <time>2022-08-24T08:36:30.000Z</time>
      </trkpt>
      <trkpt lat="49.83999" lon="6.87527">
        <ele>119.857518</ele>
        <time>2022-08-24T08:36:31.000Z</time>
      </trkpt>
      <trkpt lat="49.83981" lon="6.87547">
        <ele>119.768857</ele>
        <time>2022-08-24T08:36:36.000Z</time>
      </trkpt>
      <trkpt lat="49.8395" lon="6.87582">
        <ele>119.614432</ele>
        <time>2022-08-24T08:36:44.000Z</time>
      </trkpt>
      <trkpt lat="49.83914" lon="6.87617">
        <ele>119.730654</ele>
        <time>2022-08-24T08:36:52.000Z</time>
      </trkpt>
      <trkpt lat="49.83883" lon="6.87643">
        <ele>119.828996</ele>
        <time>2022-08-24T08:36:59.000Z</time>
      </trkpt>
      <trkpt lat="49.83871" lon="6.87654">
        <ele>119.870434</ele>
        <time>2022-08-24T08:37:02.000Z</time>
      </trkpt>
      <trkpt lat="49.83846" lon="6.87675">
        <ele>119.950417</ele>
        <time>2022-08-24T08:37:08.000Z</time>
      </trkpt>
      <trkpt lat="49.83827" lon="6.87689">
        <ele>120.007764</ele>
        <time>2022-08-24T08:37:12.000Z</time>
      </trkpt>
      <trkpt lat="49.83785" lon="6.87718">
        <ele>120.132471</ele>
        <time>2022-08-24T08:37:21.000Z</time>
      </trkpt>
      <trkpt lat="49.83763" lon="6.87733">
        <ele>120.182446</ele>
        <time>2022-08-24T08:37:26.000Z</time>
      </trkpt>
      <trkpt lat="49.8375" lon="6.87742">
        <ele>120.212472</ele>
        <time>2022-08-24T08:37:29.000Z</time>
      </trkpt>
      <trkpt lat="49.83714" lon="6.87766">
        <ele>120.29428</ele>
        <time>2022-08-24T08:37:37.000Z</time>
      </trkpt>
      <trkpt lat="49.8367" lon="6.87795">
        <ele>120.39516</ele>
        <time>2022-08-24T08:37:47.000Z</time>
      </trkpt>
      <trkpt lat="49.83628" lon="6.87823">
        <ele>120.490895</ele>
        <time>2022-08-24T08:37:56.000Z</time>
      </trkpt>
      <trkpt lat="49.83619" lon="6.8783">
        <ele>120.478089</ele>
        <time>2022-08-24T08:37:58.000Z</time>
      </trkpt>
      <trkpt lat="49.83568" lon="6.87866">
        <ele>120.3561</ele>
        <time>2022-08-24T08:38:09.000Z</time>
      </trkpt>
      <trkpt lat="49.83555" lon="6.87873">
        <ele>120.325328</ele>
        <time>2022-08-24T08:38:12.000Z</time>
      </trkpt>
      <trkpt lat="49.83534" lon="6.8789">
        <ele>120.274224</ele>
        <time>2022-08-24T08:38:17.000Z</time>
      </trkpt>
      <trkpt lat="49.83492" lon="6.87917">
        <ele>120.174046</ele>
        <time>2022-08-24T08:38:26.000Z</time>
      </trkpt>
      <trkpt lat="49.83447" lon="6.8794">
        <ele>120.099178</ele>
        <time>2022-08-24T08:38:36.000Z</time>
      </trkpt>
      <trkpt lat="49.83434" lon="6.87945">
        <ele>120.097488</ele>
        <time>2022-08-24T08:38:39.000Z</time>
      </trkpt>
      <trkpt lat="49.83412" lon="6.87955">
        <ele>120.09449</ele>
        <time>2022-08-24T08:38:44.000Z</time>
      </trkpt>
      <trkpt lat="49.83385" lon="6.87964">
        <ele>120.090903</ele>
        <time>2022-08-24T08:38:50.000Z</time>
      </trkpt>
      <trkpt lat="49.83363" lon="6.87971">
        <ele>120.088018</ele>
        <time>2022-08-24T08:38:55.000Z</time>
      </trkpt>
      <trkpt lat="49.8335" lon="6.87975">
        <ele>120.086278</ele>
        <time>2022-08-24T08:38:58.000Z</time>
      </trkpt>
      <trkpt lat="49.83323" lon="6.87983">
        <ele>120.082767</ele>
        <time>2022-08-24T08:39:04.000Z</time>
      </trkpt>
      <trkpt lat="49.833" lon="6.87992">
        <ele>120.079621</ele>
        <time>2022-08-24T08:39:09.000Z</time>
      </trkpt>
      <trkpt lat="49.83275" lon="6.88001">
        <ele>120.085243</ele>
        <time>2022-08-24T08:39:14.000Z</time>
      </trkpt>
      <trkpt lat="49.83235" lon="6.88016">
        <ele>120.113935</ele>
        <time>2022-08-24T08:39:22.000Z</time>
      </trkpt>
      <trkpt lat="49.8323" lon="6.88018">
        <ele>120.117443</ele>
        <time>2022-08-24T08:39:23.000Z</time>
      </trkpt>
      <trkpt lat="49.83192" lon="6.88034">
        <ele>120.144835</ele>
        <time>2022-08-24T08:39:31.000Z</time>
      </trkpt>
      <trkpt lat="49.83164" lon="6.88045">
        <ele>120.164638</ele>
        <time>2022-08-24T08:39:37.000Z</time>
      </trkpt>
      <trkpt lat="49.83155" lon="6.88049">
        <ele>120.171172</ele>
        <time>2022-08-24T08:39:39.000Z</time>
      </trkpt>
      <trkpt lat="49.83137" lon="6.88056">
        <ele>120.184408</ele>
        <time>2022-08-24T08:39:43.000Z</time>
      </trkpt>
      <trkpt lat="49.83094" lon="6.88074">
        <ele>120.207565</ele>
        <time>2022-08-24T08:39:52.000Z</time>
      </trkpt>
      <trkpt lat="49.83045" lon="6.88093">
        <ele>120.221243</ele>
        <time>2022-08-24T08:40:02.000Z</time>
      </trkpt>
      <trkpt lat="49.83" lon="6.88111">
        <ele>120.233793</ele>
        <time>2022-08-24T08:40:11.000Z</time>
      </trkpt>
      <trkpt lat="49.82955" lon="6.88126">
        <ele>120.24638</ele>
        <time>2022-08-24T08:40:20.000Z</time>
      </trkpt>
      <trkpt lat="49.82902" lon="6.88144">
        <ele>119.866306</ele>
        <time>2022-08-24T08:40:31.000Z</time>
      </trkpt>
      <trkpt lat="49.82858" lon="6.88157">
        <ele>119.387253</ele>
        <time>2022-08-24T08:40:40.000Z</time>
      </trkpt>
      <trkpt lat="49.82832" lon="6.88168">
        <ele>119.096027</ele>
        <time>2022-08-24T08:40:45.000Z</time>
      </trkpt>
      <trkpt lat="49.82814" lon="6.88172">
        <ele>118.902717</ele>
        <time>2022-08-24T08:40:48.000Z</time>
      </trkpt>
      <trkpt lat="49.82808" lon="6.88173">
        <ele>118.83986</ele>
        <time>2022-08-24T08:40:49.000Z</time>
      </trkpt>
      <trkpt lat="49.8279" lon="6.88178">
        <ele>118.641659</ele>
        <time>2022-08-24T08:40:52.000Z</time>
      </trkpt>
      <trkpt lat="49.82784" lon="6.8818">
        <ele>118.579029</ele>
        <time>2022-08-24T08:40:53.000Z</time>
      </trkpt>
      <trkpt lat="49.82745" lon="6.88187">
        <ele>118.539337</ele>
        <time>2022-08-24T08:41:00.000Z</time>
      </trkpt>
      <trkpt lat="49.82722" lon="6.8819">
        <ele>118.867755</ele>
        <time>2022-08-24T08:41:04.000Z</time>
      </trkpt>
      <trkpt lat="49.8269" lon="6.88196">
        <ele>119.330366</ele>
        <time>2022-08-24T08:41:10.000Z</time>
      </trkpt>
      <trkpt lat="49.82646" lon="6.88204">
        <ele>119.957608</ele>
        <time>2022-08-24T08:41:19.000Z</time>
      </trkpt>
      <trkpt lat="49.82635" lon="6.88207">
        <ele>120.12023</ele>
        <time>2022-08-24T08:41:22.000Z</time>
      </trkpt>
      <trkpt lat="49.82631" lon="6.88207">
        <ele>120.174617</ele>
        <time>2022-08-24T08:41:23.000Z</time>
      </trkpt>
      <trkpt lat="49.82627" lon="6.88207">
        <ele>120.240427</ele>
        <time>2022-08-24T08:41:24.000Z</time>
      </trkpt>
      <trkpt lat="49.82613" lon="6.88209">
        <ele>120.429917</ele>
        <time>2022-08-24T08:41:29.000Z</time>
      </trkpt>
      <trkpt lat="49.82612" lon="6.88206">
        <ele>120.471191</ele>
        <time>2022-08-24T08:41:31.000Z</time>
      </trkpt>
      <trkpt lat="49.82612" lon="6.88204">
        <ele>120.492448</ele>
        <time>2022-08-24T08:41:32.000Z</time>
      </trkpt>
      <trkpt lat="49.82612" lon="6.88201">
        <ele>120.512022</ele>
        <time>2022-08-24T08:41:33.000Z</time>
      </trkpt>
      <trkpt lat="49.82612" lon="6.88194">
        <ele>120.578051</ele>
        <time>2022-08-24T08:41:36.000Z</time>
      </trkpt>
      <trkpt lat="49.82613" lon="6.88194">
        <ele>120.58511</ele>
        <time>2022-08-24T08:41:38.000Z</time>
      </trkpt>
      <trkpt lat="49.82613" lon="6.8819">
        <ele>120.615574</ele>
        <time>2022-08-24T08:41:41.000Z</time>
      </trkpt>
      <trkpt lat="49.82613" lon="6.88184">
        <ele>120.672744</ele>
        <time>2022-08-24T08:41:43.000Z</time>
      </trkpt>
      <trkpt lat="49.82607" lon="6.88166">
        <ele>120.861415</ele>
        <time>2022-08-24T08:41:47.000Z</time>
      </trkpt>
      <trkpt lat="49.82604" lon="6.88161">
        <ele>120.925372</ele>
        <time>2022-08-24T08:41:48.000Z</time>
      </trkpt>
      <trkpt lat="49.82591" lon="6.88138">
        <ele>121.24179</ele>
        <time>2022-08-24T08:41:53.000Z</time>
      </trkpt>
      <trkpt lat="49.82589" lon="6.88135">
        <ele>121.293293</ele>
        <time>2022-08-24T08:41:54.000Z</time>
      </trkpt>
      <trkpt lat="49.82585" lon="6.88127">
        <ele>121.394937</ele>
        <time>2022-08-24T08:41:56.000Z</time>
      </trkpt>
      <trkpt lat="49.82581" lon="6.88121">
        <ele>121.48175</ele>
        <time>2022-08-24T08:41:58.000Z</time>
      </trkpt>
      <trkpt lat="49.82576" lon="6.88114">
        <ele>121.604307</ele>
        <time>2022-08-24T08:42:01.000Z</time>
      </trkpt>
      <trkpt lat="49.82574" lon="6.88111">
        <ele>121.646925</ele>
        <time>2022-08-24T08:42:02.000Z</time>
      </trkpt>
      <trkpt lat="49.82559" lon="6.88102">
        <ele>121.895555</ele>
        <time>2022-08-24T08:42:09.000Z</time>
      </trkpt>
      <trkpt lat="49.82543" lon="6.88104">
        <ele>122.171117</ele>
        <time>2022-08-24T08:42:14.000Z</time>
      </trkpt>
      <trkpt lat="49.82528" lon="6.88105">
        <ele>122.407308</ele>
        <time>2022-08-24T08:42:18.000Z</time>
      </trkpt>
      <trkpt lat="49.82521" lon="6.88106">
        <ele>122.52121</ele>
        <time>2022-08-24T08:42:20.000Z</time>
      </trkpt>
      <trkpt lat="49.82507" lon="6.88105">
        <ele>122.756021</ele>
        <time>2022-08-24T08:42:25.000Z</time>
      </trkpt>
      <trkpt lat="49.82502" lon="6.88107">
        <ele>122.840335</ele>
        <time>2022-08-24T08:42:29.000Z</time>
      </trkpt>
      <trkpt lat="49.82499" lon="6.88108">
        <ele>122.879221</ele>
        <time>2022-08-24T08:42:31.000Z</time>
      </trkpt>
      <trkpt lat="49.82493" lon="6.88109">
        <ele>122.980694</ele>
        <time>2022-08-24T08:42:34.000Z</time>
      </trkpt>
      <trkpt lat="49.8249" lon="6.88109">
        <ele>123.024759</ele>
        <time>2022-08-24T08:42:35.000Z</time>
      </trkpt>
      <trkpt lat="49.82481" lon="6.88104">
        <ele>123.189289</ele>
        <time>2022-08-24T08:42:39.000Z</time>
      </trkpt>
      <trkpt lat="49.82476" lon="6.88098">
        <ele>123.289013</ele>
        <time>2022-08-24T08:42:44.000Z</time>
      </trkpt>
      <trkpt lat="49.82466" lon="6.88102">
        <ele>123.466075</ele>
        <time>2022-08-24T08:42:52.000Z</time>
      </trkpt>
      <trkpt lat="49.82449" lon="6.88105">
        <ele>123.730894</ele>
        <time>2022-08-24T08:42:57.000Z</time>
      </trkpt>
      <trkpt lat="49.82438" lon="6.88106">
        <ele>123.780409</ele>
        <time>2022-08-24T08:43:00.000Z</time>
      </trkpt>
      <trkpt lat="49.82431" lon="6.88103">
        <ele>123.727492</ele>
        <time>2022-08-24T08:43:02.000Z</time>
      </trkpt>
      <trkpt lat="49.82427" lon="6.88102">
        <ele>123.69855</ele>
        <time>2022-08-24T08:43:03.000Z</time>
      </trkpt>
      <trkpt lat="49.82413" lon="6.88099">
        <ele>123.607683</ele>
        <time>2022-08-24T08:43:06.000Z</time>
      </trkpt>
      <trkpt lat="49.82409" lon="6.88098">
        <ele>123.574752</ele>
        <time>2022-08-24T08:43:07.000Z</time>
      </trkpt>
      <trkpt lat="49.82397" lon="6.88095">
        <ele>123.492705</ele>
        <time>2022-08-24T08:43:09.000Z</time>
      </trkpt>
      <trkpt lat="49.82379" lon="6.88087">
        <ele>123.364414</ele>
        <time>2022-08-24T08:43:12.000Z</time>
      </trkpt>
      <trkpt lat="49.82373" lon="6.88084">
        <ele>123.321094</ele>
        <time>2022-08-24T08:43:13.000Z</time>
      </trkpt>
      <trkpt lat="49.82366" lon="6.88082">
        <ele>123.274369</ele>
        <time>2022-08-24T08:43:14.000Z</time>
      </trkpt>
      <trkpt lat="49.82361" lon="6.88083">
        <ele>123.237328</ele>
        <time>2022-08-24T08:43:15.000Z</time>
      </trkpt>
      <trkpt lat="49.82353" lon="6.88091">
        <ele>123.170767</ele>
        <time>2022-08-24T08:43:17.000Z</time>
      </trkpt>
      <trkpt lat="49.82349" lon="6.88097">
        <ele>123.13346</ele>
        <time>2022-08-24T08:43:18.000Z</time>
      </trkpt>
      <trkpt lat="49.82341" lon="6.88108">
        <ele>123.063826</ele>
        <time>2022-08-24T08:43:20.000Z</time>
      </trkpt>
      <trkpt lat="49.82328" lon="6.88128">
        <ele>122.939572</ele>
        <time>2022-08-24T08:43:24.000Z</time>
      </trkpt>
      <trkpt lat="49.82313" lon="6.88149">
        <ele>122.800159</ele>
        <time>2022-08-24T08:43:30.000Z</time>
      </trkpt>
      <trkpt lat="49.82294" lon="6.88176">
        <ele>122.621603</ele>
        <time>2022-08-24T08:43:39.000Z</time>
      </trkpt>
      <trkpt lat="49.8229" lon="6.88183">
        <ele>122.610816</ele>
        <time>2022-08-24T08:43:42.000Z</time>
      </trkpt>
      <trkpt lat="49.82291" lon="6.88184">
        <ele>122.626974</ele>
        <time>2022-08-24T08:43:43.000Z</time>
      </trkpt>
      <trkpt lat="49.82289" lon="6.88183">
        <ele>122.657574</ele>
        <time>2022-08-24T08:43:46.000Z</time>
      </trkpt>
      <trkpt lat="49.82288" lon="6.88182">
        <ele>122.675119</ele>
        <time>2022-08-24T08:43:52.000Z</time>
      </trkpt>
      <trkpt lat="49.82287" lon="6.88183">
        <ele>122.69296</ele>
        <time>2022-08-24T08:44:02.000Z</time>
      </trkpt>
      <trkpt lat="49.82287" lon="6.88183">
        <ele>122.69296</ele>
        <time>2022-08-24T08:44:11.000Z</time>
      </trkpt>
      <trkpt lat="49.82288" lon="6.88184">
        <ele>122.704266</ele>
        <time>2022-08-24T08:44:37.000Z</time>
      </trkpt>
      <trkpt lat="49.82289" lon="6.88185">
        <ele>122.736472</ele>
        <time>2022-08-24T08:44:56.000Z</time>
      </trkpt>
      <trkpt lat="49.82289" lon="6.88185">
        <ele>122.739531</ele>
        <time>2022-08-24T08:44:59.000Z</time>
      </trkpt>
      <trkpt lat="49.82289" lon="6.88185">
        <ele>122.739531</ele>
        <time>2022-08-24T08:45:02.000Z</time>
      </trkpt>
      <trkpt lat="49.82289" lon="6.88185">
        <ele>122.739531</ele>
        <time>2022-08-24T08:45:07.000Z</time>
      </trkpt>
      <trkpt lat="49.8229" lon="6.88186">
        <ele>122.749161</ele>
        <time>2022-08-24T08:45:21.000Z</time>
      </trkpt>
      <trkpt lat="49.8229" lon="6.88186">
        <ele>122.749161</ele>
        <time>2022-08-24T08:45:27.000Z</time>
      </trkpt>
      <trkpt lat="49.82288" lon="6.88187">
        <ele>122.781054</ele>
        <time>2022-08-24T08:45:29.000Z</time>
      </trkpt>
      <trkpt lat="49.82285" lon="6.88187">
        <ele>122.841071</ele>
        <time>2022-08-24T08:45:31.000Z</time>
      </trkpt>
      <trkpt lat="49.82284" lon="6.88186">
        <ele>122.870736</ele>
        <time>2022-08-24T08:45:32.000Z</time>
      </trkpt>
      <trkpt lat="49.82278" lon="6.88177">
        <ele>123.024081</ele>
        <time>2022-08-24T08:45:36.000Z</time>
      </trkpt>
      <trkpt lat="49.82265" lon="6.88171">
        <ele>123.274175</ele>
        <time>2022-08-24T08:45:41.000Z</time>
      </trkpt>
      <trkpt lat="49.82251" lon="6.88166">
        <ele>123.553359</ele>
        <time>2022-08-24T08:45:45.000Z</time>
      </trkpt>
      <trkpt lat="49.82244" lon="6.88161">
        <ele>123.694925</ele>
        <time>2022-08-24T08:45:47.000Z</time>
      </trkpt>
      <trkpt lat="49.82241" lon="6.88159">
        <ele>123.762255</ele>
        <time>2022-08-24T08:45:48.000Z</time>
      </trkpt>
      <trkpt lat="49.82234" lon="6.88157">
        <ele>123.880497</ele>
        <time>2022-08-24T08:45:50.000Z</time>
      </trkpt>
      <trkpt lat="49.8223" lon="6.88154">
        <ele>123.968742</ele>
        <time>2022-08-24T08:45:52.000Z</time>
      </trkpt>
      <trkpt lat="49.82225" lon="6.88152">
        <ele>124.064343</ele>
        <time>2022-08-24T08:45:53.000Z</time>
      </trkpt>
      <trkpt lat="49.82219" lon="6.88147">
        <ele>124.185335</ele>
        <time>2022-08-24T08:45:55.000Z</time>
      </trkpt>
      <trkpt lat="49.82213" lon="6.88141">
        <ele>124.330952</ele>
        <time>2022-08-24T08:45:57.000Z</time>
      </trkpt>
      <trkpt lat="49.82192" lon="6.88128">
        <ele>124.754006</ele>
        <time>2022-08-24T08:46:04.000Z</time>
      </trkpt>
      <trkpt lat="49.82181" lon="6.88133">
        <ele>124.970626</ele>
        <time>2022-08-24T08:46:08.000Z</time>
      </trkpt>
      <trkpt lat="49.82179" lon="6.88136">
        <ele>125.022783</ele>
        <time>2022-08-24T08:46:09.000Z</time>
      </trkpt>
      <trkpt lat="49.8216" lon="6.88154">
        <ele>125.434059</ele>
        <time>2022-08-24T08:46:16.000Z</time>
      </trkpt>
      <trkpt lat="49.82147" lon="6.88171">
        <ele>125.757745</ele>
        <time>2022-08-24T08:46:22.000Z</time>
      </trkpt>
      <trkpt lat="49.82133" lon="6.88188">
        <ele>125.961409</ele>
        <time>2022-08-24T08:46:29.000Z</time>
      </trkpt>
      <trkpt lat="49.82124" lon="6.88196">
        <ele>125.958147</ele>
        <time>2022-08-24T08:46:33.000Z</time>
      </trkpt>
      <trkpt lat="49.82124" lon="6.88197">
        <ele>125.95791</ele>
        <time>2022-08-24T08:46:34.000Z</time>
      </trkpt>
      <trkpt lat="49.82122" lon="6.882">
        <ele>125.957021</ele>
        <time>2022-08-24T08:46:46.000Z</time>
      </trkpt>
      <trkpt lat="49.82121" lon="6.88201">
        <ele>125.956424</ele>
        <time>2022-08-24T08:46:47.000Z</time>
      </trkpt>
      <trkpt lat="49.82109" lon="6.88213">
        <ele>125.951888</ele>
        <time>2022-08-24T08:46:53.000Z</time>
      </trkpt>
      <trkpt lat="49.82102" lon="6.88216">
        <ele>125.949568</ele>
        <time>2022-08-24T08:46:57.000Z</time>
      </trkpt>
      <trkpt lat="49.82102" lon="6.88216">
        <ele>125.949403</ele>
        <time>2022-08-24T08:46:59.000Z</time>
      </trkpt>
      <trkpt lat="49.82102" lon="6.88216">
        <ele>125.949403</ele>
        <time>2022-08-24T08:47:16.000Z</time>
      </trkpt>
      <trkpt lat="49.82102" lon="6.88216">
        <ele>125.949403</ele>
        <time>2022-08-24T08:47:19.000Z</time>
      </trkpt>
      <trkpt lat="49.82102" lon="6.88216">
        <ele>125.949403</ele>
        <time>2022-08-24T08:47:26.000Z</time>
      </trkpt>
      <trkpt lat="49.82102" lon="6.88216">
        <ele>125.949382</ele>
        <time>2022-08-24T08:47:29.000Z</time>
      </trkpt>
      <trkpt lat="49.82101" lon="6.88215">
        <ele>125.949212</ele>
        <time>2022-08-24T08:47:39.000Z</time>
      </trkpt>
      <trkpt lat="49.82101" lon="6.88215">
        <ele>125.949212</ele>
        <time>2022-08-24T08:47:48.000Z</time>
      </trkpt>
      <trkpt lat="49.82101" lon="6.88215">
        <ele>125.949212</ele>
        <time>2022-08-24T08:47:50.000Z</time>
      </trkpt>
      <trkpt lat="49.821" lon="6.88218">
        <ele>125.948419</ele>
        <time>2022-08-24T08:47:59.000Z</time>
      </trkpt>
      <trkpt lat="49.82098" lon="6.88219">
        <ele>125.947793</ele>
        <time>2022-08-24T08:48:00.000Z</time>
      </trkpt>
      <trkpt lat="49.82092" lon="6.88227">
        <ele>125.945101</ele>
        <time>2022-08-24T08:48:04.000Z</time>
      </trkpt>
      <trkpt lat="49.82088" lon="6.88231">
        <ele>125.943567</ele>
        <time>2022-08-24T08:48:06.000Z</time>
      </trkpt>
      <trkpt lat="49.82086" lon="6.88234">
        <ele>125.942617</ele>
        <time>2022-08-24T08:48:08.000Z</time>
      </trkpt>
      <trkpt lat="49.82086" lon="6.88236">
        <ele>125.942253</ele>
        <time>2022-08-24T08:48:09.000Z</time>
      </trkpt>
      <trkpt lat="49.8209" lon="6.88235">
        <ele>125.94095</ele>
        <time>2022-08-24T08:48:12.000Z</time>
      </trkpt>
      <trkpt lat="49.82091" lon="6.88232">
        <ele>125.940168</ele>
        <time>2022-08-24T08:48:13.000Z</time>
      </trkpt>
      <trkpt lat="49.82097" lon="6.88223">
        <ele>125.937363</ele>
        <time>2022-08-24T08:48:17.000Z</time>
      </trkpt>
      <trkpt lat="49.821" lon="6.88221">
        <ele>125.936283</ele>
        <time>2022-08-24T08:48:18.000Z</time>
      </trkpt>
      <trkpt lat="49.82118" lon="6.88211">
        <ele>125.930025</ele>
        <time>2022-08-24T08:48:23.000Z</time>
      </trkpt>
      <trkpt lat="49.8214" lon="6.88193">
        <ele>125.921743</ele>
        <time>2022-08-24T08:48:30.000Z</time>
      </trkpt>
      <trkpt lat="49.82149" lon="6.88184">
        <ele>125.918101</ele>
        <time>2022-08-24T08:48:35.000Z</time>
      </trkpt>
      <trkpt lat="49.8216" lon="6.88168">
        <ele>125.91338</ele>
        <time>2022-08-24T08:48:40.000Z</time>
      </trkpt>
      <trkpt lat="49.82162" lon="6.88165">
        <ele>125.912305</ele>
        <time>2022-08-24T08:48:41.000Z</time>
      </trkpt>
      <trkpt lat="49.82173" lon="6.8815">
        <ele>125.90749</ele>
        <time>2022-08-24T08:48:45.000Z</time>
      </trkpt>
      <trkpt lat="49.82176" lon="6.88146">
        <ele>125.906288</ele>
        <time>2022-08-24T08:48:46.000Z</time>
      </trkpt>
      <trkpt lat="49.82181" lon="6.88142">
        <ele>125.894759</ele>
        <time>2022-08-24T08:48:48.000Z</time>
      </trkpt>
      <trkpt lat="49.82185" lon="6.88138">
        <ele>125.780397</ele>
        <time>2022-08-24T08:48:50.000Z</time>
      </trkpt>
      <trkpt lat="49.82187" lon="6.88135">
        <ele>125.707527</ele>
        <time>2022-08-24T08:48:52.000Z</time>
      </trkpt>
      <trkpt lat="49.82188" lon="6.88135">
        <ele>125.67457</ele>
        <time>2022-08-24T08:48:54.000Z</time>
      </trkpt>
      <trkpt lat="49.82189" lon="6.88136">
        <ele>125.644474</ele>
        <time>2022-08-24T08:49:04.000Z</time>
      </trkpt>
      <trkpt lat="49.82189" lon="6.88136">
        <ele>125.644474</ele>
        <time>2022-08-24T08:49:19.000Z</time>
      </trkpt>
      <trkpt lat="49.82189" lon="6.88136">
        <ele>125.644474</ele>
        <time>2022-08-24T08:49:39.000Z</time>
      </trkpt>
      <trkpt lat="49.82189" lon="6.88136">
        <ele>125.644474</ele>
        <time>2022-08-24T08:49:54.000Z</time>
      </trkpt>
      <trkpt lat="49.82189" lon="6.88136">
        <ele>125.644474</ele>
        <time>2022-08-24T08:50:01.000Z</time>
      </trkpt>
      <trkpt lat="49.82189" lon="6.88136">
        <ele>125.641457</ele>
        <time>2022-08-24T08:50:13.000Z</time>
      </trkpt>
      <trkpt lat="49.82189" lon="6.88136">
        <ele>125.641457</ele>
        <time>2022-08-24T08:50:21.000Z</time>
      </trkpt>
      <trkpt lat="49.82189" lon="6.88136">
        <ele>125.641457</ele>
        <time>2022-08-24T08:51:10.000Z</time>
      </trkpt>
      <trkpt lat="49.82189" lon="6.88136">
        <ele>125.641457</ele>
        <time>2022-08-24T08:51:25.000Z</time>
      </trkpt>
      <trkpt lat="49.82189" lon="6.88136">
        <ele>125.641457</ele>
        <time>2022-08-24T08:51:31.000Z</time>
      </trkpt>
      <trkpt lat="49.82189" lon="6.88136">
        <ele>125.641457</ele>
        <time>2022-08-24T08:51:48.000Z</time>
      </trkpt>
      <trkpt lat="49.82186" lon="6.88135">
        <ele>125.554505</ele>
        <time>2022-08-24T08:52:08.000Z</time>
      </trkpt>
      <trkpt lat="49.82186" lon="6.88124">
        <ele>125.367619</ele>
        <time>2022-08-24T08:52:11.000Z</time>
      </trkpt>
      <trkpt lat="49.82185" lon="6.88122">
        <ele>125.325012</ele>
        <time>2022-08-24T08:52:16.000Z</time>
      </trkpt>
      <trkpt lat="49.82188" lon="6.88122">
        <ele>125.271749</ele>
        <time>2022-08-24T08:52:19.000Z</time>
      </trkpt>
      <trkpt lat="49.82199" lon="6.88127">
        <ele>124.958749</ele>
        <time>2022-08-24T08:52:26.000Z</time>
      </trkpt>
      <trkpt lat="49.82211" lon="6.88137">
        <ele>124.621453</ele>
        <time>2022-08-24T08:52:30.000Z</time>
      </trkpt>
      <trkpt lat="49.82214" lon="6.88141">
        <ele>124.532685</ele>
        <time>2022-08-24T08:52:31.000Z</time>
      </trkpt>
      <trkpt lat="49.82232" lon="6.88168">
        <ele>123.888501</ele>
        <time>2022-08-24T08:52:38.000Z</time>
      </trkpt>
      <trkpt lat="49.82249" lon="6.88169">
        <ele>123.459265</ele>
        <time>2022-08-24T08:52:43.000Z</time>
      </trkpt>
      <trkpt lat="49.82253" lon="6.88171">
        <ele>123.356105</ele>
        <time>2022-08-24T08:52:44.000Z</time>
      </trkpt>
      <trkpt lat="49.82268" lon="6.88174">
        <ele>122.972251</ele>
        <time>2022-08-24T08:52:48.000Z</time>
      </trkpt>
      <trkpt lat="49.82276" lon="6.8818">
        <ele>122.748501</ele>
        <time>2022-08-24T08:52:50.000Z</time>
      </trkpt>
      <trkpt lat="49.82281" lon="6.88188">
        <ele>122.565714</ele>
        <time>2022-08-24T08:52:52.000Z</time>
      </trkpt>
      <trkpt lat="49.82288" lon="6.88198">
        <ele>122.334406</ele>
        <time>2022-08-24T08:52:55.000Z</time>
      </trkpt>
      <trkpt lat="49.82289" lon="6.88201">
        <ele>122.278058</ele>
        <time>2022-08-24T08:52:56.000Z</time>
      </trkpt>
      <trkpt lat="49.8229" lon="6.88203">
        <ele>122.225772</ele>
        <time>2022-08-24T08:52:57.000Z</time>
      </trkpt>
      <trkpt lat="49.82294" lon="6.88216">
        <ele>122.003084</ele>
        <time>2022-08-24T08:53:02.000Z</time>
      </trkpt>
      <trkpt lat="49.82304" lon="6.88224">
        <ele>121.720753</ele>
        <time>2022-08-24T08:53:06.000Z</time>
      </trkpt>
      <trkpt lat="49.82308" lon="6.88233">
        <ele>121.528506</ele>
        <time>2022-08-24T08:53:08.000Z</time>
      </trkpt>
      <trkpt lat="49.82312" lon="6.88247">
        <ele>121.287571</ele>
        <time>2022-08-24T08:53:11.000Z</time>
      </trkpt>
      <trkpt lat="49.82319" lon="6.88267">
        <ele>120.974264</ele>
        <time>2022-08-24T08:53:15.000Z</time>
      </trkpt>
      <trkpt lat="49.82323" lon="6.88279">
        <ele>120.777908</ele>
        <time>2022-08-24T08:53:17.000Z</time>
      </trkpt>
      <trkpt lat="49.82326" lon="6.88285">
        <ele>120.685671</ele>
        <time>2022-08-24T08:53:18.000Z</time>
      </trkpt>
      <trkpt lat="49.82331" lon="6.883">
        <ele>120.440107</ele>
        <time>2022-08-24T08:53:21.000Z</time>
      </trkpt>
      <trkpt lat="49.82334" lon="6.88312">
        <ele>120.259353</ele>
        <time>2022-08-24T08:53:24.000Z</time>
      </trkpt>
      <trkpt lat="49.82336" lon="6.88328">
        <ele>120.026471</ele>
        <time>2022-08-24T08:53:28.000Z</time>
      </trkpt>
      <trkpt lat="49.82337" lon="6.88332">
        <ele>119.977051</ele>
        <time>2022-08-24T08:53:29.000Z</time>
      </trkpt>
      <trkpt lat="49.82319" lon="6.88338">
        <ele>119.593912</ele>
        <time>2022-08-24T08:53:35.000Z</time>
      </trkpt>
      <trkpt lat="49.82303" lon="6.88348">
        <ele>119.203829</ele>
        <time>2022-08-24T08:53:40.000Z</time>
      </trkpt>
      <trkpt lat="49.82275" lon="6.88362">
        <ele>118.580539</ele>
        <time>2022-08-24T08:53:47.000Z</time>
      </trkpt>
      <trkpt lat="49.82241" lon="6.8838">
        <ele>117.789452</ele>
        <time>2022-08-24T08:53:55.000Z</time>
      </trkpt>
      <trkpt lat="49.82213" lon="6.88393">
        <ele>117.384434</ele>
        <time>2022-08-24T08:54:02.000Z</time>
      </trkpt>
      <trkpt lat="49.82205" lon="6.88398">
        <ele>117.351371</ele>
        <time>2022-08-24T08:54:04.000Z</time>
      </trkpt>
      <trkpt lat="49.82201" lon="6.884">
        <ele>117.334443</ele>
        <time>2022-08-24T08:54:05.000Z</time>
      </trkpt>
      <trkpt lat="49.82176" lon="6.88422">
        <ele>117.222275</ele>
        <time>2022-08-24T08:54:11.000Z</time>
      </trkpt>
      <trkpt lat="49.82166" lon="6.88427">
        <ele>117.179234</ele>
        <time>2022-08-24T08:54:13.000Z</time>
      </trkpt>
      <trkpt lat="49.8214" lon="6.88441">
        <ele>117.072811</ele>
        <time>2022-08-24T08:54:18.000Z</time>
      </trkpt>
      <trkpt lat="49.82122" lon="6.88451">
        <ele>116.995301</ele>
        <time>2022-08-24T08:54:22.000Z</time>
      </trkpt>
      <trkpt lat="49.82108" lon="6.8846">
        <ele>116.936081</ele>
        <time>2022-08-24T08:54:25.000Z</time>
      </trkpt>
      <trkpt lat="49.82103" lon="6.88462">
        <ele>116.915841</ele>
        <time>2022-08-24T08:54:26.000Z</time>
      </trkpt>
      <trkpt lat="49.82089" lon="6.88472">
        <ele>116.854198</ele>
        <time>2022-08-24T08:54:29.000Z</time>
      </trkpt>
      <trkpt lat="49.82078" lon="6.88478">
        <ele>116.810401</ele>
        <time>2022-08-24T08:54:31.000Z</time>
      </trkpt>
      <trkpt lat="49.82058" lon="6.88493">
        <ele>116.744701</ele>
        <time>2022-08-24T08:54:35.000Z</time>
      </trkpt>
      <trkpt lat="49.82017" lon="6.88526">
        <ele>117.237342</ele>
        <time>2022-08-24T08:54:43.000Z</time>
      </trkpt>
      <trkpt lat="49.81972" lon="6.88562">
        <ele>117.780385</ele>
        <time>2022-08-24T08:54:52.000Z</time>
      </trkpt>
      <trkpt lat="49.81963" lon="6.88568">
        <ele>117.892363</ele>
        <time>2022-08-24T08:54:54.000Z</time>
      </trkpt>
      <trkpt lat="49.81951" lon="6.8858">
        <ele>118.043357</ele>
        <time>2022-08-24T08:54:57.000Z</time>
      </trkpt>
      <trkpt lat="49.81925" lon="6.8861">
        <ele>118.396194</ele>
        <time>2022-08-24T08:55:04.000Z</time>
      </trkpt>
      <trkpt lat="49.81921" lon="6.88613">
        <ele>118.442184</ele>
        <time>2022-08-24T08:55:05.000Z</time>
      </trkpt>
      <trkpt lat="49.81908" lon="6.88619">
        <ele>118.589911</ele>
        <time>2022-08-24T08:55:09.000Z</time>
      </trkpt>
      <trkpt lat="49.81905" lon="6.8862">
        <ele>118.622821</ele>
        <time>2022-08-24T08:55:10.000Z</time>
      </trkpt>
      <trkpt lat="49.81893" lon="6.88633">
        <ele>118.842457</ele>
        <time>2022-08-24T08:55:14.000Z</time>
      </trkpt>
      <trkpt lat="49.81865" lon="6.88666">
        <ele>119.458539</ele>
        <time>2022-08-24T08:55:22.000Z</time>
      </trkpt>
      <trkpt lat="49.81858" lon="6.88671">
        <ele>119.589965</ele>
        <time>2022-08-24T08:55:24.000Z</time>
      </trkpt>
      <trkpt lat="49.81855" lon="6.8867">
        <ele>119.639482</ele>
        <time>2022-08-24T08:55:25.000Z</time>
      </trkpt>
      <trkpt lat="49.81845" lon="6.88662">
        <ele>119.830249</ele>
        <time>2022-08-24T08:55:29.000Z</time>
      </trkpt>
      <trkpt lat="49.81838" lon="6.8866">
        <ele>119.946103</ele>
        <time>2022-08-24T08:55:31.000Z</time>
      </trkpt>
      <trkpt lat="49.81832" lon="6.88657">
        <ele>120.061566</ele>
        <time>2022-08-24T08:55:33.000Z</time>
      </trkpt>
      <trkpt lat="49.81829" lon="6.88655">
        <ele>120.125783</ele>
        <time>2022-08-24T08:55:34.000Z</time>
      </trkpt>
      <trkpt lat="49.81825" lon="6.88654">
        <ele>120.196554</ele>
        <time>2022-08-24T08:55:35.000Z</time>
      </trkpt>
      <trkpt lat="49.81816" lon="6.88655">
        <ele>120.345678</ele>
        <time>2022-08-24T08:55:37.000Z</time>
      </trkpt>
      <trkpt lat="49.8179" lon="6.88661">
        <ele>120.796412</ele>
        <time>2022-08-24T08:55:44.000Z</time>
      </trkpt>
      <trkpt lat="49.81784" lon="6.88657">
        <ele>120.909513</ele>
        <time>2022-08-24T08:55:46.000Z</time>
      </trkpt>
      <trkpt lat="49.81782" lon="6.88655">
        <ele>120.963975</ele>
        <time>2022-08-24T08:55:47.000Z</time>
      </trkpt>
      <trkpt lat="49.81779" lon="6.88652">
        <ele>121.021502</ele>
        <time>2022-08-24T08:55:48.000Z</time>
      </trkpt>
      <trkpt lat="49.81773" lon="6.88645">
        <ele>121.141986</ele>
        <time>2022-08-24T08:55:50.000Z</time>
      </trkpt>
      <trkpt lat="49.81766" lon="6.88641">
        <ele>121.28125</ele>
        <time>2022-08-24T08:55:52.000Z</time>
      </trkpt>
      <trkpt lat="49.81758" lon="6.8864">
        <ele>121.418816</ele>
        <time>2022-08-24T08:55:54.000Z</time>
      </trkpt>
      <trkpt lat="49.8175" lon="6.88643">
        <ele>121.560067</ele>
        <time>2022-08-24T08:55:56.000Z</time>
      </trkpt>
      <trkpt lat="49.81745" lon="6.88652">
        <ele>121.697757</ele>
        <time>2022-08-24T08:55:58.000Z</time>
      </trkpt>
      <trkpt lat="49.81719" lon="6.88686">
        <ele>121.880795</ele>
        <time>2022-08-24T08:56:06.000Z</time>
      </trkpt>
      <trkpt lat="49.81707" lon="6.88702">
        <ele>121.937451</ele>
        <time>2022-08-24T08:56:10.000Z</time>
      </trkpt>
      <trkpt lat="49.81693" lon="6.88719">
        <ele>121.999116</ele>
        <time>2022-08-24T08:56:14.000Z</time>
      </trkpt>
      <trkpt lat="49.81685" lon="6.88728">
        <ele>122.033018</ele>
        <time>2022-08-24T08:56:16.000Z</time>
      </trkpt>
      <trkpt lat="49.81659" lon="6.88765">
        <ele>122.15755</ele>
        <time>2022-08-24T08:56:23.000Z</time>
      </trkpt>
      <trkpt lat="49.81624" lon="6.88821">
        <ele>122.337472</ele>
        <time>2022-08-24T08:56:33.000Z</time>
      </trkpt>
      <trkpt lat="49.81592" lon="6.88876">
        <ele>122.355005</ele>
        <time>2022-08-24T08:56:42.000Z</time>
      </trkpt>
      <trkpt lat="49.81561" lon="6.88944">
        <ele>122.233487</ele>
        <time>2022-08-24T08:56:52.000Z</time>
      </trkpt>
      <trkpt lat="49.81534" lon="6.89018">
        <ele>122.109875</ele>
        <time>2022-08-24T08:57:02.000Z</time>
      </trkpt>
      <trkpt lat="49.81514" lon="6.89081">
        <ele>122.00715</ele>
        <time>2022-08-24T08:57:10.000Z</time>
      </trkpt>
      <trkpt lat="49.81489" lon="6.89163">
        <ele>121.833874</ele>
        <time>2022-08-24T08:57:20.000Z</time>
      </trkpt>
      <trkpt lat="49.81477" lon="6.89231">
        <ele>121.698948</ele>
        <time>2022-08-24T08:57:28.000Z</time>
      </trkpt>
      <trkpt lat="49.81463" lon="6.89318">
        <ele>121.528204</ele>
        <time>2022-08-24T08:57:38.000Z</time>
      </trkpt>
      <trkpt lat="49.8146" lon="6.89335">
        <ele>121.494607</ele>
        <time>2022-08-24T08:57:40.000Z</time>
      </trkpt>
      <trkpt lat="49.81452" lon="6.89396">
        <ele>121.408555</ele>
        <time>2022-08-24T08:57:47.000Z</time>
      </trkpt>
      <trkpt lat="49.81451" lon="6.89405">
        <ele>121.397213</ele>
        <time>2022-08-24T08:57:48.000Z</time>
      </trkpt>
      <trkpt lat="49.81449" lon="6.89414">
        <ele>121.385875</ele>
        <time>2022-08-24T08:57:49.000Z</time>
      </trkpt>
      <trkpt lat="49.81441" lon="6.89484">
        <ele>121.295668</ele>
        <time>2022-08-24T08:57:57.000Z</time>
      </trkpt>
      <trkpt lat="49.81437" lon="6.89536">
        <ele>121.22865</ele>
        <time>2022-08-24T08:58:03.000Z</time>
      </trkpt>
      <trkpt lat="49.81435" lon="6.89609">
        <ele>121.136916</ele>
        <time>2022-08-24T08:58:12.000Z</time>
      </trkpt>
      <trkpt lat="49.81433" lon="6.89666">
        <ele>121.098039</ele>
        <time>2022-08-24T08:58:19.000Z</time>
      </trkpt>
      <trkpt lat="49.81432" lon="6.8969">
        <ele>121.085654</ele>
        <time>2022-08-24T08:58:22.000Z</time>
      </trkpt>
      <trkpt lat="49.81434" lon="6.89722">
        <ele>121.069223</ele>
        <time>2022-08-24T08:58:26.000Z</time>
      </trkpt>
      <trkpt lat="49.81441" lon="6.89772">
        <ele>121.042261</ele>
        <time>2022-08-24T08:58:32.000Z</time>
      </trkpt>
      <trkpt lat="49.81454" lon="6.89841">
        <ele>121.004837</ele>
        <time>2022-08-24T08:58:40.000Z</time>
      </trkpt>
      <trkpt lat="49.8147" lon="6.89905">
        <ele>121.014914</ele>
        <time>2022-08-24T08:58:48.000Z</time>
      </trkpt>
      <trkpt lat="49.81483" lon="6.89946">
        <ele>121.1354</ele>
        <time>2022-08-24T08:58:54.000Z</time>
      </trkpt>
      <trkpt lat="49.81492" lon="6.89974">
        <ele>121.220286</ele>
        <time>2022-08-24T08:58:58.000Z</time>
      </trkpt>
      <trkpt lat="49.81496" lon="6.89989">
        <ele>121.263934</ele>
        <time>2022-08-24T08:59:00.000Z</time>
      </trkpt>
      <trkpt lat="49.81506" lon="6.90018">
        <ele>121.349335</ele>
        <time>2022-08-24T08:59:04.000Z</time>
      </trkpt>
      <trkpt lat="49.81512" lon="6.90038">
        <ele>121.410608</ele>
        <time>2022-08-24T08:59:07.000Z</time>
      </trkpt>
      <trkpt lat="49.81534" lon="6.90104">
        <ele>121.606978</ele>
        <time>2022-08-24T08:59:16.000Z</time>
      </trkpt>
      <trkpt lat="49.81563" lon="6.9017">
        <ele>121.835319</ele>
        <time>2022-08-24T08:59:26.000Z</time>
      </trkpt>
      <trkpt lat="49.81587" lon="6.9022">
        <ele>122.023814</ele>
        <time>2022-08-24T08:59:34.000Z</time>
      </trkpt>
      <trkpt lat="49.81621" lon="6.90292">
        <ele>122.297952</ele>
        <time>2022-08-24T08:59:45.000Z</time>
      </trkpt>
      <trkpt lat="49.81627" lon="6.90304">
        <ele>122.345162</ele>
        <time>2022-08-24T08:59:47.000Z</time>
      </trkpt>
      <trkpt lat="49.81654" lon="6.9035">
        <ele>122.53272</ele>
        <time>2022-08-24T08:59:55.000Z</time>
      </trkpt>
      <trkpt lat="49.81685" lon="6.90403">
        <ele>122.772136</ele>
        <time>2022-08-24T09:00:05.000Z</time>
      </trkpt>
      <trkpt lat="49.81717" lon="6.90443">
        <ele>122.986164</ele>
        <time>2022-08-24T09:00:14.000Z</time>
      </trkpt>
      <trkpt lat="49.81761" lon="6.90483">
        <ele>123.251614</ele>
        <time>2022-08-24T09:00:24.000Z</time>
      </trkpt>
      <trkpt lat="49.8177" lon="6.9049">
        <ele>123.305746</ele>
        <time>2022-08-24T09:00:26.000Z</time>
      </trkpt>
      <trkpt lat="49.81779" lon="6.90497">
        <ele>123.357733</ele>
        <time>2022-08-24T09:00:28.000Z</time>
      </trkpt>
      <trkpt lat="49.81809" lon="6.90514">
        <ele>123.520078</ele>
        <time>2022-08-24T09:00:34.000Z</time>
      </trkpt>
      <trkpt lat="49.81859" lon="6.90536">
        <ele>123.704588</ele>
        <time>2022-08-24T09:00:44.000Z</time>
      </trkpt>
      <trkpt lat="49.81901" lon="6.90556">
        <ele>123.862098</ele>
        <time>2022-08-24T09:00:52.000Z</time>
      </trkpt>
      <trkpt lat="49.81923" lon="6.90567">
        <ele>123.941405</ele>
        <time>2022-08-24T09:00:56.000Z</time>
      </trkpt>
      <trkpt lat="49.81956" lon="6.9058">
        <ele>124.062386</ele>
        <time>2022-08-24T09:01:02.000Z</time>
      </trkpt>
      <trkpt lat="49.81973" lon="6.90582">
        <ele>124.122152</ele>
        <time>2022-08-24T09:01:05.000Z</time>
      </trkpt>
      <trkpt lat="49.81994" lon="6.90584">
        <ele>124.116467</ele>
        <time>2022-08-24T09:01:09.000Z</time>
      </trkpt>
      <trkpt lat="49.82043" lon="6.90582">
        <ele>124.009856</ele>
        <time>2022-08-24T09:01:18.000Z</time>
      </trkpt>
      <trkpt lat="49.82055" lon="6.90581">
        <ele>123.984801</ele>
        <time>2022-08-24T09:01:20.000Z</time>
      </trkpt>
      <trkpt lat="49.82099" lon="6.90578">
        <ele>123.888606</ele>
        <time>2022-08-24T09:01:28.000Z</time>
      </trkpt>
      <trkpt lat="49.82153" lon="6.90576">
        <ele>123.770277</ele>
        <time>2022-08-24T09:01:38.000Z</time>
      </trkpt>
      <trkpt lat="49.82198" lon="6.90577">
        <ele>123.652313</ele>
        <time>2022-08-24T09:01:46.000Z</time>
      </trkpt>
      <trkpt lat="49.82204" lon="6.90578">
        <ele>123.637151</ele>
        <time>2022-08-24T09:01:47.000Z</time>
      </trkpt>
      <trkpt lat="49.82223" lon="6.90581">
        <ele>123.586639</ele>
        <time>2022-08-24T09:01:51.000Z</time>
      </trkpt>
      <trkpt lat="49.82234" lon="6.90583">
        <ele>123.556456</ele>
        <time>2022-08-24T09:01:53.000Z</time>
      </trkpt>
      <trkpt lat="49.82246" lon="6.90583">
        <ele>123.52269</ele>
        <time>2022-08-24T09:01:56.000Z</time>
      </trkpt>
      <trkpt lat="49.82284" lon="6.90587">
        <ele>123.420376</ele>
        <time>2022-08-24T09:02:04.000Z</time>
      </trkpt>
      <trkpt lat="49.82291" lon="6.9059">
        <ele>123.401129</ele>
        <time>2022-08-24T09:02:07.000Z</time>
      </trkpt>
      <trkpt lat="49.82291" lon="6.90591">
        <ele>123.400382</ele>
        <time>2022-08-24T09:02:10.000Z</time>
      </trkpt>
      <trkpt lat="49.82292" lon="6.90592">
        <ele>123.397562</ele>
        <time>2022-08-24T09:02:11.000Z</time>
      </trkpt>
      <trkpt lat="49.82299" lon="6.90599">
        <ele>123.373825</ele>
        <time>2022-08-24T09:02:14.000Z</time>
      </trkpt>
      <trkpt lat="49.82303" lon="6.90601">
        <ele>123.361699</ele>
        <time>2022-08-24T09:02:15.000Z</time>
      </trkpt>
      <trkpt lat="49.82313" lon="6.90599">
        <ele>123.336288</ele>
        <time>2022-08-24T09:02:17.000Z</time>
      </trkpt>
      <trkpt lat="49.82321" lon="6.90592">
        <ele>123.311809</ele>
        <time>2022-08-24T09:02:19.000Z</time>
      </trkpt>
      <trkpt lat="49.82334" lon="6.90589">
        <ele>123.276342</ele>
        <time>2022-08-24T09:02:22.000Z</time>
      </trkpt>
      <trkpt lat="49.82341" lon="6.90587">
        <ele>123.271401</ele>
        <time>2022-08-24T09:02:24.000Z</time>
      </trkpt>
      <trkpt lat="49.82351" lon="6.90585">
        <ele>123.272692</ele>
        <time>2022-08-24T09:02:27.000Z</time>
      </trkpt>
      <trkpt lat="49.82362" lon="6.90583">
        <ele>123.274247</ele>
        <time>2022-08-24T09:02:31.000Z</time>
      </trkpt>
      <trkpt lat="49.82365" lon="6.90582">
        <ele>123.274646</ele>
        <time>2022-08-24T09:02:32.000Z</time>
      </trkpt>
      <trkpt lat="49.82376" lon="6.90581">
        <ele>123.276112</ele>
        <time>2022-08-24T09:02:35.000Z</time>
      </trkpt>
      <trkpt lat="49.82402" lon="6.90577">
        <ele>123.279493</ele>
        <time>2022-08-24T09:02:41.000Z</time>
      </trkpt>
      <trkpt lat="49.82439" lon="6.90575">
        <ele>123.284425</ele>
        <time>2022-08-24T09:02:49.000Z</time>
      </trkpt>
      <trkpt lat="49.82479" lon="6.9057">
        <ele>123.289768</ele>
        <time>2022-08-24T09:02:56.000Z</time>
      </trkpt>
      <trkpt lat="49.8253" lon="6.90555">
        <ele>123.170764</ele>
        <time>2022-08-24T09:03:05.000Z</time>
      </trkpt>
      <trkpt lat="49.82573" lon="6.90538">
        <ele>122.823452</ele>
        <time>2022-08-24T09:03:12.000Z</time>
      </trkpt>
      <trkpt lat="49.82585" lon="6.90532">
        <ele>122.726606</ele>
        <time>2022-08-24T09:03:14.000Z</time>
      </trkpt>
      <trkpt lat="49.82639" lon="6.90503">
        <ele>122.288235</ele>
        <time>2022-08-24T09:03:23.000Z</time>
      </trkpt>
      <trkpt lat="49.82645" lon="6.905">
        <ele>122.236192</ele>
        <time>2022-08-24T09:03:24.000Z</time>
      </trkpt>
      <trkpt lat="49.82701" lon="6.90475">
        <ele>121.893782</ele>
        <time>2022-08-24T09:03:33.000Z</time>
      </trkpt>
      <trkpt lat="49.82708" lon="6.90473">
        <ele>121.891657</ele>
        <time>2022-08-24T09:03:34.000Z</time>
      </trkpt>
      <trkpt lat="49.8275" lon="6.90464">
        <ele>121.878295</ele>
        <time>2022-08-24T09:03:41.000Z</time>
      </trkpt>
      <trkpt lat="49.82798" lon="6.90452">
        <ele>121.862964</ele>
        <time>2022-08-24T09:03:49.000Z</time>
      </trkpt>
      <trkpt lat="49.82855" lon="6.90435">
        <ele>121.844557</ele>
        <time>2022-08-24T09:03:59.000Z</time>
      </trkpt>
      <trkpt lat="49.82859" lon="6.90434">
        <ele>121.843134</ele>
        <time>2022-08-24T09:04:00.000Z</time>
      </trkpt>
      <trkpt lat="49.82905" lon="6.90417">
        <ele>121.963095</ele>
        <time>2022-08-24T09:04:08.000Z</time>
      </trkpt>
      <trkpt lat="49.82928" lon="6.90405">
        <ele>122.032738</ele>
        <time>2022-08-24T09:04:12.000Z</time>
      </trkpt>
      <trkpt lat="49.82963" lon="6.90391">
        <ele>122.138125</ele>
        <time>2022-08-24T09:04:18.000Z</time>
      </trkpt>
      <trkpt lat="49.82967" lon="6.9039">
        <ele>122.149812</ele>
        <time>2022-08-24T09:04:19.000Z</time>
      </trkpt>
      <trkpt lat="49.83008" lon="6.90369">
        <ele>122.273594</ele>
        <time>2022-08-24T09:04:28.000Z</time>
      </trkpt>
      <trkpt lat="49.83054" lon="6.90345">
        <ele>122.289237</ele>
        <time>2022-08-24T09:04:38.000Z</time>
      </trkpt>
      <trkpt lat="49.83102" lon="6.90321">
        <ele>122.106895</ele>
        <time>2022-08-24T09:04:48.000Z</time>
      </trkpt>
      <trkpt lat="49.83149" lon="6.90296">
        <ele>121.923334</ele>
        <time>2022-08-24T09:04:58.000Z</time>
      </trkpt>
      <trkpt lat="49.83162" lon="6.90287">
        <ele>121.871041</ele>
        <time>2022-08-24T09:05:01.000Z</time>
      </trkpt>
      <trkpt lat="49.83177" lon="6.90273">
        <ele>121.806972</ele>
        <time>2022-08-24T09:05:04.000Z</time>
      </trkpt>
      <trkpt lat="49.83205" lon="6.90251">
        <ele>121.696867</ele>
        <time>2022-08-24T09:05:09.000Z</time>
      </trkpt>
      <trkpt lat="49.83228" lon="6.90234">
        <ele>121.655363</ele>
        <time>2022-08-24T09:05:13.000Z</time>
      </trkpt>
      <trkpt lat="49.83246" lon="6.90222">
        <ele>121.622112</ele>
        <time>2022-08-24T09:05:16.000Z</time>
      </trkpt>
      <trkpt lat="49.83284" lon="6.90196">
        <ele>121.5513</ele>
        <time>2022-08-24T09:05:23.000Z</time>
      </trkpt>
      <trkpt lat="49.83321" lon="6.90171">
        <ele>121.484073</ele>
        <time>2022-08-24T09:05:30.000Z</time>
      </trkpt>
      <trkpt lat="49.83342" lon="6.90155">
        <ele>121.444508</ele>
        <time>2022-08-24T09:05:34.000Z</time>
      </trkpt>
      <trkpt lat="49.83356" lon="6.90143">
        <ele>121.417288</ele>
        <time>2022-08-24T09:05:37.000Z</time>
      </trkpt>
      <trkpt lat="49.83392" lon="6.90106">
        <ele>121.526345</ele>
        <time>2022-08-24T09:05:45.000Z</time>
      </trkpt>
      <trkpt lat="49.83437" lon="6.90061">
        <ele>121.742345</ele>
        <time>2022-08-24T09:05:55.000Z</time>
      </trkpt>
      <trkpt lat="49.83457" lon="6.90042">
        <ele>121.836156</ele>
        <time>2022-08-24T09:06:00.000Z</time>
      </trkpt>
      <trkpt lat="49.83462" lon="6.90037">
        <ele>121.858345</ele>
        <time>2022-08-24T09:06:01.000Z</time>
      </trkpt>
      <trkpt lat="49.83476" lon="6.90022">
        <ele>121.927512</ele>
        <time>2022-08-24T09:06:05.000Z</time>
      </trkpt>
      <trkpt lat="49.83494" lon="6.90007">
        <ele>122.008789</ele>
        <time>2022-08-24T09:06:09.000Z</time>
      </trkpt>
      <trkpt lat="49.8353" lon="6.89983">
        <ele>122.166726</ele>
        <time>2022-08-24T09:06:16.000Z</time>
      </trkpt>
      <trkpt lat="49.8354" lon="6.89976">
        <ele>122.212176</ele>
        <time>2022-08-24T09:06:18.000Z</time>
      </trkpt>
      <trkpt lat="49.83571" lon="6.8996">
        <ele>122.3418</ele>
        <time>2022-08-24T09:06:23.000Z</time>
      </trkpt>
      <trkpt lat="49.83627" lon="6.89928">
        <ele>122.57953</ele>
        <time>2022-08-24T09:06:33.000Z</time>
      </trkpt>
      <trkpt lat="49.83673" lon="6.89902">
        <ele>122.777435</ele>
        <time>2022-08-24T09:06:42.000Z</time>
      </trkpt>
      <trkpt lat="49.83681" lon="6.89906">
        <ele>122.809787</ele>
        <time>2022-08-24T09:06:44.000Z</time>
      </trkpt>
      <trkpt lat="49.83682" lon="6.89911">
        <ele>122.82351</ele>
        <time>2022-08-24T09:06:45.000Z</time>
      </trkpt>
      <trkpt lat="49.83683" lon="6.89916">
        <ele>122.838239</ele>
        <time>2022-08-24T09:06:46.000Z</time>
      </trkpt>
      <trkpt lat="49.8369" lon="6.89925">
        <ele>122.985632</ele>
        <time>2022-08-24T09:06:49.000Z</time>
      </trkpt>
      <trkpt lat="49.83702" lon="6.89923">
        <ele>123.211303</ele>
        <time>2022-08-24T09:06:53.000Z</time>
      </trkpt>
      <trkpt lat="49.83731" lon="6.89911">
        <ele>123.731496</ele>
        <time>2022-08-24T09:07:00.000Z</time>
      </trkpt>
      <trkpt lat="49.83757" lon="6.89902">
        <ele>124.210341</ele>
        <time>2022-08-24T09:07:06.000Z</time>
      </trkpt>
      <trkpt lat="49.83761" lon="6.899">
        <ele>124.288796</ele>
        <time>2022-08-24T09:07:07.000Z</time>
      </trkpt>
      <trkpt lat="49.83779" lon="6.89895">
        <ele>124.602582</ele>
        <time>2022-08-24T09:07:11.000Z</time>
      </trkpt>
      <trkpt lat="49.83818" lon="6.89884">
        <ele>125.313052</ele>
        <time>2022-08-24T09:07:20.000Z</time>
      </trkpt>
      <trkpt lat="49.8383" lon="6.89881">
        <ele>125.533615</ele>
        <time>2022-08-24T09:07:23.000Z</time>
      </trkpt>
      <trkpt lat="49.83844" lon="6.89876">
        <ele>125.779604</ele>
        <time>2022-08-24T09:07:26.000Z</time>
      </trkpt>
      <trkpt lat="49.83855" lon="6.89871">
        <ele>125.990031</ele>
        <time>2022-08-24T09:07:29.000Z</time>
      </trkpt>
      <trkpt lat="49.83872" lon="6.89867">
        <ele>126.061634</ele>
        <time>2022-08-24T09:07:33.000Z</time>
      </trkpt>
      <trkpt lat="49.83892" lon="6.8986">
        <ele>126.102771</ele>
        <time>2022-08-24T09:07:38.000Z</time>
      </trkpt>
      <trkpt lat="49.83909" lon="6.89855">
        <ele>126.135527</ele>
        <time>2022-08-24T09:07:43.000Z</time>
      </trkpt>
      <trkpt lat="49.83912" lon="6.89855">
        <ele>126.14196</ele>
        <time>2022-08-24T09:07:44.000Z</time>
      </trkpt>
      <trkpt lat="49.83927" lon="6.8985">
        <ele>126.173383</ele>
        <time>2022-08-24T09:07:49.000Z</time>
      </trkpt>
      <trkpt lat="49.8393" lon="6.89849">
        <ele>126.179148</ele>
        <time>2022-08-24T09:07:50.000Z</time>
      </trkpt>
      <trkpt lat="49.83938" lon="6.89846">
        <ele>126.195194</ele>
        <time>2022-08-24T09:07:53.000Z</time>
      </trkpt>
      <trkpt lat="49.83944" lon="6.89843">
        <ele>126.20706</ele>
        <time>2022-08-24T09:07:55.000Z</time>
      </trkpt>
      <trkpt lat="49.83959" lon="6.89837">
        <ele>126.239151</ele>
        <time>2022-08-24T09:08:01.000Z</time>
      </trkpt>
      <trkpt lat="49.83977" lon="6.89821">
        <ele>126.278761</ele>
        <time>2022-08-24T09:08:05.000Z</time>
      </trkpt>
      <trkpt lat="49.83987" lon="6.89813">
        <ele>126.301629</ele>
        <time>2022-08-24T09:08:07.000Z</time>
      </trkpt>
      <trkpt lat="49.84006" lon="6.89793">
        <ele>126.346683</ele>
        <time>2022-08-24T09:08:10.000Z</time>
      </trkpt>
      <trkpt lat="49.84023" lon="6.89774">
        <ele>126.389261</ele>
        <time>2022-08-24T09:08:13.000Z</time>
      </trkpt>
      <trkpt lat="49.84039" lon="6.8976">
        <ele>126.211366</ele>
        <time>2022-08-24T09:08:15.000Z</time>
      </trkpt>
      <trkpt lat="49.84047" lon="6.89755">
        <ele>126.12889</ele>
        <time>2022-08-24T09:08:16.000Z</time>
      </trkpt>
      <trkpt lat="49.84091" lon="6.89729">
        <ele>125.675797</ele>
        <time>2022-08-24T09:08:22.000Z</time>
      </trkpt>
      <trkpt lat="49.84141" lon="6.89695">
        <ele>125.140742</ele>
        <time>2022-08-24T09:08:30.000Z</time>
      </trkpt>
      <trkpt lat="49.84175" lon="6.89665">
        <ele>124.764108</ele>
        <time>2022-08-24T09:08:36.000Z</time>
      </trkpt>
      <trkpt lat="49.84184" lon="6.89657">
        <ele>124.659095</ele>
        <time>2022-08-24T09:08:38.000Z</time>
      </trkpt>
      <trkpt lat="49.84222" lon="6.89634">
        <ele>124.735157</ele>
        <time>2022-08-24T09:08:45.000Z</time>
      </trkpt>
      <trkpt lat="49.84264" lon="6.89613">
        <ele>124.837674</ele>
        <time>2022-08-24T09:08:52.000Z</time>
      </trkpt>
      <trkpt lat="49.8431" lon="6.89587">
        <ele>124.954094</ele>
        <time>2022-08-24T09:09:00.000Z</time>
      </trkpt>
      <trkpt lat="49.84315" lon="6.89584">
        <ele>124.965815</ele>
        <time>2022-08-24T09:09:01.000Z</time>
      </trkpt>
      <trkpt lat="49.84329" lon="6.89575">
        <ele>125.00282</ele>
        <time>2022-08-24T09:09:05.000Z</time>
      </trkpt>
      <trkpt lat="49.84333" lon="6.89574">
        <ele>125.010577</ele>
        <time>2022-08-24T09:09:06.000Z</time>
      </trkpt>
      <trkpt lat="49.84346" lon="6.89566">
        <ele>125.04398</ele>
        <time>2022-08-24T09:09:11.000Z</time>
      </trkpt>
      <trkpt lat="49.8435" lon="6.89561">
        <ele>125.056727</ele>
        <time>2022-08-24T09:09:13.000Z</time>
      </trkpt>
      <trkpt lat="49.84351" lon="6.89549">
        <ele>125.051236</ele>
        <time>2022-08-24T09:09:15.000Z</time>
      </trkpt>
      <trkpt lat="49.84351" lon="6.89544">
        <ele>125.035179</ele>
        <time>2022-08-24T09:09:16.000Z</time>
      </trkpt>
      <trkpt lat="49.8435" lon="6.89531">
        <ele>124.996738</ele>
        <time>2022-08-24T09:09:18.000Z</time>
      </trkpt>
      <trkpt lat="49.84352" lon="6.89524">
        <ele>124.973238</ele>
        <time>2022-08-24T09:09:19.000Z</time>
      </trkpt>
      <trkpt lat="49.84356" lon="6.89519">
        <ele>124.950571</ele>
        <time>2022-08-24T09:09:20.000Z</time>
      </trkpt>
      <trkpt lat="49.84361" lon="6.89514">
        <ele>124.924099</ele>
        <time>2022-08-24T09:09:21.000Z</time>
      </trkpt>
      <trkpt lat="49.84365" lon="6.89511">
        <ele>124.899021</ele>
        <time>2022-08-24T09:09:22.000Z</time>
      </trkpt>
      <trkpt lat="49.84371" lon="6.89506">
        <ele>124.867773</ele>
        <time>2022-08-24T09:09:23.000Z</time>
      </trkpt>
      <trkpt lat="49.84385" lon="6.89497">
        <ele>124.800252</ele>
        <time>2022-08-24T09:09:25.000Z</time>
      </trkpt>
      <trkpt lat="49.84391" lon="6.89493">
        <ele>124.767923</ele>
        <time>2022-08-24T09:09:26.000Z</time>
      </trkpt>
      <trkpt lat="49.84426" lon="6.89479">
        <ele>124.598544</ele>
        <time>2022-08-24T09:09:32.000Z</time>
      </trkpt>
      <trkpt lat="49.84464" lon="6.89466">
        <ele>124.41908</ele>
        <time>2022-08-24T09:09:39.000Z</time>
      </trkpt>
      <trkpt lat="49.84476" lon="6.89465">
        <ele>124.365038</ele>
        <time>2022-08-24T09:09:41.000Z</time>
      </trkpt>
      <trkpt lat="49.84505" lon="6.89464">
        <ele>124.236129</ele>
        <time>2022-08-24T09:09:47.000Z</time>
      </trkpt>
      <trkpt lat="49.84525" lon="6.89465">
        <ele>124.484293</ele>
        <time>2022-08-24T09:09:51.000Z</time>
      </trkpt>
      <trkpt lat="49.84542" lon="6.89464">
        <ele>124.704372</ele>
        <time>2022-08-24T09:09:55.000Z</time>
      </trkpt>
      <trkpt lat="49.8458" lon="6.89459">
        <ele>125.195616</ele>
        <time>2022-08-24T09:10:04.000Z</time>
      </trkpt>
      <trkpt lat="49.84589" lon="6.89458">
        <ele>125.3085</ele>
        <time>2022-08-24T09:10:06.000Z</time>
      </trkpt>
      <trkpt lat="49.84593" lon="6.89458">
        <ele>125.36095</ele>
        <time>2022-08-24T09:10:07.000Z</time>
      </trkpt>
      <trkpt lat="49.84601" lon="6.8946">
        <ele>125.460642</ele>
        <time>2022-08-24T09:10:09.000Z</time>
      </trkpt>
      <trkpt lat="49.84608" lon="6.89462">
        <ele>125.554473</ele>
        <time>2022-08-24T09:10:11.000Z</time>
      </trkpt>
      <trkpt lat="49.84629" lon="6.89458">
        <ele>125.826916</ele>
        <time>2022-08-24T09:10:17.000Z</time>
      </trkpt>
      <trkpt lat="49.84633" lon="6.89456">
        <ele>125.875249</ele>
        <time>2022-08-24T09:10:18.000Z</time>
      </trkpt>
      <trkpt lat="49.84657" lon="6.89447">
        <ele>126.189721</ele>
        <time>2022-08-24T09:10:24.000Z</time>
      </trkpt>
      <trkpt lat="49.84692" lon="6.89442">
        <ele>126.534598</ele>
        <time>2022-08-24T09:10:33.000Z</time>
      </trkpt>
      <trkpt lat="49.84696" lon="6.89441">
        <ele>126.536595</ele>
        <time>2022-08-24T09:10:34.000Z</time>
      </trkpt>
      <trkpt lat="49.84721" lon="6.89436">
        <ele>126.549442</ele>
        <time>2022-08-24T09:10:40.000Z</time>
      </trkpt>
      <trkpt lat="49.84729" lon="6.89433">
        <ele>126.553862</ele>
        <time>2022-08-24T09:10:42.000Z</time>
      </trkpt>
      <trkpt lat="49.84746" lon="6.8943">
        <ele>126.562279</ele>
        <time>2022-08-24T09:10:45.000Z</time>
      </trkpt>
      <trkpt lat="49.84762" lon="6.89427">
        <ele>126.570422</ele>
        <time>2022-08-24T09:10:48.000Z</time>
      </trkpt>
      <trkpt lat="49.84808" lon="6.89416">
        <ele>126.594335</ele>
        <time>2022-08-24T09:10:57.000Z</time>
      </trkpt>
      <trkpt lat="49.84845" lon="6.89407">
        <ele>126.613092</ele>
        <time>2022-08-24T09:11:05.000Z</time>
      </trkpt>
      <trkpt lat="49.84884" lon="6.89402">
        <ele>126.688308</ele>
        <time>2022-08-24T09:11:13.000Z</time>
      </trkpt>
      <trkpt lat="49.8491" lon="6.89399">
        <ele>126.767479</ele>
        <time>2022-08-24T09:11:18.000Z</time>
      </trkpt>
      <trkpt lat="49.84945" lon="6.894">
        <ele>126.871931</ele>
        <time>2022-08-24T09:11:25.000Z</time>
      </trkpt>
      <trkpt lat="49.84955" lon="6.89402">
        <ele>126.901498</ele>
        <time>2022-08-24T09:11:27.000Z</time>
      </trkpt>
      <trkpt lat="49.84979" lon="6.8941">
        <ele>126.973905</ele>
        <time>2022-08-24T09:11:32.000Z</time>
      </trkpt>
      <trkpt lat="49.85004" lon="6.89416">
        <ele>127.046893</ele>
        <time>2022-08-24T09:11:38.000Z</time>
      </trkpt>
      <trkpt lat="49.85011" lon="6.89417">
        <ele>127.069849</ele>
        <time>2022-08-24T09:11:40.000Z</time>
      </trkpt>
      <trkpt lat="49.85019" lon="6.89419">
        <ele>127.092626</ele>
        <time>2022-08-24T09:11:42.000Z</time>
      </trkpt>
      <trkpt lat="49.85031" lon="6.89421">
        <ele>127.128566</ele>
        <time>2022-08-24T09:11:45.000Z</time>
      </trkpt>
      <trkpt lat="49.8504" lon="6.89424">
        <ele>127.157946</ele>
        <time>2022-08-24T09:11:47.000Z</time>
      </trkpt>
      <trkpt lat="49.85043" lon="6.89424">
        <ele>127.191228</ele>
        <time>2022-08-24T09:11:48.000Z</time>
      </trkpt>
      <trkpt lat="49.85053" lon="6.89425">
        <ele>127.28959</ele>
        <time>2022-08-24T09:11:51.000Z</time>
      </trkpt>
      <trkpt lat="49.85068" lon="6.89425">
        <ele>127.439857</ele>
        <time>2022-08-24T09:11:55.000Z</time>
      </trkpt>
      <trkpt lat="49.85088" lon="6.89421">
        <ele>127.643114</ele>
        <time>2022-08-24T09:12:01.000Z</time>
      </trkpt>
      <trkpt lat="49.851" lon="6.89423">
        <ele>127.772122</ele>
        <time>2022-08-24T09:12:06.000Z</time>
      </trkpt>
      <trkpt lat="49.85103" lon="6.89424">
        <ele>127.800956</ele>
        <time>2022-08-24T09:12:07.000Z</time>
      </trkpt>
      <trkpt lat="49.85118" lon="6.89425">
        <ele>127.952221</ele>
        <time>2022-08-24T09:12:12.000Z</time>
      </trkpt>
      <trkpt lat="49.85122" lon="6.89425">
        <ele>127.991595</ele>
        <time>2022-08-24T09:12:13.000Z</time>
      </trkpt>
      <trkpt lat="49.85132" lon="6.89426">
        <ele>128.094849</ele>
        <time>2022-08-24T09:12:16.000Z</time>
      </trkpt>
      <trkpt lat="49.85135" lon="6.89427">
        <ele>128.125211</ele>
        <time>2022-08-24T09:12:17.000Z</time>
      </trkpt>
      <trkpt lat="49.85142" lon="6.8943">
        <ele>128.19553</ele>
        <time>2022-08-24T09:12:19.000Z</time>
      </trkpt>
      <trkpt lat="49.85163" lon="6.89437">
        <ele>128.413957</ele>
        <time>2022-08-24T09:12:25.000Z</time>
      </trkpt>
      <trkpt lat="49.85188" lon="6.89451">
        <ele>128.681973</ele>
        <time>2022-08-24T09:12:32.000Z</time>
      </trkpt>
      <trkpt lat="49.85207" lon="6.89453">
        <ele>128.872995</ele>
        <time>2022-08-24T09:12:38.000Z</time>
      </trkpt>
      <trkpt lat="49.85218" lon="6.89451">
        <ele>128.973105</ele>
        <time>2022-08-24T09:12:43.000Z</time>
      </trkpt>
      <trkpt lat="49.8523" lon="6.89455">
        <ele>129.018369</ele>
        <time>2022-08-24T09:12:48.000Z</time>
      </trkpt>
      <trkpt lat="49.85233" lon="6.89456">
        <ele>129.028573</ele>
        <time>2022-08-24T09:12:49.000Z</time>
      </trkpt>
      <trkpt lat="49.85249" lon="6.89462">
        <ele>129.088835</ele>
        <time>2022-08-24T09:12:54.000Z</time>
      </trkpt>
      <trkpt lat="49.85273" lon="6.89471">
        <ele>129.176056</ele>
        <time>2022-08-24T09:13:00.000Z</time>
      </trkpt>
      <trkpt lat="49.85295" lon="6.89476">
        <ele>129.256638</ele>
        <time>2022-08-24T09:13:06.000Z</time>
      </trkpt>
      <trkpt lat="49.8532" lon="6.89484">
        <ele>129.349121</ele>
        <time>2022-08-24T09:13:12.000Z</time>
      </trkpt>
      <trkpt lat="49.85343" lon="6.89496">
        <ele>129.435821</ele>
        <time>2022-08-24T09:13:17.000Z</time>
      </trkpt>
      <trkpt lat="49.85347" lon="6.89498">
        <ele>129.450277</ele>
        <time>2022-08-24T09:13:18.000Z</time>
      </trkpt>
      <trkpt lat="49.85354" lon="6.895">
        <ele>129.477657</ele>
        <time>2022-08-24T09:13:20.000Z</time>
      </trkpt>
      <trkpt lat="49.85361" lon="6.89501">
        <ele>129.503353</ele>
        <time>2022-08-24T09:13:22.000Z</time>
      </trkpt>
      <trkpt lat="49.85379" lon="6.89511">
        <ele>129.569121</ele>
        <time>2022-08-24T09:13:26.000Z</time>
      </trkpt>
      <trkpt lat="49.85402" lon="6.89527">
        <ele>129.611106</ele>
        <time>2022-08-24T09:13:31.000Z</time>
      </trkpt>
      <trkpt lat="49.85416" lon="6.89539">
        <ele>129.605131</ele>
        <time>2022-08-24T09:13:36.000Z</time>
      </trkpt>
      <trkpt lat="49.85419" lon="6.89539">
        <ele>129.604118</ele>
        <time>2022-08-24T09:13:38.000Z</time>
      </trkpt>
      <trkpt lat="49.8542" lon="6.89539">
        <ele>129.6039</ele>
        <time>2022-08-24T09:13:40.000Z</time>
      </trkpt>
      <trkpt lat="49.8542" lon="6.89539">
        <ele>129.603683</ele>
        <time>2022-08-24T09:13:47.000Z</time>
      </trkpt>
      <trkpt lat="49.85421" lon="6.8954">
        <ele>129.603319</ele>
        <time>2022-08-24T09:13:49.000Z</time>
      </trkpt>
      <trkpt lat="49.85421" lon="6.8954">
        <ele>129.603243</ele>
        <time>2022-08-24T09:14:14.000Z</time>
      </trkpt>
      <trkpt lat="49.85421" lon="6.8954">
        <ele>129.603219</ele>
        <time>2022-08-24T09:14:19.000Z</time>
      </trkpt>
      <trkpt lat="49.85422" lon="6.8954">
        <ele>129.603183</ele>
        <time>2022-08-24T09:14:26.000Z</time>
      </trkpt>
      <trkpt lat="49.85422" lon="6.89539">
        <ele>129.60295</ele>
        <time>2022-08-24T09:14:35.000Z</time>
      </trkpt>
      <trkpt lat="49.85422" lon="6.89539">
        <ele>129.602927</ele>
        <time>2022-08-24T09:14:47.000Z</time>
      </trkpt>
      <trkpt lat="49.85422" lon="6.89539">
        <ele>129.602798</ele>
        <time>2022-08-24T09:14:58.000Z</time>
      </trkpt>
      <trkpt lat="49.85423" lon="6.89539">
        <ele>129.602528</ele>
        <time>2022-08-24T09:15:00.000Z</time>
      </trkpt>
      <trkpt lat="49.85423" lon="6.89539">
        <ele>129.602381</ele>
        <time>2022-08-24T09:15:06.000Z</time>
      </trkpt>
      <trkpt lat="49.85415" lon="6.89514">
        <ele>129.595799</ele>
        <time>2022-08-24T09:15:11.000Z</time>
      </trkpt>
      <trkpt lat="49.85415" lon="6.89527">
        <ele>129.592879</ele>
        <time>2022-08-24T09:15:17.000Z</time>
      </trkpt>
      <trkpt lat="49.85426" lon="6.8954">
        <ele>129.587892</ele>
        <time>2022-08-24T09:15:21.000Z</time>
      </trkpt>
      <trkpt lat="49.85432" lon="6.89541">
        <ele>129.5859</ele>
        <time>2022-08-24T09:15:23.000Z</time>
      </trkpt>
      <trkpt lat="49.85434" lon="6.8954">
        <ele>129.585137</ele>
        <time>2022-08-24T09:15:25.000Z</time>
      </trkpt>
      <trkpt lat="49.8545" lon="6.89544">
        <ele>129.57915</ele>
        <time>2022-08-24T09:15:27.000Z</time>
      </trkpt>
      <trkpt lat="49.85458" lon="6.89549">
        <ele>129.57607</ele>
        <time>2022-08-24T09:15:31.000Z</time>
      </trkpt>
      <trkpt lat="49.85456" lon="6.89549">
        <ele>129.575456</ele>
        <time>2022-08-24T09:15:33.000Z</time>
      </trkpt>
      <trkpt lat="49.85447" lon="6.89544">
        <ele>129.572084</ele>
        <time>2022-08-24T09:15:35.000Z</time>
      </trkpt>
      <trkpt lat="49.85443" lon="6.89543">
        <ele>129.57056</ele>
        <time>2022-08-24T09:15:37.000Z</time>
      </trkpt>
      <trkpt lat="49.85429" lon="6.89534">
        <ele>129.565088</ele>
        <time>2022-08-24T09:15:41.000Z</time>
      </trkpt>
      <trkpt lat="49.85425" lon="6.89534">
        <ele>129.563637</ele>
        <time>2022-08-24T09:15:42.000Z</time>
      </trkpt>
      <trkpt lat="49.85425" lon="6.89533">
        <ele>129.563451</ele>
        <time>2022-08-24T09:15:45.000Z</time>
      </trkpt>
      <trkpt lat="49.85425" lon="6.89537">
        <ele>129.562652</ele>
        <time>2022-08-24T09:15:47.000Z</time>
      </trkpt>
      <trkpt lat="49.85427" lon="6.89537">
        <ele>129.562132</ele>
        <time>2022-08-24T09:15:54.000Z</time>
      </trkpt>
      <trkpt lat="49.85426" lon="6.89537">
        <ele>129.56177</ele>
        <time>2022-08-24T09:16:23.000Z</time>
      </trkpt>
      <trkpt lat="49.85426" lon="6.89537">
        <ele>129.561669</ele>
        <time>2022-08-24T09:16:25.000Z</time>
      </trkpt>
      <trkpt lat="49.85426" lon="6.89537">
        <ele>129.561626</ele>
        <time>2022-08-24T09:16:29.000Z</time>
      </trkpt>
      <trkpt lat="49.85426" lon="6.89537">
        <ele>129.561626</ele>
        <time>2022-08-24T09:16:33.000Z</time>
      </trkpt>
      <trkpt lat="49.85425" lon="6.89537">
        <ele>129.561583</ele>
        <time>2022-08-24T09:17:02.000Z</time>
      </trkpt>
      <trkpt lat="49.85424" lon="6.89536">
        <ele>129.561153</ele>
        <time>2022-08-24T09:17:15.000Z</time>
      </trkpt>
      <trkpt lat="49.85424" lon="6.89536">
        <ele>129.561153</ele>
        <time>2022-08-24T09:17:18.000Z</time>
      </trkpt>
      <trkpt lat="49.85424" lon="6.89536">
        <ele>129.561153</ele>
        <time>2022-08-24T09:17:37.000Z</time>
      </trkpt>
      <trkpt lat="49.85424" lon="6.89536">
        <ele>129.561153</ele>
        <time>2022-08-24T09:18:09.000Z</time>
      </trkpt>
      <trkpt lat="49.85425" lon="6.89536">
        <ele>129.56101</ele>
        <time>2022-08-24T09:18:23.000Z</time>
      </trkpt>
      <trkpt lat="49.85425" lon="6.89536">
        <ele>129.560987</ele>
        <time>2022-08-24T09:18:38.000Z</time>
      </trkpt>
      <trkpt lat="49.85425" lon="6.89536">
        <ele>129.56095</ele>
        <time>2022-08-24T09:19:56.000Z</time>
      </trkpt>
      <trkpt lat="49.85425" lon="6.89536">
        <ele>129.560927</ele>
        <time>2022-08-24T09:20:05.000Z</time>
      </trkpt>
      <trkpt lat="49.85425" lon="6.89536">
        <ele>129.560927</ele>
        <time>2022-08-24T09:20:24.000Z</time>
      </trkpt>
      <trkpt lat="49.85425" lon="6.89536">
        <ele>129.560927</ele>
        <time>2022-08-24T09:20:57.000Z</time>
      </trkpt>
      <trkpt lat="49.85425" lon="6.89536">
        <ele>129.560927</ele>
        <time>2022-08-24T09:21:07.000Z</time>
      </trkpt>
      <trkpt lat="49.85425" lon="6.89536">
        <ele>129.560891</ele>
        <time>2022-08-24T09:21:15.000Z</time>
      </trkpt>
      <trkpt lat="49.85425" lon="6.89536">
        <ele>129.560891</ele>
        <time>2022-08-24T09:21:25.000Z</time>
      </trkpt>
      <trkpt lat="49.85425" lon="6.89536">
        <ele>129.560891</ele>
        <time>2022-08-24T09:21:34.000Z</time>
      </trkpt>
      <trkpt lat="49.85425" lon="6.89536">
        <ele>129.560891</ele>
        <time>2022-08-24T09:21:39.000Z</time>
      </trkpt>
      <trkpt lat="49.85425" lon="6.89536">
        <ele>129.560848</ele>
        <time>2022-08-24T09:21:55.000Z</time>
      </trkpt>
      <trkpt lat="49.85425" lon="6.89536">
        <ele>129.560848</ele>
        <time>2022-08-24T09:21:58.000Z</time>
      </trkpt>
      <trkpt lat="49.85425" lon="6.89536">
        <ele>129.560848</ele>
        <time>2022-08-24T09:22:05.000Z</time>
      </trkpt>
      <trkpt lat="49.85425" lon="6.89536">
        <ele>129.560848</ele>
        <time>2022-08-24T09:22:07.000Z</time>
      </trkpt>
      <trkpt lat="49.85425" lon="6.89536">
        <ele>129.560812</ele>
        <time>2022-08-24T09:22:15.000Z</time>
      </trkpt>
      <trkpt lat="49.85425" lon="6.89536">
        <ele>129.560812</ele>
        <time>2022-08-24T09:22:17.000Z</time>
      </trkpt>
      <trkpt lat="49.85425" lon="6.89536">
        <ele>129.560812</ele>
        <time>2022-08-24T09:22:19.000Z</time>
      </trkpt>
      <trkpt lat="49.85425" lon="6.89536">
        <ele>129.560776</ele>
        <time>2022-08-24T09:22:47.000Z</time>
      </trkpt>
      <trkpt lat="49.85425" lon="6.89536">
        <ele>129.560776</ele>
        <time>2022-08-24T09:22:49.000Z</time>
      </trkpt>
      <trkpt lat="49.85425" lon="6.89536">
        <ele>129.560776</ele>
        <time>2022-08-24T09:22:51.000Z</time>
      </trkpt>
      <trkpt lat="49.85425" lon="6.89536">
        <ele>129.560776</ele>
        <time>2022-08-24T09:22:54.000Z</time>
      </trkpt>
      <trkpt lat="49.85425" lon="6.89536">
        <ele>129.560776</ele>
        <time>2022-08-24T09:23:01.000Z</time>
      </trkpt>
      <trkpt lat="49.85425" lon="6.89536">
        <ele>129.560739</ele>
        <time>2022-08-24T09:23:07.000Z</time>
      </trkpt>
      <trkpt lat="49.85425" lon="6.89536">
        <ele>129.560739</ele>
        <time>2022-08-24T09:23:19.000Z</time>
      </trkpt>
      <trkpt lat="49.85425" lon="6.89536">
        <ele>129.560696</ele>
        <time>2022-08-24T09:23:37.000Z</time>
      </trkpt>
      <trkpt lat="49.85425" lon="6.89536">
        <ele>129.560696</ele>
        <time>2022-08-24T09:23:47.000Z</time>
      </trkpt>
      <trkpt lat="49.85425" lon="6.89536">
        <ele>129.560696</ele>
        <time>2022-08-24T09:24:01.000Z</time>
      </trkpt>
      <trkpt lat="49.85426" lon="6.89537">
        <ele>129.560585</ele>
        <time>2022-08-24T09:24:25.000Z</time>
      </trkpt>
      <trkpt lat="49.85427" lon="6.89537">
        <ele>129.560188</ele>
        <time>2022-08-24T09:24:33.000Z</time>
      </trkpt>
      <trkpt lat="49.85427" lon="6.89536">
        <ele>129.560048</ele>
        <time>2022-08-24T09:24:46.000Z</time>
      </trkpt>
      <trkpt lat="49.85426" lon="6.89536">
        <ele>129.559854</ele>
        <time>2022-08-24T09:24:50.000Z</time>
      </trkpt>
      <trkpt lat="49.85426" lon="6.89535">
        <ele>129.559768</ele>
        <time>2022-08-24T09:24:55.000Z</time>
      </trkpt>
      <trkpt lat="49.85425" lon="6.89535">
        <ele>129.559439</ele>
        <time>2022-08-24T09:25:04.000Z</time>
      </trkpt>
      <trkpt lat="49.85425" lon="6.89536">
        <ele>129.55936</ele>
        <time>2022-08-24T09:25:24.000Z</time>
      </trkpt>
      <trkpt lat="49.85425" lon="6.89536">
        <ele>129.559288</ele>
        <time>2022-08-24T09:25:36.000Z</time>
      </trkpt>
      <trkpt lat="49.85424" lon="6.89536">
        <ele>129.558853</ele>
        <time>2022-08-24T09:25:47.000Z</time>
      </trkpt>
      <trkpt lat="49.85424" lon="6.89536">
        <ele>129.558777</ele>
        <time>2022-08-24T09:25:51.000Z</time>
      </trkpt>
      <trkpt lat="49.85423" lon="6.89539">
        <ele>129.558123</ele>
        <time>2022-08-24T09:25:53.000Z</time>
      </trkpt>
      <trkpt lat="49.85424" lon="6.8954">
        <ele>129.557712</ele>
        <time>2022-08-24T09:25:54.000Z</time>
      </trkpt>
      <trkpt lat="49.85425" lon="6.89541">
        <ele>129.557468</ele>
        <time>2022-08-24T09:25:59.000Z</time>
      </trkpt>
      <trkpt lat="49.85424" lon="6.89541">
        <ele>129.557179</ele>
        <time>2022-08-24T09:26:04.000Z</time>
      </trkpt>
      <trkpt lat="49.85424" lon="6.89541">
        <ele>129.557156</ele>
        <time>2022-08-24T09:26:11.000Z</time>
      </trkpt>
      <trkpt lat="49.85424" lon="6.89541">
        <ele>129.557156</ele>
        <time>2022-08-24T09:26:14.000Z</time>
      </trkpt>
      <trkpt lat="49.85424" lon="6.89539">
        <ele>129.556713</ele>
        <time>2022-08-24T09:26:19.000Z</time>
      </trkpt>
      <trkpt lat="49.85425" lon="6.89537">
        <ele>129.556083</ele>
        <time>2022-08-24T09:26:21.000Z</time>
      </trkpt>
      <trkpt lat="49.85426" lon="6.89535">
        <ele>129.555625</ele>
        <time>2022-08-24T09:26:23.000Z</time>
      </trkpt>
      <trkpt lat="49.85426" lon="6.89535">
        <ele>129.555482</ele>
        <time>2022-08-24T09:26:25.000Z</time>
      </trkpt>
      <trkpt lat="49.85426" lon="6.89536">
        <ele>129.555325</ele>
        <time>2022-08-24T09:26:27.000Z</time>
      </trkpt>
      <trkpt lat="49.85426" lon="6.89538">
        <ele>129.554858</ele>
        <time>2022-08-24T09:26:33.000Z</time>
      </trkpt>
      <trkpt lat="49.85426" lon="6.89538">
        <ele>129.554858</ele>
        <time>2022-08-24T09:26:42.000Z</time>
      </trkpt>
      <trkpt lat="49.85426" lon="6.89538">
        <ele>129.554858</ele>
        <time>2022-08-24T09:26:56.000Z</time>
      </trkpt>
      <trkpt lat="49.85426" lon="6.89538">
        <ele>129.554858</ele>
        <time>2022-08-24T09:27:31.000Z</time>
      </trkpt>
      <trkpt lat="49.85426" lon="6.89538">
        <ele>129.554858</ele>
        <time>2022-08-24T09:27:43.000Z</time>
      </trkpt>
      <trkpt lat="49.85426" lon="6.89538">
        <ele>129.554858</ele>
        <time>2022-08-24T09:27:59.000Z</time>
      </trkpt>
      <trkpt lat="49.85426" lon="6.89538">
        <ele>129.554858</ele>
        <time>2022-08-24T09:28:08.000Z</time>
      </trkpt>
      <trkpt lat="49.85426" lon="6.89538">
        <ele>129.554858</ele>
        <time>2022-08-24T09:28:28.000Z</time>
      </trkpt>
      <trkpt lat="49.85424" lon="6.8954">
        <ele>129.55393</ele>
        <time>2022-08-24T09:28:36.000Z</time>
      </trkpt>
      <trkpt lat="49.85426" lon="6.89528">
        <ele>129.550963</ele>
        <time>2022-08-24T09:28:38.000Z</time>
      </trkpt>
      <trkpt lat="49.85422" lon="6.89521">
        <ele>129.544441</ele>
        <time>2022-08-24T09:28:45.000Z</time>
      </trkpt>
      <trkpt lat="49.8542" lon="6.89523">
        <ele>129.541836</ele>
        <time>2022-08-24T09:28:46.000Z</time>
      </trkpt>
      <trkpt lat="49.8542" lon="6.8953">
        <ele>129.536304</ele>
        <time>2022-08-24T09:28:48.000Z</time>
      </trkpt>
      <trkpt lat="49.85419" lon="6.89532">
        <ele>129.534203</ele>
        <time>2022-08-24T09:28:49.000Z</time>
      </trkpt>
      <trkpt lat="49.85418" lon="6.89532">
        <ele>129.533505</ele>
        <time>2022-08-24T09:28:52.000Z</time>
      </trkpt>
      <trkpt lat="49.85419" lon="6.89531">
        <ele>129.531968</ele>
        <time>2022-08-24T09:28:53.000Z</time>
      </trkpt>
      <trkpt lat="49.8542" lon="6.89531">
        <ele>129.530935</ele>
        <time>2022-08-24T09:28:55.000Z</time>
      </trkpt>
      <trkpt lat="49.8542" lon="6.89532">
        <ele>129.530027</ele>
        <time>2022-08-24T09:28:56.000Z</time>
      </trkpt>
      <trkpt lat="49.85421" lon="6.89533">
        <ele>129.528803</ele>
        <time>2022-08-24T09:28:59.000Z</time>
      </trkpt>
      <trkpt lat="49.85421" lon="6.89534">
        <ele>129.527887</ele>
        <time>2022-08-24T09:29:01.000Z</time>
      </trkpt>
      <trkpt lat="49.85422" lon="6.89535">
        <ele>129.526454</ele>
        <time>2022-08-24T09:29:05.000Z</time>
      </trkpt>
      <trkpt lat="49.85421" lon="6.89535">
        <ele>129.525553</ele>
        <time>2022-08-24T09:29:07.000Z</time>
      </trkpt>
      <trkpt lat="49.85421" lon="6.89535">
        <ele>129.524645</ele>
        <time>2022-08-24T09:29:13.000Z</time>
      </trkpt>
      <trkpt lat="49.85422" lon="6.89533">
        <ele>129.523342</ele>
        <time>2022-08-24T09:29:32.000Z</time>
      </trkpt>
      <trkpt lat="49.85421" lon="6.89529">
        <ele>129.519865</ele>
        <time>2022-08-24T09:29:35.000Z</time>
      </trkpt>
      <trkpt lat="49.85422" lon="6.89526">
        <ele>129.517194</ele>
        <time>2022-08-24T09:29:39.000Z</time>
      </trkpt>
      <trkpt lat="49.85422" lon="6.89526">
        <ele>129.516529</ele>
        <time>2022-08-24T09:29:40.000Z</time>
      </trkpt>
      <trkpt lat="49.85422" lon="6.89525">
        <ele>129.516114</ele>
        <time>2022-08-24T09:29:41.000Z</time>
      </trkpt>
      <trkpt lat="49.85422" lon="6.89525">
        <ele>129.516114</ele>
        <time>2022-08-24T09:30:30.000Z</time>
      </trkpt>
      <trkpt lat="49.85422" lon="6.89525">
        <ele>129.516114</ele>
        <time>2022-08-24T09:31:22.000Z</time>
      </trkpt>
      <trkpt lat="49.85422" lon="6.89525">
        <ele>129.516114</ele>
        <time>2022-08-24T09:31:31.000Z</time>
      </trkpt>
      <trkpt lat="49.85416" lon="6.89531">
        <ele>129.507076</ele>
        <time>2022-08-24T09:33:25.000Z</time>
      </trkpt>
      <trkpt lat="49.85424" lon="6.89543">
        <ele>129.493255</ele>
        <time>2022-08-24T09:33:28.000Z</time>
      </trkpt>
      <trkpt lat="49.85424" lon="6.89544">
        <ele>129.492441</ele>
        <time>2022-08-24T09:33:30.000Z</time>
      </trkpt>
      <trkpt lat="49.85423" lon="6.89538">
        <ele>129.487419</ele>
        <time>2022-08-24T09:33:34.000Z</time>
      </trkpt>
      <trkpt lat="49.85424" lon="6.89532">
        <ele>129.48301</ele>
        <time>2022-08-24T09:33:40.000Z</time>
      </trkpt>
      <trkpt lat="49.85421" lon="6.89532">
        <ele>129.479653</ele>
        <time>2022-08-24T09:33:45.000Z</time>
      </trkpt>
      <trkpt lat="49.85422" lon="6.89532">
        <ele>129.479004</ele>
        <time>2022-08-24T09:33:48.000Z</time>
      </trkpt>
      <trkpt lat="49.85418" lon="6.89533">
        <ele>129.474563</ele>
        <time>2022-08-24T09:33:50.000Z</time>
      </trkpt>
      <trkpt lat="49.85415" lon="6.89538">
        <ele>129.468342</ele>
        <time>2022-08-24T09:33:56.000Z</time>
      </trkpt>
      <trkpt lat="49.85415" lon="6.89538">
        <ele>129.46744</ele>
        <time>2022-08-24T09:33:57.000Z</time>
      </trkpt>
      <trkpt lat="49.85416" lon="6.89538">
        <ele>129.46675</ele>
        <time>2022-08-24T09:34:01.000Z</time>
      </trkpt>
      <trkpt lat="49.85418" lon="6.89537">
        <ele>129.463642</ele>
        <time>2022-08-24T09:34:04.000Z</time>
      </trkpt>
      <trkpt lat="49.85419" lon="6.89537">
        <ele>129.462852</ele>
        <time>2022-08-24T09:34:06.000Z</time>
      </trkpt>
      <trkpt lat="49.85428" lon="6.89539">
        <ele>129.451335</ele>
        <time>2022-08-24T09:34:11.000Z</time>
      </trkpt>
      <trkpt lat="49.85429" lon="6.8954">
        <ele>129.449343</ele>
        <time>2022-08-24T09:34:16.000Z</time>
      </trkpt>
      <trkpt lat="49.85428" lon="6.8954">
        <ele>129.447889</ele>
        <time>2022-08-24T09:34:18.000Z</time>
      </trkpt>
      <trkpt lat="49.85427" lon="6.89539">
        <ele>129.446039</ele>
        <time>2022-08-24T09:34:23.000Z</time>
      </trkpt>
      <trkpt lat="49.85427" lon="6.89539">
        <ele>129.445829</ele>
        <time>2022-08-24T09:34:24.000Z</time>
      </trkpt>
      <trkpt lat="49.85433" lon="6.89539">
        <ele>129.437714</ele>
        <time>2022-08-24T09:34:29.000Z</time>
      </trkpt>
      <trkpt lat="49.85432" lon="6.89541">
        <ele>129.436032</ele>
        <time>2022-08-24T09:34:36.000Z</time>
      </trkpt>
      <trkpt lat="49.8543" lon="6.89542">
        <ele>129.433541</ele>
        <time>2022-08-24T09:34:43.000Z</time>
      </trkpt>
      <trkpt lat="49.85428" lon="6.89541">
        <ele>129.430217</ele>
        <time>2022-08-24T09:34:49.000Z</time>
      </trkpt>
      <trkpt lat="49.85425" lon="6.8954">
        <ele>129.426946</ele>
        <time>2022-08-24T09:34:55.000Z</time>
      </trkpt>
      <trkpt lat="49.85425" lon="6.89539">
        <ele>129.42547</ele>
        <time>2022-08-24T09:35:01.000Z</time>
      </trkpt>
      <trkpt lat="49.85421" lon="6.89542">
        <ele>129.419902</ele>
        <time>2022-08-24T09:35:05.000Z</time>
      </trkpt>
      <trkpt lat="49.85423" lon="6.89542">
        <ele>129.417711</ele>
        <time>2022-08-24T09:35:09.000Z</time>
      </trkpt>
      <trkpt lat="49.85421" lon="6.89539">
        <ele>129.414728</ele>
        <time>2022-08-24T09:35:14.000Z</time>
      </trkpt>
      <trkpt lat="49.85422" lon="6.89538">
        <ele>129.413532</ele>
        <time>2022-08-24T09:35:19.000Z</time>
      </trkpt>
      <trkpt lat="49.85422" lon="6.89538">
        <ele>129.413174</ele>
        <time>2022-08-24T09:35:25.000Z</time>
      </trkpt>
      <trkpt lat="49.85426" lon="6.89538">
        <ele>129.407879</ele>
        <time>2022-08-24T09:35:50.000Z</time>
      </trkpt>
      <trkpt lat="49.8542" lon="6.89542">
        <ele>129.399911</ele>
        <time>2022-08-24T09:35:53.000Z</time>
      </trkpt>
      <trkpt lat="49.85422" lon="6.89553">
        <ele>129.390253</ele>
        <time>2022-08-24T09:35:59.000Z</time>
      </trkpt>
      <trkpt lat="49.85422" lon="6.89545">
        <ele>129.383352</ele>
        <time>2022-08-24T09:36:08.000Z</time>
      </trkpt>
      <trkpt lat="49.85422" lon="6.89545">
        <ele>129.383352</ele>
        <time>2022-08-24T09:36:17.000Z</time>
      </trkpt>
      <trkpt lat="49.85422" lon="6.89545">
        <ele>129.383352</ele>
        <time>2022-08-24T09:36:24.000Z</time>
      </trkpt>
      <trkpt lat="49.85422" lon="6.89545">
        <ele>129.383352</ele>
        <time>2022-08-24T09:36:36.000Z</time>
      </trkpt>
      <trkpt lat="49.85411" lon="6.8954">
        <ele>129.368494</ele>
        <time>2022-08-24T09:36:43.000Z</time>
      </trkpt>
      <trkpt lat="49.85421" lon="6.8953">
        <ele>129.353523</ele>
        <time>2022-08-24T09:36:49.000Z</time>
      </trkpt>
      <trkpt lat="49.8542" lon="6.89528">
        <ele>129.351634</ele>
        <time>2022-08-24T09:36:53.000Z</time>
      </trkpt>
      <trkpt lat="49.85417" lon="6.89536">
        <ele>129.34359</ele>
        <time>2022-08-24T09:36:59.000Z</time>
      </trkpt>
      <trkpt lat="49.85416" lon="6.89537">
        <ele>129.342364</ele>
        <time>2022-08-24T09:37:01.000Z</time>
      </trkpt>
      <trkpt lat="49.85415" lon="6.89538">
        <ele>129.340916</ele>
        <time>2022-08-24T09:37:02.000Z</time>
      </trkpt>
      <trkpt lat="49.85417" lon="6.89535">
        <ele>129.337239</ele>
        <time>2022-08-24T09:37:07.000Z</time>
      </trkpt>
      <trkpt lat="49.85419" lon="6.89533">
        <ele>129.334928</ele>
        <time>2022-08-24T09:37:10.000Z</time>
      </trkpt>
      <trkpt lat="49.85418" lon="6.89534">
        <ele>129.333703</ele>
        <time>2022-08-24T09:37:12.000Z</time>
      </trkpt>
      <trkpt lat="49.85418" lon="6.89535">
        <ele>129.332507</ele>
        <time>2022-08-24T09:37:16.000Z</time>
      </trkpt>
      <trkpt lat="49.8542" lon="6.89534">
        <ele>129.330253</ele>
        <time>2022-08-24T09:37:20.000Z</time>
      </trkpt>
      <trkpt lat="49.85421" lon="6.89534">
        <ele>129.329219</ele>
        <time>2022-08-24T09:37:22.000Z</time>
      </trkpt>
      <trkpt lat="49.85419" lon="6.89533">
        <ele>129.327665</ele>
        <time>2022-08-24T09:37:29.000Z</time>
      </trkpt>
      <trkpt lat="49.85417" lon="6.89532">
        <ele>129.324805</ele>
        <time>2022-08-24T09:37:34.000Z</time>
      </trkpt>
      <trkpt lat="49.85417" lon="6.89533">
        <ele>129.323533</ele>
        <time>2022-08-24T09:37:39.000Z</time>
      </trkpt>
      <trkpt lat="49.85416" lon="6.89534">
        <ele>129.322584</ele>
        <time>2022-08-24T09:37:43.000Z</time>
      </trkpt>
      <trkpt lat="49.85417" lon="6.89534">
        <ele>129.322455</ele>
        <time>2022-08-24T09:37:44.000Z</time>
      </trkpt>
      <trkpt lat="49.85419" lon="6.89534">
        <ele>129.319484</ele>
        <time>2022-08-24T09:37:49.000Z</time>
      </trkpt>
      <trkpt lat="49.85418" lon="6.89533">
        <ele>129.318884</ele>
        <time>2022-08-24T09:37:53.000Z</time>
      </trkpt>
      <trkpt lat="49.85419" lon="6.89534">
        <ele>129.317189</ele>
        <time>2022-08-24T09:37:56.000Z</time>
      </trkpt>
      <trkpt lat="49.85419" lon="6.89535">
        <ele>129.315626</ele>
        <time>2022-08-24T09:37:59.000Z</time>
      </trkpt>
      <trkpt lat="49.85421" lon="6.89534">
        <ele>129.311274</ele>
        <time>2022-08-24T09:38:03.000Z</time>
      </trkpt>
      <trkpt lat="49.85421" lon="6.89534">
        <ele>129.311168</ele>
        <time>2022-08-24T09:38:06.000Z</time>
      </trkpt>
      <trkpt lat="49.85421" lon="6.89534">
        <ele>129.310288</ele>
        <time>2022-08-24T09:38:24.000Z</time>
      </trkpt>
      <trkpt lat="49.85419" lon="6.89533">
        <ele>129.306993</ele>
        <time>2022-08-24T09:38:49.000Z</time>
      </trkpt>
      <trkpt lat="49.85419" lon="6.89533">
        <ele>129.306781</ele>
        <time>2022-08-24T09:38:50.000Z</time>
      </trkpt>
      <trkpt lat="49.85419" lon="6.89533">
        <ele>129.306617</ele>
        <time>2022-08-24T09:38:52.000Z</time>
      </trkpt>
      <trkpt lat="49.85422" lon="6.89533">
        <ele>129.301363</ele>
        <time>2022-08-24T09:39:00.000Z</time>
      </trkpt>
      <trkpt lat="49.85424" lon="6.89536">
        <ele>129.297175</ele>
        <time>2022-08-24T09:39:15.000Z</time>
      </trkpt>
      <trkpt lat="49.85424" lon="6.89536">
        <ele>129.29698</ele>
        <time>2022-08-24T09:39:27.000Z</time>
      </trkpt>
      <trkpt lat="49.85423" lon="6.89536">
        <ele>129.296589</ele>
        <time>2022-08-24T09:39:31.000Z</time>
      </trkpt>
      <trkpt lat="49.85423" lon="6.89536">
        <ele>129.296377</ele>
        <time>2022-08-24T09:39:34.000Z</time>
      </trkpt>
      <trkpt lat="49.85423" lon="6.89535">
        <ele>129.296109</ele>
        <time>2022-08-24T09:39:39.000Z</time>
      </trkpt>
      <trkpt lat="49.85423" lon="6.89535">
        <ele>129.295841</ele>
        <time>2022-08-24T09:39:46.000Z</time>
      </trkpt>
      <trkpt lat="49.85424" lon="6.89532">
        <ele>129.292459</ele>
        <time>2022-08-24T09:40:20.000Z</time>
      </trkpt>
      <trkpt lat="49.85424" lon="6.89533">
        <ele>129.291286</ele>
        <time>2022-08-24T09:40:32.000Z</time>
      </trkpt>
      <trkpt lat="49.85422" lon="6.89533">
        <ele>129.288103</ele>
        <time>2022-08-24T09:40:53.000Z</time>
      </trkpt>
      <trkpt lat="49.85423" lon="6.89533">
        <ele>129.286804</ele>
        <time>2022-08-24T09:41:04.000Z</time>
      </trkpt>
      <trkpt lat="49.85424" lon="6.89533">
        <ele>129.285322</ele>
        <time>2022-08-24T09:41:13.000Z</time>
      </trkpt>
      <trkpt lat="49.85422" lon="6.89533">
        <ele>129.281834</ele>
        <time>2022-08-24T09:41:15.000Z</time>
      </trkpt>
      <trkpt lat="49.85422" lon="6.89534">
        <ele>129.28138</ele>
        <time>2022-08-24T09:41:16.000Z</time>
      </trkpt>
      <trkpt lat="49.85423" lon="6.89535">
        <ele>129.279419</ele>
        <time>2022-08-24T09:41:23.000Z</time>
      </trkpt>
      <trkpt lat="49.85422" lon="6.89534">
        <ele>129.277823</ele>
        <time>2022-08-24T09:41:28.000Z</time>
      </trkpt>
      <trkpt lat="49.85421" lon="6.89536">
        <ele>129.274053</ele>
        <time>2022-08-24T09:41:31.000Z</time>
      </trkpt>
      <trkpt lat="49.85421" lon="6.89537">
        <ele>129.272431</ele>
        <time>2022-08-24T09:41:32.000Z</time>
      </trkpt>
      <trkpt lat="49.85422" lon="6.89539">
        <ele>129.26899</ele>
        <time>2022-08-24T09:41:38.000Z</time>
      </trkpt>
      <trkpt lat="49.85423" lon="6.89538">
        <ele>129.267544</ele>
        <time>2022-08-24T09:41:46.000Z</time>
      </trkpt>
      <trkpt lat="49.85422" lon="6.8954">
        <ele>129.265497</ele>
        <time>2022-08-24T09:41:55.000Z</time>
      </trkpt>
      <trkpt lat="49.85422" lon="6.8954">
        <ele>129.265497</ele>
        <time>2022-08-24T09:42:00.000Z</time>
      </trkpt>
      <trkpt lat="49.85422" lon="6.8954">
        <ele>129.265497</ele>
        <time>2022-08-24T09:42:01.000Z</time>
      </trkpt>
      <trkpt lat="49.85422" lon="6.8954">
        <ele>129.264961</ele>
        <time>2022-08-24T09:42:05.000Z</time>
      </trkpt>
      <trkpt lat="49.85423" lon="6.8954">
        <ele>129.264375</ele>
        <time>2022-08-24T09:42:06.000Z</time>
      </trkpt>
      <trkpt lat="49.85423" lon="6.89535">
        <ele>129.259541</ele>
        <time>2022-08-24T09:42:11.000Z</time>
      </trkpt>
      <trkpt lat="49.85424" lon="6.89533">
        <ele>129.256753</ele>
        <time>2022-08-24T09:42:13.000Z</time>
      </trkpt>
      <trkpt lat="49.85426" lon="6.89529">
        <ele>129.251613</ele>
        <time>2022-08-24T09:42:16.000Z</time>
      </trkpt>
      <trkpt lat="49.8543" lon="6.89529">
        <ele>129.245703</ele>
        <time>2022-08-24T09:42:18.000Z</time>
      </trkpt>
      <trkpt lat="49.85439" lon="6.89532">
        <ele>129.229763</ele>
        <time>2022-08-24T09:42:24.000Z</time>
      </trkpt>
      <trkpt lat="49.85457" lon="6.89539">
        <ele>129.199282</ele>
        <time>2022-08-24T09:42:29.000Z</time>
      </trkpt>
      <trkpt lat="49.85461" lon="6.8954">
        <ele>129.192431</ele>
        <time>2022-08-24T09:42:30.000Z</time>
      </trkpt>
      <trkpt lat="49.85483" lon="6.89549">
        <ele>129.155523</ele>
        <time>2022-08-24T09:42:35.000Z</time>
      </trkpt>
      <trkpt lat="49.85492" lon="6.89552">
        <ele>129.141136</ele>
        <time>2022-08-24T09:42:37.000Z</time>
      </trkpt>
      <trkpt lat="49.85515" lon="6.89558">
        <ele>129.103022</ele>
        <time>2022-08-24T09:42:42.000Z</time>
      </trkpt>
      <trkpt lat="49.85528" lon="6.8956">
        <ele>129.080928</ele>
        <time>2022-08-24T09:42:45.000Z</time>
      </trkpt>
      <trkpt lat="49.85548" lon="6.89566">
        <ele>129.047837</ele>
        <time>2022-08-24T09:42:49.000Z</time>
      </trkpt>
      <trkpt lat="49.85564" lon="6.89572">
        <ele>129.016358</ele>
        <time>2022-08-24T09:42:52.000Z</time>
      </trkpt>
      <trkpt lat="49.85575" lon="6.89577">
        <ele>128.97609</ele>
        <time>2022-08-24T09:42:54.000Z</time>
      </trkpt>
      <trkpt lat="49.8563" lon="6.89598">
        <ele>128.781718</ele>
        <time>2022-08-24T09:43:04.000Z</time>
      </trkpt>
      <trkpt lat="49.85669" lon="6.8962">
        <ele>128.639828</ele>
        <time>2022-08-24T09:43:11.000Z</time>
      </trkpt>
      <trkpt lat="49.8569" lon="6.89626">
        <ele>128.565114</ele>
        <time>2022-08-24T09:43:15.000Z</time>
      </trkpt>
      <trkpt lat="49.85701" lon="6.8963">
        <ele>128.52687</ele>
        <time>2022-08-24T09:43:17.000Z</time>
      </trkpt>
      <trkpt lat="49.85707" lon="6.89633">
        <ele>128.506065</ele>
        <time>2022-08-24T09:43:18.000Z</time>
      </trkpt>
      <trkpt lat="49.85712" lon="6.89635">
        <ele>128.487501</ele>
        <time>2022-08-24T09:43:19.000Z</time>
      </trkpt>
      <trkpt lat="49.85723" lon="6.8964">
        <ele>128.44826</ele>
        <time>2022-08-24T09:43:21.000Z</time>
      </trkpt>
      <trkpt lat="49.85728" lon="6.89642">
        <ele>128.428972</ele>
        <time>2022-08-24T09:43:22.000Z</time>
      </trkpt>
      <trkpt lat="49.85733" lon="6.89645">
        <ele>128.410285</ele>
        <time>2022-08-24T09:43:23.000Z</time>
      </trkpt>
      <trkpt lat="49.85739" lon="6.89647">
        <ele>128.332833</ele>
        <time>2022-08-24T09:43:24.000Z</time>
      </trkpt>
      <trkpt lat="49.8575" lon="6.89653">
        <ele>128.098982</ele>
        <time>2022-08-24T09:43:26.000Z</time>
      </trkpt>
      <trkpt lat="49.8576" lon="6.89657">
        <ele>127.906574</ele>
        <time>2022-08-24T09:43:28.000Z</time>
      </trkpt>
      <trkpt lat="49.85765" lon="6.8966">
        <ele>127.804058</ele>
        <time>2022-08-24T09:43:29.000Z</time>
      </trkpt>
      <trkpt lat="49.85781" lon="6.89668">
        <ele>127.490935</ele>
        <time>2022-08-24T09:43:32.000Z</time>
      </trkpt>
      <trkpt lat="49.85813" lon="6.89681">
        <ele>126.855625</ele>
        <time>2022-08-24T09:43:38.000Z</time>
      </trkpt>
      <trkpt lat="49.85844" lon="6.89696">
        <ele>126.229012</ele>
        <time>2022-08-24T09:43:44.000Z</time>
      </trkpt>
      <trkpt lat="49.85854" lon="6.89697">
        <ele>126.04788</ele>
        <time>2022-08-24T09:43:46.000Z</time>
      </trkpt>
      <trkpt lat="49.85861" lon="6.89692">
        <ele>125.901668</ele>
        <time>2022-08-24T09:43:48.000Z</time>
      </trkpt>
      <trkpt lat="49.85864" lon="6.89687">
        <ele>125.818945</ele>
        <time>2022-08-24T09:43:49.000Z</time>
      </trkpt>
      <trkpt lat="49.85866" lon="6.89679">
        <ele>125.719328</ele>
        <time>2022-08-24T09:43:50.000Z</time>
      </trkpt>
      <trkpt lat="49.85867" lon="6.89671">
        <ele>125.608908</ele>
        <time>2022-08-24T09:43:51.000Z</time>
      </trkpt>
      <trkpt lat="49.85871" lon="6.89652">
        <ele>125.371179</ele>
        <time>2022-08-24T09:43:53.000Z</time>
      </trkpt>
      <trkpt lat="49.85876" lon="6.89635">
        <ele>125.137198</ele>
        <time>2022-08-24T09:43:55.000Z</time>
      </trkpt>
      <trkpt lat="49.85879" lon="6.89627">
        <ele>125.033994</ele>
        <time>2022-08-24T09:43:56.000Z</time>
      </trkpt>
      <trkpt lat="49.85882" lon="6.89622">
        <ele>124.949166</ele>
        <time>2022-08-24T09:43:57.000Z</time>
      </trkpt>
      <trkpt lat="49.85887" lon="6.8962">
        <ele>124.881223</ele>
        <time>2022-08-24T09:43:58.000Z</time>
      </trkpt>
      <trkpt lat="49.85896" lon="6.89622">
        <ele>124.743584</ele>
        <time>2022-08-24T09:44:00.000Z</time>
      </trkpt>
      <trkpt lat="49.85908" lon="6.89632">
        <ele>124.536239</ele>
        <time>2022-08-24T09:44:03.000Z</time>
      </trkpt>
      <trkpt lat="49.85921" lon="6.89642">
        <ele>124.318329</ele>
        <time>2022-08-24T09:44:06.000Z</time>
      </trkpt>
      <trkpt lat="49.85953" lon="6.89665">
        <ele>123.796529</ele>
        <time>2022-08-24T09:44:13.000Z</time>
      </trkpt>
      <trkpt lat="49.85958" lon="6.89667">
        <ele>123.724961</ele>
        <time>2022-08-24T09:44:14.000Z</time>
      </trkpt>
      <trkpt lat="49.85975" lon="6.89676">
        <ele>123.45165</ele>
        <time>2022-08-24T09:44:17.000Z</time>
      </trkpt>
      <trkpt lat="49.86012" lon="6.89704">
        <ele>122.845341</ele>
        <time>2022-08-24T09:44:25.000Z</time>
      </trkpt>
      <trkpt lat="49.86058" lon="6.89738">
        <ele>122.30171</ele>
        <time>2022-08-24T09:44:35.000Z</time>
      </trkpt>
      <trkpt lat="49.86082" lon="6.89754">
        <ele>122.294522</ele>
        <time>2022-08-24T09:44:40.000Z</time>
      </trkpt>
      <trkpt lat="49.86096" lon="6.89764">
        <ele>122.290446</ele>
        <time>2022-08-24T09:44:43.000Z</time>
      </trkpt>
      <trkpt lat="49.86147" lon="6.89798">
        <ele>122.275603</ele>
        <time>2022-08-24T09:44:54.000Z</time>
      </trkpt>
      <trkpt lat="49.86179" lon="6.89815">
        <ele>122.266413</ele>
        <time>2022-08-24T09:45:01.000Z</time>
      </trkpt>
      <trkpt lat="49.8619" lon="6.89819">
        <ele>122.263342</ele>
        <time>2022-08-24T09:45:03.000Z</time>
      </trkpt>
      <trkpt lat="49.86233" lon="6.89835">
        <ele>122.222251</ele>
        <time>2022-08-24T09:45:11.000Z</time>
      </trkpt>
      <trkpt lat="49.86275" lon="6.89851">
        <ele>122.151183</ele>
        <time>2022-08-24T09:45:18.000Z</time>
      </trkpt>
      <trkpt lat="49.86319" lon="6.89868">
        <ele>122.076987</ele>
        <time>2022-08-24T09:45:26.000Z</time>
      </trkpt>
      <trkpt lat="49.86362" lon="6.89872">
        <ele>122.006644</ele>
        <time>2022-08-24T09:45:34.000Z</time>
      </trkpt>
      <trkpt lat="49.86415" lon="6.89872">
        <ele>121.671372</ele>
        <time>2022-08-24T09:45:43.000Z</time>
      </trkpt>
      <trkpt lat="49.86427" lon="6.89872">
        <ele>121.536045</ele>
        <time>2022-08-24T09:45:45.000Z</time>
      </trkpt>
      <trkpt lat="49.86434" lon="6.89872">
        <ele>121.466728</ele>
        <time>2022-08-24T09:45:46.000Z</time>
      </trkpt>
      <trkpt lat="49.86488" lon="6.89871">
        <ele>120.867087</ele>
        <time>2022-08-24T09:45:55.000Z</time>
      </trkpt>
      <trkpt lat="49.86506" lon="6.89872">
        <ele>120.671229</ele>
        <time>2022-08-24T09:45:58.000Z</time>
      </trkpt>
      <trkpt lat="49.86529" lon="6.89873">
        <ele>120.423536</ele>
        <time>2022-08-24T09:46:02.000Z</time>
      </trkpt>
      <trkpt lat="49.86537" lon="6.89877">
        <ele>120.322239</ele>
        <time>2022-08-24T09:46:04.000Z</time>
      </trkpt>
      <trkpt lat="49.86542" lon="6.89887">
        <ele>120.234015</ele>
        <time>2022-08-24T09:46:06.000Z</time>
      </trkpt>
      <trkpt lat="49.86543" lon="6.89891">
        <ele>120.200601</ele>
        <time>2022-08-24T09:46:07.000Z</time>
      </trkpt>
      <trkpt lat="49.8654" lon="6.89913">
        <ele>120.042283</ele>
        <time>2022-08-24T09:46:11.000Z</time>
      </trkpt>
      <trkpt lat="49.86534" lon="6.89924">
        <ele>119.97973</ele>
        <time>2022-08-24T09:46:13.000Z</time>
      </trkpt>
      <trkpt lat="49.86531" lon="6.89942">
        <ele>119.968596</ele>
        <time>2022-08-24T09:46:17.000Z</time>
      </trkpt>
      <trkpt lat="49.8653" lon="6.89953">
        <ele>119.961978</ele>
        <time>2022-08-24T09:46:19.000Z</time>
      </trkpt>
      <trkpt lat="49.86526" lon="6.8999">
        <ele>119.939557</ele>
        <time>2022-08-24T09:46:24.000Z</time>
      </trkpt>
      <trkpt lat="49.86521" lon="6.90047">
        <ele>119.904798</ele>
        <time>2022-08-24T09:46:31.000Z</time>
      </trkpt>
      <trkpt lat="49.8652" lon="6.90109">
        <ele>119.867342</ele>
        <time>2022-08-24T09:46:39.000Z</time>
      </trkpt>
      <trkpt lat="49.86511" lon="6.90171">
        <ele>119.829786</ele>
        <time>2022-08-24T09:46:47.000Z</time>
      </trkpt>
      <trkpt lat="49.86506" lon="6.90201">
        <ele>119.802586</ele>
        <time>2022-08-24T09:46:51.000Z</time>
      </trkpt>
      <trkpt lat="49.86504" lon="6.90215">
        <ele>119.777641</ele>
        <time>2022-08-24T09:46:53.000Z</time>
      </trkpt>
      <trkpt lat="49.86508" lon="6.90227">
        <ele>119.754543</ele>
        <time>2022-08-24T09:46:56.000Z</time>
      </trkpt>
      <trkpt lat="49.86515" lon="6.90226">
        <ele>119.735164</ele>
        <time>2022-08-24T09:47:00.000Z</time>
      </trkpt>
      <trkpt lat="49.86518" lon="6.90226">
        <ele>119.727349</ele>
        <time>2022-08-24T09:47:02.000Z</time>
      </trkpt>
      <trkpt lat="49.86529" lon="6.90225">
        <ele>119.69813</ele>
        <time>2022-08-24T09:47:06.000Z</time>
      </trkpt>
      <trkpt lat="49.86538" lon="6.90223">
        <ele>119.675172</ele>
        <time>2022-08-24T09:47:08.000Z</time>
      </trkpt>
      <trkpt lat="49.86546" lon="6.90213">
        <ele>119.649135</ele>
        <time>2022-08-24T09:47:10.000Z</time>
      </trkpt>
      <trkpt lat="49.86549" lon="6.90206">
        <ele>119.635296</ele>
        <time>2022-08-24T09:47:11.000Z</time>
      </trkpt>
      <trkpt lat="49.8655" lon="6.90198">
        <ele>119.621454</ele>
        <time>2022-08-24T09:47:12.000Z</time>
      </trkpt>
      <trkpt lat="49.86553" lon="6.90182">
        <ele>119.593363</ele>
        <time>2022-08-24T09:47:14.000Z</time>
      </trkpt>
      <trkpt lat="49.86557" lon="6.90158">
        <ele>119.551994</ele>
        <time>2022-08-24T09:47:17.000Z</time>
      </trkpt>
      <trkpt lat="49.86562" lon="6.90117">
        <ele>119.481251</ele>
        <time>2022-08-24T09:47:22.000Z</time>
      </trkpt>
      <trkpt lat="49.86579" lon="6.90058">
        <ele>119.373486</ele>
        <time>2022-08-24T09:47:30.000Z</time>
      </trkpt>
      <trkpt lat="49.86596" lon="6.90022">
        <ele>119.391722</ele>
        <time>2022-08-24T09:47:36.000Z</time>
      </trkpt>
      <trkpt lat="49.866" lon="6.90017">
        <ele>119.403438</ele>
        <time>2022-08-24T09:47:37.000Z</time>
      </trkpt>
      <trkpt lat="49.86608" lon="6.90008">
        <ele>119.427222</ele>
        <time>2022-08-24T09:47:39.000Z</time>
      </trkpt>
      <trkpt lat="49.86626" lon="6.89995">
        <ele>119.471636</ele>
        <time>2022-08-24T09:47:43.000Z</time>
      </trkpt>
      <trkpt lat="49.86634" lon="6.89991">
        <ele>119.492676</ele>
        <time>2022-08-24T09:47:45.000Z</time>
      </trkpt>
      <trkpt lat="49.86645" lon="6.89983">
        <ele>119.521216</ele>
        <time>2022-08-24T09:47:48.000Z</time>
      </trkpt>
      <trkpt lat="49.86655" lon="6.89974">
        <ele>119.548201</ele>
        <time>2022-08-24T09:47:52.000Z</time>
      </trkpt>
      <trkpt lat="49.86657" lon="6.89971">
        <ele>119.554013</ele>
        <time>2022-08-24T09:47:53.000Z</time>
      </trkpt>
      <trkpt lat="49.86655" lon="6.89954">
        <ele>119.579203</ele>
        <time>2022-08-24T09:47:57.000Z</time>
      </trkpt>
      <trkpt lat="49.86648" lon="6.89945">
        <ele>119.599143</ele>
        <time>2022-08-24T09:47:59.000Z</time>
      </trkpt>
      <trkpt lat="49.86639" lon="6.89936">
        <ele>119.625465</ele>
        <time>2022-08-24T09:48:01.000Z</time>
      </trkpt>
      <trkpt lat="49.86634" lon="6.8993">
        <ele>119.640168</ele>
        <time>2022-08-24T09:48:02.000Z</time>
      </trkpt>
      <trkpt lat="49.86626" lon="6.89918">
        <ele>119.665518</ele>
        <time>2022-08-24T09:48:04.000Z</time>
      </trkpt>
      <trkpt lat="49.86624" lon="6.8991">
        <ele>119.677968</ele>
        <time>2022-08-24T09:48:05.000Z</time>
      </trkpt>
      <trkpt lat="49.86622" lon="6.89903">
        <ele>119.690413</ele>
        <time>2022-08-24T09:48:06.000Z</time>
      </trkpt>
      <trkpt lat="49.86622" lon="6.89885">
        <ele>119.717501</ele>
        <time>2022-08-24T09:48:09.000Z</time>
      </trkpt>
      <trkpt lat="49.86628" lon="6.89877">
        <ele>119.735657</ele>
        <time>2022-08-24T09:48:11.000Z</time>
      </trkpt>
      <trkpt lat="49.86654" lon="6.89879">
        <ele>119.900927</ele>
        <time>2022-08-24T09:48:17.000Z</time>
      </trkpt>
      <trkpt lat="49.86683" lon="6.89882">
        <ele>120.204335</ele>
        <time>2022-08-24T09:48:23.000Z</time>
      </trkpt>
      <trkpt lat="49.86697" lon="6.89883">
        <ele>120.357664</ele>
        <time>2022-08-24T09:48:26.000Z</time>
      </trkpt>
      <trkpt lat="49.86732" lon="6.89885">
        <ele>120.72498</ele>
        <time>2022-08-24T09:48:33.000Z</time>
      </trkpt>
      <trkpt lat="49.86742" lon="6.89885">
        <ele>120.826241</ele>
        <time>2022-08-24T09:48:35.000Z</time>
      </trkpt>
      <trkpt lat="49.86759" lon="6.89886">
        <ele>121.005586</ele>
        <time>2022-08-24T09:48:39.000Z</time>
      </trkpt>
      <trkpt lat="49.8679" lon="6.89889">
        <ele>121.336588</ele>
        <time>2022-08-24T09:48:46.000Z</time>
      </trkpt>
      <trkpt lat="49.86822" lon="6.89892">
        <ele>121.663255</ele>
        <time>2022-08-24T09:48:53.000Z</time>
      </trkpt>
      <trkpt lat="49.86835" lon="6.89894">
        <ele>121.656064</ele>
        <time>2022-08-24T09:48:56.000Z</time>
      </trkpt>
      <trkpt lat="49.86853" lon="6.89898">
        <ele>121.645033</ele>
        <time>2022-08-24T09:49:01.000Z</time>
      </trkpt>
      <trkpt lat="49.86864" lon="6.899">
        <ele>121.638416</ele>
        <time>2022-08-24T09:49:04.000Z</time>
      </trkpt>
      <trkpt lat="49.86875" lon="6.89903">
        <ele>121.631906</ele>
        <time>2022-08-24T09:49:07.000Z</time>
      </trkpt>
      <trkpt lat="49.86901" lon="6.8991">
        <ele>121.616387</ele>
        <time>2022-08-24T09:49:14.000Z</time>
      </trkpt>
      <trkpt lat="49.86926" lon="6.89916">
        <ele>121.601605</ele>
        <time>2022-08-24T09:49:20.000Z</time>
      </trkpt>
      <trkpt lat="49.86935" lon="6.89918">
        <ele>121.596271</ele>
        <time>2022-08-24T09:49:22.000Z</time>
      </trkpt>
      <trkpt lat="49.8694" lon="6.89919">
        <ele>121.593802</ele>
        <time>2022-08-24T09:49:23.000Z</time>
      </trkpt>
      <trkpt lat="49.86946" lon="6.89914">
        <ele>121.589513</ele>
        <time>2022-08-24T09:49:25.000Z</time>
      </trkpt>
      <trkpt lat="49.86949" lon="6.89903">
        <ele>121.584792</ele>
        <time>2022-08-24T09:49:27.000Z</time>
      </trkpt>
      <trkpt lat="49.8695" lon="6.89896">
        <ele>121.582131</ele>
        <time>2022-08-24T09:49:28.000Z</time>
      </trkpt>
      <trkpt lat="49.8695" lon="6.89873">
        <ele>121.573626</ele>
        <time>2022-08-24T09:49:31.000Z</time>
      </trkpt>
      <trkpt lat="49.86951" lon="6.89851">
        <ele>121.565222</ele>
        <time>2022-08-24T09:49:34.000Z</time>
      </trkpt>
      <trkpt lat="49.86952" lon="6.89844">
        <ele>121.562574</ele>
        <time>2022-08-24T09:49:35.000Z</time>
      </trkpt>
      <trkpt lat="49.86953" lon="6.89837">
        <ele>121.55991</ele>
        <time>2022-08-24T09:49:36.000Z</time>
      </trkpt>
      <trkpt lat="49.86955" lon="6.89832">
        <ele>121.557044</ele>
        <time>2022-08-24T09:49:37.000Z</time>
      </trkpt>
      <trkpt lat="49.86961" lon="6.89827">
        <ele>121.549242</ele>
        <time>2022-08-24T09:49:39.000Z</time>
      </trkpt>
      <trkpt lat="49.86985" lon="6.89822">
        <ele>121.522378</ele>
        <time>2022-08-24T09:49:45.000Z</time>
      </trkpt>
      <trkpt lat="49.87007" lon="6.89818">
        <ele>121.498675</ele>
        <time>2022-08-24T09:49:50.000Z</time>
      </trkpt>
      <trkpt lat="49.87024" lon="6.89814">
        <ele>121.479495</ele>
        <time>2022-08-24T09:49:54.000Z</time>
      </trkpt>
      <trkpt lat="49.87056" lon="6.89812">
        <ele>121.444317</ele>
        <time>2022-08-24T09:50:02.000Z</time>
      </trkpt>
      <trkpt lat="49.8706" lon="6.89812">
        <ele>121.439905</ele>
        <time>2022-08-24T09:50:03.000Z</time>
      </trkpt>
      <trkpt lat="49.87101" lon="6.8981">
        <ele>121.394796</ele>
        <time>2022-08-24T09:50:13.000Z</time>
      </trkpt>
      <trkpt lat="49.87143" lon="6.89807">
        <ele>121.384125</ele>
        <time>2022-08-24T09:50:23.000Z</time>
      </trkpt>
      <trkpt lat="49.87182" lon="6.89805">
        <ele>121.466188</ele>
        <time>2022-08-24T09:50:32.000Z</time>
      </trkpt>
      <trkpt lat="49.87221" lon="6.89803">
        <ele>121.547807</ele>
        <time>2022-08-24T09:50:41.000Z</time>
      </trkpt>
      <trkpt lat="49.87271" lon="6.898">
        <ele>121.652315</ele>
        <time>2022-08-24T09:50:52.000Z</time>
      </trkpt>
      <trkpt lat="49.87313" lon="6.89797">
        <ele>121.736494</ele>
        <time>2022-08-24T09:51:01.000Z</time>
      </trkpt>
      <trkpt lat="49.87367" lon="6.898">
        <ele>121.727866</ele>
        <time>2022-08-24T09:51:12.000Z</time>
      </trkpt>
      <trkpt lat="49.87383" lon="6.89801">
        <ele>121.725361</ele>
        <time>2022-08-24T09:51:15.000Z</time>
      </trkpt>
      <trkpt lat="49.87418" lon="6.89806">
        <ele>121.719774</ele>
        <time>2022-08-24T09:51:22.000Z</time>
      </trkpt>
      <trkpt lat="49.87472" lon="6.8981">
        <ele>121.711186</ele>
        <time>2022-08-24T09:51:33.000Z</time>
      </trkpt>
      <trkpt lat="49.87477" lon="6.8981">
        <ele>121.710425</ele>
        <time>2022-08-24T09:51:34.000Z</time>
      </trkpt>
      <trkpt lat="49.87516" lon="6.89814">
        <ele>121.676735</ele>
        <time>2022-08-24T09:51:42.000Z</time>
      </trkpt>
      <trkpt lat="49.87565" lon="6.89818">
        <ele>121.613216</ele>
        <time>2022-08-24T09:51:52.000Z</time>
      </trkpt>
      <trkpt lat="49.87608" lon="6.89821">
        <ele>121.558421</ele>
        <time>2022-08-24T09:52:01.000Z</time>
      </trkpt>
      <trkpt lat="49.87636" lon="6.89831">
        <ele>121.521185</ele>
        <time>2022-08-24T09:52:07.000Z</time>
      </trkpt>
      <trkpt lat="49.87684" lon="6.89852">
        <ele>121.388641</ele>
        <time>2022-08-24T09:52:16.000Z</time>
      </trkpt>
      <trkpt lat="49.87727" lon="6.8987">
        <ele>121.137242</ele>
        <time>2022-08-24T09:52:24.000Z</time>
      </trkpt>
      <trkpt lat="49.87742" lon="6.89877">
        <ele>121.045827</ele>
        <time>2022-08-24T09:52:27.000Z</time>
      </trkpt>
      <trkpt lat="49.87769" lon="6.89889">
        <ele>120.888859</ele>
        <time>2022-08-24T09:52:32.000Z</time>
      </trkpt>
      <trkpt lat="49.87791" lon="6.899">
        <ele>120.758473</ele>
        <time>2022-08-24T09:52:36.000Z</time>
      </trkpt>
      <trkpt lat="49.87838" lon="6.89932">
        <ele>120.468849</ele>
        <time>2022-08-24T09:52:45.000Z</time>
      </trkpt>
      <trkpt lat="49.87886" lon="6.89963">
        <ele>120.258174</ele>
        <time>2022-08-24T09:52:54.000Z</time>
      </trkpt>
      <trkpt lat="49.87895" lon="6.89971">
        <ele>120.217506</ele>
        <time>2022-08-24T09:52:56.000Z</time>
      </trkpt>
      <trkpt lat="49.87901" lon="6.89978">
        <ele>120.188998</ele>
        <time>2022-08-24T09:52:57.000Z</time>
      </trkpt>
      <trkpt lat="49.87904" lon="6.89984">
        <ele>120.168814</ele>
        <time>2022-08-24T09:52:58.000Z</time>
      </trkpt>
      <trkpt lat="49.87932" lon="6.90036">
        <ele>119.996381</ele>
        <time>2022-08-24T09:53:05.000Z</time>
      </trkpt>
      <trkpt lat="49.87972" lon="6.90099">
        <ele>119.769721</ele>
        <time>2022-08-24T09:53:15.000Z</time>
      </trkpt>
      <trkpt lat="49.87975" lon="6.90104">
        <ele>119.75328</ele>
        <time>2022-08-24T09:53:16.000Z</time>
      </trkpt>
      <trkpt lat="49.88011" lon="6.90165">
        <ele>119.840836</ele>
        <time>2022-08-24T09:53:26.000Z</time>
      </trkpt>
      <trkpt lat="49.88052" lon="6.9023">
        <ele>119.946038</ele>
        <time>2022-08-24T09:53:37.000Z</time>
      </trkpt>
      <trkpt lat="49.88079" lon="6.90288">
        <ele>120.029497</ele>
        <time>2022-08-24T09:53:46.000Z</time>
      </trkpt>
      <trkpt lat="49.88098" lon="6.90327">
        <ele>120.075484</ele>
        <time>2022-08-24T09:53:52.000Z</time>
      </trkpt>
      <trkpt lat="49.88104" lon="6.9034">
        <ele>120.081482</ele>
        <time>2022-08-24T09:53:54.000Z</time>
      </trkpt>
      <trkpt lat="49.88134" lon="6.90405">
        <ele>120.111858</ele>
        <time>2022-08-24T09:54:04.000Z</time>
      </trkpt>
      <trkpt lat="49.88159" lon="6.90457">
        <ele>120.136326</ele>
        <time>2022-08-24T09:54:12.000Z</time>
      </trkpt>
      <trkpt lat="49.88186" lon="6.90516">
        <ele>120.1638</ele>
        <time>2022-08-24T09:54:21.000Z</time>
      </trkpt>
      <trkpt lat="49.88199" lon="6.90558">
        <ele>120.195918</ele>
        <time>2022-08-24T09:54:27.000Z</time>
      </trkpt>
      <trkpt lat="49.88206" lon="6.90578">
        <ele>120.230309</ele>
        <time>2022-08-24T09:54:30.000Z</time>
      </trkpt>
      <trkpt lat="49.88231" lon="6.9066">
        <ele>120.363453</ele>
        <time>2022-08-24T09:54:41.000Z</time>
      </trkpt>
      <trkpt lat="49.88243" lon="6.90708">
        <ele>120.439956</ele>
        <time>2022-08-24T09:54:47.000Z</time>
      </trkpt>
      <trkpt lat="49.88258" lon="6.90778">
        <ele>120.549107</ele>
        <time>2022-08-24T09:54:56.000Z</time>
      </trkpt>
      <trkpt lat="49.88266" lon="6.90817">
        <ele>120.65576</ele>
        <time>2022-08-24T09:55:01.000Z</time>
      </trkpt>
      <trkpt lat="49.8827" lon="6.9083">
        <ele>120.723633</ele>
        <time>2022-08-24T09:55:03.000Z</time>
      </trkpt>
      <trkpt lat="49.88282" lon="6.90893">
        <ele>121.036677</ele>
        <time>2022-08-24T09:55:11.000Z</time>
      </trkpt>
      <trkpt lat="49.88283" lon="6.90901">
        <ele>121.07474</ele>
        <time>2022-08-24T09:55:12.000Z</time>
      </trkpt>
      <trkpt lat="49.88289" lon="6.90938">
        <ele>121.257826</ele>
        <time>2022-08-24T09:55:17.000Z</time>
      </trkpt>
      <trkpt lat="49.88298" lon="6.90989">
        <ele>121.511501</ele>
        <time>2022-08-24T09:55:24.000Z</time>
      </trkpt>
      <trkpt lat="49.88308" lon="6.91041">
        <ele>121.770048</ele>
        <time>2022-08-24T09:55:31.000Z</time>
      </trkpt>
      <trkpt lat="49.8831" lon="6.91056">
        <ele>121.847553</ele>
        <time>2022-08-24T09:55:33.000Z</time>
      </trkpt>
      <trkpt lat="49.88313" lon="6.91079">
        <ele>121.984491</ele>
        <time>2022-08-24T09:55:36.000Z</time>
      </trkpt>
      <trkpt lat="49.88318" lon="6.91116">
        <ele>122.296151</ele>
        <time>2022-08-24T09:55:41.000Z</time>
      </trkpt>
      <trkpt lat="49.88325" lon="6.91187">
        <ele>122.890774</ele>
        <time>2022-08-24T09:55:51.000Z</time>
      </trkpt>
      <trkpt lat="49.8833" lon="6.91232">
        <ele>123.263122</ele>
        <time>2022-08-24T09:55:57.000Z</time>
      </trkpt>
      <trkpt lat="49.8833" lon="6.91239">
        <ele>123.322828</ele>
        <time>2022-08-24T09:55:58.000Z</time>
      </trkpt>
      <trkpt lat="49.8833" lon="6.91246">
        <ele>123.382312</ele>
        <time>2022-08-24T09:55:59.000Z</time>
      </trkpt>
      <trkpt lat="49.88331" lon="6.91252">
        <ele>123.428737</ele>
        <time>2022-08-24T09:56:00.000Z</time>
      </trkpt>
      <trkpt lat="49.88336" lon="6.91274">
        <ele>123.620267</ele>
        <time>2022-08-24T09:56:03.000Z</time>
      </trkpt>
      <trkpt lat="49.88345" lon="6.91334">
        <ele>124.136836</ele>
        <time>2022-08-24T09:56:12.000Z</time>
      </trkpt>
      <trkpt lat="49.88346" lon="6.91341">
        <ele>124.193132</ele>
        <time>2022-08-24T09:56:13.000Z</time>
      </trkpt>
      <trkpt lat="49.88356" lon="6.91392">
        <ele>123.43763</ele>
        <time>2022-08-24T09:56:21.000Z</time>
      </trkpt>
      <trkpt lat="49.88357" lon="6.91399">
        <ele>123.331334</ele>
        <time>2022-08-24T09:56:22.000Z</time>
      </trkpt>
      <trkpt lat="49.88357" lon="6.91453">
        <ele>122.461868</ele>
        <time>2022-08-24T09:56:30.000Z</time>
      </trkpt>
      <trkpt lat="49.88357" lon="6.91478">
        <ele>122.058562</ele>
        <time>2022-08-24T09:56:34.000Z</time>
      </trkpt>
      <trkpt lat="49.88358" lon="6.91483">
        <ele>121.971394</ele>
        <time>2022-08-24T09:56:35.000Z</time>
      </trkpt>
      <trkpt lat="49.8837" lon="6.91489">
        <ele>121.667422</ele>
        <time>2022-08-24T09:56:39.000Z</time>
      </trkpt>
      <trkpt lat="49.88382" lon="6.91486">
        <ele>121.357961</ele>
        <time>2022-08-24T09:56:42.000Z</time>
      </trkpt>
      <trkpt lat="49.88387" lon="6.91484">
        <ele>121.233959</ele>
        <time>2022-08-24T09:56:43.000Z</time>
      </trkpt>
      <trkpt lat="49.88392" lon="6.91483">
        <ele>121.107309</ele>
        <time>2022-08-24T09:56:44.000Z</time>
      </trkpt>
      <trkpt lat="49.88402" lon="6.91481">
        <ele>120.849525</ele>
        <time>2022-08-24T09:56:46.000Z</time>
      </trkpt>
      <trkpt lat="49.88413" lon="6.91478">
        <ele>120.570994</ele>
        <time>2022-08-24T09:56:48.000Z</time>
      </trkpt>
      <trkpt lat="49.88422" lon="6.91476">
        <ele>120.331394</ele>
        <time>2022-08-24T09:56:50.000Z</time>
      </trkpt>
      <trkpt lat="49.88428" lon="6.91476">
        <ele>120.19621</ele>
        <time>2022-08-24T09:56:51.000Z</time>
      </trkpt>
      <trkpt lat="49.88431" lon="6.91478">
        <ele>120.10271</ele>
        <time>2022-08-24T09:56:52.000Z</time>
      </trkpt>
      <trkpt lat="49.88433" lon="6.91486">
        <ele>119.961885</ele>
        <time>2022-08-24T09:56:54.000Z</time>
      </trkpt>
      <trkpt lat="49.88434" lon="6.91493">
        <ele>119.856776</ele>
        <time>2022-08-24T09:56:55.000Z</time>
      </trkpt>
      <trkpt lat="49.88437" lon="6.91541">
        <ele>119.489064</ele>
        <time>2022-08-24T09:57:03.000Z</time>
      </trkpt>
      <trkpt lat="49.88439" lon="6.91568">
        <ele>119.3253</ele>
        <time>2022-08-24T09:57:07.000Z</time>
      </trkpt>
      <trkpt lat="49.88442" lon="6.91596">
        <ele>119.154382</ele>
        <time>2022-08-24T09:57:11.000Z</time>
      </trkpt>
      <trkpt lat="49.88453" lon="6.91644">
        <ele>118.846757</ele>
        <time>2022-08-24T09:57:18.000Z</time>
      </trkpt>
      <trkpt lat="49.88458" lon="6.91661">
        <ele>118.740508</ele>
        <time>2022-08-24T09:57:20.000Z</time>
      </trkpt>
      <trkpt lat="49.88459" lon="6.91675">
        <ele>118.657113</ele>
        <time>2022-08-24T09:57:22.000Z</time>
      </trkpt>
      <trkpt lat="49.88458" lon="6.9169">
        <ele>118.564954</ele>
        <time>2022-08-24T09:57:24.000Z</time>
      </trkpt>
      <trkpt lat="49.88454" lon="6.91729">
        <ele>118.330021</ele>
        <time>2022-08-24T09:57:29.000Z</time>
      </trkpt>
      <trkpt lat="49.88455" lon="6.91789">
        <ele>118.077057</ele>
        <time>2022-08-24T09:57:37.000Z</time>
      </trkpt>
      <trkpt lat="49.88456" lon="6.91804">
        <ele>118.09218</ele>
        <time>2022-08-24T09:57:39.000Z</time>
      </trkpt>
      <trkpt lat="49.88456" lon="6.91842">
        <ele>118.129865</ele>
        <time>2022-08-24T09:57:44.000Z</time>
      </trkpt>
      <trkpt lat="49.88456" lon="6.91859">
        <ele>118.146658</ele>
        <time>2022-08-24T09:57:46.000Z</time>
      </trkpt>
      <trkpt lat="49.88458" lon="6.9192">
        <ele>118.20861</ele>
        <time>2022-08-24T09:57:54.000Z</time>
      </trkpt>
      <trkpt lat="49.8846" lon="6.91983">
        <ele>118.27146</ele>
        <time>2022-08-24T09:58:02.000Z</time>
      </trkpt>
      <trkpt lat="49.88461" lon="6.92007">
        <ele>118.295002</ele>
        <time>2022-08-24T09:58:05.000Z</time>
      </trkpt>
      <trkpt lat="49.88462" lon="6.92024">
        <ele>118.311929</ele>
        <time>2022-08-24T09:58:07.000Z</time>
      </trkpt>
      <trkpt lat="49.88462" lon="6.92041">
        <ele>118.329739</ele>
        <time>2022-08-24T09:58:09.000Z</time>
      </trkpt>
      <trkpt lat="49.88463" lon="6.92051">
        <ele>118.338999</ele>
        <time>2022-08-24T09:58:10.000Z</time>
      </trkpt>
      <trkpt lat="49.88464" lon="6.9206">
        <ele>118.343058</ele>
        <time>2022-08-24T09:58:11.000Z</time>
      </trkpt>
      <trkpt lat="49.88467" lon="6.92097">
        <ele>118.35276</ele>
        <time>2022-08-24T09:58:15.000Z</time>
      </trkpt>
      <trkpt lat="49.88471" lon="6.92155">
        <ele>118.36784</ele>
        <time>2022-08-24T09:58:21.000Z</time>
      </trkpt>
      <trkpt lat="49.88473" lon="6.92233">
        <ele>118.387942</ele>
        <time>2022-08-24T09:58:29.000Z</time>
      </trkpt>
      <trkpt lat="49.88474" lon="6.92242">
        <ele>118.39035</ele>
        <time>2022-08-24T09:58:30.000Z</time>
      </trkpt>
      <trkpt lat="49.88477" lon="6.92313">
        <ele>118.408767</ele>
        <time>2022-08-24T09:58:38.000Z</time>
      </trkpt>
      <trkpt lat="49.88481" lon="6.92382">
        <ele>118.497876</ele>
        <time>2022-08-24T09:58:46.000Z</time>
      </trkpt>
      <trkpt lat="49.88482" lon="6.92415">
        <ele>118.552695</ele>
        <time>2022-08-24T09:58:50.000Z</time>
      </trkpt>
      <trkpt lat="49.88482" lon="6.92456">
        <ele>118.620022</ele>
        <time>2022-08-24T09:58:55.000Z</time>
      </trkpt>
      <trkpt lat="49.88476" lon="6.92522">
        <ele>118.72911</ele>
        <time>2022-08-24T09:59:03.000Z</time>
      </trkpt>
      <trkpt lat="49.88466" lon="6.92584">
        <ele>118.834925</ele>
        <time>2022-08-24T09:59:11.000Z</time>
      </trkpt>
      <trkpt lat="49.88459" lon="6.92623">
        <ele>118.83109</ele>
        <time>2022-08-24T09:59:16.000Z</time>
      </trkpt>
      <trkpt lat="49.88453" lon="6.92645">
        <ele>118.770542</ele>
        <time>2022-08-24T09:59:19.000Z</time>
      </trkpt>
      <trkpt lat="49.88433" lon="6.92707">
        <ele>118.59661</ele>
        <time>2022-08-24T09:59:28.000Z</time>
      </trkpt>
      <trkpt lat="49.8841" lon="6.92768">
        <ele>118.417812</ele>
        <time>2022-08-24T09:59:37.000Z</time>
      </trkpt>
      <trkpt lat="49.88387" lon="6.92807">
        <ele>118.283104</ele>
        <time>2022-08-24T09:59:44.000Z</time>
      </trkpt>
      <trkpt lat="49.88376" lon="6.92824">
        <ele>118.225168</ele>
        <time>2022-08-24T09:59:47.000Z</time>
      </trkpt>
      <trkpt lat="49.88358" lon="6.92859">
        <ele>118.232868</ele>
        <time>2022-08-24T09:59:53.000Z</time>
      </trkpt>
      <trkpt lat="49.88325" lon="6.92914">
        <ele>118.425687</ele>
        <time>2022-08-24T10:00:03.000Z</time>
      </trkpt>
      <trkpt lat="49.88301" lon="6.92951">
        <ele>118.560009</ele>
        <time>2022-08-24T10:00:10.000Z</time>
      </trkpt>
      <trkpt lat="49.88298" lon="6.92956">
        <ele>118.580026</ele>
        <time>2022-08-24T10:00:11.000Z</time>
      </trkpt>
      <trkpt lat="49.88264" lon="6.93007">
        <ele>118.768586</ele>
        <time>2022-08-24T10:00:20.000Z</time>
      </trkpt>
      <trkpt lat="49.88223" lon="6.9306">
        <ele>118.938707</ele>
        <time>2022-08-24T10:00:30.000Z</time>
      </trkpt>
      <trkpt lat="49.88179" lon="6.93105">
        <ele>119.053855</ele>
        <time>2022-08-24T10:00:40.000Z</time>
      </trkpt>
      <trkpt lat="49.88145" lon="6.9313">
        <ele>119.136296</ele>
        <time>2022-08-24T10:00:47.000Z</time>
      </trkpt>
      <trkpt lat="49.88096" lon="6.93159">
        <ele>119.24888</ele>
        <time>2022-08-24T10:00:56.000Z</time>
      </trkpt>
      <trkpt lat="49.88049" lon="6.93178">
        <ele>119.152225</ele>
        <time>2022-08-24T10:01:05.000Z</time>
      </trkpt>
      <trkpt lat="49.87997" lon="6.93191">
        <ele>118.952694</ele>
        <time>2022-08-24T10:01:15.000Z</time>
      </trkpt>
      <trkpt lat="49.87954" lon="6.93193">
        <ele>118.789111</ele>
        <time>2022-08-24T10:01:23.000Z</time>
      </trkpt>
      <trkpt lat="49.87909" lon="6.93191">
        <ele>118.620561</ele>
        <time>2022-08-24T10:01:32.000Z</time>
      </trkpt>
      <trkpt lat="49.8787" lon="6.93185">
        <ele>118.48332</ele>
        <time>2022-08-24T10:01:39.000Z</time>
      </trkpt>
      <trkpt lat="49.87835" lon="6.93177">
        <ele>118.363875</ele>
        <time>2022-08-24T10:01:45.000Z</time>
      </trkpt>
      <trkpt lat="49.87818" lon="6.93173">
        <ele>118.303987</ele>
        <time>2022-08-24T10:01:48.000Z</time>
      </trkpt>
      <trkpt lat="49.87772" lon="6.9316">
        <ele>118.147982</ele>
        <time>2022-08-24T10:01:56.000Z</time>
      </trkpt>
      <trkpt lat="49.87734" lon="6.93143">
        <ele>118.010637</ele>
        <time>2022-08-24T10:02:03.000Z</time>
      </trkpt>
      <trkpt lat="49.87728" lon="6.93141">
        <ele>117.991555</ele>
        <time>2022-08-24T10:02:04.000Z</time>
      </trkpt>
      <trkpt lat="49.8768" lon="6.93115">
        <ele>117.83689</ele>
        <time>2022-08-24T10:02:13.000Z</time>
      </trkpt>
      <trkpt lat="49.8765" lon="6.93093">
        <ele>117.736235</ele>
        <time>2022-08-24T10:02:19.000Z</time>
      </trkpt>
      <trkpt lat="49.87612" lon="6.93059">
        <ele>117.603349</ele>
        <time>2022-08-24T10:02:27.000Z</time>
      </trkpt>
      <trkpt lat="49.87591" lon="6.93038">
        <ele>117.527164</ele>
        <time>2022-08-24T10:02:32.000Z</time>
      </trkpt>
      <trkpt lat="49.87585" lon="6.93026">
        <ele>117.497439</ele>
        <time>2022-08-24T10:02:34.000Z</time>
      </trkpt>
      <trkpt lat="49.87581" lon="6.93021">
        <ele>117.482576</ele>
        <time>2022-08-24T10:02:35.000Z</time>
      </trkpt>
      <trkpt lat="49.87563" lon="6.93003">
        <ele>117.434752</ele>
        <time>2022-08-24T10:02:39.000Z</time>
      </trkpt>
      <trkpt lat="49.87526" lon="6.92962">
        <ele>117.394668</ele>
        <time>2022-08-24T10:02:47.000Z</time>
      </trkpt>
      <trkpt lat="49.87517" lon="6.92953">
        <ele>117.384838</ele>
        <time>2022-08-24T10:02:49.000Z</time>
      </trkpt>
      <trkpt lat="49.87497" lon="6.92935">
        <ele>117.364852</ele>
        <time>2022-08-24T10:02:53.000Z</time>
      </trkpt>
      <trkpt lat="49.87455" lon="6.92897">
        <ele>117.321319</ele>
        <time>2022-08-24T10:03:02.000Z</time>
      </trkpt>
      <trkpt lat="49.87441" lon="6.92884">
        <ele>117.306664</ele>
        <time>2022-08-24T10:03:05.000Z</time>
      </trkpt>
      <trkpt lat="49.8741" lon="6.92856">
        <ele>117.360859</ele>
        <time>2022-08-24T10:03:12.000Z</time>
      </trkpt>
      <trkpt lat="49.87379" lon="6.92832">
        <ele>117.65461</ele>
        <time>2022-08-24T10:03:19.000Z</time>
      </trkpt>
      <trkpt lat="49.87349" lon="6.92809">
        <ele>117.935626</ele>
        <time>2022-08-24T10:03:26.000Z</time>
      </trkpt>
      <trkpt lat="49.87345" lon="6.92807">
        <ele>117.976568</ele>
        <time>2022-08-24T10:03:27.000Z</time>
      </trkpt>
      <trkpt lat="49.8734" lon="6.92803">
        <ele>118.022545</ele>
        <time>2022-08-24T10:03:28.000Z</time>
      </trkpt>
      <trkpt lat="49.87319" lon="6.92788">
        <ele>118.223228</ele>
        <time>2022-08-24T10:03:33.000Z</time>
      </trkpt>
      <trkpt lat="49.87293" lon="6.92771">
        <ele>118.463222</ele>
        <time>2022-08-24T10:03:39.000Z</time>
      </trkpt>
      <trkpt lat="49.87269" lon="6.92754">
        <ele>118.692103</ele>
        <time>2022-08-24T10:03:45.000Z</time>
      </trkpt>
      <trkpt lat="49.87218" lon="6.92722">
        <ele>119.181847</ele>
        <time>2022-08-24T10:03:57.000Z</time>
      </trkpt>
      <trkpt lat="49.87176" lon="6.92695">
        <ele>119.607329</ele>
        <time>2022-08-24T10:04:07.000Z</time>
      </trkpt>
      <trkpt lat="49.87122" lon="6.92665">
        <ele>120.1299</ele>
        <time>2022-08-24T10:04:19.000Z</time>
      </trkpt>
      <trkpt lat="49.87118" lon="6.92663">
        <ele>120.170991</ele>
        <time>2022-08-24T10:04:20.000Z</time>
      </trkpt>
      <trkpt lat="49.87114" lon="6.9266">
        <ele>120.212335</ele>
        <time>2022-08-24T10:04:21.000Z</time>
      </trkpt>
      <trkpt lat="49.87104" lon="6.92654">
        <ele>120.308</ele>
        <time>2022-08-24T10:04:25.000Z</time>
      </trkpt>
      <trkpt lat="49.87104" lon="6.92654">
        <ele>120.308</ele>
        <time>2022-08-24T10:04:32.000Z</time>
      </trkpt>
      <trkpt lat="49.87105" lon="6.92656">
        <ele>120.322111</ele>
        <time>2022-08-24T10:04:49.000Z</time>
      </trkpt>
      <trkpt lat="49.87108" lon="6.92659">
        <ele>120.358094</ele>
        <time>2022-08-24T10:04:51.000Z</time>
      </trkpt>
      <trkpt lat="49.87115" lon="6.92653">
        <ele>120.435256</ele>
        <time>2022-08-24T10:04:54.000Z</time>
      </trkpt>
      <trkpt lat="49.87117" lon="6.92648">
        <ele>120.466153</ele>
        <time>2022-08-24T10:04:55.000Z</time>
      </trkpt>
      <trkpt lat="49.87116" lon="6.9263">
        <ele>120.91677</ele>
        <time>2022-08-24T10:04:58.000Z</time>
      </trkpt>
      <trkpt lat="49.87105" lon="6.92606">
        <ele>121.723574</ele>
        <time>2022-08-24T10:05:03.000Z</time>
      </trkpt>
      <trkpt lat="49.87098" lon="6.92596">
        <ele>122.103093</ele>
        <time>2022-08-24T10:05:06.000Z</time>
      </trkpt>
      <trkpt lat="49.87094" lon="6.92589">
        <ele>122.374675</ele>
        <time>2022-08-24T10:05:08.000Z</time>
      </trkpt>
      <trkpt lat="49.8709" lon="6.92583">
        <ele>122.581281</ele>
        <time>2022-08-24T10:05:10.000Z</time>
      </trkpt>
      <trkpt lat="49.87083" lon="6.92573">
        <ele>122.985867</ele>
        <time>2022-08-24T10:05:14.000Z</time>
      </trkpt>
      <trkpt lat="49.87078" lon="6.92564">
        <ele>123.328737</ele>
        <time>2022-08-24T10:05:17.000Z</time>
      </trkpt>
      <trkpt lat="49.87076" lon="6.9256">
        <ele>123.451096</ele>
        <time>2022-08-24T10:05:18.000Z</time>
      </trkpt>
      <trkpt lat="49.8707" lon="6.92549">
        <ele>123.835667</ele>
        <time>2022-08-24T10:05:22.000Z</time>
      </trkpt>
      <trkpt lat="49.87068" lon="6.92544">
        <ele>124.001399</ele>
        <time>2022-08-24T10:05:24.000Z</time>
      </trkpt>
      <trkpt lat="49.87065" lon="6.92539">
        <ele>124.187716</ele>
        <time>2022-08-24T10:05:26.000Z</time>
      </trkpt>
      <trkpt lat="49.87063" lon="6.92534">
        <ele>124.348599</ele>
        <time>2022-08-24T10:05:28.000Z</time>
      </trkpt>
      <trkpt lat="49.87062" lon="6.92528">
        <ele>124.498129</ele>
        <time>2022-08-24T10:05:30.000Z</time>
      </trkpt>
      <trkpt lat="49.87061" lon="6.92525">
        <ele>124.576156</ele>
        <time>2022-08-24T10:05:31.000Z</time>
      </trkpt>
      <trkpt lat="49.87056" lon="6.92518">
        <ele>124.880533</ele>
        <time>2022-08-24T10:05:35.000Z</time>
      </trkpt>
      <trkpt lat="49.87054" lon="6.92517">
        <ele>124.951446</ele>
        <time>2022-08-24T10:05:36.000Z</time>
      </trkpt>
      <trkpt lat="49.87052" lon="6.92516">
        <ele>125.064472</ele>
        <time>2022-08-24T10:05:37.000Z</time>
      </trkpt>
      <trkpt lat="49.87032" lon="6.92509">
        <ele>125.911819</ele>
        <time>2022-08-24T10:05:44.000Z</time>
      </trkpt>
      <trkpt lat="49.87006" lon="6.92503">
        <ele>126.992252</ele>
        <time>2022-08-24T10:05:52.000Z</time>
      </trkpt>
      <trkpt lat="49.86965" lon="6.92501">
        <ele>127.817779</ele>
        <time>2022-08-24T10:06:03.000Z</time>
      </trkpt>
      <trkpt lat="49.86946" lon="6.92503">
        <ele>127.653715</ele>
        <time>2022-08-24T10:06:08.000Z</time>
      </trkpt>
      <trkpt lat="49.86923" lon="6.92506">
        <ele>127.459411</ele>
        <time>2022-08-24T10:06:14.000Z</time>
      </trkpt>
      <trkpt lat="49.86906" lon="6.92508">
        <ele>127.314109</ele>
        <time>2022-08-24T10:06:18.000Z</time>
      </trkpt>
      <trkpt lat="49.86891" lon="6.92509">
        <ele>127.184468</ele>
        <time>2022-08-24T10:06:22.000Z</time>
      </trkpt>
      <trkpt lat="49.86878" lon="6.92512">
        <ele>127.073119</ele>
        <time>2022-08-24T10:06:25.000Z</time>
      </trkpt>
      <trkpt lat="49.8686" lon="6.92514">
        <ele>126.91671</ele>
        <time>2022-08-24T10:06:29.000Z</time>
      </trkpt>
      <trkpt lat="49.86855" lon="6.92515">
        <ele>126.875391</ele>
        <time>2022-08-24T10:06:30.000Z</time>
      </trkpt>
      <trkpt lat="49.86831" lon="6.92517">
        <ele>126.664274</ele>
        <time>2022-08-24T10:06:35.000Z</time>
      </trkpt>
      <trkpt lat="49.86815" lon="6.92518">
        <ele>126.531021</ele>
        <time>2022-08-24T10:06:38.000Z</time>
      </trkpt>
      <trkpt lat="49.86788" lon="6.92523">
        <ele>126.189578</ele>
        <time>2022-08-24T10:06:43.000Z</time>
      </trkpt>
      <trkpt lat="49.86766" lon="6.92527">
        <ele>125.846233</ele>
        <time>2022-08-24T10:06:47.000Z</time>
      </trkpt>
      <trkpt lat="49.86756" lon="6.92528">
        <ele>125.701441</ele>
        <time>2022-08-24T10:06:49.000Z</time>
      </trkpt>
      <trkpt lat="49.86739" lon="6.92531">
        <ele>125.441298</ele>
        <time>2022-08-24T10:06:52.000Z</time>
      </trkpt>
      <trkpt lat="49.86717" lon="6.92535">
        <ele>125.1024</ele>
        <time>2022-08-24T10:06:56.000Z</time>
      </trkpt>
      <trkpt lat="49.86666" lon="6.92549">
        <ele>124.311328</ele>
        <time>2022-08-24T10:07:05.000Z</time>
      </trkpt>
      <trkpt lat="49.8665" lon="6.92554">
        <ele>124.052264</ele>
        <time>2022-08-24T10:07:08.000Z</time>
      </trkpt>
      <trkpt lat="49.86622" lon="6.92564">
        <ele>123.619853</ele>
        <time>2022-08-24T10:07:13.000Z</time>
      </trkpt>
      <trkpt lat="49.866" lon="6.92574">
        <ele>123.244614</ele>
        <time>2022-08-24T10:07:17.000Z</time>
      </trkpt>
      <trkpt lat="49.86594" lon="6.92576">
        <ele>123.142607</ele>
        <time>2022-08-24T10:07:18.000Z</time>
      </trkpt>
      <trkpt lat="49.86577" lon="6.92585">
        <ele>122.849342</ele>
        <time>2022-08-24T10:07:21.000Z</time>
      </trkpt>
      <trkpt lat="49.86555" lon="6.92596">
        <ele>122.453807</ele>
        <time>2022-08-24T10:07:25.000Z</time>
      </trkpt>
      <trkpt lat="49.86543" lon="6.92602">
        <ele>122.257786</ele>
        <time>2022-08-24T10:07:27.000Z</time>
      </trkpt>
      <trkpt lat="49.86532" lon="6.92608">
        <ele>122.070134</ele>
        <time>2022-08-24T10:07:29.000Z</time>
      </trkpt>
      <trkpt lat="49.86527" lon="6.92611">
        <ele>121.976754</ele>
        <time>2022-08-24T10:07:30.000Z</time>
      </trkpt>
      <trkpt lat="49.86494" lon="6.9263">
        <ele>121.401142</ele>
        <time>2022-08-24T10:07:36.000Z</time>
      </trkpt>
      <trkpt lat="49.86472" lon="6.92644">
        <ele>121.00959</ele>
        <time>2022-08-24T10:07:40.000Z</time>
      </trkpt>
      <trkpt lat="49.8643" lon="6.92676">
        <ele>120.554094</ele>
        <time>2022-08-24T10:07:48.000Z</time>
      </trkpt>
      <trkpt lat="49.86415" lon="6.92689">
        <ele>120.457416</ele>
        <time>2022-08-24T10:07:51.000Z</time>
      </trkpt>
      <trkpt lat="49.86387" lon="6.92719">
        <ele>120.267626</ele>
        <time>2022-08-24T10:07:57.000Z</time>
      </trkpt>
      <trkpt lat="49.86362" lon="6.92751">
        <ele>120.081834</ele>
        <time>2022-08-24T10:08:03.000Z</time>
      </trkpt>
      <trkpt lat="49.86351" lon="6.92768">
        <ele>119.995325</ele>
        <time>2022-08-24T10:08:06.000Z</time>
      </trkpt>
      <trkpt lat="49.86334" lon="6.92797">
        <ele>119.848787</ele>
        <time>2022-08-24T10:08:11.000Z</time>
      </trkpt>
      <trkpt lat="49.86325" lon="6.92814">
        <ele>119.768454</ele>
        <time>2022-08-24T10:08:14.000Z</time>
      </trkpt>
      <trkpt lat="49.86302" lon="6.92864">
        <ele>119.729981</ele>
        <time>2022-08-24T10:08:22.000Z</time>
      </trkpt>
      <trkpt lat="49.86284" lon="6.92914">
        <ele>119.762955</ele>
        <time>2022-08-24T10:08:29.000Z</time>
      </trkpt>
      <trkpt lat="49.86282" lon="6.92921">
        <ele>119.767744</ele>
        <time>2022-08-24T10:08:30.000Z</time>
      </trkpt>
      <trkpt lat="49.86272" lon="6.92958">
        <ele>119.790907</ele>
        <time>2022-08-24T10:08:35.000Z</time>
      </trkpt>
      <trkpt lat="49.86258" lon="6.93019">
        <ele>119.829465</ele>
        <time>2022-08-24T10:08:43.000Z</time>
      </trkpt>
      <trkpt lat="49.86245" lon="6.93082">
        <ele>119.868283</ele>
        <time>2022-08-24T10:08:52.000Z</time>
      </trkpt>
      <trkpt lat="49.86226" lon="6.93152">
        <ele>119.913757</ele>
        <time>2022-08-24T10:09:02.000Z</time>
      </trkpt>
      <trkpt lat="49.86214" lon="6.93208">
        <ele>119.948609</ele>
        <time>2022-08-24T10:09:10.000Z</time>
      </trkpt>
      <trkpt lat="49.86207" lon="6.93238">
        <ele>119.967689</ele>
        <time>2022-08-24T10:09:14.000Z</time>
      </trkpt>
      <trkpt lat="49.86203" lon="6.9326">
        <ele>119.981724</ele>
        <time>2022-08-24T10:09:17.000Z</time>
      </trkpt>
      <trkpt lat="49.86197" lon="6.9329">
        <ele>120.000659</ele>
        <time>2022-08-24T10:09:21.000Z</time>
      </trkpt>
      <trkpt lat="49.86192" lon="6.93314">
        <ele>120.01552</ele>
        <time>2022-08-24T10:09:24.000Z</time>
      </trkpt>
      <trkpt lat="49.86191" lon="6.9332">
        <ele>120.019089</ele>
        <time>2022-08-24T10:09:25.000Z</time>
      </trkpt>
      <trkpt lat="49.86175" lon="6.93387">
        <ele>120.083157</ele>
        <time>2022-08-24T10:09:34.000Z</time>
      </trkpt>
      <trkpt lat="49.86165" lon="6.93441">
        <ele>120.143257</ele>
        <time>2022-08-24T10:09:41.000Z</time>
      </trkpt>
      <trkpt lat="49.86157" lon="6.93487">
        <ele>120.193925</ele>
        <time>2022-08-24T10:09:47.000Z</time>
      </trkpt>
      <trkpt lat="49.86155" lon="6.93502">
        <ele>120.210347</ele>
        <time>2022-08-24T10:09:49.000Z</time>
      </trkpt>
      <trkpt lat="49.86147" lon="6.93584">
        <ele>120.298188</ele>
        <time>2022-08-24T10:10:00.000Z</time>
      </trkpt>
      <trkpt lat="49.86147" lon="6.93613">
        <ele>120.328665</ele>
        <time>2022-08-24T10:10:04.000Z</time>
      </trkpt>
      <trkpt lat="49.86147" lon="6.93627">
        <ele>120.34776</ele>
        <time>2022-08-24T10:10:06.000Z</time>
      </trkpt>
      <trkpt lat="49.86146" lon="6.93673">
        <ele>120.411806</ele>
        <time>2022-08-24T10:10:12.000Z</time>
      </trkpt>
      <trkpt lat="49.86146" lon="6.93679">
        <ele>120.420365</ele>
        <time>2022-08-24T10:10:13.000Z</time>
      </trkpt>
      <trkpt lat="49.86147" lon="6.93735">
        <ele>120.498811</ele>
        <time>2022-08-24T10:10:20.000Z</time>
      </trkpt>
      <trkpt lat="49.86154" lon="6.93793">
        <ele>120.580411</ele>
        <time>2022-08-24T10:10:27.000Z</time>
      </trkpt>
      <trkpt lat="49.86155" lon="6.93808">
        <ele>120.600578</ele>
        <time>2022-08-24T10:10:29.000Z</time>
      </trkpt>
      <trkpt lat="49.86164" lon="6.93862">
        <ele>120.679027</ele>
        <time>2022-08-24T10:10:36.000Z</time>
      </trkpt>
      <trkpt lat="49.86167" lon="6.93877">
        <ele>120.700898</ele>
        <time>2022-08-24T10:10:38.000Z</time>
      </trkpt>
      <trkpt lat="49.86175" lon="6.93914">
        <ele>120.767747</ele>
        <time>2022-08-24T10:10:43.000Z</time>
      </trkpt>
      <trkpt lat="49.8618" lon="6.93936">
        <ele>120.812049</ele>
        <time>2022-08-24T10:10:46.000Z</time>
      </trkpt>
      <trkpt lat="49.86199" lon="6.94005">
        <ele>120.954656</ele>
        <time>2022-08-24T10:10:55.000Z</time>
      </trkpt>
      <trkpt lat="49.86204" lon="6.94021">
        <ele>120.98985</ele>
        <time>2022-08-24T10:10:57.000Z</time>
      </trkpt>
      <trkpt lat="49.86214" lon="6.94053">
        <ele>121.057845</ele>
        <time>2022-08-24T10:11:01.000Z</time>
      </trkpt>
      <trkpt lat="49.86217" lon="6.94061">
        <ele>121.074895</ele>
        <time>2022-08-24T10:11:02.000Z</time>
      </trkpt>
      <trkpt lat="49.8622" lon="6.94069">
        <ele>121.092364</ele>
        <time>2022-08-24T10:11:03.000Z</time>
      </trkpt>
      <trkpt lat="49.86241" lon="6.94132">
        <ele>121.227618</ele>
        <time>2022-08-24T10:11:11.000Z</time>
      </trkpt>
      <trkpt lat="49.86265" lon="6.94187">
        <ele>121.433568</ele>
        <time>2022-08-24T10:11:19.000Z</time>
      </trkpt>
      <trkpt lat="49.86286" lon="6.94235">
        <ele>121.630828</ele>
        <time>2022-08-24T10:11:26.000Z</time>
      </trkpt>
      <trkpt lat="49.86289" lon="6.94242">
        <ele>121.659282</ele>
        <time>2022-08-24T10:11:27.000Z</time>
      </trkpt>
      <trkpt lat="49.86316" lon="6.94293">
        <ele>121.881112</ele>
        <time>2022-08-24T10:11:35.000Z</time>
      </trkpt>
      <trkpt lat="49.86331" lon="6.94319">
        <ele>121.997924</ele>
        <time>2022-08-24T10:11:39.000Z</time>
      </trkpt>
      <trkpt lat="49.86348" lon="6.94349">
        <ele>122.133211</ele>
        <time>2022-08-24T10:11:44.000Z</time>
      </trkpt>
      <trkpt lat="49.86355" lon="6.94361">
        <ele>122.190769</ele>
        <time>2022-08-24T10:11:46.000Z</time>
      </trkpt>
      <trkpt lat="49.8637" lon="6.94385">
        <ele>122.162104</ele>
        <time>2022-08-24T10:11:50.000Z</time>
      </trkpt>
      <trkpt lat="49.86398" lon="6.94424">
        <ele>122.096044</ele>
        <time>2022-08-24T10:11:57.000Z</time>
      </trkpt>
      <trkpt lat="49.86434" lon="6.94472">
        <ele>122.011321</ele>
        <time>2022-08-24T10:12:06.000Z</time>
      </trkpt>
      <trkpt lat="49.86481" lon="6.94526">
        <ele>121.908379</ele>
        <time>2022-08-24T10:12:17.000Z</time>
      </trkpt>
      <trkpt lat="49.86486" lon="6.9453">
        <ele>121.899202</ele>
        <time>2022-08-24T10:12:18.000Z</time>
      </trkpt>
      <trkpt lat="49.8649" lon="6.94534">
        <ele>121.889992</ele>
        <time>2022-08-24T10:12:19.000Z</time>
      </trkpt>
      <trkpt lat="49.8653" lon="6.9457">
        <ele>121.930588</ele>
        <time>2022-08-24T10:12:28.000Z</time>
      </trkpt>
      <trkpt lat="49.86579" lon="6.94611">
        <ele>122.002167</ele>
        <time>2022-08-24T10:12:39.000Z</time>
      </trkpt>
      <trkpt lat="49.86584" lon="6.94615">
        <ele>122.008729</ele>
        <time>2022-08-24T10:12:40.000Z</time>
      </trkpt>
      <trkpt lat="49.86624" lon="6.94645">
        <ele>122.065573</ele>
        <time>2022-08-24T10:12:49.000Z</time>
      </trkpt>
      <trkpt lat="49.86629" lon="6.94648">
        <ele>122.072409</ele>
        <time>2022-08-24T10:12:50.000Z</time>
      </trkpt>
      <trkpt lat="49.86666" lon="6.94681">
        <ele>122.073869</ele>
        <time>2022-08-24T10:12:58.000Z</time>
      </trkpt>
      <trkpt lat="49.86717" lon="6.9473">
        <ele>121.930525</ele>
        <time>2022-08-24T10:13:09.000Z</time>
      </trkpt>
      <trkpt lat="49.86721" lon="6.94735">
        <ele>121.917221</ele>
        <time>2022-08-24T10:13:10.000Z</time>
      </trkpt>
      <trkpt lat="49.86765" lon="6.94775">
        <ele>121.794115</ele>
        <time>2022-08-24T10:13:19.000Z</time>
      </trkpt>
      <trkpt lat="49.8681" lon="6.94808">
        <ele>121.674907</ele>
        <time>2022-08-24T10:13:28.000Z</time>
      </trkpt>
      <trkpt lat="49.86837" lon="6.94821">
        <ele>121.708691</ele>
        <time>2022-08-24T10:13:33.000Z</time>
      </trkpt>
      <trkpt lat="49.86858" lon="6.9483">
        <ele>121.735156</ele>
        <time>2022-08-24T10:13:37.000Z</time>
      </trkpt>
      <trkpt lat="49.86874" lon="6.94836">
        <ele>121.754863</ele>
        <time>2022-08-24T10:13:40.000Z</time>
      </trkpt>
      <trkpt lat="49.86889" lon="6.94841">
        <ele>121.773535</ele>
        <time>2022-08-24T10:13:43.000Z</time>
      </trkpt>
      <trkpt lat="49.86947" lon="6.94846">
        <ele>121.844322</ele>
        <time>2022-08-24T10:13:54.000Z</time>
      </trkpt>
      <trkpt lat="49.86994" lon="6.94847">
        <ele>121.898226</ele>
        <time>2022-08-24T10:14:03.000Z</time>
      </trkpt>
      <trkpt lat="49.86999" lon="6.94847">
        <ele>121.902877</ele>
        <time>2022-08-24T10:14:04.000Z</time>
      </trkpt>
      <trkpt lat="49.87054" lon="6.94855">
        <ele>121.953832</ele>
        <time>2022-08-24T10:14:15.000Z</time>
      </trkpt>
      <trkpt lat="49.87059" lon="6.94856">
        <ele>121.958329</ele>
        <time>2022-08-24T10:14:16.000Z</time>
      </trkpt>
      <trkpt lat="49.8711" lon="6.9487">
        <ele>122.00493</ele>
        <time>2022-08-24T10:14:26.000Z</time>
      </trkpt>
      <trkpt lat="49.87163" lon="6.94889">
        <ele>122.054515</ele>
        <time>2022-08-24T10:14:36.000Z</time>
      </trkpt>
      <trkpt lat="49.87172" lon="6.94892">
        <ele>122.059243</ele>
        <time>2022-08-24T10:14:38.000Z</time>
      </trkpt>
      <trkpt lat="49.87217" lon="6.94904">
        <ele>122.07812</ele>
        <time>2022-08-24T10:14:47.000Z</time>
      </trkpt>
      <trkpt lat="49.87257" lon="6.94909">
        <ele>122.094633</ele>
        <time>2022-08-24T10:14:55.000Z</time>
      </trkpt>
      <trkpt lat="49.87314" lon="6.94914">
        <ele>122.118208</ele>
        <time>2022-08-24T10:15:06.000Z</time>
      </trkpt>
      <trkpt lat="49.87334" lon="6.94919">
        <ele>122.126661</ele>
        <time>2022-08-24T10:15:10.000Z</time>
      </trkpt>
      <trkpt lat="49.8736" lon="6.94924">
        <ele>122.050115</ele>
        <time>2022-08-24T10:15:15.000Z</time>
      </trkpt>
      <trkpt lat="49.87406" lon="6.94937">
        <ele>121.836376</ele>
        <time>2022-08-24T10:15:24.000Z</time>
      </trkpt>
      <trkpt lat="49.87443" lon="6.94948">
        <ele>121.666429</ele>
        <time>2022-08-24T10:15:31.000Z</time>
      </trkpt>
      <trkpt lat="49.87458" lon="6.94955">
        <ele>121.595663</ele>
        <time>2022-08-24T10:15:34.000Z</time>
      </trkpt>
      <trkpt lat="49.875" lon="6.94967">
        <ele>121.402256</ele>
        <time>2022-08-24T10:15:42.000Z</time>
      </trkpt>
      <trkpt lat="49.87522" lon="6.94972">
        <ele>121.310353</ele>
        <time>2022-08-24T10:15:46.000Z</time>
      </trkpt>
      <trkpt lat="49.87557" lon="6.9498">
        <ele>121.293622</ele>
        <time>2022-08-24T10:15:53.000Z</time>
      </trkpt>
      <trkpt lat="49.87612" lon="6.94994">
        <ele>121.267502</ele>
        <time>2022-08-24T10:16:04.000Z</time>
      </trkpt>
      <trkpt lat="49.87663" lon="6.95007">
        <ele>121.243466</ele>
        <time>2022-08-24T10:16:14.000Z</time>
      </trkpt>
      <trkpt lat="49.87719" lon="6.95019">
        <ele>121.739285</ele>
        <time>2022-08-24T10:16:25.000Z</time>
      </trkpt>
      <trkpt lat="49.87773" lon="6.95028">
        <ele>123.000451</ele>
        <time>2022-08-24T10:16:36.000Z</time>
      </trkpt>
      <trkpt lat="49.87778" lon="6.95028">
        <ele>123.117502</ele>
        <time>2022-08-24T10:16:37.000Z</time>
      </trkpt>
      <trkpt lat="49.87794" lon="6.9503">
        <ele>123.498615</ele>
        <time>2022-08-24T10:16:40.000Z</time>
      </trkpt>
      <trkpt lat="49.87803" lon="6.95028">
        <ele>123.708078</ele>
        <time>2022-08-24T10:16:42.000Z</time>
      </trkpt>
      <trkpt lat="49.87808" lon="6.95027">
        <ele>123.834875</ele>
        <time>2022-08-24T10:16:43.000Z</time>
      </trkpt>
      <trkpt lat="49.87818" lon="6.95028">
        <ele>124.058724</ele>
        <time>2022-08-24T10:16:46.000Z</time>
      </trkpt>
      <trkpt lat="49.87826" lon="6.95028">
        <ele>124.252528</ele>
        <time>2022-08-24T10:16:49.000Z</time>
      </trkpt>
      <trkpt lat="49.87833" lon="6.95029">
        <ele>124.401868</ele>
        <time>2022-08-24T10:16:52.000Z</time>
      </trkpt>
      <trkpt lat="49.87834" lon="6.95029">
        <ele>124.443863</ele>
        <time>2022-08-24T10:16:53.000Z</time>
      </trkpt>
      <trkpt lat="49.87839" lon="6.95029">
        <ele>124.551156</ele>
        <time>2022-08-24T10:16:55.000Z</time>
      </trkpt>
      <trkpt lat="49.87841" lon="6.95029">
        <ele>124.598388</ele>
        <time>2022-08-24T10:16:56.000Z</time>
      </trkpt>
      <trkpt lat="49.87846" lon="6.95032">
        <ele>124.715769</ele>
        <time>2022-08-24T10:16:59.000Z</time>
      </trkpt>
      <trkpt lat="49.87846" lon="6.95046">
        <ele>124.927939</ele>
        <time>2022-08-24T10:17:04.000Z</time>
      </trkpt>
      <trkpt lat="49.87845" lon="6.95051">
        <ele>125.008104</ele>
        <time>2022-08-24T10:17:06.000Z</time>
      </trkpt>
      <trkpt lat="49.87844" lon="6.95059">
        <ele>125.121896</ele>
        <time>2022-08-24T10:17:09.000Z</time>
      </trkpt>
      <trkpt lat="49.87846" lon="6.95066">
        <ele>125.251441</ele>
        <time>2022-08-24T10:17:11.000Z</time>
      </trkpt>
      <trkpt lat="49.87849" lon="6.95069">
        <ele>125.3336</ele>
        <time>2022-08-24T10:17:12.000Z</time>
      </trkpt>
      <trkpt lat="49.87873" lon="6.95077">
        <ele>125.608455</ele>
        <time>2022-08-24T10:17:19.000Z</time>
      </trkpt>
      <trkpt lat="49.87894" lon="6.9508">
        <ele>125.79574</ele>
        <time>2022-08-24T10:17:25.000Z</time>
      </trkpt>
      <trkpt lat="49.87916" lon="6.95083">
        <ele>125.998289</ele>
        <time>2022-08-24T10:17:30.000Z</time>
      </trkpt>
      <trkpt lat="49.87962" lon="6.95097">
        <ele>126.427161</ele>
        <time>2022-08-24T10:17:41.000Z</time>
      </trkpt>
      <trkpt lat="49.88009" lon="6.9511">
        <ele>126.859786</ele>
        <time>2022-08-24T10:17:51.000Z</time>
      </trkpt>
      <trkpt lat="49.88033" lon="6.95114">
        <ele>127.075499</ele>
        <time>2022-08-24T10:17:56.000Z</time>
      </trkpt>
      <trkpt lat="49.88037" lon="6.95115">
        <ele>127.108915</ele>
        <time>2022-08-24T10:17:57.000Z</time>
      </trkpt>
      <trkpt lat="49.88047" lon="6.95115">
        <ele>127.201399</ele>
        <time>2022-08-24T10:17:59.000Z</time>
      </trkpt>
      <trkpt lat="49.88076" lon="6.95116">
        <ele>127.443609</ele>
        <time>2022-08-24T10:18:05.000Z</time>
      </trkpt>
      <trkpt lat="49.88079" lon="6.95116">
        <ele>127.474595</ele>
        <time>2022-08-24T10:18:06.000Z</time>
      </trkpt>
      <trkpt lat="49.88101" lon="6.95119">
        <ele>127.662479</ele>
        <time>2022-08-24T10:18:11.000Z</time>
      </trkpt>
      <trkpt lat="49.88117" lon="6.95123">
        <ele>127.799307</ele>
        <time>2022-08-24T10:18:15.000Z</time>
      </trkpt>
      <trkpt lat="49.88121" lon="6.95124">
        <ele>127.835958</ele>
        <time>2022-08-24T10:18:16.000Z</time>
      </trkpt>
      <trkpt lat="49.88126" lon="6.95126">
        <ele>127.879762</ele>
        <time>2022-08-24T10:18:17.000Z</time>
      </trkpt>
      <trkpt lat="49.88142" lon="6.95125">
        <ele>128.010754</ele>
        <time>2022-08-24T10:18:21.000Z</time>
      </trkpt>
      <trkpt lat="49.88154" lon="6.95123">
        <ele>128.117387</ele>
        <time>2022-08-24T10:18:24.000Z</time>
      </trkpt>
      <trkpt lat="49.88162" lon="6.95124">
        <ele>128.186883</ele>
        <time>2022-08-24T10:18:26.000Z</time>
      </trkpt>
      <trkpt lat="49.88166" lon="6.95125">
        <ele>128.218181</ele>
        <time>2022-08-24T10:18:27.000Z</time>
      </trkpt>
      <trkpt lat="49.88198" lon="6.95145">
        <ele>128.515586</ele>
        <time>2022-08-24T10:18:34.000Z</time>
      </trkpt>
      <trkpt lat="49.88231" lon="6.9517">
        <ele>128.268039</ele>
        <time>2022-08-24T10:18:41.000Z</time>
      </trkpt>
      <trkpt lat="49.88235" lon="6.95173">
        <ele>128.213819</ele>
        <time>2022-08-24T10:18:42.000Z</time>
      </trkpt>
      <trkpt lat="49.8824" lon="6.95176">
        <ele>128.156253</ele>
        <time>2022-08-24T10:18:43.000Z</time>
      </trkpt>
      <trkpt lat="49.8825" lon="6.95184">
        <ele>128.016586</ele>
        <time>2022-08-24T10:18:46.000Z</time>
      </trkpt>
      <trkpt lat="49.88266" lon="6.9519">
        <ele>127.829363</ele>
        <time>2022-08-24T10:18:50.000Z</time>
      </trkpt>
      <trkpt lat="49.88268" lon="6.95189">
        <ele>127.796887</ele>
        <time>2022-08-24T10:18:51.000Z</time>
      </trkpt>
      <trkpt lat="49.88272" lon="6.95182">
        <ele>127.724852</ele>
        <time>2022-08-24T10:18:53.000Z</time>
      </trkpt>
      <trkpt lat="49.88273" lon="6.95176">
        <ele>127.681814</ele>
        <time>2022-08-24T10:18:54.000Z</time>
      </trkpt>
      <trkpt lat="49.88275" lon="6.95155">
        <ele>127.515338</ele>
        <time>2022-08-24T10:18:57.000Z</time>
      </trkpt>
      <trkpt lat="49.88277" lon="6.95139">
        <ele>127.391537</ele>
        <time>2022-08-24T10:18:59.000Z</time>
      </trkpt>
      <trkpt lat="49.88279" lon="6.95122">
        <ele>127.264683</ele>
        <time>2022-08-24T10:19:01.000Z</time>
      </trkpt>
      <trkpt lat="49.8828" lon="6.95114">
        <ele>127.201136</ele>
        <time>2022-08-24T10:19:02.000Z</time>
      </trkpt>
      <trkpt lat="49.88286" lon="6.95088">
        <ele>126.986513</ele>
        <time>2022-08-24T10:19:05.000Z</time>
      </trkpt>
      <trkpt lat="49.88289" lon="6.95078">
        <ele>126.904858</ele>
        <time>2022-08-24T10:19:06.000Z</time>
      </trkpt>
      <trkpt lat="49.88299" lon="6.95029">
        <ele>126.515027</ele>
        <time>2022-08-24T10:19:11.000Z</time>
      </trkpt>
      <trkpt lat="49.883" lon="6.95022">
        <ele>126.45004</ele>
        <time>2022-08-24T10:19:12.000Z</time>
      </trkpt>
      <trkpt lat="49.88307" lon="6.94988">
        <ele>125.542051</ele>
        <time>2022-08-24T10:19:16.000Z</time>
      </trkpt>
      <trkpt lat="49.88313" lon="6.94959">
        <ele>124.755537</ele>
        <time>2022-08-24T10:19:19.000Z</time>
      </trkpt>
      <trkpt lat="49.88318" lon="6.94936">
        <ele>124.15632</ele>
        <time>2022-08-24T10:19:21.000Z</time>
      </trkpt>
      <trkpt lat="49.88322" lon="6.94913">
        <ele>123.5529</ele>
        <time>2022-08-24T10:19:23.000Z</time>
      </trkpt>
      <trkpt lat="49.88326" lon="6.94892">
        <ele>123.000915</ele>
        <time>2022-08-24T10:19:25.000Z</time>
      </trkpt>
      <trkpt lat="49.88329" lon="6.94883">
        <ele>122.741167</ele>
        <time>2022-08-24T10:19:26.000Z</time>
      </trkpt>
      <trkpt lat="49.88333" lon="6.94875">
        <ele>122.47449</ele>
        <time>2022-08-24T10:19:27.000Z</time>
      </trkpt>
      <trkpt lat="49.88338" lon="6.94867">
        <ele>122.20179</ele>
        <time>2022-08-24T10:19:28.000Z</time>
      </trkpt>
      <trkpt lat="49.88349" lon="6.94854">
        <ele>121.670278</ele>
        <time>2022-08-24T10:19:30.000Z</time>
      </trkpt>
      <trkpt lat="49.88372" lon="6.9483">
        <ele>120.590377</ele>
        <time>2022-08-24T10:19:34.000Z</time>
      </trkpt>
      <trkpt lat="49.88378" lon="6.94827">
        <ele>120.327961</ele>
        <time>2022-08-24T10:19:35.000Z</time>
      </trkpt>
      <trkpt lat="49.88385" lon="6.94825">
        <ele>120.046956</ele>
        <time>2022-08-24T10:19:36.000Z</time>
      </trkpt>
      <trkpt lat="49.88392" lon="6.94826">
        <ele>119.771871</ele>
        <time>2022-08-24T10:19:37.000Z</time>
      </trkpt>
      <trkpt lat="49.8845" lon="6.94842">
        <ele>119.255318</ele>
        <time>2022-08-24T10:19:46.000Z</time>
      </trkpt>
      <trkpt lat="49.88471" lon="6.94846">
        <ele>119.18801</ele>
        <time>2022-08-24T10:19:49.000Z</time>
      </trkpt>
      <trkpt lat="49.88495" lon="6.94851">
        <ele>119.108078</ele>
        <time>2022-08-24T10:19:53.000Z</time>
      </trkpt>
      <trkpt lat="49.88531" lon="6.94858">
        <ele>118.992108</ele>
        <time>2022-08-24T10:19:59.000Z</time>
      </trkpt>
      <trkpt lat="49.88542" lon="6.9486">
        <ele>118.955499</ele>
        <time>2022-08-24T10:20:01.000Z</time>
      </trkpt>
      <trkpt lat="49.88586" lon="6.94867">
        <ele>118.836993</ele>
        <time>2022-08-24T10:20:09.000Z</time>
      </trkpt>
      <trkpt lat="49.88609" lon="6.94872">
        <ele>118.840248</ele>
        <time>2022-08-24T10:20:13.000Z</time>
      </trkpt>
      <trkpt lat="49.8863" lon="6.94875">
        <ele>118.843257</ele>
        <time>2022-08-24T10:20:17.000Z</time>
      </trkpt>
      <trkpt lat="49.8867" lon="6.94882">
        <ele>118.848743</ele>
        <time>2022-08-24T10:20:25.000Z</time>
      </trkpt>
      <trkpt lat="49.88708" lon="6.94887">
        <ele>118.854116</ele>
        <time>2022-08-24T10:20:33.000Z</time>
      </trkpt>
      <trkpt lat="49.88713" lon="6.94888">
        <ele>118.854788</ele>
        <time>2022-08-24T10:20:34.000Z</time>
      </trkpt>
      <trkpt lat="49.88755" lon="6.94894">
        <ele>118.860681</ele>
        <time>2022-08-24T10:20:43.000Z</time>
      </trkpt>
      <trkpt lat="49.88811" lon="6.94901">
        <ele>118.693221</ele>
        <time>2022-08-24T10:20:55.000Z</time>
      </trkpt>
      <trkpt lat="49.88815" lon="6.94902">
        <ele>118.678878</ele>
        <time>2022-08-24T10:20:56.000Z</time>
      </trkpt>
      <trkpt lat="49.88839" lon="6.94905">
        <ele>118.604573</ele>
        <time>2022-08-24T10:21:01.000Z</time>
      </trkpt>
      <trkpt lat="49.88872" lon="6.94908">
        <ele>118.500447</ele>
        <time>2022-08-24T10:21:08.000Z</time>
      </trkpt>
      <trkpt lat="49.88906" lon="6.94913">
        <ele>118.391626</ele>
        <time>2022-08-24T10:21:15.000Z</time>
      </trkpt>
      <trkpt lat="49.88932" lon="6.9492">
        <ele>118.308166</ele>
        <time>2022-08-24T10:21:20.000Z</time>
      </trkpt>
      <trkpt lat="49.88941" lon="6.94923">
        <ele>118.274826</ele>
        <time>2022-08-24T10:21:22.000Z</time>
      </trkpt>
      <trkpt lat="49.88967" lon="6.9493">
        <ele>118.1824</ele>
        <time>2022-08-24T10:21:27.000Z</time>
      </trkpt>
      <trkpt lat="49.88987" lon="6.94936">
        <ele>118.110155</ele>
        <time>2022-08-24T10:21:31.000Z</time>
      </trkpt>
      <trkpt lat="49.89021" lon="6.9495">
        <ele>117.986033</ele>
        <time>2022-08-24T10:21:38.000Z</time>
      </trkpt>
      <trkpt lat="49.8907" lon="6.94972">
        <ele>117.806673</ele>
        <time>2022-08-24T10:21:48.000Z</time>
      </trkpt>
      <trkpt lat="49.89076" lon="6.94975">
        <ele>117.784064</ele>
        <time>2022-08-24T10:21:49.000Z</time>
      </trkpt>
      <trkpt lat="49.89115" lon="6.94997">
        <ele>117.659006</ele>
        <time>2022-08-24T10:21:57.000Z</time>
      </trkpt>
      <trkpt lat="49.89165" lon="6.9503">
        <ele>117.700939</ele>
        <time>2022-08-24T10:22:08.000Z</time>
      </trkpt>
      <trkpt lat="49.89169" lon="6.95033">
        <ele>117.704999</ele>
        <time>2022-08-24T10:22:09.000Z</time>
      </trkpt>
      <trkpt lat="49.89222" lon="6.95066">
        <ele>117.748822</ele>
        <time>2022-08-24T10:22:20.000Z</time>
      </trkpt>
      <trkpt lat="49.89226" lon="6.95069">
        <ele>117.752212</ele>
        <time>2022-08-24T10:22:21.000Z</time>
      </trkpt>
      <trkpt lat="49.89264" lon="6.95097">
        <ele>117.784833</ele>
        <time>2022-08-24T10:22:30.000Z</time>
      </trkpt>
      <trkpt lat="49.89314" lon="6.95136">
        <ele>117.757472</ele>
        <time>2022-08-24T10:22:41.000Z</time>
      </trkpt>
      <trkpt lat="49.89319" lon="6.95141">
        <ele>117.752516</ele>
        <time>2022-08-24T10:22:42.000Z</time>
      </trkpt>
      <trkpt lat="49.89369" lon="6.95185">
        <ele>117.703085</ele>
        <time>2022-08-24T10:22:52.000Z</time>
      </trkpt>
      <trkpt lat="49.89374" lon="6.9519">
        <ele>117.698049</ele>
        <time>2022-08-24T10:22:53.000Z</time>
      </trkpt>
      <trkpt lat="49.89421" lon="6.9523">
        <ele>117.652174</ele>
        <time>2022-08-24T10:23:03.000Z</time>
      </trkpt>
      <trkpt lat="49.89466" lon="6.9527">
        <ele>117.705132</ele>
        <time>2022-08-24T10:23:13.000Z</time>
      </trkpt>
      <trkpt lat="49.8951" lon="6.95309">
        <ele>117.791037</ele>
        <time>2022-08-24T10:23:23.000Z</time>
      </trkpt>
      <trkpt lat="49.89514" lon="6.95314">
        <ele>117.79916</ele>
        <time>2022-08-24T10:23:24.000Z</time>
      </trkpt>
      <trkpt lat="49.89524" lon="6.95326">
        <ele>117.820274</ele>
        <time>2022-08-24T10:23:27.000Z</time>
      </trkpt>
      <trkpt lat="49.89536" lon="6.95343">
        <ele>117.847265</ele>
        <time>2022-08-24T10:23:31.000Z</time>
      </trkpt>
      <trkpt lat="49.89559" lon="6.95374">
        <ele>117.89931</ele>
        <time>2022-08-24T10:23:39.000Z</time>
      </trkpt>
      <trkpt lat="49.89562" lon="6.95378">
        <ele>117.905907</ele>
        <time>2022-08-24T10:23:40.000Z</time>
      </trkpt>
      <trkpt lat="49.89587" lon="6.95414">
        <ele>117.965391</ele>
        <time>2022-08-24T10:23:48.000Z</time>
      </trkpt>
      <trkpt lat="49.89619" lon="6.95454">
        <ele>118.04038</ele>
        <time>2022-08-24T10:23:57.000Z</time>
      </trkpt>
      <trkpt lat="49.89623" lon="6.9546">
        <ele>118.050638</ele>
        <time>2022-08-24T10:23:58.000Z</time>
      </trkpt>
      <trkpt lat="49.89645" lon="6.95489">
        <ele>118.10428</ele>
        <time>2022-08-24T10:24:04.000Z</time>
      </trkpt>
      <trkpt lat="49.89655" lon="6.95502">
        <ele>118.128405</ele>
        <time>2022-08-24T10:24:07.000Z</time>
      </trkpt>
      <trkpt lat="49.89688" lon="6.95548">
        <ele>118.209207</ele>
        <time>2022-08-24T10:24:16.000Z</time>
      </trkpt>
      <trkpt lat="49.89721" lon="6.95592">
        <ele>118.222052</ele>
        <time>2022-08-24T10:24:26.000Z</time>
      </trkpt>
      <trkpt lat="49.89743" lon="6.95622">
        <ele>118.032375</ele>
        <time>2022-08-24T10:24:33.000Z</time>
      </trkpt>
      <trkpt lat="49.89748" lon="6.95629">
        <ele>117.989377</ele>
        <time>2022-08-24T10:24:35.000Z</time>
      </trkpt>
      <trkpt lat="49.89751" lon="6.95632">
        <ele>117.965658</ele>
        <time>2022-08-24T10:24:36.000Z</time>
      </trkpt>
      <trkpt lat="49.89762" lon="6.95646">
        <ele>117.874804</ele>
        <time>2022-08-24T10:24:40.000Z</time>
      </trkpt>
      <trkpt lat="49.89773" lon="6.95654">
        <ele>117.79426</ele>
        <time>2022-08-24T10:24:43.000Z</time>
      </trkpt>
      <trkpt lat="49.89778" lon="6.95653">
        <ele>117.765545</ele>
        <time>2022-08-24T10:24:44.000Z</time>
      </trkpt>
      <trkpt lat="49.89783" lon="6.95653">
        <ele>117.730674</ele>
        <time>2022-08-24T10:24:45.000Z</time>
      </trkpt>
      <trkpt lat="49.89791" lon="6.95658">
        <ele>117.677803</ele>
        <time>2022-08-24T10:24:47.000Z</time>
      </trkpt>
      <trkpt lat="49.89815" lon="6.95693">
        <ele>117.463737</ele>
        <time>2022-08-24T10:24:54.000Z</time>
      </trkpt>
      <trkpt lat="49.89845" lon="6.95736">
        <ele>117.200838</ele>
        <time>2022-08-24T10:25:03.000Z</time>
      </trkpt>
      <trkpt lat="49.89886" lon="6.95794">
        <ele>117.239046</ele>
        <time>2022-08-24T10:25:15.000Z</time>
      </trkpt>
      <trkpt lat="49.89907" lon="6.95824">
        <ele>117.326207</ele>
        <time>2022-08-24T10:25:21.000Z</time>
      </trkpt>
      <trkpt lat="49.89918" lon="6.95838">
        <ele>117.368804</ele>
        <time>2022-08-24T10:25:24.000Z</time>
      </trkpt>
      <trkpt lat="49.89935" lon="6.95862">
        <ele>117.437564</ele>
        <time>2022-08-24T10:25:29.000Z</time>
      </trkpt>
      <trkpt lat="49.89942" lon="6.95871">
        <ele>117.465217</ele>
        <time>2022-08-24T10:25:31.000Z</time>
      </trkpt>
      <trkpt lat="49.89945" lon="6.95876">
        <ele>117.479883</ele>
        <time>2022-08-24T10:25:32.000Z</time>
      </trkpt>
      <trkpt lat="49.89966" lon="6.95906">
        <ele>117.565273</ele>
        <time>2022-08-24T10:25:38.000Z</time>
      </trkpt>
      <trkpt lat="49.8997" lon="6.95911">
        <ele>117.579746</ele>
        <time>2022-08-24T10:25:39.000Z</time>
      </trkpt>
      <trkpt lat="49.89977" lon="6.9592">
        <ele>117.606918</ele>
        <time>2022-08-24T10:25:41.000Z</time>
      </trkpt>
      <trkpt lat="49.90002" lon="6.95958">
        <ele>117.662039</ele>
        <time>2022-08-24T10:25:49.000Z</time>
      </trkpt>
      <trkpt lat="49.90005" lon="6.95963">
        <ele>117.663499</ele>
        <time>2022-08-24T10:25:50.000Z</time>
      </trkpt>
      <trkpt lat="49.90035" lon="6.96029">
        <ele>117.681974</ele>
        <time>2022-08-24T10:26:01.000Z</time>
      </trkpt>
      <trkpt lat="49.90037" lon="6.96036">
        <ele>117.683676</ele>
        <time>2022-08-24T10:26:02.000Z</time>
      </trkpt>
      <trkpt lat="49.90049" lon="6.96069">
        <ele>117.692305</ele>
        <time>2022-08-24T10:26:07.000Z</time>
      </trkpt>
      <trkpt lat="49.90057" lon="6.96089">
        <ele>117.697654</ele>
        <time>2022-08-24T10:26:10.000Z</time>
      </trkpt>
      <trkpt lat="49.9007" lon="6.96124">
        <ele>117.706839</ele>
        <time>2022-08-24T10:26:15.000Z</time>
      </trkpt>
      <trkpt lat="49.90079" lon="6.96148">
        <ele>117.713266</ele>
        <time>2022-08-24T10:26:18.000Z</time>
      </trkpt>
      <trkpt lat="49.90092" lon="6.96185">
        <ele>117.693285</ele>
        <time>2022-08-24T10:26:22.000Z</time>
      </trkpt>
      <trkpt lat="49.90102" lon="6.96214">
        <ele>117.647091</ele>
        <time>2022-08-24T10:26:25.000Z</time>
      </trkpt>
      <trkpt lat="49.90126" lon="6.96286">
        <ele>117.531689</ele>
        <time>2022-08-24T10:26:33.000Z</time>
      </trkpt>
      <trkpt lat="49.90147" lon="6.96362">
        <ele>117.41339</ele>
        <time>2022-08-24T10:26:42.000Z</time>
      </trkpt>
      <trkpt lat="49.90165" lon="6.96425">
        <ele>117.305902</ele>
        <time>2022-08-24T10:26:50.000Z</time>
      </trkpt>
      <trkpt lat="49.90188" lon="6.96506">
        <ele>117.017913</ele>
        <time>2022-08-24T10:27:00.000Z</time>
      </trkpt>
      <trkpt lat="49.9021" lon="6.96586">
        <ele>116.734609</ele>
        <time>2022-08-24T10:27:10.000Z</time>
      </trkpt>
      <trkpt lat="49.90216" lon="6.96609">
        <ele>116.651165</ele>
        <time>2022-08-24T10:27:13.000Z</time>
      </trkpt>
      <trkpt lat="49.90237" lon="6.96682">
        <ele>116.397905</ele>
        <time>2022-08-24T10:27:22.000Z</time>
      </trkpt>
      <trkpt lat="49.90244" lon="6.96708">
        <ele>116.344086</ele>
        <time>2022-08-24T10:27:25.000Z</time>
      </trkpt>
      <trkpt lat="49.90253" lon="6.96752">
        <ele>116.25315</ele>
        <time>2022-08-24T10:27:30.000Z</time>
      </trkpt>
      <trkpt lat="49.90266" lon="6.96808">
        <ele>116.138561</ele>
        <time>2022-08-24T10:27:37.000Z</time>
      </trkpt>
      <trkpt lat="49.90267" lon="6.96815">
        <ele>116.124481</ele>
        <time>2022-08-24T10:27:38.000Z</time>
      </trkpt>
      <trkpt lat="49.90266" lon="6.96822">
        <ele>116.111266</ele>
        <time>2022-08-24T10:27:39.000Z</time>
      </trkpt>
      <trkpt lat="49.9026" lon="6.96833">
        <ele>116.084413</ele>
        <time>2022-08-24T10:27:41.000Z</time>
      </trkpt>
      <trkpt lat="49.90255" lon="6.96842">
        <ele>116.059151</ele>
        <time>2022-08-24T10:27:43.000Z</time>
      </trkpt>
      <trkpt lat="49.90255" lon="6.96852">
        <ele>116.040524</ele>
        <time>2022-08-24T10:27:45.000Z</time>
      </trkpt>
      <trkpt lat="49.90265" lon="6.96874">
        <ele>115.987679</ele>
        <time>2022-08-24T10:27:50.000Z</time>
      </trkpt>
      <trkpt lat="49.90284" lon="6.96907">
        <ele>115.901665</ele>
        <time>2022-08-24T10:27:56.000Z</time>
      </trkpt>
      <trkpt lat="49.90307" lon="6.96942">
        <ele>115.923447</ele>
        <time>2022-08-24T10:28:02.000Z</time>
      </trkpt>
      <trkpt lat="49.9032" lon="6.96963">
        <ele>115.977016</ele>
        <time>2022-08-24T10:28:05.000Z</time>
      </trkpt>
      <trkpt lat="49.90325" lon="6.9697">
        <ele>115.995063</ele>
        <time>2022-08-24T10:28:06.000Z</time>
      </trkpt>
      <trkpt lat="49.90334" lon="6.96985">
        <ele>116.03352</ele>
        <time>2022-08-24T10:28:08.000Z</time>
      </trkpt>
      <trkpt lat="49.90343" lon="6.97001">
        <ele>116.073013</ele>
        <time>2022-08-24T10:28:10.000Z</time>
      </trkpt>
      <trkpt lat="49.90356" lon="6.97024">
        <ele>116.130037</ele>
        <time>2022-08-24T10:28:13.000Z</time>
      </trkpt>
      <trkpt lat="49.90369" lon="6.97046">
        <ele>116.184812</ele>
        <time>2022-08-24T10:28:16.000Z</time>
      </trkpt>
      <trkpt lat="49.90378" lon="6.97059">
        <ele>116.218624</ele>
        <time>2022-08-24T10:28:18.000Z</time>
      </trkpt>
      <trkpt lat="49.90394" lon="6.97087">
        <ele>116.287964</ele>
        <time>2022-08-24T10:28:23.000Z</time>
      </trkpt>
      <trkpt lat="49.90397" lon="6.97093">
        <ele>116.302948</ele>
        <time>2022-08-24T10:28:24.000Z</time>
      </trkpt>
      <trkpt lat="49.90399" lon="6.97097">
        <ele>116.312463</ele>
        <time>2022-08-24T10:28:25.000Z</time>
      </trkpt>
      <trkpt lat="49.90409" lon="6.97117">
        <ele>116.358226</ele>
        <time>2022-08-24T10:28:29.000Z</time>
      </trkpt>
      <trkpt lat="49.90422" lon="6.97138">
        <ele>116.644812</ele>
        <time>2022-08-24T10:28:34.000Z</time>
      </trkpt>
      <trkpt lat="49.9043" lon="6.97158">
        <ele>117.020125</ele>
        <time>2022-08-24T10:28:38.000Z</time>
      </trkpt>
      <trkpt lat="49.9045" lon="6.97198">
        <ele>117.796682</ele>
        <time>2022-08-24T10:28:46.000Z</time>
      </trkpt>
      <trkpt lat="49.90453" lon="6.97204">
        <ele>117.920552</ele>
        <time>2022-08-24T10:28:47.000Z</time>
      </trkpt>
      <trkpt lat="49.90473" lon="6.97243">
        <ele>118.689996</ele>
        <time>2022-08-24T10:28:54.000Z</time>
      </trkpt>
      <trkpt lat="49.90478" lon="6.97255">
        <ele>118.91828</ele>
        <time>2022-08-24T10:28:56.000Z</time>
      </trkpt>
      <trkpt lat="49.9048" lon="6.97267">
        <ele>119.108418</ele>
        <time>2022-08-24T10:28:58.000Z</time>
      </trkpt>
      <trkpt lat="49.90478" lon="6.97272">
        <ele>119.192576</ele>
        <time>2022-08-24T10:28:59.000Z</time>
      </trkpt>
      <trkpt lat="49.90474" lon="6.97278">
        <ele>119.333322</ele>
        <time>2022-08-24T10:29:01.000Z</time>
      </trkpt>
      <trkpt lat="49.9047" lon="6.97283">
        <ele>119.448835</ele>
        <time>2022-08-24T10:29:03.000Z</time>
      </trkpt>
      <trkpt lat="49.90463" lon="6.97293">
        <ele>119.676222</ele>
        <time>2022-08-24T10:29:07.000Z</time>
      </trkpt>
      <trkpt lat="49.9046" lon="6.97302">
        <ele>119.836375</ele>
        <time>2022-08-24T10:29:10.000Z</time>
      </trkpt>
      <trkpt lat="49.90458" lon="6.97308">
        <ele>119.950187</ele>
        <time>2022-08-24T10:29:12.000Z</time>
      </trkpt>
      <trkpt lat="49.90458" lon="6.97318">
        <ele>120.091317</ele>
        <time>2022-08-24T10:29:15.000Z</time>
      </trkpt>
      <trkpt lat="49.90461" lon="6.97323">
        <ele>120.204216</ele>
        <time>2022-08-24T10:29:17.000Z</time>
      </trkpt>
      <trkpt lat="49.9047" lon="6.97332">
        <ele>120.45528</ele>
        <time>2022-08-24T10:29:24.000Z</time>
      </trkpt>
      <trkpt lat="49.90476" lon="6.97335">
        <ele>120.611253</ele>
        <time>2022-08-24T10:29:51.000Z</time>
      </trkpt>
      <trkpt lat="49.90494" lon="6.9735">
        <ele>120.489526</ele>
        <time>2022-08-24T10:29:55.000Z</time>
      </trkpt>
      <trkpt lat="49.90499" lon="6.97355">
        <ele>120.405164</ele>
        <time>2022-08-24T10:29:56.000Z</time>
      </trkpt>
      <trkpt lat="49.90515" lon="6.97372">
        <ele>120.135438</ele>
        <time>2022-08-24T10:29:59.000Z</time>
      </trkpt>
      <trkpt lat="49.9052" lon="6.97378">
        <ele>120.04729</ele>
        <time>2022-08-24T10:30:00.000Z</time>
      </trkpt>
      <trkpt lat="49.90539" lon="6.97405">
        <ele>119.682173</ele>
        <time>2022-08-24T10:30:04.000Z</time>
      </trkpt>
      <trkpt lat="49.90554" lon="6.97425">
        <ele>119.406064</ele>
        <time>2022-08-24T10:30:07.000Z</time>
      </trkpt>
      <trkpt lat="49.90582" lon="6.9747">
        <ele>118.841832</ele>
        <time>2022-08-24T10:30:13.000Z</time>
      </trkpt>
      <trkpt lat="49.90599" lon="6.97504">
        <ele>118.453679</ele>
        <time>2022-08-24T10:30:17.000Z</time>
      </trkpt>
      <trkpt lat="49.90617" lon="6.97539">
        <ele>118.163325</ele>
        <time>2022-08-24T10:30:21.000Z</time>
      </trkpt>
      <trkpt lat="49.9065" lon="6.97605">
        <ele>117.974498</ele>
        <time>2022-08-24T10:30:29.000Z</time>
      </trkpt>
      <trkpt lat="49.90679" lon="6.97665">
        <ele>117.8017</ele>
        <time>2022-08-24T10:30:37.000Z</time>
      </trkpt>
      <trkpt lat="49.90697" lon="6.97704">
        <ele>117.693964</ele>
        <time>2022-08-24T10:30:43.000Z</time>
      </trkpt>
      <trkpt lat="49.907" lon="6.97712">
        <ele>117.671169</ele>
        <time>2022-08-24T10:30:47.000Z</time>
      </trkpt>
      <trkpt lat="49.90701" lon="6.97712">
        <ele>117.669683</ele>
        <time>2022-08-24T10:30:50.000Z</time>
      </trkpt>
      <trkpt lat="49.90704" lon="6.97718">
        <ele>117.652167</ele>
        <time>2022-08-24T10:30:58.000Z</time>
      </trkpt>
      <trkpt lat="49.9071" lon="6.97733">
        <ele>117.613303</ele>
        <time>2022-08-24T10:31:02.000Z</time>
      </trkpt>
      <trkpt lat="49.90711" lon="6.97737">
        <ele>117.601923</ele>
        <time>2022-08-24T10:31:03.000Z</time>
      </trkpt>
      <trkpt lat="49.9072" lon="6.97758">
        <ele>117.52937</ele>
        <time>2022-08-24T10:31:07.000Z</time>
      </trkpt>
      <trkpt lat="49.90729" lon="6.97776">
        <ele>117.440231</ele>
        <time>2022-08-24T10:31:10.000Z</time>
      </trkpt>
      <trkpt lat="49.90745" lon="6.97817">
        <ele>117.24613</ele>
        <time>2022-08-24T10:31:16.000Z</time>
      </trkpt>
      <trkpt lat="49.9075" lon="6.97831">
        <ele>117.180559</ele>
        <time>2022-08-24T10:31:18.000Z</time>
      </trkpt>
      <trkpt lat="49.90764" lon="6.97873">
        <ele>116.994209</ele>
        <time>2022-08-24T10:31:24.000Z</time>
      </trkpt>
      <trkpt lat="49.9077" lon="6.97892">
        <ele>116.907951</ele>
        <time>2022-08-24T10:31:27.000Z</time>
      </trkpt>
      <trkpt lat="49.90786" lon="6.97947">
        <ele>116.667366</ele>
        <time>2022-08-24T10:31:35.000Z</time>
      </trkpt>
      <trkpt lat="49.90788" lon="6.97956">
        <ele>116.629063</ele>
        <time>2022-08-24T10:31:36.000Z</time>
      </trkpt>
      <trkpt lat="49.9079" lon="6.97963">
        <ele>116.598107</ele>
        <time>2022-08-24T10:31:37.000Z</time>
      </trkpt>
      <trkpt lat="49.90801" lon="6.98008">
        <ele>116.460178</ele>
        <time>2022-08-24T10:31:43.000Z</time>
      </trkpt>
      <trkpt lat="49.90807" lon="6.9803">
        <ele>116.497535</ele>
        <time>2022-08-24T10:31:46.000Z</time>
      </trkpt>
      <trkpt lat="49.90811" lon="6.98053">
        <ele>116.535476</ele>
        <time>2022-08-24T10:31:49.000Z</time>
      </trkpt>
      <trkpt lat="49.90812" lon="6.98061">
        <ele>116.54788</ele>
        <time>2022-08-24T10:31:50.000Z</time>
      </trkpt>
      <trkpt lat="49.90821" lon="6.98112">
        <ele>116.631405</ele>
        <time>2022-08-24T10:31:57.000Z</time>
      </trkpt>
      <trkpt lat="49.90832" lon="6.98167">
        <ele>116.721106</ele>
        <time>2022-08-24T10:32:05.000Z</time>
      </trkpt>
      <trkpt lat="49.90841" lon="6.98209">
        <ele>116.7895</ele>
        <time>2022-08-24T10:32:12.000Z</time>
      </trkpt>
      <trkpt lat="49.9085" lon="6.98251">
        <ele>116.859853</ele>
        <time>2022-08-24T10:32:19.000Z</time>
      </trkpt>
      <trkpt lat="49.90856" lon="6.98274">
        <ele>116.886254</ele>
        <time>2022-08-24T10:32:23.000Z</time>
      </trkpt>
      <trkpt lat="49.9086" lon="6.98289">
        <ele>116.892534</ele>
        <time>2022-08-24T10:32:26.000Z</time>
      </trkpt>
      <trkpt lat="49.90859" lon="6.98303">
        <ele>116.898087</ele>
        <time>2022-08-24T10:32:30.000Z</time>
      </trkpt>
      <trkpt lat="49.90853" lon="6.98307">
        <ele>116.902322</ele>
        <time>2022-08-24T10:32:35.000Z</time>
      </trkpt>
      <trkpt lat="49.90849" lon="6.98311">
        <ele>116.905236</ele>
        <time>2022-08-24T10:32:40.000Z</time>
      </trkpt>
      <trkpt lat="49.90848" lon="6.98311">
        <ele>116.905492</ele>
        <time>2022-08-24T10:32:41.000Z</time>
      </trkpt>
      <trkpt lat="49.90848" lon="6.98311">
        <ele>116.905806</ele>
        <time>2022-08-24T10:32:52.000Z</time>
      </trkpt>
      <trkpt lat="49.90848" lon="6.9831">
        <ele>116.906081</ele>
        <time>2022-08-24T10:33:25.000Z</time>
      </trkpt>
      <trkpt lat="49.90848" lon="6.9831">
        <ele>116.906142</ele>
        <time>2022-08-24T10:33:29.000Z</time>
      </trkpt>
      <trkpt lat="49.90848" lon="6.9831">
        <ele>116.906142</ele>
        <time>2022-08-24T10:33:35.000Z</time>
      </trkpt>
      <trkpt lat="49.90846" lon="6.98313">
        <ele>116.907972</ele>
        <time>2022-08-24T10:33:39.000Z</time>
      </trkpt>
      <trkpt lat="49.90842" lon="6.98317">
        <ele>116.910936</ele>
        <time>2022-08-24T10:33:48.000Z</time>
      </trkpt>
      <trkpt lat="49.90839" lon="6.98319">
        <ele>116.912491</ele>
        <time>2022-08-24T10:33:53.000Z</time>
      </trkpt>
      <trkpt lat="49.90838" lon="6.98319">
        <ele>116.913166</ele>
        <time>2022-08-24T10:33:59.000Z</time>
      </trkpt>
      <trkpt lat="49.90838" lon="6.98319">
        <ele>116.913265</ele>
        <time>2022-08-24T10:34:00.000Z</time>
      </trkpt>
      <trkpt lat="49.90838" lon="6.98319">
        <ele>116.913555</ele>
        <time>2022-08-24T10:34:02.000Z</time>
      </trkpt>
      <trkpt lat="49.90838" lon="6.98319">
        <ele>116.913628</ele>
        <time>2022-08-24T10:34:03.000Z</time>
      </trkpt>
      <trkpt lat="49.90837" lon="6.98321">
        <ele>116.914229</ele>
        <time>2022-08-24T10:34:26.000Z</time>
      </trkpt>
      <trkpt lat="49.90839" lon="6.9832">
        <ele>116.915489</ele>
        <time>2022-08-24T10:34:44.000Z</time>
      </trkpt>
      <trkpt lat="49.9084" lon="6.9833">
        <ele>116.91957</ele>
        <time>2022-08-24T10:36:43.000Z</time>
      </trkpt>
      <trkpt lat="49.90839" lon="6.98327">
        <ele>116.921103</ele>
        <time>2022-08-24T10:36:50.000Z</time>
      </trkpt>
      <trkpt lat="49.90847" lon="6.9832">
        <ele>116.926302</ele>
        <time>2022-08-24T10:36:57.000Z</time>
      </trkpt>
      <trkpt lat="49.9085" lon="6.98317">
        <ele>116.928375</ele>
        <time>2022-08-24T10:37:00.000Z</time>
      </trkpt>
      <trkpt lat="49.90854" lon="6.98313">
        <ele>116.931389</ele>
        <time>2022-08-24T10:37:02.000Z</time>
      </trkpt>
      <trkpt lat="49.90861" lon="6.9831">
        <ele>116.936025</ele>
        <time>2022-08-24T10:37:05.000Z</time>
      </trkpt>
      <trkpt lat="49.90864" lon="6.98316">
        <ele>116.938907</ele>
        <time>2022-08-24T10:37:07.000Z</time>
      </trkpt>
      <trkpt lat="49.90866" lon="6.98325">
        <ele>116.94272</ele>
        <time>2022-08-24T10:37:09.000Z</time>
      </trkpt>
      <trkpt lat="49.90869" lon="6.98338">
        <ele>116.948369</ele>
        <time>2022-08-24T10:37:12.000Z</time>
      </trkpt>
      <trkpt lat="49.90875" lon="6.98359">
        <ele>116.957197</ele>
        <time>2022-08-24T10:37:17.000Z</time>
      </trkpt>
      <trkpt lat="49.90879" lon="6.98374">
        <ele>116.963496</ele>
        <time>2022-08-24T10:37:20.000Z</time>
      </trkpt>
      <trkpt lat="49.90888" lon="6.98412">
        <ele>116.979532</ele>
        <time>2022-08-24T10:37:27.000Z</time>
      </trkpt>
      <trkpt lat="49.90899" lon="6.98449">
        <ele>116.997032</ele>
        <time>2022-08-24T10:37:33.000Z</time>
      </trkpt>
      <trkpt lat="49.90907" lon="6.98473">
        <ele>117.012182</ele>
        <time>2022-08-24T10:37:37.000Z</time>
      </trkpt>
      <trkpt lat="49.90911" lon="6.98484">
        <ele>117.019334</ele>
        <time>2022-08-24T10:37:39.000Z</time>
      </trkpt>
      <trkpt lat="49.90913" lon="6.98489">
        <ele>117.022978</ele>
        <time>2022-08-24T10:37:40.000Z</time>
      </trkpt>
      <trkpt lat="49.90926" lon="6.98532">
        <ele>117.050223</ele>
        <time>2022-08-24T10:37:47.000Z</time>
      </trkpt>
      <trkpt lat="49.90935" lon="6.98567">
        <ele>117.071646</ele>
        <time>2022-08-24T10:37:52.000Z</time>
      </trkpt>
      <trkpt lat="49.90938" lon="6.98575">
        <ele>117.076937</ele>
        <time>2022-08-24T10:37:53.000Z</time>
      </trkpt>
      <trkpt lat="49.90953" lon="6.9863">
        <ele>117.110608</ele>
        <time>2022-08-24T10:38:01.000Z</time>
      </trkpt>
      <trkpt lat="49.90963" lon="6.98676">
        <ele>117.138554</ele>
        <time>2022-08-24T10:38:08.000Z</time>
      </trkpt>
      <trkpt lat="49.90968" lon="6.98697">
        <ele>117.151843</ele>
        <time>2022-08-24T10:38:11.000Z</time>
      </trkpt>
      <trkpt lat="49.90971" lon="6.98712">
        <ele>117.176528</ele>
        <time>2022-08-24T10:38:13.000Z</time>
      </trkpt>
      <trkpt lat="49.90978" lon="6.98741">
        <ele>117.226995</ele>
        <time>2022-08-24T10:38:17.000Z</time>
      </trkpt>
      <trkpt lat="49.90983" lon="6.9877">
        <ele>117.275979</ele>
        <time>2022-08-24T10:38:21.000Z</time>
      </trkpt>
      <trkpt lat="49.90996" lon="6.98835">
        <ele>117.385969</ele>
        <time>2022-08-24T10:38:30.000Z</time>
      </trkpt>
      <trkpt lat="49.91" lon="6.98857">
        <ele>117.424368</ele>
        <time>2022-08-24T10:38:33.000Z</time>
      </trkpt>
      <trkpt lat="49.91004" lon="6.98881">
        <ele>117.464383</ele>
        <time>2022-08-24T10:38:36.000Z</time>
      </trkpt>
      <trkpt lat="49.91011" lon="6.98934">
        <ele>117.551918</ele>
        <time>2022-08-24T10:38:43.000Z</time>
      </trkpt>
      <trkpt lat="49.91013" lon="6.98948">
        <ele>117.575719</ele>
        <time>2022-08-24T10:38:45.000Z</time>
      </trkpt>
      <trkpt lat="49.9102" lon="6.98976">
        <ele>117.616479</ele>
        <time>2022-08-24T10:38:49.000Z</time>
      </trkpt>
      <trkpt lat="49.91022" lon="6.98983">
        <ele>117.623856</ele>
        <time>2022-08-24T10:38:50.000Z</time>
      </trkpt>
      <trkpt lat="49.91028" lon="6.99012">
        <ele>117.652241</ele>
        <time>2022-08-24T10:38:54.000Z</time>
      </trkpt>
      <trkpt lat="49.91034" lon="6.99043">
        <ele>117.682111</ele>
        <time>2022-08-24T10:38:58.000Z</time>
      </trkpt>
      <trkpt lat="49.91039" lon="6.99072">
        <ele>117.709937</ele>
        <time>2022-08-24T10:39:02.000Z</time>
      </trkpt>
      <trkpt lat="49.91048" lon="6.99115">
        <ele>117.752446</ele>
        <time>2022-08-24T10:39:08.000Z</time>
      </trkpt>
      <trkpt lat="49.91056" lon="6.99154">
        <ele>117.790603</ele>
        <time>2022-08-24T10:39:13.000Z</time>
      </trkpt>
      <trkpt lat="49.91067" lon="6.99198">
        <ele>117.83502</ele>
        <time>2022-08-24T10:39:19.000Z</time>
      </trkpt>
      <trkpt lat="49.91085" lon="6.99252">
        <ele>117.820006</ele>
        <time>2022-08-24T10:39:27.000Z</time>
      </trkpt>
      <trkpt lat="49.91101" lon="6.99304">
        <ele>117.722743</ele>
        <time>2022-08-24T10:39:34.000Z</time>
      </trkpt>
      <trkpt lat="49.91113" lon="6.99355">
        <ele>117.633197</ele>
        <time>2022-08-24T10:39:40.000Z</time>
      </trkpt>
      <trkpt lat="49.91126" lon="6.99403">
        <ele>117.547569</ele>
        <time>2022-08-24T10:39:46.000Z</time>
      </trkpt>
      <trkpt lat="49.91127" lon="6.99411">
        <ele>117.532683</ele>
        <time>2022-08-24T10:39:47.000Z</time>
      </trkpt>
      <trkpt lat="49.91129" lon="6.9942">
        <ele>117.518199</ele>
        <time>2022-08-24T10:39:48.000Z</time>
      </trkpt>
      <trkpt lat="49.91139" lon="6.9948">
        <ele>117.414254</ele>
        <time>2022-08-24T10:39:55.000Z</time>
      </trkpt>
      <trkpt lat="49.91152" lon="6.99539">
        <ele>117.410197</ele>
        <time>2022-08-24T10:40:02.000Z</time>
      </trkpt>
      <trkpt lat="49.91157" lon="6.99564">
        <ele>117.414494</ele>
        <time>2022-08-24T10:40:05.000Z</time>
      </trkpt>
      <trkpt lat="49.91171" lon="6.99633">
        <ele>117.426721</ele>
        <time>2022-08-24T10:40:14.000Z</time>
      </trkpt>
      <trkpt lat="49.9118" lon="6.99681">
        <ele>117.435181</ele>
        <time>2022-08-24T10:40:20.000Z</time>
      </trkpt>
      <trkpt lat="49.91186" lon="6.99724">
        <ele>117.44247</ele>
        <time>2022-08-24T10:40:25.000Z</time>
      </trkpt>
      <trkpt lat="49.91199" lon="6.99806">
        <ele>117.392995</ele>
        <time>2022-08-24T10:40:35.000Z</time>
      </trkpt>
      <trkpt lat="49.91207" lon="6.99855">
        <ele>117.339966</ele>
        <time>2022-08-24T10:40:41.000Z</time>
      </trkpt>
      <trkpt lat="49.9122" lon="6.99938">
        <ele>117.249415</ele>
        <time>2022-08-24T10:40:51.000Z</time>
      </trkpt>
      <trkpt lat="49.91234" lon="7.00017">
        <ele>117.163789</ele>
        <time>2022-08-24T10:41:00.000Z</time>
      </trkpt>
      <trkpt lat="49.91246" lon="7.00093">
        <ele>117.551139</ele>
        <time>2022-08-24T10:41:09.000Z</time>
      </trkpt>
      <trkpt lat="49.91243" lon="7.00105">
        <ele>117.622202</ele>
        <time>2022-08-24T10:41:11.000Z</time>
      </trkpt>
      <trkpt lat="49.9124" lon="7.00109">
        <ele>117.657237</ele>
        <time>2022-08-24T10:41:12.000Z</time>
      </trkpt>
      <trkpt lat="49.91236" lon="7.00111">
        <ele>117.6927</ele>
        <time>2022-08-24T10:41:13.000Z</time>
      </trkpt>
      <trkpt lat="49.91224" lon="7.00118">
        <ele>117.808894</ele>
        <time>2022-08-24T10:41:16.000Z</time>
      </trkpt>
      <trkpt lat="49.9122" lon="7.00129">
        <ele>117.881619</ele>
        <time>2022-08-24T10:41:18.000Z</time>
      </trkpt>
      <trkpt lat="49.91219" lon="7.00135">
        <ele>117.918469</ele>
        <time>2022-08-24T10:41:19.000Z</time>
      </trkpt>
      <trkpt lat="49.91215" lon="7.00194">
        <ele>118.258638</ele>
        <time>2022-08-24T10:41:28.000Z</time>
      </trkpt>
      <trkpt lat="49.9121" lon="7.00206">
        <ele>118.33787</ele>
        <time>2022-08-24T10:41:30.000Z</time>
      </trkpt>
      <trkpt lat="49.91207" lon="7.00208">
        <ele>118.367701</ele>
        <time>2022-08-24T10:41:31.000Z</time>
      </trkpt>
      <trkpt lat="49.91199" lon="7.0021">
        <ele>118.442187</ele>
        <time>2022-08-24T10:41:34.000Z</time>
      </trkpt>
      <trkpt lat="49.91198" lon="7.00213">
        <ele>118.464032</ele>
        <time>2022-08-24T10:41:35.000Z</time>
      </trkpt>
      <trkpt lat="49.91195" lon="7.00248">
        <ele>118.667218</ele>
        <time>2022-08-24T10:41:42.000Z</time>
      </trkpt>
      <trkpt lat="49.91197" lon="7.00291">
        <ele>118.836308</ele>
        <time>2022-08-24T10:41:49.000Z</time>
      </trkpt>
      <trkpt lat="49.91204" lon="7.00335">
        <ele>118.962706</ele>
        <time>2022-08-24T10:41:56.000Z</time>
      </trkpt>
      <trkpt lat="49.91206" lon="7.00348">
        <ele>119.000134</ele>
        <time>2022-08-24T10:41:58.000Z</time>
      </trkpt>
      <trkpt lat="49.91225" lon="7.00407">
        <ele>119.182889</ele>
        <time>2022-08-24T10:42:08.000Z</time>
      </trkpt>
      <trkpt lat="49.91241" lon="7.00455">
        <ele>119.333321</ele>
        <time>2022-08-24T10:42:16.000Z</time>
      </trkpt>
      <trkpt lat="49.91258" lon="7.00507">
        <ele>119.495042</ele>
        <time>2022-08-24T10:42:24.000Z</time>
      </trkpt>
      <trkpt lat="49.9126" lon="7.00512">
        <ele>119.511992</ele>
        <time>2022-08-24T10:42:25.000Z</time>
      </trkpt>
      <trkpt lat="49.91285" lon="7.00588">
        <ele>119.457032</ele>
        <time>2022-08-24T10:42:36.000Z</time>
      </trkpt>
      <trkpt lat="49.91307" lon="7.00657">
        <ele>119.374793</ele>
        <time>2022-08-24T10:42:47.000Z</time>
      </trkpt>
      <trkpt lat="49.91327" lon="7.00731">
        <ele>119.287274</ele>
        <time>2022-08-24T10:42:59.000Z</time>
      </trkpt>
      <trkpt lat="49.9134" lon="7.00791">
        <ele>119.192205</ele>
        <time>2022-08-24T10:43:09.000Z</time>
      </trkpt>
      <trkpt lat="49.91352" lon="7.0085">
        <ele>119.032656</ele>
        <time>2022-08-24T10:43:19.000Z</time>
      </trkpt>
      <trkpt lat="49.91358" lon="7.00884">
        <ele>118.939142</ele>
        <time>2022-08-24T10:43:25.000Z</time>
      </trkpt>
      <trkpt lat="49.91368" lon="7.00949">
        <ele>118.767324</ele>
        <time>2022-08-24T10:43:35.000Z</time>
      </trkpt>
      <trkpt lat="49.91369" lon="7.00955">
        <ele>118.750545</ele>
        <time>2022-08-24T10:43:36.000Z</time>
      </trkpt>
      <trkpt lat="49.91369" lon="7.00961">
        <ele>118.736026</ele>
        <time>2022-08-24T10:43:37.000Z</time>
      </trkpt>
      <trkpt lat="49.91373" lon="7.01009">
        <ele>118.608183</ele>
        <time>2022-08-24T10:43:44.000Z</time>
      </trkpt>
      <trkpt lat="49.9138" lon="7.01072">
        <ele>118.207777</ele>
        <time>2022-08-24T10:43:53.000Z</time>
      </trkpt>
      <trkpt lat="49.9138" lon="7.01077">
        <ele>118.145242</ele>
        <time>2022-08-24T10:43:54.000Z</time>
      </trkpt>
      <trkpt lat="49.91385" lon="7.01127">
        <ele>117.565735</ele>
        <time>2022-08-24T10:44:01.000Z</time>
      </trkpt>
      <trkpt lat="49.91388" lon="7.01175">
        <ele>116.995781</ele>
        <time>2022-08-24T10:44:09.000Z</time>
      </trkpt>
      <trkpt lat="49.91389" lon="7.01182">
        <ele>116.911634</ele>
        <time>2022-08-24T10:44:10.000Z</time>
      </trkpt>
      <trkpt lat="49.91392" lon="7.01213">
        <ele>116.548284</ele>
        <time>2022-08-24T10:44:16.000Z</time>
      </trkpt>
      <trkpt lat="49.91399" lon="7.0122">
        <ele>116.397297</ele>
        <time>2022-08-24T10:44:19.000Z</time>
      </trkpt>
      <trkpt lat="49.91421" lon="7.01221">
        <ele>116.003676</ele>
        <time>2022-08-24T10:44:25.000Z</time>
      </trkpt>
      <trkpt lat="49.91424" lon="7.0122">
        <ele>115.94176</ele>
        <time>2022-08-24T10:44:26.000Z</time>
      </trkpt>
      <trkpt lat="49.91437" lon="7.01219">
        <ele>115.696466</ele>
        <time>2022-08-24T10:44:29.000Z</time>
      </trkpt>
      <trkpt lat="49.91442" lon="7.01218">
        <ele>115.61435</ele>
        <time>2022-08-24T10:44:30.000Z</time>
      </trkpt>
      <trkpt lat="49.91447" lon="7.01217">
        <ele>115.525324</ele>
        <time>2022-08-24T10:44:31.000Z</time>
      </trkpt>
      <trkpt lat="49.91454" lon="7.0122">
        <ele>115.39762</ele>
        <time>2022-08-24T10:44:33.000Z</time>
      </trkpt>
      <trkpt lat="49.91457" lon="7.01223">
        <ele>115.327443</ele>
        <time>2022-08-24T10:44:34.000Z</time>
      </trkpt>
      <trkpt lat="49.91459" lon="7.01229">
        <ele>115.256628</ele>
        <time>2022-08-24T10:44:35.000Z</time>
      </trkpt>
      <trkpt lat="49.9146" lon="7.01236">
        <ele>115.206825</ele>
        <time>2022-08-24T10:44:36.000Z</time>
      </trkpt>
      <trkpt lat="49.91461" lon="7.01244">
        <ele>115.162177</ele>
        <time>2022-08-24T10:44:37.000Z</time>
      </trkpt>
      <trkpt lat="49.91465" lon="7.01299">
        <ele>114.848644</ele>
        <time>2022-08-24T10:44:44.000Z</time>
      </trkpt>
      <trkpt lat="49.91469" lon="7.01387">
        <ele>114.341921</ele>
        <time>2022-08-24T10:44:55.000Z</time>
      </trkpt>
      <trkpt lat="49.91472" lon="7.01471">
        <ele>113.864008</ele>
        <time>2022-08-24T10:45:05.000Z</time>
      </trkpt>
      <trkpt lat="49.91472" lon="7.01479">
        <ele>113.818407</ele>
        <time>2022-08-24T10:45:06.000Z</time>
      </trkpt>
      <trkpt lat="49.91472" lon="7.01495">
        <ele>113.727773</ele>
        <time>2022-08-24T10:45:08.000Z</time>
      </trkpt>
      <trkpt lat="49.9147" lon="7.01519">
        <ele>113.833283</ele>
        <time>2022-08-24T10:45:11.000Z</time>
      </trkpt>
      <trkpt lat="49.91469" lon="7.01527">
        <ele>113.955897</ele>
        <time>2022-08-24T10:45:12.000Z</time>
      </trkpt>
      <trkpt lat="49.91464" lon="7.0158">
        <ele>114.759126</ele>
        <time>2022-08-24T10:45:19.000Z</time>
      </trkpt>
      <trkpt lat="49.91463" lon="7.01594">
        <ele>114.970376</ele>
        <time>2022-08-24T10:45:21.000Z</time>
      </trkpt>
      <trkpt lat="49.91458" lon="7.01602">
        <ele>115.134157</ele>
        <time>2022-08-24T10:45:23.000Z</time>
      </trkpt>
      <trkpt lat="49.91457" lon="7.01603">
        <ele>115.170213</ele>
        <time>2022-08-24T10:45:24.000Z</time>
      </trkpt>
      <trkpt lat="49.91454" lon="7.01604">
        <ele>115.220544</ele>
        <time>2022-08-24T10:45:25.000Z</time>
      </trkpt>
      <trkpt lat="49.91453" lon="7.01604">
        <ele>115.249465</ele>
        <time>2022-08-24T10:45:26.000Z</time>
      </trkpt>
      <trkpt lat="49.9145" lon="7.01603">
        <ele>115.323484</ele>
        <time>2022-08-24T10:45:30.000Z</time>
      </trkpt>
      <trkpt lat="49.91445" lon="7.01602">
        <ele>115.440486</ele>
        <time>2022-08-24T10:45:34.000Z</time>
      </trkpt>
      <trkpt lat="49.91439" lon="7.01601">
        <ele>115.576166</ele>
        <time>2022-08-24T10:45:38.000Z</time>
      </trkpt>
      <trkpt lat="49.91438" lon="7.01601">
        <ele>115.597956</ele>
        <time>2022-08-24T10:45:39.000Z</time>
      </trkpt>
      <trkpt lat="49.91434" lon="7.01601">
        <ele>115.702746</ele>
        <time>2022-08-24T10:45:43.000Z</time>
      </trkpt>
      <trkpt lat="49.91431" lon="7.01602">
        <ele>115.774168</ele>
        <time>2022-08-24T10:45:45.000Z</time>
      </trkpt>
      <trkpt lat="49.91428" lon="7.01601">
        <ele>115.841822</ele>
        <time>2022-08-24T10:45:47.000Z</time>
      </trkpt>
      <trkpt lat="49.91425" lon="7.01601">
        <ele>115.916685</ele>
        <time>2022-08-24T10:45:51.000Z</time>
      </trkpt>
      <trkpt lat="49.91421" lon="7.01603">
        <ele>116.006937</ele>
        <time>2022-08-24T10:45:54.000Z</time>
      </trkpt>
      <trkpt lat="49.9142" lon="7.01606">
        <ele>116.06365</ele>
        <time>2022-08-24T10:45:55.000Z</time>
      </trkpt>
      <trkpt lat="49.91417" lon="7.01632">
        <ele>116.45645</ele>
        <time>2022-08-24T10:46:01.000Z</time>
      </trkpt>
      <trkpt lat="49.91413" lon="7.01662">
        <ele>116.913266</ele>
        <time>2022-08-24T10:46:07.000Z</time>
      </trkpt>
      <trkpt lat="49.91412" lon="7.01677">
        <ele>117.140186</ele>
        <time>2022-08-24T10:46:10.000Z</time>
      </trkpt>
      <trkpt lat="49.91411" lon="7.01692">
        <ele>117.371766</ele>
        <time>2022-08-24T10:46:13.000Z</time>
      </trkpt>
      <trkpt lat="49.9141" lon="7.0171">
        <ele>117.645557</ele>
        <time>2022-08-24T10:46:16.000Z</time>
      </trkpt>
      <trkpt lat="49.91407" lon="7.01751">
        <ele>117.883837</ele>
        <time>2022-08-24T10:46:23.000Z</time>
      </trkpt>
      <trkpt lat="49.91404" lon="7.01807">
        <ele>117.964082</ele>
        <time>2022-08-24T10:46:32.000Z</time>
      </trkpt>
      <trkpt lat="49.91397" lon="7.01847">
        <ele>118.023491</ele>
        <time>2022-08-24T10:46:38.000Z</time>
      </trkpt>
      <trkpt lat="49.91396" lon="7.01853">
        <ele>118.03226</ele>
        <time>2022-08-24T10:46:39.000Z</time>
      </trkpt>
      <trkpt lat="49.91396" lon="7.01864">
        <ele>118.047405</ele>
        <time>2022-08-24T10:46:41.000Z</time>
      </trkpt>
      <trkpt lat="49.91395" lon="7.0187">
        <ele>118.055957</ele>
        <time>2022-08-24T10:46:42.000Z</time>
      </trkpt>
      <trkpt lat="49.91393" lon="7.01887">
        <ele>118.080411</ele>
        <time>2022-08-24T10:46:45.000Z</time>
      </trkpt>
      <trkpt lat="49.91391" lon="7.01923">
        <ele>118.131603</ele>
        <time>2022-08-24T10:46:52.000Z</time>
      </trkpt>
      <trkpt lat="49.91391" lon="7.01942">
        <ele>118.159522</ele>
        <time>2022-08-24T10:46:57.000Z</time>
      </trkpt>
      <trkpt lat="49.91397" lon="7.0195">
        <ele>118.176245</ele>
        <time>2022-08-24T10:47:00.000Z</time>
      </trkpt>
      <trkpt lat="49.91399" lon="7.01951">
        <ele>118.182958</ele>
        <time>2022-08-24T10:47:01.000Z</time>
      </trkpt>
      <trkpt lat="49.91407" lon="7.01952">
        <ele>118.200677</ele>
        <time>2022-08-24T10:47:03.000Z</time>
      </trkpt>
      <trkpt lat="49.91416" lon="7.01953">
        <ele>118.220375</ele>
        <time>2022-08-24T10:47:05.000Z</time>
      </trkpt>
      <trkpt lat="49.91424" lon="7.01959">
        <ele>118.239222</ele>
        <time>2022-08-24T10:47:07.000Z</time>
      </trkpt>
      <trkpt lat="49.91426" lon="7.01965">
        <ele>118.227311</ele>
        <time>2022-08-24T10:47:08.000Z</time>
      </trkpt>
      <trkpt lat="49.91427" lon="7.01972">
        <ele>118.204979</ele>
        <time>2022-08-24T10:47:09.000Z</time>
      </trkpt>
      <trkpt lat="49.91429" lon="7.01995">
        <ele>118.129178</ele>
        <time>2022-08-24T10:47:12.000Z</time>
      </trkpt>
      <trkpt lat="49.91433" lon="7.02078">
        <ele>117.86301</ele>
        <time>2022-08-24T10:47:22.000Z</time>
      </trkpt>
      <trkpt lat="49.91436" lon="7.02149">
        <ele>117.634487</ele>
        <time>2022-08-24T10:47:30.000Z</time>
      </trkpt>
      <trkpt lat="49.91441" lon="7.02223">
        <ele>117.395338</ele>
        <time>2022-08-24T10:47:39.000Z</time>
      </trkpt>
      <trkpt lat="49.91442" lon="7.02239">
        <ele>117.344448</ele>
        <time>2022-08-24T10:47:41.000Z</time>
      </trkpt>
      <trkpt lat="49.91446" lon="7.02325">
        <ele>117.186099</ele>
        <time>2022-08-24T10:47:52.000Z</time>
      </trkpt>
      <trkpt lat="49.91447" lon="7.0234">
        <ele>117.157846</ele>
        <time>2022-08-24T10:47:54.000Z</time>
      </trkpt>
      <trkpt lat="49.91453" lon="7.02427">
        <ele>116.997752</ele>
        <time>2022-08-24T10:48:05.000Z</time>
      </trkpt>
      <trkpt lat="49.91457" lon="7.02475">
        <ele>116.909893</ele>
        <time>2022-08-24T10:48:11.000Z</time>
      </trkpt>
      <trkpt lat="49.9146" lon="7.02521">
        <ele>116.834082</ele>
        <time>2022-08-24T10:48:17.000Z</time>
      </trkpt>
      <trkpt lat="49.91462" lon="7.02583">
        <ele>116.846189</ele>
        <time>2022-08-24T10:48:26.000Z</time>
      </trkpt>
      <trkpt lat="49.91463" lon="7.02639">
        <ele>116.857076</ele>
        <time>2022-08-24T10:48:34.000Z</time>
      </trkpt>
      <trkpt lat="49.91463" lon="7.0272">
        <ele>116.872842</ele>
        <time>2022-08-24T10:48:45.000Z</time>
      </trkpt>
      <trkpt lat="49.91459" lon="7.028">
        <ele>116.877392</ele>
        <time>2022-08-24T10:48:56.000Z</time>
      </trkpt>
      <trkpt lat="49.91456" lon="7.02868">
        <ele>116.72604</ele>
        <time>2022-08-24T10:49:05.000Z</time>
      </trkpt>
      <trkpt lat="49.91453" lon="7.02952">
        <ele>116.540082</ele>
        <time>2022-08-24T10:49:15.000Z</time>
      </trkpt>
      <trkpt lat="49.91451" lon="7.0301">
        <ele>116.409667</ele>
        <time>2022-08-24T10:49:22.000Z</time>
      </trkpt>
      <trkpt lat="49.91448" lon="7.03067">
        <ele>116.283629</ele>
        <time>2022-08-24T10:49:29.000Z</time>
      </trkpt>
      <trkpt lat="49.91446" lon="7.03083">
        <ele>116.256976</ele>
        <time>2022-08-24T10:49:31.000Z</time>
      </trkpt>
      <trkpt lat="49.91437" lon="7.03168">
        <ele>116.159354</ele>
        <time>2022-08-24T10:49:41.000Z</time>
      </trkpt>
      <trkpt lat="49.91436" lon="7.03176">
        <ele>116.149665</ele>
        <time>2022-08-24T10:49:42.000Z</time>
      </trkpt>
      <trkpt lat="49.91432" lon="7.03202">
        <ele>116.119701</ele>
        <time>2022-08-24T10:49:45.000Z</time>
      </trkpt>
      <trkpt lat="49.91426" lon="7.03236">
        <ele>116.080027</ele>
        <time>2022-08-24T10:49:49.000Z</time>
      </trkpt>
      <trkpt lat="49.91418" lon="7.03284">
        <ele>116.023412</ele>
        <time>2022-08-24T10:49:55.000Z</time>
      </trkpt>
      <trkpt lat="49.91413" lon="7.03308">
        <ele>115.994216</ele>
        <time>2022-08-24T10:49:58.000Z</time>
      </trkpt>
      <trkpt lat="49.91392" lon="7.03389">
        <ele>115.688695</ele>
        <time>2022-08-24T10:50:08.000Z</time>
      </trkpt>
      <trkpt lat="49.91384" lon="7.03423">
        <ele>115.490049</ele>
        <time>2022-08-24T10:50:12.000Z</time>
      </trkpt>
      <trkpt lat="49.91373" lon="7.03465">
        <ele>115.240439</ele>
        <time>2022-08-24T10:50:17.000Z</time>
      </trkpt>
      <trkpt lat="49.91359" lon="7.03523">
        <ele>114.899916</ele>
        <time>2022-08-24T10:50:24.000Z</time>
      </trkpt>
      <trkpt lat="49.91353" lon="7.0354">
        <ele>114.797217</ele>
        <time>2022-08-24T10:50:26.000Z</time>
      </trkpt>
      <trkpt lat="49.91333" lon="7.03595">
        <ele>114.451305</ele>
        <time>2022-08-24T10:50:33.000Z</time>
      </trkpt>
      <trkpt lat="49.91311" lon="7.03659">
        <ele>114.29429</ele>
        <time>2022-08-24T10:50:41.000Z</time>
      </trkpt>
      <trkpt lat="49.91284" lon="7.03728">
        <ele>114.139896</ele>
        <time>2022-08-24T10:50:49.000Z</time>
      </trkpt>
      <trkpt lat="49.91273" lon="7.03752">
        <ele>114.082101</ele>
        <time>2022-08-24T10:50:52.000Z</time>
      </trkpt>
      <trkpt lat="49.9126" lon="7.03774">
        <ele>114.025571</ele>
        <time>2022-08-24T10:50:55.000Z</time>
      </trkpt>
      <trkpt lat="49.91222" lon="7.03844">
        <ele>113.85982</ele>
        <time>2022-08-24T10:51:05.000Z</time>
      </trkpt>
      <trkpt lat="49.91197" lon="7.03893">
        <ele>113.772141</ele>
        <time>2022-08-24T10:51:12.000Z</time>
      </trkpt>
      <trkpt lat="49.91167" lon="7.03947">
        <ele>113.673343</ele>
        <time>2022-08-24T10:51:21.000Z</time>
      </trkpt>
      <trkpt lat="49.91144" lon="7.0399">
        <ele>113.593852</ele>
        <time>2022-08-24T10:51:29.000Z</time>
      </trkpt>
      <trkpt lat="49.91141" lon="7.03995">
        <ele>113.5855</ele>
        <time>2022-08-24T10:51:30.000Z</time>
      </trkpt>
      <trkpt lat="49.9114" lon="7.04006">
        <ele>113.570689</ele>
        <time>2022-08-24T10:51:32.000Z</time>
      </trkpt>
      <trkpt lat="49.91151" lon="7.04019">
        <ele>113.541663</ele>
        <time>2022-08-24T10:51:36.000Z</time>
      </trkpt>
      <trkpt lat="49.91166" lon="7.04033">
        <ele>113.503644</ele>
        <time>2022-08-24T10:51:40.000Z</time>
      </trkpt>
      <trkpt lat="49.91168" lon="7.04038">
        <ele>113.490045</ele>
        <time>2022-08-24T10:51:41.000Z</time>
      </trkpt>
      <trkpt lat="49.91168" lon="7.0405">
        <ele>113.441749</ele>
        <time>2022-08-24T10:51:43.000Z</time>
      </trkpt>
      <trkpt lat="49.91166" lon="7.04054">
        <ele>113.416061</ele>
        <time>2022-08-24T10:51:44.000Z</time>
      </trkpt>
      <trkpt lat="49.91157" lon="7.04069">
        <ele>113.330852</ele>
        <time>2022-08-24T10:51:47.000Z</time>
      </trkpt>
      <trkpt lat="49.91154" lon="7.04075">
        <ele>113.300638</ele>
        <time>2022-08-24T10:51:48.000Z</time>
      </trkpt>
      <trkpt lat="49.91151" lon="7.0408">
        <ele>113.270194</ele>
        <time>2022-08-24T10:51:49.000Z</time>
      </trkpt>
      <trkpt lat="49.91143" lon="7.04095">
        <ele>113.190476</ele>
        <time>2022-08-24T10:51:54.000Z</time>
      </trkpt>
      <trkpt lat="49.91143" lon="7.04095">
        <ele>113.190476</ele>
        <time>2022-08-24T10:52:01.000Z</time>
      </trkpt>
      <trkpt lat="49.91143" lon="7.04095">
        <ele>113.188911</ele>
        <time>2022-08-24T10:52:30.000Z</time>
      </trkpt>
      <trkpt lat="49.91141" lon="7.04099">
        <ele>113.167166</ele>
        <time>2022-08-24T10:52:32.000Z</time>
      </trkpt>
      <trkpt lat="49.9114" lon="7.04102">
        <ele>113.151811</ele>
        <time>2022-08-24T10:52:33.000Z</time>
      </trkpt>
      <trkpt lat="49.91129" lon="7.0412">
        <ele>113.04851</ele>
        <time>2022-08-24T10:52:38.000Z</time>
      </trkpt>
      <trkpt lat="49.91111" lon="7.04155">
        <ele>112.859409</ele>
        <time>2022-08-24T10:52:45.000Z</time>
      </trkpt>
      <trkpt lat="49.91088" lon="7.04198">
        <ele>112.622266</ele>
        <time>2022-08-24T10:52:53.000Z</time>
      </trkpt>
      <trkpt lat="49.9107" lon="7.04234">
        <ele>112.428799</ele>
        <time>2022-08-24T10:52:59.000Z</time>
      </trkpt>
      <trkpt lat="49.91055" lon="7.04266">
        <ele>112.332932</ele>
        <time>2022-08-24T10:53:04.000Z</time>
      </trkpt>
      <trkpt lat="49.9104" lon="7.04296">
        <ele>112.392625</ele>
        <time>2022-08-24T10:53:09.000Z</time>
      </trkpt>
      <trkpt lat="49.91019" lon="7.0434">
        <ele>112.4767</ele>
        <time>2022-08-24T10:53:16.000Z</time>
      </trkpt>
      <trkpt lat="49.91016" lon="7.04347">
        <ele>112.489339</ele>
        <time>2022-08-24T10:53:17.000Z</time>
      </trkpt>
      <trkpt lat="49.90983" lon="7.0442">
        <ele>112.628252</ele>
        <time>2022-08-24T10:53:29.000Z</time>
      </trkpt>
      <trkpt lat="49.90965" lon="7.04461">
        <ele>112.705688</ele>
        <time>2022-08-24T10:53:36.000Z</time>
      </trkpt>
      <trkpt lat="49.90948" lon="7.04501">
        <ele>112.792937</ele>
        <time>2022-08-24T10:53:43.000Z</time>
      </trkpt>
      <trkpt lat="49.90944" lon="7.04514">
        <ele>112.825018</ele>
        <time>2022-08-24T10:53:45.000Z</time>
      </trkpt>
      <trkpt lat="49.90942" lon="7.04521">
        <ele>112.841009</ele>
        <time>2022-08-24T10:53:46.000Z</time>
      </trkpt>
      <trkpt lat="49.90934" lon="7.04558">
        <ele>112.926283</ele>
        <time>2022-08-24T10:53:51.000Z</time>
      </trkpt>
      <trkpt lat="49.90912" lon="7.04612">
        <ele>113.066607</ele>
        <time>2022-08-24T10:54:00.000Z</time>
      </trkpt>
      <trkpt lat="49.90886" lon="7.04661">
        <ele>113.207104</ele>
        <time>2022-08-24T10:54:08.000Z</time>
      </trkpt>
      <trkpt lat="49.90866" lon="7.04689">
        <ele>113.299174</ele>
        <time>2022-08-24T10:54:14.000Z</time>
      </trkpt>
      <trkpt lat="49.90863" lon="7.04694">
        <ele>113.313926</ele>
        <time>2022-08-24T10:54:15.000Z</time>
      </trkpt>
      <trkpt lat="49.90848" lon="7.0472">
        <ele>113.574413</ele>
        <time>2022-08-24T10:54:20.000Z</time>
      </trkpt>
      <trkpt lat="49.90826" lon="7.04758">
        <ele>114.380807</ele>
        <time>2022-08-24T10:54:27.000Z</time>
      </trkpt>
      <trkpt lat="49.90799" lon="7.04803">
        <ele>115.341156</ele>
        <time>2022-08-24T10:54:35.000Z</time>
      </trkpt>
      <trkpt lat="49.90792" lon="7.04814">
        <ele>115.591245</ele>
        <time>2022-08-24T10:54:37.000Z</time>
      </trkpt>
      <trkpt lat="49.90784" lon="7.04816">
        <ele>115.782668</ele>
        <time>2022-08-24T10:54:39.000Z</time>
      </trkpt>
      <trkpt lat="49.90775" lon="7.04811">
        <ele>116.019964</ele>
        <time>2022-08-24T10:54:42.000Z</time>
      </trkpt>
      <trkpt lat="49.90767" lon="7.04804">
        <ele>116.238461</ele>
        <time>2022-08-24T10:54:46.000Z</time>
      </trkpt>
      <trkpt lat="49.90766" lon="7.04802">
        <ele>116.283857</ele>
        <time>2022-08-24T10:54:47.000Z</time>
      </trkpt>
      <trkpt lat="49.90765" lon="7.04799">
        <ele>116.330871</ele>
        <time>2022-08-24T10:54:48.000Z</time>
      </trkpt>
      <trkpt lat="49.90764" lon="7.04798">
        <ele>116.374324</ele>
        <time>2022-08-24T10:54:49.000Z</time>
      </trkpt>
      <trkpt lat="49.90756" lon="7.04789">
        <ele>116.595541</ele>
        <time>2022-08-24T10:54:53.000Z</time>
      </trkpt>
      <trkpt lat="49.90754" lon="7.04788">
        <ele>116.649959</ele>
        <time>2022-08-24T10:54:54.000Z</time>
      </trkpt>
      <trkpt lat="49.9075" lon="7.04786">
        <ele>116.748195</ele>
        <time>2022-08-24T10:54:56.000Z</time>
      </trkpt>
      <trkpt lat="49.90749" lon="7.04788">
        <ele>116.786867</ele>
        <time>2022-08-24T10:54:57.000Z</time>
      </trkpt>
      <trkpt lat="49.90748" lon="7.04789">
        <ele>116.822749</ele>
        <time>2022-08-24T10:54:58.000Z</time>
      </trkpt>
      <trkpt lat="49.90748" lon="7.04791">
        <ele>116.846592</ele>
        <time>2022-08-24T10:55:00.000Z</time>
      </trkpt>
      <trkpt lat="49.90748" lon="7.04791">
        <ele>116.846592</ele>
        <time>2022-08-24T10:55:03.000Z</time>
      </trkpt>
      <trkpt lat="49.90747" lon="7.04793">
        <ele>116.886311</ele>
        <time>2022-08-24T10:55:09.000Z</time>
      </trkpt>
      <trkpt lat="49.90746" lon="7.04797">
        <ele>116.96056</ele>
        <time>2022-08-24T10:55:11.000Z</time>
      </trkpt>
      <trkpt lat="49.90739" lon="7.04813">
        <ele>117.253148</ele>
        <time>2022-08-24T10:55:16.000Z</time>
      </trkpt>
      <trkpt lat="49.90728" lon="7.04845">
        <ele>117.685424</ele>
        <time>2022-08-24T10:55:22.000Z</time>
      </trkpt>
      <trkpt lat="49.90711" lon="7.04892">
        <ele>116.886646</ele>
        <time>2022-08-24T10:55:29.000Z</time>
      </trkpt>
      <trkpt lat="49.90709" lon="7.049">
        <ele>116.75451</ele>
        <time>2022-08-24T10:55:30.000Z</time>
      </trkpt>
      <trkpt lat="49.90696" lon="7.04941">
        <ele>116.08007</ele>
        <time>2022-08-24T10:55:35.000Z</time>
      </trkpt>
      <trkpt lat="49.90687" lon="7.0498">
        <ele>115.465423</ele>
        <time>2022-08-24T10:55:39.000Z</time>
      </trkpt>
      <trkpt lat="49.90678" lon="7.05013">
        <ele>114.9309</ele>
        <time>2022-08-24T10:55:43.000Z</time>
      </trkpt>
      <trkpt lat="49.90676" lon="7.05021">
        <ele>114.812083</ele>
        <time>2022-08-24T10:55:44.000Z</time>
      </trkpt>
      <trkpt lat="49.90671" lon="7.05049">
        <ele>114.378045</ele>
        <time>2022-08-24T10:55:47.000Z</time>
      </trkpt>
      <trkpt lat="49.90667" lon="7.05071">
        <ele>114.029756</ele>
        <time>2022-08-24T10:55:49.000Z</time>
      </trkpt>
      <trkpt lat="49.90662" lon="7.05095">
        <ele>113.654918</ele>
        <time>2022-08-24T10:55:51.000Z</time>
      </trkpt>
      <trkpt lat="49.9066" lon="7.05104">
        <ele>113.591089</ele>
        <time>2022-08-24T10:55:52.000Z</time>
      </trkpt>
      <trkpt lat="49.90658" lon="7.05115">
        <ele>113.562977</ele>
        <time>2022-08-24T10:55:53.000Z</time>
      </trkpt>
      <trkpt lat="49.90648" lon="7.05154">
        <ele>113.455498</ele>
        <time>2022-08-24T10:55:57.000Z</time>
      </trkpt>
      <trkpt lat="49.90638" lon="7.05212">
        <ele>113.307204</ele>
        <time>2022-08-24T10:56:03.000Z</time>
      </trkpt>
      <trkpt lat="49.90625" lon="7.05289">
        <ele>113.107553</ele>
        <time>2022-08-24T10:56:11.000Z</time>
      </trkpt>
      <trkpt lat="49.90618" lon="7.05332">
        <ele>112.994507</ele>
        <time>2022-08-24T10:56:16.000Z</time>
      </trkpt>
      <trkpt lat="49.90615" lon="7.0535">
        <ele>112.947029</ele>
        <time>2022-08-24T10:56:18.000Z</time>
      </trkpt>
      <trkpt lat="49.90609" lon="7.05419">
        <ele>113.022832</ele>
        <time>2022-08-24T10:56:26.000Z</time>
      </trkpt>
      <trkpt lat="49.90606" lon="7.05488">
        <ele>113.177938</ele>
        <time>2022-08-24T10:56:34.000Z</time>
      </trkpt>
      <trkpt lat="49.90609" lon="7.05521">
        <ele>113.253517</ele>
        <time>2022-08-24T10:56:38.000Z</time>
      </trkpt>
      <trkpt lat="49.90615" lon="7.05562">
        <ele>113.347881</ele>
        <time>2022-08-24T10:56:43.000Z</time>
      </trkpt>
      <trkpt lat="49.90622" lon="7.05601">
        <ele>113.439669</ele>
        <time>2022-08-24T10:56:48.000Z</time>
      </trkpt>
      <trkpt lat="49.90627" lon="7.05625">
        <ele>113.495604</ele>
        <time>2022-08-24T10:56:51.000Z</time>
      </trkpt>
      <trkpt lat="49.90643" lon="7.05697">
        <ele>113.606264</ele>
        <time>2022-08-24T10:57:00.000Z</time>
      </trkpt>
      <trkpt lat="49.90659" lon="7.05774">
        <ele>113.706162</ele>
        <time>2022-08-24T10:57:10.000Z</time>
      </trkpt>
      <trkpt lat="49.90663" lon="7.05798">
        <ele>113.736577</ele>
        <time>2022-08-24T10:57:13.000Z</time>
      </trkpt>
      <trkpt lat="49.90667" lon="7.05821">
        <ele>113.76541</ele>
        <time>2022-08-24T10:57:16.000Z</time>
      </trkpt>
      <trkpt lat="49.90668" lon="7.05828">
        <ele>113.774982</ele>
        <time>2022-08-24T10:57:17.000Z</time>
      </trkpt>
      <trkpt lat="49.90672" lon="7.05851">
        <ele>113.80374</ele>
        <time>2022-08-24T10:57:20.000Z</time>
      </trkpt>
      <trkpt lat="49.90676" lon="7.05866">
        <ele>113.824052</ele>
        <time>2022-08-24T10:57:22.000Z</time>
      </trkpt>
      <trkpt lat="49.90689" lon="7.05934">
        <ele>113.842528</ele>
        <time>2022-08-24T10:57:31.000Z</time>
      </trkpt>
      <trkpt lat="49.90704" lon="7.05994">
        <ele>113.76581</ele>
        <time>2022-08-24T10:57:39.000Z</time>
      </trkpt>
      <trkpt lat="49.90707" lon="7.06001">
        <ele>113.755648</ele>
        <time>2022-08-24T10:57:40.000Z</time>
      </trkpt>
      <trkpt lat="49.90719" lon="7.06037">
        <ele>113.706325</ele>
        <time>2022-08-24T10:57:45.000Z</time>
      </trkpt>
      <trkpt lat="49.90744" lon="7.06116">
        <ele>113.600727</ele>
        <time>2022-08-24T10:57:55.000Z</time>
      </trkpt>
      <trkpt lat="49.90748" lon="7.0613">
        <ele>113.581967</ele>
        <time>2022-08-24T10:57:57.000Z</time>
      </trkpt>
      <trkpt lat="49.90751" lon="7.06137">
        <ele>113.572514</ele>
        <time>2022-08-24T10:57:58.000Z</time>
      </trkpt>
      <trkpt lat="49.90757" lon="7.06158">
        <ele>113.544308</ele>
        <time>2022-08-24T10:58:01.000Z</time>
      </trkpt>
      <trkpt lat="49.90766" lon="7.06184">
        <ele>113.814255</ele>
        <time>2022-08-24T10:58:05.000Z</time>
      </trkpt>
      <trkpt lat="49.90771" lon="7.06204">
        <ele>114.052867</ele>
        <time>2022-08-24T10:58:08.000Z</time>
      </trkpt>
      <trkpt lat="49.90784" lon="7.06254">
        <ele>114.635181</ele>
        <time>2022-08-24T10:58:15.000Z</time>
      </trkpt>
      <trkpt lat="49.90795" lon="7.06318">
        <ele>115.346296</ele>
        <time>2022-08-24T10:58:24.000Z</time>
      </trkpt>
      <trkpt lat="49.90796" lon="7.06323">
        <ele>115.405029</ele>
        <time>2022-08-24T10:58:25.000Z</time>
      </trkpt>
      <trkpt lat="49.90801" lon="7.06352">
        <ele>115.721901</ele>
        <time>2022-08-24T10:58:31.000Z</time>
      </trkpt>
      <trkpt lat="49.90801" lon="7.06356">
        <ele>115.769045</ele>
        <time>2022-08-24T10:58:32.000Z</time>
      </trkpt>
      <trkpt lat="49.90806" lon="7.06377">
        <ele>116.00902</ele>
        <time>2022-08-24T10:58:38.000Z</time>
      </trkpt>
      <trkpt lat="49.90808" lon="7.06385">
        <ele>116.104566</ele>
        <time>2022-08-24T10:58:40.000Z</time>
      </trkpt>
      <trkpt lat="49.90812" lon="7.06423">
        <ele>116.514764</ele>
        <time>2022-08-24T10:58:47.000Z</time>
      </trkpt>
      <trkpt lat="49.90819" lon="7.06454">
        <ele>116.454812</ele>
        <time>2022-08-24T10:58:52.000Z</time>
      </trkpt>
      <trkpt lat="49.9083" lon="7.06504">
        <ele>116.275646</ele>
        <time>2022-08-24T10:58:59.000Z</time>
      </trkpt>
      <trkpt lat="49.90835" lon="7.06525">
        <ele>116.203918</ele>
        <time>2022-08-24T10:59:02.000Z</time>
      </trkpt>
      <trkpt lat="49.90838" lon="7.06539">
        <ele>116.152842</ele>
        <time>2022-08-24T10:59:04.000Z</time>
      </trkpt>
      <trkpt lat="49.90842" lon="7.0655">
        <ele>116.112069</ele>
        <time>2022-08-24T10:59:06.000Z</time>
      </trkpt>
      <trkpt lat="49.90845" lon="7.06557">
        <ele>116.083938</ele>
        <time>2022-08-24T10:59:07.000Z</time>
      </trkpt>
      <trkpt lat="49.90856" lon="7.06586">
        <ele>115.970702</ele>
        <time>2022-08-24T10:59:12.000Z</time>
      </trkpt>
      <trkpt lat="49.90867" lon="7.06617">
        <ele>115.85371</ele>
        <time>2022-08-24T10:59:17.000Z</time>
      </trkpt>
      <trkpt lat="49.90875" lon="7.0664">
        <ele>115.763737</ele>
        <time>2022-08-24T10:59:21.000Z</time>
      </trkpt>
      <trkpt lat="49.90887" lon="7.06673">
        <ele>115.63957</ele>
        <time>2022-08-24T10:59:28.000Z</time>
      </trkpt>
      <trkpt lat="49.90893" lon="7.06686">
        <ele>115.599644</ele>
        <time>2022-08-24T10:59:32.000Z</time>
      </trkpt>
      <trkpt lat="49.90894" lon="7.06688">
        <ele>115.595493</ele>
        <time>2022-08-24T10:59:33.000Z</time>
      </trkpt>
      <trkpt lat="49.90899" lon="7.06706">
        <ele>115.556635</ele>
        <time>2022-08-24T10:59:38.000Z</time>
      </trkpt>
      <trkpt lat="49.90907" lon="7.0673">
        <ele>115.50324</ele>
        <time>2022-08-24T10:59:42.000Z</time>
      </trkpt>
      <trkpt lat="49.90909" lon="7.06737">
        <ele>115.488624</ele>
        <time>2022-08-24T10:59:43.000Z</time>
      </trkpt>
      <trkpt lat="49.90922" lon="7.06774">
        <ele>115.404993</ele>
        <time>2022-08-24T10:59:48.000Z</time>
      </trkpt>
      <trkpt lat="49.90926" lon="7.06781">
        <ele>115.388292</ele>
        <time>2022-08-24T10:59:49.000Z</time>
      </trkpt>
      <trkpt lat="49.90936" lon="7.068">
        <ele>115.338238</ele>
        <time>2022-08-24T10:59:52.000Z</time>
      </trkpt>
      <trkpt lat="49.90944" lon="7.06813">
        <ele>115.304308</ele>
        <time>2022-08-24T10:59:54.000Z</time>
      </trkpt>
      <trkpt lat="49.90948" lon="7.06819">
        <ele>115.287415</ele>
        <time>2022-08-24T10:59:55.000Z</time>
      </trkpt>
      <trkpt lat="49.90952" lon="7.06825">
        <ele>115.271047</ele>
        <time>2022-08-24T10:59:56.000Z</time>
      </trkpt>
      <trkpt lat="49.90956" lon="7.0683">
        <ele>115.25531</ele>
        <time>2022-08-24T10:59:57.000Z</time>
      </trkpt>
      <trkpt lat="49.90984" lon="7.06872">
        <ele>115.134835</ele>
        <time>2022-08-24T11:00:05.000Z</time>
      </trkpt>
      <trkpt lat="49.90995" lon="7.06887">
        <ele>115.091092</ele>
        <time>2022-08-24T11:00:08.000Z</time>
      </trkpt>
      <trkpt lat="49.91019" lon="7.06914">
        <ele>115.036131</ele>
        <time>2022-08-24T11:00:14.000Z</time>
      </trkpt>
      <trkpt lat="49.91023" lon="7.0692">
        <ele>115.027902</ele>
        <time>2022-08-24T11:00:15.000Z</time>
      </trkpt>
      <trkpt lat="49.91043" lon="7.06948">
        <ele>114.987054</ele>
        <time>2022-08-24T11:00:20.000Z</time>
      </trkpt>
      <trkpt lat="49.91075" lon="7.06992">
        <ele>114.9216</ele>
        <time>2022-08-24T11:00:28.000Z</time>
      </trkpt>
      <trkpt lat="49.91113" lon="7.07044">
        <ele>114.842342</ele>
        <time>2022-08-24T11:00:38.000Z</time>
      </trkpt>
      <trkpt lat="49.91147" lon="7.07091">
        <ele>114.741632</ele>
        <time>2022-08-24T11:00:47.000Z</time>
      </trkpt>
      <trkpt lat="49.91156" lon="7.07107">
        <ele>114.693747</ele>
        <time>2022-08-24T11:00:50.000Z</time>
      </trkpt>
      <trkpt lat="49.91179" lon="7.07142">
        <ele>114.577294</ele>
        <time>2022-08-24T11:00:58.000Z</time>
      </trkpt>
      <trkpt lat="49.91196" lon="7.07171">
        <ele>114.486398</ele>
        <time>2022-08-24T11:01:05.000Z</time>
      </trkpt>
      <trkpt lat="49.91198" lon="7.07174">
        <ele>114.474779</ele>
        <time>2022-08-24T11:01:06.000Z</time>
      </trkpt>
      <trkpt lat="49.91202" lon="7.07181">
        <ele>114.454918</ele>
        <time>2022-08-24T11:01:08.000Z</time>
      </trkpt>
      <trkpt lat="49.91207" lon="7.07182">
        <ele>114.437767</ele>
        <time>2022-08-24T11:01:10.000Z</time>
      </trkpt>
      <trkpt lat="49.9122" lon="7.07189">
        <ele>114.38724</ele>
        <time>2022-08-24T11:01:15.000Z</time>
      </trkpt>
      <trkpt lat="49.91222" lon="7.07192">
        <ele>114.377124</ele>
        <time>2022-08-24T11:01:16.000Z</time>
      </trkpt>
      <trkpt lat="49.91236" lon="7.07208">
        <ele>114.314938</ele>
        <time>2022-08-24T11:01:22.000Z</time>
      </trkpt>
      <trkpt lat="49.91241" lon="7.07214">
        <ele>114.291147</ele>
        <time>2022-08-24T11:01:24.000Z</time>
      </trkpt>
      <trkpt lat="49.91259" lon="7.07234">
        <ele>114.211103</ele>
        <time>2022-08-24T11:01:31.000Z</time>
      </trkpt>
      <trkpt lat="49.91264" lon="7.0724">
        <ele>114.189881</ele>
        <time>2022-08-24T11:01:33.000Z</time>
      </trkpt>
      <trkpt lat="49.91283" lon="7.07259">
        <ele>114.166212</ele>
        <time>2022-08-24T11:01:40.000Z</time>
      </trkpt>
      <trkpt lat="49.91307" lon="7.07282">
        <ele>114.21276</ele>
        <time>2022-08-24T11:01:49.000Z</time>
      </trkpt>
      <trkpt lat="49.91316" lon="7.0729">
        <ele>114.23002</ele>
        <time>2022-08-24T11:01:52.000Z</time>
      </trkpt>
      <trkpt lat="49.91338" lon="7.07309">
        <ele>114.271427</ele>
        <time>2022-08-24T11:02:00.000Z</time>
      </trkpt>
      <trkpt lat="49.91358" lon="7.07326">
        <ele>114.309455</ele>
        <time>2022-08-24T11:02:07.000Z</time>
      </trkpt>
      <trkpt lat="49.91361" lon="7.07329">
        <ele>114.315702</ele>
        <time>2022-08-24T11:02:08.000Z</time>
      </trkpt>
      <trkpt lat="49.91388" lon="7.07347">
        <ele>114.363992</ele>
        <time>2022-08-24T11:02:16.000Z</time>
      </trkpt>
      <trkpt lat="49.914" lon="7.07356">
        <ele>114.386977</ele>
        <time>2022-08-24T11:02:19.000Z</time>
      </trkpt>
      <trkpt lat="49.91411" lon="7.07367">
        <ele>114.407477</ele>
        <time>2022-08-24T11:02:22.000Z</time>
      </trkpt>
      <trkpt lat="49.91423" lon="7.07376">
        <ele>114.430507</ele>
        <time>2022-08-24T11:02:25.000Z</time>
      </trkpt>
      <trkpt lat="49.91439" lon="7.07386">
        <ele>114.446407</ele>
        <time>2022-08-24T11:02:29.000Z</time>
      </trkpt>
      <trkpt lat="49.91453" lon="7.07393">
        <ele>114.446407</ele>
        <time>2022-08-24T11:02:34.000Z</time>
      </trkpt>
      <trkpt lat="49.91458" lon="7.07406">
        <ele>114.446407</ele>
        <time>2022-08-24T11:02:38.000Z</time>
      </trkpt>
      <trkpt lat="49.91455" lon="7.07426">
        <ele>114.446407</ele>
        <time>2022-08-24T11:02:43.000Z</time>
      </trkpt>
      <trkpt lat="49.91452" lon="7.07451">
        <ele>114.446407</ele>
        <time>2022-08-24T11:02:48.000Z</time>
      </trkpt>
      <trkpt lat="49.91452" lon="7.0746">
        <ele>114.446407</ele>
        <time>2022-08-24T11:02:51.000Z</time>
      </trkpt>
      <trkpt lat="49.91451" lon="7.07464">
        <ele>114.446407</ele>
        <time>2022-08-24T11:02:53.000Z</time>
      </trkpt>
      <trkpt lat="49.91451" lon="7.07466">
        <ele>114.446407</ele>
        <time>2022-08-24T11:02:56.000Z</time>
      </trkpt>
      <trkpt lat="49.91451" lon="7.07466">
        <ele>114.446407</ele>
        <time>2022-08-24T11:03:01.000Z</time>
      </trkpt>
      <trkpt lat="49.91451" lon="7.07466">
        <ele>114.446407</ele>
        <time>2022-08-24T11:03:14.000Z</time>
      </trkpt>
      <trkpt lat="49.91453" lon="7.07466">
        <ele>114.446407</ele>
        <time>2022-08-24T11:03:15.000Z</time>
      </trkpt>
      <trkpt lat="49.91461" lon="7.07466">
        <ele>114.446407</ele>
        <time>2022-08-24T11:03:20.000Z</time>
      </trkpt>
      <trkpt lat="49.91463" lon="7.07466">
        <ele>114.446407</ele>
        <time>2022-08-24T11:03:21.000Z</time>
      </trkpt>
      <trkpt lat="49.91466" lon="7.07465">
        <ele>114.446407</ele>
        <time>2022-08-24T11:03:23.000Z</time>
      </trkpt>
      <trkpt lat="49.9147" lon="7.07464">
        <ele>114.446407</ele>
        <time>2022-08-24T11:03:26.000Z</time>
      </trkpt>
      <trkpt lat="49.91472" lon="7.07465">
        <ele>114.446407</ele>
        <time>2022-08-24T11:03:28.000Z</time>
      </trkpt>
      <trkpt lat="49.91486" lon="7.07464">
        <ele>114.446407</ele>
        <time>2022-08-24T11:03:34.000Z</time>
      </trkpt>
      <trkpt lat="49.91501" lon="7.07464">
        <ele>114.446407</ele>
        <time>2022-08-24T11:03:42.000Z</time>
      </trkpt>
      <trkpt lat="49.91508" lon="7.07464">
        <ele>114.446407</ele>
        <time>2022-08-24T11:03:45.000Z</time>
      </trkpt>
      <trkpt lat="49.91515" lon="7.07464">
        <ele>114.446407</ele>
        <time>2022-08-24T11:03:50.000Z</time>
      </trkpt>
      <trkpt lat="49.9152" lon="7.07464">
        <ele>114.446407</ele>
        <time>2022-08-24T11:03:56.000Z</time>
      </trkpt>
      <trkpt lat="49.9152" lon="7.07464">
        <ele>114.446407</ele>
        <time>2022-08-24T11:04:22.000Z</time>
      </trkpt>
      <trkpt lat="49.91523" lon="7.07469">
        <ele>114.446407</ele>
        <time>2022-08-24T11:04:25.000Z</time>
      </trkpt>
      <trkpt lat="49.91532" lon="7.07467">
        <ele>114.446407</ele>
        <time>2022-08-24T11:04:30.000Z</time>
      </trkpt>
      <trkpt lat="49.91533" lon="7.07468">
        <ele>114.446407</ele>
        <time>2022-08-24T11:04:31.000Z</time>
      </trkpt>
      <trkpt lat="49.91539" lon="7.07478">
        <ele>114.446407</ele>
        <time>2022-08-24T11:04:35.000Z</time>
      </trkpt>
      <trkpt lat="49.9154" lon="7.07479">
        <ele>114.446407</ele>
        <time>2022-08-24T11:04:36.000Z</time>
      </trkpt>
      <trkpt lat="49.91542" lon="7.07483">
        <ele>114.446407</ele>
        <time>2022-08-24T11:04:40.000Z</time>
      </trkpt>
      <trkpt lat="49.91543" lon="7.07484">
        <ele>114.446407</ele>
        <time>2022-08-24T11:04:44.000Z</time>
      </trkpt>
      <trkpt lat="49.91543" lon="7.07485">
        <ele>114.446407</ele>
        <time>2022-08-24T11:04:46.000Z</time>
      </trkpt>
      <trkpt lat="49.91543" lon="7.07485">
        <ele>114.446407</ele>
        <time>2022-08-24T11:04:53.000Z</time>
      </trkpt>
      <trkpt lat="49.91543" lon="7.07485">
        <ele>114.446407</ele>
        <time>2022-08-24T11:04:58.000Z</time>
      </trkpt>
      <trkpt lat="49.91543" lon="7.07485">
        <ele>114.446407</ele>
        <time>2022-08-24T11:05:52.000Z</time>
      </trkpt>
    </trkseg>
  </trk>
</gpx>